<?xml version="1.0" encoding="UTF-8" standalone="no" ?>
<gpx xmlns="http://www.topografix.com/GPX/1/1" xmlns:xsi="http://www.w3.org/2001/XMLSchema-instance" xsi:schemaLocation="http://www.topografix.com/GPX/1/1 http://www.topografix.com/GPX/1/1/gpx.xsd" version="1.1" creator="VisuGPX - https://www.visugpx.com">
  <metadata>
    <name>Edirne-Mostar</name>
  </metadata>
  <trk>
    <name><![CDATA[Tour d'Europe: étape 609]]></name>
    <extensions>
      <line xmlns="http://www.topografix.com/GPX/gpx_style/0/2">
        <color>008800</color>
        <width>4</width>
      </line>
    </extensions>
    <trkseg>
      <trkpt lat="41.84446" lon="26.08254">
        <ele>119.888211</ele>
        <time>2022-02-27T07:28:10.619Z</time>
      </trkpt>
      <trkpt lat="41.84438" lon="26.08234">
        <ele>119.888211</ele>
        <time>2022-02-27T07:28:14.592Z</time>
      </trkpt>
      <trkpt lat="41.84444" lon="26.08223">
        <ele>119.888211</ele>
        <time>2022-02-27T07:28:18.641Z</time>
      </trkpt>
      <trkpt lat="41.84453" lon="26.08214">
        <ele>119.888211</ele>
        <time>2022-02-27T07:28:23.595Z</time>
      </trkpt>
      <trkpt lat="41.84459" lon="26.08201">
        <ele>119.888211</ele>
        <time>2022-02-27T07:28:28.568Z</time>
      </trkpt>
      <trkpt lat="41.84467" lon="26.08192">
        <ele>119.888211</ele>
        <time>2022-02-27T07:28:32.587Z</time>
      </trkpt>
      <trkpt lat="41.84478" lon="26.08195">
        <ele>119.888211</ele>
        <time>2022-02-27T07:28:35.588Z</time>
      </trkpt>
      <trkpt lat="41.84486" lon="26.08205">
        <ele>119.888211</ele>
        <time>2022-02-27T07:28:38.577Z</time>
      </trkpt>
      <trkpt lat="41.84495" lon="26.08214">
        <ele>119.876049</ele>
        <time>2022-02-27T07:28:41.592Z</time>
      </trkpt>
      <trkpt lat="41.84502" lon="26.08223">
        <ele>119.834721</ele>
        <time>2022-02-27T07:28:44.603Z</time>
      </trkpt>
      <trkpt lat="41.84509" lon="26.08232">
        <ele>119.795872</ele>
        <time>2022-02-27T07:28:47.602Z</time>
      </trkpt>
      <trkpt lat="41.84517" lon="26.08242">
        <ele>119.752359</ele>
        <time>2022-02-27T07:28:50.606Z</time>
      </trkpt>
      <trkpt lat="41.84526" lon="26.08254">
        <ele>119.704589</ele>
        <time>2022-02-27T07:28:53.600Z</time>
      </trkpt>
      <trkpt lat="41.84533" lon="26.08264">
        <ele>119.663434</ele>
        <time>2022-02-27T07:28:56.613Z</time>
      </trkpt>
      <trkpt lat="41.8454" lon="26.08273">
        <ele>119.625035</ele>
        <time>2022-02-27T07:28:59.605Z</time>
      </trkpt>
      <trkpt lat="41.84548" lon="26.08283">
        <ele>119.580082</ele>
        <time>2022-02-27T07:29:02.594Z</time>
      </trkpt>
      <trkpt lat="41.84556" lon="26.08293">
        <ele>119.536453</ele>
        <time>2022-02-27T07:29:05.579Z</time>
      </trkpt>
      <trkpt lat="41.84563" lon="26.08303">
        <ele>119.494629</ele>
        <time>2022-02-27T07:29:08.599Z</time>
      </trkpt>
      <trkpt lat="41.84572" lon="26.08314">
        <ele>119.448028</ele>
        <time>2022-02-27T07:29:11.612Z</time>
      </trkpt>
      <trkpt lat="41.8458" lon="26.08325">
        <ele>119.40089</ele>
        <time>2022-02-27T07:29:14.611Z</time>
      </trkpt>
      <trkpt lat="41.84588" lon="26.08335">
        <ele>119.355571</ele>
        <time>2022-02-27T07:29:17.631Z</time>
      </trkpt>
      <trkpt lat="41.84596" lon="26.08346">
        <ele>119.310819</ele>
        <time>2022-02-27T07:29:20.643Z</time>
      </trkpt>
      <trkpt lat="41.84604" lon="26.08357">
        <ele>119.267267</ele>
        <time>2022-02-27T07:29:23.589Z</time>
      </trkpt>
      <trkpt lat="41.84611" lon="26.08366">
        <ele>119.22634</ele>
        <time>2022-02-27T07:29:26.582Z</time>
      </trkpt>
      <trkpt lat="41.84619" lon="26.08377">
        <ele>119.181589</ele>
        <time>2022-02-27T07:29:29.599Z</time>
      </trkpt>
      <trkpt lat="41.84627" lon="26.08387">
        <ele>118.82508</ele>
        <time>2022-02-27T07:29:32.600Z</time>
      </trkpt>
      <trkpt lat="41.84634" lon="26.08397">
        <ele>118.370115</ele>
        <time>2022-02-27T07:29:35.611Z</time>
      </trkpt>
      <trkpt lat="41.84641" lon="26.08407">
        <ele>117.922875</ele>
        <time>2022-02-27T07:29:38.595Z</time>
      </trkpt>
      <trkpt lat="41.84647" lon="26.08417">
        <ele>117.487819</ele>
        <time>2022-02-27T07:29:41.582Z</time>
      </trkpt>
      <trkpt lat="41.84654" lon="26.08426">
        <ele>117.062847</ele>
        <time>2022-02-27T07:29:44.606Z</time>
      </trkpt>
      <trkpt lat="41.84663" lon="26.08434">
        <ele>116.602291</ele>
        <time>2022-02-27T07:29:47.592Z</time>
      </trkpt>
      <trkpt lat="41.84673" lon="26.08441">
        <ele>116.113123</ele>
        <time>2022-02-27T07:29:50.583Z</time>
      </trkpt>
      <trkpt lat="41.84685" lon="26.08448">
        <ele>115.555128</ele>
        <time>2022-02-27T07:29:53.592Z</time>
      </trkpt>
      <trkpt lat="41.84697" lon="26.0845">
        <ele>115.026516</ele>
        <time>2022-02-27T07:29:56.624Z</time>
      </trkpt>
      <trkpt lat="41.84707" lon="26.0845">
        <ele>114.570349</ele>
        <time>2022-02-27T07:29:59.598Z</time>
      </trkpt>
      <trkpt lat="41.84718" lon="26.0845">
        <ele>114.101112</ele>
        <time>2022-02-27T07:30:02.593Z</time>
      </trkpt>
      <trkpt lat="41.84729" lon="26.08448">
        <ele>113.608744</ele>
        <time>2022-02-27T07:30:05.601Z</time>
      </trkpt>
      <trkpt lat="41.84741" lon="26.08448">
        <ele>113.073037</ele>
        <time>2022-02-27T07:30:08.595Z</time>
      </trkpt>
      <trkpt lat="41.84754" lon="26.08446">
        <ele>112.501715</ele>
        <time>2022-02-27T07:30:11.602Z</time>
      </trkpt>
      <trkpt lat="41.84764" lon="26.08446">
        <ele>112.072041</ele>
        <time>2022-02-27T07:30:13.649Z</time>
      </trkpt>
      <trkpt lat="41.84774" lon="26.08447">
        <ele>111.637934</ele>
        <time>2022-02-27T07:30:15.592Z</time>
      </trkpt>
      <trkpt lat="41.84784" lon="26.08447">
        <ele>111.265276</ele>
        <time>2022-02-27T07:30:17.625Z</time>
      </trkpt>
      <trkpt lat="41.84795" lon="26.08446">
        <ele>111.192073</ele>
        <time>2022-02-27T07:30:19.600Z</time>
      </trkpt>
      <trkpt lat="41.84805" lon="26.08446">
        <ele>111.118825</ele>
        <time>2022-02-27T07:30:21.589Z</time>
      </trkpt>
      <trkpt lat="41.84816" lon="26.08445">
        <ele>111.039908</ele>
        <time>2022-02-27T07:30:23.607Z</time>
      </trkpt>
      <trkpt lat="41.84827" lon="26.08444">
        <ele>110.963672</ele>
        <time>2022-02-27T07:30:25.708Z</time>
      </trkpt>
      <trkpt lat="41.84837" lon="26.08443">
        <ele>110.891756</ele>
        <time>2022-02-27T07:30:27.588Z</time>
      </trkpt>
      <trkpt lat="41.84847" lon="26.08443">
        <ele>110.823464</ele>
        <time>2022-02-27T07:30:29.595Z</time>
      </trkpt>
      <trkpt lat="41.84859" lon="26.08444">
        <ele>110.736622</ele>
        <time>2022-02-27T07:30:32.594Z</time>
      </trkpt>
      <trkpt lat="41.84866" lon="26.08452">
        <ele>110.673255</ele>
        <time>2022-02-27T07:30:36.586Z</time>
      </trkpt>
      <trkpt lat="41.84876" lon="26.08462">
        <ele>110.58851</ele>
        <time>2022-02-27T07:30:41.583Z</time>
      </trkpt>
      <trkpt lat="41.84887" lon="26.08458">
        <ele>110.504466</ele>
        <time>2022-02-27T07:30:44.586Z</time>
      </trkpt>
      <trkpt lat="41.84898" lon="26.0845">
        <ele>110.419384</ele>
        <time>2022-02-27T07:30:47.656Z</time>
      </trkpt>
      <trkpt lat="41.84908" lon="26.08443">
        <ele>110.33676</ele>
        <time>2022-02-27T07:30:50.608Z</time>
      </trkpt>
      <trkpt lat="41.84919" lon="26.08437">
        <ele>110.256438</ele>
        <time>2022-02-27T07:30:53.614Z</time>
      </trkpt>
      <trkpt lat="41.84931" lon="26.08431">
        <ele>110.162852</ele>
        <time>2022-02-27T07:30:56.585Z</time>
      </trkpt>
      <trkpt lat="41.84941" lon="26.08427">
        <ele>110.095101</ele>
        <time>2022-02-27T07:30:58.582Z</time>
      </trkpt>
      <trkpt lat="41.8495" lon="26.08422">
        <ele>110.025158</ele>
        <time>2022-02-27T07:31:00.596Z</time>
      </trkpt>
      <trkpt lat="41.84959" lon="26.08417">
        <ele>109.973145</ele>
        <time>2022-02-27T07:31:02.598Z</time>
      </trkpt>
      <trkpt lat="41.84968" lon="26.08413">
        <ele>109.925447</ele>
        <time>2022-02-27T07:31:04.591Z</time>
      </trkpt>
      <trkpt lat="41.84976" lon="26.08408">
        <ele>109.879898</ele>
        <time>2022-02-27T07:31:06.609Z</time>
      </trkpt>
      <trkpt lat="41.84988" lon="26.08401">
        <ele>109.81337</ele>
        <time>2022-02-27T07:31:09.585Z</time>
      </trkpt>
      <trkpt lat="41.84997" lon="26.08397">
        <ele>109.767072</ele>
        <time>2022-02-27T07:31:11.616Z</time>
      </trkpt>
      <trkpt lat="41.85006" lon="26.08392">
        <ele>109.719701</ele>
        <time>2022-02-27T07:31:13.628Z</time>
      </trkpt>
      <trkpt lat="41.85014" lon="26.08387">
        <ele>109.672501</ele>
        <time>2022-02-27T07:31:15.592Z</time>
      </trkpt>
      <trkpt lat="41.85023" lon="26.08382">
        <ele>109.626071</ele>
        <time>2022-02-27T07:31:17.586Z</time>
      </trkpt>
      <trkpt lat="41.85035" lon="26.08375">
        <ele>109.559399</ele>
        <time>2022-02-27T07:31:20.597Z</time>
      </trkpt>
      <trkpt lat="41.85046" lon="26.08369">
        <ele>109.496845</ele>
        <time>2022-02-27T07:31:23.594Z</time>
      </trkpt>
      <trkpt lat="41.85058" lon="26.08362">
        <ele>109.434757</ele>
        <time>2022-02-27T07:31:26.603Z</time>
      </trkpt>
      <trkpt lat="41.8507" lon="26.08355">
        <ele>109.369622</ele>
        <time>2022-02-27T07:31:29.603Z</time>
      </trkpt>
      <trkpt lat="41.85081" lon="26.08349">
        <ele>109.30495</ele>
        <time>2022-02-27T07:31:32.599Z</time>
      </trkpt>
      <trkpt lat="41.85094" lon="26.08342">
        <ele>109.237203</ele>
        <time>2022-02-27T07:31:35.621Z</time>
      </trkpt>
      <trkpt lat="41.85102" lon="26.08337">
        <ele>109.190112</ele>
        <time>2022-02-27T07:31:37.593Z</time>
      </trkpt>
      <trkpt lat="41.85111" lon="26.08332">
        <ele>109.144279</ele>
        <time>2022-02-27T07:31:39.605Z</time>
      </trkpt>
      <trkpt lat="41.85119" lon="26.08328">
        <ele>109.091241</ele>
        <time>2022-02-27T07:31:41.604Z</time>
      </trkpt>
      <trkpt lat="41.85128" lon="26.08324">
        <ele>109.019402</ele>
        <time>2022-02-27T07:31:43.582Z</time>
      </trkpt>
      <trkpt lat="41.8514" lon="26.08316">
        <ele>108.911907</ele>
        <time>2022-02-27T07:31:46.596Z</time>
      </trkpt>
      <trkpt lat="41.85149" lon="26.08312">
        <ele>108.840481</ele>
        <time>2022-02-27T07:31:48.579Z</time>
      </trkpt>
      <trkpt lat="41.85161" lon="26.08306">
        <ele>108.734453</ele>
        <time>2022-02-27T07:31:51.763Z</time>
      </trkpt>
      <trkpt lat="41.85174" lon="26.08299">
        <ele>108.628147</ele>
        <time>2022-02-27T07:31:54.595Z</time>
      </trkpt>
      <trkpt lat="41.85186" lon="26.08292">
        <ele>108.522225</ele>
        <time>2022-02-27T07:31:57.610Z</time>
      </trkpt>
      <trkpt lat="41.85199" lon="26.08286">
        <ele>108.418719</ele>
        <time>2022-02-27T07:32:00.583Z</time>
      </trkpt>
      <trkpt lat="41.85211" lon="26.08278">
        <ele>108.31147</ele>
        <time>2022-02-27T07:32:03.590Z</time>
      </trkpt>
      <trkpt lat="41.8522" lon="26.08272">
        <ele>108.235837</ele>
        <time>2022-02-27T07:32:05.604Z</time>
      </trkpt>
      <trkpt lat="41.85228" lon="26.08267">
        <ele>108.16372</ele>
        <time>2022-02-27T07:32:07.612Z</time>
      </trkpt>
      <trkpt lat="41.85239" lon="26.08257">
        <ele>108.05662</ele>
        <time>2022-02-27T07:32:10.608Z</time>
      </trkpt>
      <trkpt lat="41.85247" lon="26.0825">
        <ele>107.981952</ele>
        <time>2022-02-27T07:32:12.571Z</time>
      </trkpt>
      <trkpt lat="41.85255" lon="26.08243">
        <ele>107.908938</ele>
        <time>2022-02-27T07:32:14.648Z</time>
      </trkpt>
      <trkpt lat="41.85262" lon="26.08236">
        <ele>107.835933</ele>
        <time>2022-02-27T07:32:16.584Z</time>
      </trkpt>
      <trkpt lat="41.8527" lon="26.08229">
        <ele>107.762272</ele>
        <time>2022-02-27T07:32:18.592Z</time>
      </trkpt>
      <trkpt lat="41.85278" lon="26.08222">
        <ele>107.698149</ele>
        <time>2022-02-27T07:32:20.613Z</time>
      </trkpt>
      <trkpt lat="41.85287" lon="26.08214">
        <ele>107.921239</ele>
        <time>2022-02-27T07:32:23.600Z</time>
      </trkpt>
      <trkpt lat="41.85295" lon="26.08204">
        <ele>108.13931</ele>
        <time>2022-02-27T07:32:26.587Z</time>
      </trkpt>
      <trkpt lat="41.85302" lon="26.08196">
        <ele>108.347709</ele>
        <time>2022-02-27T07:32:29.611Z</time>
      </trkpt>
      <trkpt lat="41.85311" lon="26.08187">
        <ele>108.566616</ele>
        <time>2022-02-27T07:32:32.601Z</time>
      </trkpt>
      <trkpt lat="41.8532" lon="26.08179">
        <ele>108.783743</ele>
        <time>2022-02-27T07:32:35.592Z</time>
      </trkpt>
      <trkpt lat="41.85328" lon="26.08172">
        <ele>108.988977</ele>
        <time>2022-02-27T07:32:38.605Z</time>
      </trkpt>
      <trkpt lat="41.85338" lon="26.08166">
        <ele>109.215543</ele>
        <time>2022-02-27T07:32:41.595Z</time>
      </trkpt>
      <trkpt lat="41.85349" lon="26.08162">
        <ele>109.448132</ele>
        <time>2022-02-27T07:32:44.595Z</time>
      </trkpt>
      <trkpt lat="41.85359" lon="26.08155">
        <ele>109.665706</ele>
        <time>2022-02-27T07:32:47.603Z</time>
      </trkpt>
      <trkpt lat="41.85366" lon="26.08146">
        <ele>109.872027</ele>
        <time>2022-02-27T07:32:50.600Z</time>
      </trkpt>
      <trkpt lat="41.85374" lon="26.08136">
        <ele>110.099324</ele>
        <time>2022-02-27T07:32:53.609Z</time>
      </trkpt>
      <trkpt lat="41.85382" lon="26.08127">
        <ele>110.318359</ele>
        <time>2022-02-27T07:32:56.585Z</time>
      </trkpt>
      <trkpt lat="41.85391" lon="26.08119">
        <ele>110.537198</ele>
        <time>2022-02-27T07:32:59.604Z</time>
      </trkpt>
      <trkpt lat="41.85399" lon="26.08111">
        <ele>110.752239</ele>
        <time>2022-02-27T07:33:02.596Z</time>
      </trkpt>
      <trkpt lat="41.85408" lon="26.08102">
        <ele>110.973331</ele>
        <time>2022-02-27T07:33:05.582Z</time>
      </trkpt>
      <trkpt lat="41.85418" lon="26.08093">
        <ele>111.221308</ele>
        <time>2022-02-27T07:33:08.626Z</time>
      </trkpt>
      <trkpt lat="41.85429" lon="26.08083">
        <ele>111.354367</ele>
        <time>2022-02-27T07:33:11.578Z</time>
      </trkpt>
      <trkpt lat="41.8544" lon="26.08073">
        <ele>111.289471</ele>
        <time>2022-02-27T07:33:14.587Z</time>
      </trkpt>
      <trkpt lat="41.8545" lon="26.08064">
        <ele>111.229702</ele>
        <time>2022-02-27T07:33:17.583Z</time>
      </trkpt>
      <trkpt lat="41.8546" lon="26.08054">
        <ele>111.166789</ele>
        <time>2022-02-27T07:33:20.601Z</time>
      </trkpt>
      <trkpt lat="41.85468" lon="26.08046">
        <ele>111.120308</ele>
        <time>2022-02-27T07:33:22.592Z</time>
      </trkpt>
      <trkpt lat="41.85475" lon="26.08039">
        <ele>111.075718</ele>
        <time>2022-02-27T07:33:24.588Z</time>
      </trkpt>
      <trkpt lat="41.85486" lon="26.08028">
        <ele>111.008884</ele>
        <time>2022-02-27T07:33:27.587Z</time>
      </trkpt>
      <trkpt lat="41.85496" lon="26.08018">
        <ele>110.947165</ele>
        <time>2022-02-27T07:33:30.626Z</time>
      </trkpt>
      <trkpt lat="41.85505" lon="26.08008">
        <ele>110.888684</ele>
        <time>2022-02-27T07:33:33.589Z</time>
      </trkpt>
      <trkpt lat="41.85515" lon="26.07997">
        <ele>110.826338</ele>
        <time>2022-02-27T07:33:36.668Z</time>
      </trkpt>
      <trkpt lat="41.85525" lon="26.07987">
        <ele>110.762444</ele>
        <time>2022-02-27T07:33:39.573Z</time>
      </trkpt>
      <trkpt lat="41.85536" lon="26.07977">
        <ele>110.698764</ele>
        <time>2022-02-27T07:33:42.595Z</time>
      </trkpt>
      <trkpt lat="41.85546" lon="26.07968">
        <ele>110.63755</ele>
        <time>2022-02-27T07:33:45.613Z</time>
      </trkpt>
      <trkpt lat="41.85557" lon="26.07958">
        <ele>110.574711</ele>
        <time>2022-02-27T07:33:48.608Z</time>
      </trkpt>
      <trkpt lat="41.85564" lon="26.07952">
        <ele>110.53056</ele>
        <time>2022-02-27T07:33:50.577Z</time>
      </trkpt>
      <trkpt lat="41.85575" lon="26.07941">
        <ele>110.417869</ele>
        <time>2022-02-27T07:33:53.609Z</time>
      </trkpt>
      <trkpt lat="41.85584" lon="26.07934">
        <ele>110.296251</ele>
        <time>2022-02-27T07:33:55.599Z</time>
      </trkpt>
      <trkpt lat="41.85592" lon="26.07927">
        <ele>110.176171</ele>
        <time>2022-02-27T07:33:57.592Z</time>
      </trkpt>
      <trkpt lat="41.856" lon="26.07919">
        <ele>110.055594</ele>
        <time>2022-02-27T07:33:59.599Z</time>
      </trkpt>
      <trkpt lat="41.85607" lon="26.07912">
        <ele>109.936818</ele>
        <time>2022-02-27T07:34:01.605Z</time>
      </trkpt>
      <trkpt lat="41.85615" lon="26.07904">
        <ele>109.824335</ele>
        <time>2022-02-27T07:34:03.606Z</time>
      </trkpt>
      <trkpt lat="41.85625" lon="26.07894">
        <ele>109.660629</ele>
        <time>2022-02-27T07:34:06.595Z</time>
      </trkpt>
      <trkpt lat="41.85636" lon="26.07883">
        <ele>109.49685</ele>
        <time>2022-02-27T07:34:09.607Z</time>
      </trkpt>
      <trkpt lat="41.85644" lon="26.07876">
        <ele>109.380835</ele>
        <time>2022-02-27T07:34:11.619Z</time>
      </trkpt>
      <trkpt lat="41.85651" lon="26.07869">
        <ele>109.269442</ele>
        <time>2022-02-27T07:34:13.595Z</time>
      </trkpt>
      <trkpt lat="41.85661" lon="26.07858">
        <ele>109.111995</ele>
        <time>2022-02-27T07:34:16.593Z</time>
      </trkpt>
      <trkpt lat="41.85671" lon="26.07848">
        <ele>108.951621</ele>
        <time>2022-02-27T07:34:19.625Z</time>
      </trkpt>
      <trkpt lat="41.85682" lon="26.07837">
        <ele>108.790687</ele>
        <time>2022-02-27T07:34:22.572Z</time>
      </trkpt>
      <trkpt lat="41.85689" lon="26.0783">
        <ele>108.678752</ele>
        <time>2022-02-27T07:34:24.603Z</time>
      </trkpt>
      <trkpt lat="41.857" lon="26.07819">
        <ele>108.513328</ele>
        <time>2022-02-27T07:34:27.627Z</time>
      </trkpt>
      <trkpt lat="41.8571" lon="26.07808">
        <ele>108.348956</ele>
        <time>2022-02-27T07:34:30.601Z</time>
      </trkpt>
      <trkpt lat="41.85717" lon="26.078">
        <ele>108.232537</ele>
        <time>2022-02-27T07:34:32.586Z</time>
      </trkpt>
      <trkpt lat="41.85723" lon="26.07791">
        <ele>108.101458</ele>
        <time>2022-02-27T07:34:34.619Z</time>
      </trkpt>
      <trkpt lat="41.8573" lon="26.07782">
        <ele>107.970468</ele>
        <time>2022-02-27T07:34:36.598Z</time>
      </trkpt>
      <trkpt lat="41.85736" lon="26.07774">
        <ele>107.841744</ele>
        <time>2022-02-27T07:34:38.607Z</time>
      </trkpt>
      <trkpt lat="41.85746" lon="26.07761">
        <ele>107.647245</ele>
        <time>2022-02-27T07:34:41.573Z</time>
      </trkpt>
      <trkpt lat="41.85752" lon="26.07752">
        <ele>107.511725</ele>
        <time>2022-02-27T07:34:43.585Z</time>
      </trkpt>
      <trkpt lat="41.85759" lon="26.07742">
        <ele>107.373158</ele>
        <time>2022-02-27T07:34:45.594Z</time>
      </trkpt>
      <trkpt lat="41.85766" lon="26.07733">
        <ele>107.238645</ele>
        <time>2022-02-27T07:34:47.602Z</time>
      </trkpt>
      <trkpt lat="41.85772" lon="26.07724">
        <ele>107.101088</ele>
        <time>2022-02-27T07:34:49.585Z</time>
      </trkpt>
      <trkpt lat="41.85779" lon="26.07714">
        <ele>106.95879</ele>
        <time>2022-02-27T07:34:51.589Z</time>
      </trkpt>
      <trkpt lat="41.85786" lon="26.07704">
        <ele>106.815539</ele>
        <time>2022-02-27T07:34:53.620Z</time>
      </trkpt>
      <trkpt lat="41.85791" lon="26.07694">
        <ele>106.677163</ele>
        <time>2022-02-27T07:34:55.585Z</time>
      </trkpt>
      <trkpt lat="41.85798" lon="26.07683">
        <ele>106.529381</ele>
        <time>2022-02-27T07:34:57.600Z</time>
      </trkpt>
      <trkpt lat="41.85804" lon="26.07671">
        <ele>106.373071</ele>
        <time>2022-02-27T07:34:59.600Z</time>
      </trkpt>
      <trkpt lat="41.85811" lon="26.0766">
        <ele>106.225251</ele>
        <time>2022-02-27T07:35:01.592Z</time>
      </trkpt>
      <trkpt lat="41.85817" lon="26.0765">
        <ele>106.081711</ele>
        <time>2022-02-27T07:35:03.624Z</time>
      </trkpt>
      <trkpt lat="41.85824" lon="26.07638">
        <ele>105.926995</ele>
        <time>2022-02-27T07:35:05.627Z</time>
      </trkpt>
      <trkpt lat="41.85831" lon="26.07628">
        <ele>105.777194</ele>
        <time>2022-02-27T07:35:07.616Z</time>
      </trkpt>
      <trkpt lat="41.85837" lon="26.07617">
        <ele>105.70457</ele>
        <time>2022-02-27T07:35:09.610Z</time>
      </trkpt>
      <trkpt lat="41.85843" lon="26.07608">
        <ele>105.719428</ele>
        <time>2022-02-27T07:35:11.604Z</time>
      </trkpt>
      <trkpt lat="41.8585" lon="26.07595">
        <ele>105.739134</ele>
        <time>2022-02-27T07:35:14.617Z</time>
      </trkpt>
      <trkpt lat="41.85857" lon="26.07586">
        <ele>105.754251</ele>
        <time>2022-02-27T07:35:16.618Z</time>
      </trkpt>
      <trkpt lat="41.85863" lon="26.07576">
        <ele>105.770884</ele>
        <time>2022-02-27T07:35:18.607Z</time>
      </trkpt>
      <trkpt lat="41.8587" lon="26.07565">
        <ele>105.787186</ele>
        <time>2022-02-27T07:35:20.606Z</time>
      </trkpt>
      <trkpt lat="41.85876" lon="26.07554">
        <ele>105.80449</ele>
        <time>2022-02-27T07:35:22.632Z</time>
      </trkpt>
      <trkpt lat="41.85884" lon="26.07544">
        <ele>105.821289</ele>
        <time>2022-02-27T07:35:24.615Z</time>
      </trkpt>
      <trkpt lat="41.8589" lon="26.07534">
        <ele>105.837956</ele>
        <time>2022-02-27T07:35:26.589Z</time>
      </trkpt>
      <trkpt lat="41.85897" lon="26.07523">
        <ele>105.854367</ele>
        <time>2022-02-27T07:35:28.597Z</time>
      </trkpt>
      <trkpt lat="41.85904" lon="26.07514">
        <ele>105.870458</ele>
        <time>2022-02-27T07:35:30.604Z</time>
      </trkpt>
      <trkpt lat="41.85911" lon="26.07503">
        <ele>105.887775</ele>
        <time>2022-02-27T07:35:32.613Z</time>
      </trkpt>
      <trkpt lat="41.85917" lon="26.07492">
        <ele>105.904684</ele>
        <time>2022-02-27T07:35:34.594Z</time>
      </trkpt>
      <trkpt lat="41.85924" lon="26.07482">
        <ele>105.920359</ele>
        <time>2022-02-27T07:35:36.596Z</time>
      </trkpt>
      <trkpt lat="41.85929" lon="26.07473">
        <ele>105.935311</ele>
        <time>2022-02-27T07:35:38.597Z</time>
      </trkpt>
      <trkpt lat="41.85938" lon="26.07459">
        <ele>105.956983</ele>
        <time>2022-02-27T07:35:41.583Z</time>
      </trkpt>
      <trkpt lat="41.85947" lon="26.07447">
        <ele>105.976926</ele>
        <time>2022-02-27T07:35:44.641Z</time>
      </trkpt>
      <trkpt lat="41.85955" lon="26.07434">
        <ele>106.034212</ele>
        <time>2022-02-27T07:35:47.603Z</time>
      </trkpt>
      <trkpt lat="41.85962" lon="26.07424">
        <ele>106.111527</ele>
        <time>2022-02-27T07:35:49.582Z</time>
      </trkpt>
      <trkpt lat="41.85968" lon="26.07413">
        <ele>106.190826</ele>
        <time>2022-02-27T07:35:51.592Z</time>
      </trkpt>
      <trkpt lat="41.85975" lon="26.07402">
        <ele>106.27431</ele>
        <time>2022-02-27T07:35:53.606Z</time>
      </trkpt>
      <trkpt lat="41.85981" lon="26.07393">
        <ele>106.348716</ele>
        <time>2022-02-27T07:35:55.593Z</time>
      </trkpt>
      <trkpt lat="41.85987" lon="26.07383">
        <ele>106.42333</ele>
        <time>2022-02-27T07:35:57.593Z</time>
      </trkpt>
      <trkpt lat="41.85993" lon="26.07373">
        <ele>106.502483</ele>
        <time>2022-02-27T07:35:59.598Z</time>
      </trkpt>
      <trkpt lat="41.86" lon="26.07362">
        <ele>106.583195</ele>
        <time>2022-02-27T07:36:01.614Z</time>
      </trkpt>
      <trkpt lat="41.86006" lon="26.07351">
        <ele>106.665164</ele>
        <time>2022-02-27T07:36:03.600Z</time>
      </trkpt>
      <trkpt lat="41.86012" lon="26.07341">
        <ele>106.742986</ele>
        <time>2022-02-27T07:36:05.585Z</time>
      </trkpt>
      <trkpt lat="41.86018" lon="26.07331">
        <ele>106.818943</ele>
        <time>2022-02-27T07:36:07.604Z</time>
      </trkpt>
      <trkpt lat="41.86025" lon="26.07321">
        <ele>106.89787</ele>
        <time>2022-02-27T07:36:09.589Z</time>
      </trkpt>
      <trkpt lat="41.86031" lon="26.07312">
        <ele>106.969753</ele>
        <time>2022-02-27T07:36:11.608Z</time>
      </trkpt>
      <trkpt lat="41.86037" lon="26.07303">
        <ele>107.044014</ele>
        <time>2022-02-27T07:36:13.630Z</time>
      </trkpt>
      <trkpt lat="41.86044" lon="26.07292">
        <ele>107.128459</ele>
        <time>2022-02-27T07:36:15.604Z</time>
      </trkpt>
      <trkpt lat="41.86051" lon="26.07282">
        <ele>107.210734</ele>
        <time>2022-02-27T07:36:17.595Z</time>
      </trkpt>
      <trkpt lat="41.86058" lon="26.07271">
        <ele>107.292859</ele>
        <time>2022-02-27T07:36:19.587Z</time>
      </trkpt>
      <trkpt lat="41.86065" lon="26.0726">
        <ele>107.37968</ele>
        <time>2022-02-27T07:36:21.603Z</time>
      </trkpt>
      <trkpt lat="41.86071" lon="26.07249">
        <ele>107.470763</ele>
        <time>2022-02-27T07:36:23.615Z</time>
      </trkpt>
      <trkpt lat="41.86078" lon="26.07238">
        <ele>107.568814</ele>
        <time>2022-02-27T07:36:25.603Z</time>
      </trkpt>
      <trkpt lat="41.86084" lon="26.07228">
        <ele>107.663031</ele>
        <time>2022-02-27T07:36:27.586Z</time>
      </trkpt>
      <trkpt lat="41.86091" lon="26.07218">
        <ele>107.753572</ele>
        <time>2022-02-27T07:36:29.589Z</time>
      </trkpt>
      <trkpt lat="41.86097" lon="26.07209">
        <ele>107.843085</ele>
        <time>2022-02-27T07:36:31.581Z</time>
      </trkpt>
      <trkpt lat="41.86104" lon="26.07199">
        <ele>107.934563</ele>
        <time>2022-02-27T07:36:33.587Z</time>
      </trkpt>
      <trkpt lat="41.8611" lon="26.07189">
        <ele>108.028108</ele>
        <time>2022-02-27T07:36:35.623Z</time>
      </trkpt>
      <trkpt lat="41.86116" lon="26.07178">
        <ele>108.122153</ele>
        <time>2022-02-27T07:36:37.589Z</time>
      </trkpt>
      <trkpt lat="41.86122" lon="26.07168">
        <ele>108.213418</ele>
        <time>2022-02-27T07:36:39.589Z</time>
      </trkpt>
      <trkpt lat="41.86128" lon="26.07158">
        <ele>108.305279</ele>
        <time>2022-02-27T07:36:41.638Z</time>
      </trkpt>
      <trkpt lat="41.86135" lon="26.07148">
        <ele>108.397907</ele>
        <time>2022-02-27T07:36:43.589Z</time>
      </trkpt>
      <trkpt lat="41.86141" lon="26.07138">
        <ele>108.488767</ele>
        <time>2022-02-27T07:36:45.603Z</time>
      </trkpt>
      <trkpt lat="41.86147" lon="26.07129">
        <ele>108.574981</ele>
        <time>2022-02-27T07:36:47.601Z</time>
      </trkpt>
      <trkpt lat="41.86155" lon="26.07114">
        <ele>108.699942</ele>
        <time>2022-02-27T07:36:50.613Z</time>
      </trkpt>
      <trkpt lat="41.86163" lon="26.07101">
        <ele>108.819929</ele>
        <time>2022-02-27T07:36:53.607Z</time>
      </trkpt>
      <trkpt lat="41.86171" lon="26.07089">
        <ele>108.934746</ele>
        <time>2022-02-27T07:36:56.591Z</time>
      </trkpt>
      <trkpt lat="41.86179" lon="26.07077">
        <ele>109.049273</ele>
        <time>2022-02-27T07:36:59.599Z</time>
      </trkpt>
      <trkpt lat="41.86187" lon="26.07063">
        <ele>109.138686</ele>
        <time>2022-02-27T07:37:02.594Z</time>
      </trkpt>
      <trkpt lat="41.86195" lon="26.07051">
        <ele>109.195775</ele>
        <time>2022-02-27T07:37:05.635Z</time>
      </trkpt>
      <trkpt lat="41.86203" lon="26.07039">
        <ele>109.251548</ele>
        <time>2022-02-27T07:37:08.577Z</time>
      </trkpt>
      <trkpt lat="41.86212" lon="26.07026">
        <ele>109.309107</ele>
        <time>2022-02-27T07:37:11.620Z</time>
      </trkpt>
      <trkpt lat="41.8622" lon="26.07013">
        <ele>109.365596</ele>
        <time>2022-02-27T07:37:14.617Z</time>
      </trkpt>
      <trkpt lat="41.86228" lon="26.07">
        <ele>109.42286</ele>
        <time>2022-02-27T07:37:17.605Z</time>
      </trkpt>
      <trkpt lat="41.86236" lon="26.06987">
        <ele>109.481825</ele>
        <time>2022-02-27T07:37:20.673Z</time>
      </trkpt>
      <trkpt lat="41.86245" lon="26.06974">
        <ele>109.539424</ele>
        <time>2022-02-27T07:37:23.583Z</time>
      </trkpt>
      <trkpt lat="41.86253" lon="26.06962">
        <ele>109.59383</ele>
        <time>2022-02-27T07:37:26.585Z</time>
      </trkpt>
      <trkpt lat="41.8626" lon="26.06951">
        <ele>109.644005</ele>
        <time>2022-02-27T07:37:29.605Z</time>
      </trkpt>
      <trkpt lat="41.86267" lon="26.06939">
        <ele>109.696653</ele>
        <time>2022-02-27T07:37:32.596Z</time>
      </trkpt>
      <trkpt lat="41.86275" lon="26.06926">
        <ele>109.752495</ele>
        <time>2022-02-27T07:37:35.601Z</time>
      </trkpt>
      <trkpt lat="41.86282" lon="26.06914">
        <ele>109.80508</ele>
        <time>2022-02-27T07:37:38.591Z</time>
      </trkpt>
      <trkpt lat="41.8629" lon="26.06903">
        <ele>109.857693</ele>
        <time>2022-02-27T07:37:41.594Z</time>
      </trkpt>
      <trkpt lat="41.86296" lon="26.06892">
        <ele>109.90451</ele>
        <time>2022-02-27T07:37:44.621Z</time>
      </trkpt>
      <trkpt lat="41.86303" lon="26.0688">
        <ele>109.921107</ele>
        <time>2022-02-27T07:37:47.603Z</time>
      </trkpt>
      <trkpt lat="41.8631" lon="26.06868">
        <ele>109.900127</ele>
        <time>2022-02-27T07:37:50.607Z</time>
      </trkpt>
      <trkpt lat="41.86317" lon="26.06856">
        <ele>109.87758</ele>
        <time>2022-02-27T07:37:53.607Z</time>
      </trkpt>
      <trkpt lat="41.86326" lon="26.06843">
        <ele>109.853515</ele>
        <time>2022-02-27T07:37:56.588Z</time>
      </trkpt>
      <trkpt lat="41.86332" lon="26.06834">
        <ele>109.836358</ele>
        <time>2022-02-27T07:37:58.591Z</time>
      </trkpt>
      <trkpt lat="41.86338" lon="26.06824">
        <ele>109.819098</ele>
        <time>2022-02-27T07:38:00.622Z</time>
      </trkpt>
      <trkpt lat="41.86347" lon="26.06812">
        <ele>109.79438</ele>
        <time>2022-02-27T07:38:03.588Z</time>
      </trkpt>
      <trkpt lat="41.86355" lon="26.06798">
        <ele>109.770587</ele>
        <time>2022-02-27T07:38:06.577Z</time>
      </trkpt>
      <trkpt lat="41.86363" lon="26.06785">
        <ele>109.74759</ele>
        <time>2022-02-27T07:38:09.603Z</time>
      </trkpt>
      <trkpt lat="41.86371" lon="26.06772">
        <ele>109.723664</ele>
        <time>2022-02-27T07:38:12.570Z</time>
      </trkpt>
      <trkpt lat="41.8638" lon="26.06759">
        <ele>109.698479</ele>
        <time>2022-02-27T07:38:15.608Z</time>
      </trkpt>
      <trkpt lat="41.86386" lon="26.06749">
        <ele>109.681066</ele>
        <time>2022-02-27T07:38:17.608Z</time>
      </trkpt>
      <trkpt lat="41.86392" lon="26.06739">
        <ele>109.663405</ele>
        <time>2022-02-27T07:38:19.593Z</time>
      </trkpt>
      <trkpt lat="41.86399" lon="26.0673">
        <ele>109.645688</ele>
        <time>2022-02-27T07:38:21.599Z</time>
      </trkpt>
      <trkpt lat="41.86405" lon="26.0672">
        <ele>109.628239</ele>
        <time>2022-02-27T07:38:23.608Z</time>
      </trkpt>
      <trkpt lat="41.86411" lon="26.06711">
        <ele>109.610107</ele>
        <time>2022-02-27T07:38:25.591Z</time>
      </trkpt>
      <trkpt lat="41.86417" lon="26.06701">
        <ele>109.593976</ele>
        <time>2022-02-27T07:38:27.583Z</time>
      </trkpt>
      <trkpt lat="41.86424" lon="26.0669">
        <ele>109.588491</ele>
        <time>2022-02-27T07:38:29.603Z</time>
      </trkpt>
      <trkpt lat="41.86429" lon="26.06679">
        <ele>109.58323</ele>
        <time>2022-02-27T07:38:31.608Z</time>
      </trkpt>
      <trkpt lat="41.86435" lon="26.06669">
        <ele>109.577904</ele>
        <time>2022-02-27T07:38:33.609Z</time>
      </trkpt>
      <trkpt lat="41.86442" lon="26.06659">
        <ele>109.572529</ele>
        <time>2022-02-27T07:38:35.592Z</time>
      </trkpt>
      <trkpt lat="41.86448" lon="26.06648">
        <ele>109.567068</ele>
        <time>2022-02-27T07:38:37.633Z</time>
      </trkpt>
      <trkpt lat="41.86455" lon="26.06638">
        <ele>109.561632</ele>
        <time>2022-02-27T07:38:39.587Z</time>
      </trkpt>
      <trkpt lat="41.86461" lon="26.06628">
        <ele>109.556464</ele>
        <time>2022-02-27T07:38:41.621Z</time>
      </trkpt>
      <trkpt lat="41.86467" lon="26.06618">
        <ele>109.551042</ele>
        <time>2022-02-27T07:38:43.591Z</time>
      </trkpt>
      <trkpt lat="41.86473" lon="26.06607">
        <ele>109.545493</ele>
        <time>2022-02-27T07:38:45.647Z</time>
      </trkpt>
      <trkpt lat="41.8648" lon="26.06596">
        <ele>109.539907</ele>
        <time>2022-02-27T07:38:47.583Z</time>
      </trkpt>
      <trkpt lat="41.86487" lon="26.06585">
        <ele>109.53434</ele>
        <time>2022-02-27T07:38:49.606Z</time>
      </trkpt>
      <trkpt lat="41.86494" lon="26.06575">
        <ele>109.528723</ele>
        <time>2022-02-27T07:38:51.614Z</time>
      </trkpt>
      <trkpt lat="41.86501" lon="26.06565">
        <ele>109.52306</ele>
        <time>2022-02-27T07:38:53.621Z</time>
      </trkpt>
      <trkpt lat="41.86507" lon="26.06554">
        <ele>109.51773</ele>
        <time>2022-02-27T07:38:55.590Z</time>
      </trkpt>
      <trkpt lat="41.86513" lon="26.06545">
        <ele>109.512613</ele>
        <time>2022-02-27T07:38:57.603Z</time>
      </trkpt>
      <trkpt lat="41.8652" lon="26.06535">
        <ele>109.507526</ele>
        <time>2022-02-27T07:38:59.604Z</time>
      </trkpt>
      <trkpt lat="41.86526" lon="26.06526">
        <ele>109.50227</ele>
        <time>2022-02-27T07:39:01.604Z</time>
      </trkpt>
      <trkpt lat="41.86533" lon="26.06516">
        <ele>109.504872</ele>
        <time>2022-02-27T07:39:03.580Z</time>
      </trkpt>
      <trkpt lat="41.86539" lon="26.06506">
        <ele>109.559519</ele>
        <time>2022-02-27T07:39:05.610Z</time>
      </trkpt>
      <trkpt lat="41.86545" lon="26.06497">
        <ele>109.612386</ele>
        <time>2022-02-27T07:39:07.598Z</time>
      </trkpt>
      <trkpt lat="41.86553" lon="26.06483">
        <ele>109.687414</ele>
        <time>2022-02-27T07:39:10.585Z</time>
      </trkpt>
      <trkpt lat="41.86559" lon="26.06473">
        <ele>109.740612</ele>
        <time>2022-02-27T07:39:12.606Z</time>
      </trkpt>
      <trkpt lat="41.86565" lon="26.06463">
        <ele>109.795187</ele>
        <time>2022-02-27T07:39:14.595Z</time>
      </trkpt>
      <trkpt lat="41.86571" lon="26.06452">
        <ele>109.853869</ele>
        <time>2022-02-27T07:39:16.595Z</time>
      </trkpt>
      <trkpt lat="41.86578" lon="26.06441">
        <ele>109.914566</ele>
        <time>2022-02-27T07:39:18.611Z</time>
      </trkpt>
      <trkpt lat="41.86585" lon="26.0643">
        <ele>109.974717</ele>
        <time>2022-02-27T07:39:20.600Z</time>
      </trkpt>
      <trkpt lat="41.86591" lon="26.0642">
        <ele>110.032092</ele>
        <time>2022-02-27T07:39:22.600Z</time>
      </trkpt>
      <trkpt lat="41.86597" lon="26.0641">
        <ele>110.086667</ele>
        <time>2022-02-27T07:39:24.656Z</time>
      </trkpt>
      <trkpt lat="41.86606" lon="26.06396">
        <ele>110.163431</ele>
        <time>2022-02-27T07:39:27.588Z</time>
      </trkpt>
      <trkpt lat="41.86611" lon="26.06386">
        <ele>110.216276</ele>
        <time>2022-02-27T07:39:29.604Z</time>
      </trkpt>
      <trkpt lat="41.86618" lon="26.06376">
        <ele>110.271294</ele>
        <time>2022-02-27T07:39:31.608Z</time>
      </trkpt>
      <trkpt lat="41.86624" lon="26.06366">
        <ele>110.328024</ele>
        <time>2022-02-27T07:39:33.589Z</time>
      </trkpt>
      <trkpt lat="41.86631" lon="26.06357">
        <ele>110.384948</ele>
        <time>2022-02-27T07:39:35.596Z</time>
      </trkpt>
      <trkpt lat="41.86637" lon="26.06347">
        <ele>110.439966</ele>
        <time>2022-02-27T07:39:37.589Z</time>
      </trkpt>
      <trkpt lat="41.86644" lon="26.06337">
        <ele>110.496751</ele>
        <time>2022-02-27T07:39:39.572Z</time>
      </trkpt>
      <trkpt lat="41.8665" lon="26.06327">
        <ele>110.601016</ele>
        <time>2022-02-27T07:39:41.598Z</time>
      </trkpt>
      <trkpt lat="41.86655" lon="26.06317">
        <ele>110.754362</ele>
        <time>2022-02-27T07:39:43.596Z</time>
      </trkpt>
      <trkpt lat="41.86663" lon="26.06303">
        <ele>110.976601</ele>
        <time>2022-02-27T07:39:46.583Z</time>
      </trkpt>
      <trkpt lat="41.86671" lon="26.0629">
        <ele>111.190053</ele>
        <time>2022-02-27T07:39:49.604Z</time>
      </trkpt>
      <trkpt lat="41.8668" lon="26.06277">
        <ele>111.414941</ele>
        <time>2022-02-27T07:39:52.580Z</time>
      </trkpt>
      <trkpt lat="41.86687" lon="26.06264">
        <ele>111.625065</ele>
        <time>2022-02-27T07:39:55.600Z</time>
      </trkpt>
      <trkpt lat="41.86695" lon="26.06251">
        <ele>111.829054</ele>
        <time>2022-02-27T07:39:58.594Z</time>
      </trkpt>
      <trkpt lat="41.86701" lon="26.06239">
        <ele>112.013752</ele>
        <time>2022-02-27T07:40:01.603Z</time>
      </trkpt>
      <trkpt lat="41.86707" lon="26.06228">
        <ele>112.19435</ele>
        <time>2022-02-27T07:40:04.587Z</time>
      </trkpt>
      <trkpt lat="41.86715" lon="26.06216">
        <ele>112.386469</ele>
        <time>2022-02-27T07:40:07.586Z</time>
      </trkpt>
      <trkpt lat="41.86722" lon="26.06205">
        <ele>112.573519</ele>
        <time>2022-02-27T07:40:10.607Z</time>
      </trkpt>
      <trkpt lat="41.8673" lon="26.06193">
        <ele>112.776131</ele>
        <time>2022-02-27T07:40:13.598Z</time>
      </trkpt>
      <trkpt lat="41.86739" lon="26.06181">
        <ele>112.992135</ele>
        <time>2022-02-27T07:40:16.585Z</time>
      </trkpt>
      <trkpt lat="41.86745" lon="26.06169">
        <ele>113.182889</ele>
        <time>2022-02-27T07:40:19.600Z</time>
      </trkpt>
      <trkpt lat="41.86752" lon="26.06154">
        <ele>113.401332</ele>
        <time>2022-02-27T07:40:22.608Z</time>
      </trkpt>
      <trkpt lat="41.86757" lon="26.06143">
        <ele>113.55739</ele>
        <time>2022-02-27T07:40:24.601Z</time>
      </trkpt>
      <trkpt lat="41.86764" lon="26.06129">
        <ele>113.535619</ele>
        <time>2022-02-27T07:40:27.612Z</time>
      </trkpt>
      <trkpt lat="41.86771" lon="26.06115">
        <ele>113.489407</ele>
        <time>2022-02-27T07:40:30.584Z</time>
      </trkpt>
      <trkpt lat="41.86777" lon="26.06101">
        <ele>113.445733</ele>
        <time>2022-02-27T07:40:33.604Z</time>
      </trkpt>
      <trkpt lat="41.86783" lon="26.06086">
        <ele>113.398633</ele>
        <time>2022-02-27T07:40:36.601Z</time>
      </trkpt>
      <trkpt lat="41.86787" lon="26.06074">
        <ele>113.36211</ele>
        <time>2022-02-27T07:40:38.614Z</time>
      </trkpt>
      <trkpt lat="41.86791" lon="26.06062">
        <ele>113.325664</ele>
        <time>2022-02-27T07:40:40.627Z</time>
      </trkpt>
      <trkpt lat="41.86795" lon="26.06051">
        <ele>113.28953</ele>
        <time>2022-02-27T07:40:42.582Z</time>
      </trkpt>
      <trkpt lat="41.86799" lon="26.06039">
        <ele>113.25617</ele>
        <time>2022-02-27T07:40:44.614Z</time>
      </trkpt>
      <trkpt lat="41.86803" lon="26.06028">
        <ele>113.221198</ele>
        <time>2022-02-27T07:40:46.615Z</time>
      </trkpt>
      <trkpt lat="41.86806" lon="26.06016">
        <ele>113.184997</ele>
        <time>2022-02-27T07:40:48.590Z</time>
      </trkpt>
      <trkpt lat="41.86809" lon="26.06004">
        <ele>113.150722</ele>
        <time>2022-02-27T07:40:50.596Z</time>
      </trkpt>
      <trkpt lat="41.86812" lon="26.05992">
        <ele>113.115015</ele>
        <time>2022-02-27T07:40:52.591Z</time>
      </trkpt>
      <trkpt lat="41.86815" lon="26.0598">
        <ele>113.079339</ele>
        <time>2022-02-27T07:40:54.594Z</time>
      </trkpt>
      <trkpt lat="41.86818" lon="26.05962">
        <ele>113.029452</ele>
        <time>2022-02-27T07:40:57.646Z</time>
      </trkpt>
      <trkpt lat="41.8682" lon="26.0595">
        <ele>112.994527</ele>
        <time>2022-02-27T07:40:59.584Z</time>
      </trkpt>
      <trkpt lat="41.86822" lon="26.05937">
        <ele>112.960364</ele>
        <time>2022-02-27T07:41:01.585Z</time>
      </trkpt>
      <trkpt lat="41.86823" lon="26.05924">
        <ele>112.924012</ele>
        <time>2022-02-27T07:41:03.609Z</time>
      </trkpt>
      <trkpt lat="41.86824" lon="26.05911">
        <ele>112.792346</ele>
        <time>2022-02-27T07:41:05.604Z</time>
      </trkpt>
      <trkpt lat="41.86826" lon="26.05898">
        <ele>112.603338</ele>
        <time>2022-02-27T07:41:07.596Z</time>
      </trkpt>
      <trkpt lat="41.86827" lon="26.05885">
        <ele>112.421047</ele>
        <time>2022-02-27T07:41:09.611Z</time>
      </trkpt>
      <trkpt lat="41.86829" lon="26.05872">
        <ele>112.234295</ele>
        <time>2022-02-27T07:41:11.592Z</time>
      </trkpt>
      <trkpt lat="41.8683" lon="26.05859">
        <ele>112.04808</ele>
        <time>2022-02-27T07:41:13.582Z</time>
      </trkpt>
      <trkpt lat="41.86831" lon="26.05846">
        <ele>111.857421</ele>
        <time>2022-02-27T07:41:15.602Z</time>
      </trkpt>
      <trkpt lat="41.86833" lon="26.05832">
        <ele>111.66649</ele>
        <time>2022-02-27T07:41:17.584Z</time>
      </trkpt>
      <trkpt lat="41.86834" lon="26.05819">
        <ele>111.470495</ele>
        <time>2022-02-27T07:41:19.595Z</time>
      </trkpt>
      <trkpt lat="41.86835" lon="26.05805">
        <ele>111.27774</ele>
        <time>2022-02-27T07:41:21.603Z</time>
      </trkpt>
      <trkpt lat="41.86836" lon="26.05792">
        <ele>111.08757</ele>
        <time>2022-02-27T07:41:23.600Z</time>
      </trkpt>
      <trkpt lat="41.86838" lon="26.05778">
        <ele>110.901356</ele>
        <time>2022-02-27T07:41:25.608Z</time>
      </trkpt>
      <trkpt lat="41.86839" lon="26.05765">
        <ele>110.707637</ele>
        <time>2022-02-27T07:41:27.601Z</time>
      </trkpt>
      <trkpt lat="41.86841" lon="26.05752">
        <ele>110.51863</ele>
        <time>2022-02-27T07:41:29.647Z</time>
      </trkpt>
      <trkpt lat="41.86842" lon="26.05739">
        <ele>110.341044</ele>
        <time>2022-02-27T07:41:31.593Z</time>
      </trkpt>
      <trkpt lat="41.86843" lon="26.05727">
        <ele>110.163206</ele>
        <time>2022-02-27T07:41:33.615Z</time>
      </trkpt>
      <trkpt lat="41.86845" lon="26.05714">
        <ele>109.981048</ele>
        <time>2022-02-27T07:41:35.606Z</time>
      </trkpt>
      <trkpt lat="41.86846" lon="26.05701">
        <ele>109.794574</ele>
        <time>2022-02-27T07:41:37.635Z</time>
      </trkpt>
      <trkpt lat="41.86847" lon="26.05687">
        <ele>109.604404</ele>
        <time>2022-02-27T07:41:39.583Z</time>
      </trkpt>
      <trkpt lat="41.86849" lon="26.05674">
        <ele>109.46977</ele>
        <time>2022-02-27T07:41:41.606Z</time>
      </trkpt>
      <trkpt lat="41.8685" lon="26.05661">
        <ele>109.394255</ele>
        <time>2022-02-27T07:41:43.604Z</time>
      </trkpt>
      <trkpt lat="41.86852" lon="26.05648">
        <ele>109.320952</ele>
        <time>2022-02-27T07:41:45.693Z</time>
      </trkpt>
      <trkpt lat="41.86854" lon="26.05635">
        <ele>109.246544</ele>
        <time>2022-02-27T07:41:47.609Z</time>
      </trkpt>
      <trkpt lat="41.86855" lon="26.05622">
        <ele>109.17312</ele>
        <time>2022-02-27T07:41:49.600Z</time>
      </trkpt>
      <trkpt lat="41.86856" lon="26.05609">
        <ele>109.101159</ele>
        <time>2022-02-27T07:41:51.604Z</time>
      </trkpt>
      <trkpt lat="41.86857" lon="26.05597">
        <ele>109.031626</ele>
        <time>2022-02-27T07:41:53.605Z</time>
      </trkpt>
      <trkpt lat="41.86859" lon="26.05585">
        <ele>108.963424</ele>
        <time>2022-02-27T07:41:55.608Z</time>
      </trkpt>
      <trkpt lat="41.86861" lon="26.05567">
        <ele>108.863266</ele>
        <time>2022-02-27T07:41:58.606Z</time>
      </trkpt>
      <trkpt lat="41.86863" lon="26.05554">
        <ele>108.790638</ele>
        <time>2022-02-27T07:42:00.598Z</time>
      </trkpt>
      <trkpt lat="41.86864" lon="26.05541">
        <ele>108.714999</ele>
        <time>2022-02-27T07:42:02.604Z</time>
      </trkpt>
      <trkpt lat="41.86866" lon="26.05529">
        <ele>108.645137</ele>
        <time>2022-02-27T07:42:04.596Z</time>
      </trkpt>
      <trkpt lat="41.86868" lon="26.05516">
        <ele>108.571713</ele>
        <time>2022-02-27T07:42:06.636Z</time>
      </trkpt>
      <trkpt lat="41.86869" lon="26.05502">
        <ele>108.497176</ele>
        <time>2022-02-27T07:42:08.588Z</time>
      </trkpt>
      <trkpt lat="41.8687" lon="26.0549">
        <ele>108.425322</ele>
        <time>2022-02-27T07:42:10.631Z</time>
      </trkpt>
      <trkpt lat="41.86871" lon="26.05477">
        <ele>108.350785</ele>
        <time>2022-02-27T07:42:12.583Z</time>
      </trkpt>
      <trkpt lat="41.86872" lon="26.05464">
        <ele>108.279203</ele>
        <time>2022-02-27T07:42:14.601Z</time>
      </trkpt>
      <trkpt lat="41.86874" lon="26.05446">
        <ele>108.179264</ele>
        <time>2022-02-27T07:42:17.602Z</time>
      </trkpt>
      <trkpt lat="41.86876" lon="26.05429">
        <ele>108.245633</ele>
        <time>2022-02-27T07:42:20.601Z</time>
      </trkpt>
      <trkpt lat="41.86878" lon="26.05411">
        <ele>108.36937</ele>
        <time>2022-02-27T07:42:23.586Z</time>
      </trkpt>
      <trkpt lat="41.86879" lon="26.05399">
        <ele>108.456299</ele>
        <time>2022-02-27T07:42:25.588Z</time>
      </trkpt>
      <trkpt lat="41.8688" lon="26.05385">
        <ele>108.55206</ele>
        <time>2022-02-27T07:42:27.596Z</time>
      </trkpt>
      <trkpt lat="41.86882" lon="26.05372">
        <ele>108.642557</ele>
        <time>2022-02-27T07:42:29.594Z</time>
      </trkpt>
      <trkpt lat="41.86883" lon="26.05359">
        <ele>108.734872</ele>
        <time>2022-02-27T07:42:31.601Z</time>
      </trkpt>
      <trkpt lat="41.86884" lon="26.05346">
        <ele>108.824552</ele>
        <time>2022-02-27T07:42:33.605Z</time>
      </trkpt>
      <trkpt lat="41.86885" lon="26.05333">
        <ele>108.913309</ele>
        <time>2022-02-27T07:42:35.614Z</time>
      </trkpt>
      <trkpt lat="41.86886" lon="26.05321">
        <ele>108.998737</ele>
        <time>2022-02-27T07:42:37.616Z</time>
      </trkpt>
      <trkpt lat="41.86888" lon="26.05309">
        <ele>109.085801</ele>
        <time>2022-02-27T07:42:39.601Z</time>
      </trkpt>
      <trkpt lat="41.86889" lon="26.05297">
        <ele>109.17027</ele>
        <time>2022-02-27T07:42:41.612Z</time>
      </trkpt>
      <trkpt lat="41.86892" lon="26.0528">
        <ele>109.289703</ele>
        <time>2022-02-27T07:42:44.623Z</time>
      </trkpt>
      <trkpt lat="41.86894" lon="26.05263">
        <ele>109.41086</ele>
        <time>2022-02-27T07:42:47.599Z</time>
      </trkpt>
      <trkpt lat="41.86897" lon="26.05245">
        <ele>109.533538</ele>
        <time>2022-02-27T07:42:50.589Z</time>
      </trkpt>
      <trkpt lat="41.86899" lon="26.05228">
        <ele>109.651952</ele>
        <time>2022-02-27T07:42:53.601Z</time>
      </trkpt>
      <trkpt lat="41.86901" lon="26.05212">
        <ele>109.77105</ele>
        <time>2022-02-27T07:42:56.599Z</time>
      </trkpt>
      <trkpt lat="41.86903" lon="26.05195">
        <ele>109.928034</ele>
        <time>2022-02-27T07:42:59.599Z</time>
      </trkpt>
      <trkpt lat="41.86905" lon="26.05178">
        <ele>110.128062</ele>
        <time>2022-02-27T07:43:02.597Z</time>
      </trkpt>
      <trkpt lat="41.86907" lon="26.0516">
        <ele>110.338658</ele>
        <time>2022-02-27T07:43:05.585Z</time>
      </trkpt>
      <trkpt lat="41.86908" lon="26.05144">
        <ele>110.528845</ele>
        <time>2022-02-27T07:43:08.582Z</time>
      </trkpt>
      <trkpt lat="41.86908" lon="26.05127">
        <ele>110.727747</ele>
        <time>2022-02-27T07:43:11.620Z</time>
      </trkpt>
      <trkpt lat="41.86909" lon="26.05111">
        <ele>110.925883</ele>
        <time>2022-02-27T07:43:14.602Z</time>
      </trkpt>
      <trkpt lat="41.8691" lon="26.05093">
        <ele>111.128083</ele>
        <time>2022-02-27T07:43:17.604Z</time>
      </trkpt>
      <trkpt lat="41.86911" lon="26.05076">
        <ele>111.338191</ele>
        <time>2022-02-27T07:43:20.597Z</time>
      </trkpt>
      <trkpt lat="41.86913" lon="26.05059">
        <ele>111.540927</ele>
        <time>2022-02-27T07:43:23.605Z</time>
      </trkpt>
      <trkpt lat="41.86914" lon="26.05042">
        <ele>111.735111</ele>
        <time>2022-02-27T07:43:26.609Z</time>
      </trkpt>
      <trkpt lat="41.86916" lon="26.05026">
        <ele>111.926781</ele>
        <time>2022-02-27T07:43:29.622Z</time>
      </trkpt>
      <trkpt lat="41.86917" lon="26.0501">
        <ele>112.113774</ele>
        <time>2022-02-27T07:43:32.600Z</time>
      </trkpt>
      <trkpt lat="41.86919" lon="26.04994">
        <ele>112.302512</ele>
        <time>2022-02-27T07:43:35.613Z</time>
      </trkpt>
      <trkpt lat="41.8692" lon="26.04978">
        <ele>112.495428</ele>
        <time>2022-02-27T07:43:38.660Z</time>
      </trkpt>
      <trkpt lat="41.86922" lon="26.04962">
        <ele>112.678789</ele>
        <time>2022-02-27T07:43:41.639Z</time>
      </trkpt>
      <trkpt lat="41.86924" lon="26.04946">
        <ele>112.783766</ele>
        <time>2022-02-27T07:43:44.623Z</time>
      </trkpt>
      <trkpt lat="41.86926" lon="26.04929">
        <ele>112.889984</ele>
        <time>2022-02-27T07:43:47.613Z</time>
      </trkpt>
      <trkpt lat="41.86927" lon="26.04912">
        <ele>112.992985</ele>
        <time>2022-02-27T07:43:50.584Z</time>
      </trkpt>
      <trkpt lat="41.86928" lon="26.04898">
        <ele>113.08679</ele>
        <time>2022-02-27T07:43:53.606Z</time>
      </trkpt>
      <trkpt lat="41.8693" lon="26.04882">
        <ele>113.183174</ele>
        <time>2022-02-27T07:43:56.591Z</time>
      </trkpt>
      <trkpt lat="41.86931" lon="26.04868">
        <ele>113.275397</ele>
        <time>2022-02-27T07:43:59.623Z</time>
      </trkpt>
      <trkpt lat="41.86932" lon="26.04853">
        <ele>113.36762</ele>
        <time>2022-02-27T07:44:02.603Z</time>
      </trkpt>
      <trkpt lat="41.86933" lon="26.04839">
        <ele>113.455586</ele>
        <time>2022-02-27T07:44:05.587Z</time>
      </trkpt>
      <trkpt lat="41.86934" lon="26.04826">
        <ele>113.539519</ele>
        <time>2022-02-27T07:44:08.607Z</time>
      </trkpt>
      <trkpt lat="41.86935" lon="26.04813">
        <ele>113.622562</ele>
        <time>2022-02-27T07:44:11.636Z</time>
      </trkpt>
      <trkpt lat="41.86937" lon="26.048">
        <ele>113.704629</ele>
        <time>2022-02-27T07:44:14.584Z</time>
      </trkpt>
      <trkpt lat="41.86938" lon="26.04786">
        <ele>113.78794</ele>
        <time>2022-02-27T07:44:17.605Z</time>
      </trkpt>
      <trkpt lat="41.86939" lon="26.04773">
        <ele>113.87418</ele>
        <time>2022-02-27T07:44:20.596Z</time>
      </trkpt>
      <trkpt lat="41.8694" lon="26.04759">
        <ele>113.95855</ele>
        <time>2022-02-27T07:44:23.580Z</time>
      </trkpt>
      <trkpt lat="41.86941" lon="26.04746">
        <ele>114.04321</ele>
        <time>2022-02-27T07:44:26.606Z</time>
      </trkpt>
      <trkpt lat="41.86942" lon="26.04733">
        <ele>114.121661</ele>
        <time>2022-02-27T07:44:29.609Z</time>
      </trkpt>
      <trkpt lat="41.86943" lon="26.04721">
        <ele>114.218442</ele>
        <time>2022-02-27T07:44:32.602Z</time>
      </trkpt>
      <trkpt lat="41.86944" lon="26.04708">
        <ele>114.386969</ele>
        <time>2022-02-27T07:44:35.603Z</time>
      </trkpt>
      <trkpt lat="41.86944" lon="26.04696">
        <ele>114.547525</ele>
        <time>2022-02-27T07:44:38.592Z</time>
      </trkpt>
      <trkpt lat="41.86943" lon="26.04683">
        <ele>114.712172</ele>
        <time>2022-02-27T07:44:41.591Z</time>
      </trkpt>
      <trkpt lat="41.86944" lon="26.04671">
        <ele>114.879448</ele>
        <time>2022-02-27T07:44:44.600Z</time>
      </trkpt>
      <trkpt lat="41.86944" lon="26.04658">
        <ele>115.049244</ele>
        <time>2022-02-27T07:44:47.589Z</time>
      </trkpt>
      <trkpt lat="41.86944" lon="26.04644">
        <ele>115.229539</ele>
        <time>2022-02-27T07:44:50.623Z</time>
      </trkpt>
      <trkpt lat="41.86944" lon="26.0463">
        <ele>115.411176</ele>
        <time>2022-02-27T07:44:53.600Z</time>
      </trkpt>
      <trkpt lat="41.86944" lon="26.04617">
        <ele>115.591462</ele>
        <time>2022-02-27T07:44:56.631Z</time>
      </trkpt>
      <trkpt lat="41.86943" lon="26.04602">
        <ele>115.777425</ele>
        <time>2022-02-27T07:44:59.591Z</time>
      </trkpt>
      <trkpt lat="41.86942" lon="26.04588">
        <ele>115.974147</ele>
        <time>2022-02-27T07:45:02.663Z</time>
      </trkpt>
      <trkpt lat="41.86942" lon="26.04573">
        <ele>116.16648</ele>
        <time>2022-02-27T07:45:05.602Z</time>
      </trkpt>
      <trkpt lat="41.86941" lon="26.04558">
        <ele>116.365825</ele>
        <time>2022-02-27T07:45:08.603Z</time>
      </trkpt>
      <trkpt lat="41.8694" lon="26.04542">
        <ele>116.569252</ele>
        <time>2022-02-27T07:45:11.616Z</time>
      </trkpt>
      <trkpt lat="41.86939" lon="26.04527">
        <ele>116.768911</ele>
        <time>2022-02-27T07:45:14.585Z</time>
      </trkpt>
      <trkpt lat="41.86938" lon="26.04512">
        <ele>116.972675</ele>
        <time>2022-02-27T07:45:17.603Z</time>
      </trkpt>
      <trkpt lat="41.86937" lon="26.04497">
        <ele>117.176102</ele>
        <time>2022-02-27T07:45:20.621Z</time>
      </trkpt>
      <trkpt lat="41.86935" lon="26.04481">
        <ele>117.346113</ele>
        <time>2022-02-27T07:45:23.631Z</time>
      </trkpt>
      <trkpt lat="41.86934" lon="26.04466">
        <ele>117.097315</ele>
        <time>2022-02-27T07:45:26.613Z</time>
      </trkpt>
      <trkpt lat="41.86933" lon="26.04451">
        <ele>116.842291</ele>
        <time>2022-02-27T07:45:29.612Z</time>
      </trkpt>
      <trkpt lat="41.86932" lon="26.04435">
        <ele>116.572357</ele>
        <time>2022-02-27T07:45:32.651Z</time>
      </trkpt>
      <trkpt lat="41.86931" lon="26.04419">
        <ele>116.305149</ele>
        <time>2022-02-27T07:45:35.607Z</time>
      </trkpt>
      <trkpt lat="41.8693" lon="26.04403">
        <ele>116.038351</ele>
        <time>2022-02-27T07:45:38.603Z</time>
      </trkpt>
      <trkpt lat="41.86929" lon="26.04387">
        <ele>115.766393</ele>
        <time>2022-02-27T07:45:41.628Z</time>
      </trkpt>
      <trkpt lat="41.86927" lon="26.0437">
        <ele>115.482051</ele>
        <time>2022-02-27T07:45:44.606Z</time>
      </trkpt>
      <trkpt lat="41.86926" lon="26.04353">
        <ele>115.206105</ele>
        <time>2022-02-27T07:45:47.595Z</time>
      </trkpt>
      <trkpt lat="41.86925" lon="26.04337">
        <ele>114.92983</ele>
        <time>2022-02-27T07:45:50.614Z</time>
      </trkpt>
      <trkpt lat="41.86924" lon="26.0432">
        <ele>114.654562</ele>
        <time>2022-02-27T07:45:53.600Z</time>
      </trkpt>
      <trkpt lat="41.86923" lon="26.04303">
        <ele>114.372858</ele>
        <time>2022-02-27T07:45:56.589Z</time>
      </trkpt>
      <trkpt lat="41.86922" lon="26.04286">
        <ele>114.090546</ele>
        <time>2022-02-27T07:45:59.605Z</time>
      </trkpt>
      <trkpt lat="41.86921" lon="26.0427">
        <ele>113.813622</ele>
        <time>2022-02-27T07:46:02.614Z</time>
      </trkpt>
      <trkpt lat="41.86919" lon="26.04253">
        <ele>113.541225</ele>
        <time>2022-02-27T07:46:05.605Z</time>
      </trkpt>
      <trkpt lat="41.86918" lon="26.04238">
        <ele>113.384983</ele>
        <time>2022-02-27T07:46:08.600Z</time>
      </trkpt>
      <trkpt lat="41.86917" lon="26.04221">
        <ele>113.511921</ele>
        <time>2022-02-27T07:46:11.626Z</time>
      </trkpt>
      <trkpt lat="41.86916" lon="26.04205">
        <ele>113.637675</ele>
        <time>2022-02-27T07:46:14.605Z</time>
      </trkpt>
      <trkpt lat="41.86915" lon="26.04188">
        <ele>113.76791</ele>
        <time>2022-02-27T07:46:17.621Z</time>
      </trkpt>
      <trkpt lat="41.86915" lon="26.04171">
        <ele>113.903507</ele>
        <time>2022-02-27T07:46:20.625Z</time>
      </trkpt>
      <trkpt lat="41.86914" lon="26.04154">
        <ele>114.037783</ele>
        <time>2022-02-27T07:46:23.605Z</time>
      </trkpt>
      <trkpt lat="41.86912" lon="26.04137">
        <ele>114.170044</ele>
        <time>2022-02-27T07:46:26.649Z</time>
      </trkpt>
      <trkpt lat="41.86911" lon="26.04121">
        <ele>114.294578</ele>
        <time>2022-02-27T07:46:29.601Z</time>
      </trkpt>
      <trkpt lat="41.8691" lon="26.04105">
        <ele>114.422754</ele>
        <time>2022-02-27T07:46:32.583Z</time>
      </trkpt>
      <trkpt lat="41.86909" lon="26.04088">
        <ele>114.555316</ele>
        <time>2022-02-27T07:46:35.604Z</time>
      </trkpt>
      <trkpt lat="41.86907" lon="26.04071">
        <ele>114.684485</ele>
        <time>2022-02-27T07:46:38.602Z</time>
      </trkpt>
      <trkpt lat="41.86906" lon="26.04055">
        <ele>114.813541</ele>
        <time>2022-02-27T07:46:41.604Z</time>
      </trkpt>
      <trkpt lat="41.86904" lon="26.04037">
        <ele>114.952225</ele>
        <time>2022-02-27T07:46:44.616Z</time>
      </trkpt>
      <trkpt lat="41.86903" lon="26.0402">
        <ele>115.085259</ele>
        <time>2022-02-27T07:46:47.596Z</time>
      </trkpt>
      <trkpt lat="41.86901" lon="26.04003">
        <ele>115.216225</ele>
        <time>2022-02-27T07:46:50.610Z</time>
      </trkpt>
      <trkpt lat="41.869" lon="26.03987">
        <ele>115.407691</ele>
        <time>2022-02-27T07:46:53.589Z</time>
      </trkpt>
      <trkpt lat="41.86899" lon="26.0397">
        <ele>115.607388</ele>
        <time>2022-02-27T07:46:56.602Z</time>
      </trkpt>
      <trkpt lat="41.86898" lon="26.03952">
        <ele>115.814427</ele>
        <time>2022-02-27T07:46:59.601Z</time>
      </trkpt>
      <trkpt lat="41.86897" lon="26.03935">
        <ele>116.018389</ele>
        <time>2022-02-27T07:47:02.605Z</time>
      </trkpt>
      <trkpt lat="41.86895" lon="26.03918">
        <ele>116.227241</ele>
        <time>2022-02-27T07:47:05.635Z</time>
      </trkpt>
      <trkpt lat="41.86894" lon="26.03901">
        <ele>116.433738</ele>
        <time>2022-02-27T07:47:08.600Z</time>
      </trkpt>
      <trkpt lat="41.86892" lon="26.03883">
        <ele>116.644772</ele>
        <time>2022-02-27T07:47:11.609Z</time>
      </trkpt>
      <trkpt lat="41.86891" lon="26.03866">
        <ele>116.84605</ele>
        <time>2022-02-27T07:47:14.608Z</time>
      </trkpt>
      <trkpt lat="41.8689" lon="26.03849">
        <ele>117.05119</ele>
        <time>2022-02-27T07:47:17.612Z</time>
      </trkpt>
      <trkpt lat="41.86889" lon="26.03833">
        <ele>117.243919</ele>
        <time>2022-02-27T07:47:20.595Z</time>
      </trkpt>
      <trkpt lat="41.86888" lon="26.03816">
        <ele>117.437829</ele>
        <time>2022-02-27T07:47:23.596Z</time>
      </trkpt>
      <trkpt lat="41.86887" lon="26.03799">
        <ele>117.647104</ele>
        <time>2022-02-27T07:47:26.599Z</time>
      </trkpt>
      <trkpt lat="41.86885" lon="26.03781">
        <ele>117.857134</ele>
        <time>2022-02-27T07:47:29.601Z</time>
      </trkpt>
      <trkpt lat="41.86883" lon="26.03764">
        <ele>118.064998</ele>
        <time>2022-02-27T07:47:32.593Z</time>
      </trkpt>
      <trkpt lat="41.86882" lon="26.03747">
        <ele>118.142126</ele>
        <time>2022-02-27T07:47:35.613Z</time>
      </trkpt>
      <trkpt lat="41.86881" lon="26.0373">
        <ele>118.200152</ele>
        <time>2022-02-27T07:47:38.609Z</time>
      </trkpt>
      <trkpt lat="41.8688" lon="26.03713">
        <ele>118.257534</ele>
        <time>2022-02-27T07:47:41.607Z</time>
      </trkpt>
      <trkpt lat="41.86878" lon="26.03697">
        <ele>118.312334</ele>
        <time>2022-02-27T07:47:44.636Z</time>
      </trkpt>
      <trkpt lat="41.86877" lon="26.03682">
        <ele>118.365925</ele>
        <time>2022-02-27T07:47:47.602Z</time>
      </trkpt>
      <trkpt lat="41.86876" lon="26.03668">
        <ele>118.415291</ele>
        <time>2022-02-27T07:47:50.604Z</time>
      </trkpt>
      <trkpt lat="41.86875" lon="26.03652">
        <ele>118.468583</ele>
        <time>2022-02-27T07:47:53.625Z</time>
      </trkpt>
      <trkpt lat="41.86875" lon="26.03636">
        <ele>118.523697</ele>
        <time>2022-02-27T07:47:56.580Z</time>
      </trkpt>
      <trkpt lat="41.86875" lon="26.0362">
        <ele>118.579897</ele>
        <time>2022-02-27T07:47:59.595Z</time>
      </trkpt>
      <trkpt lat="41.86876" lon="26.03603">
        <ele>118.636864</ele>
        <time>2022-02-27T07:48:02.631Z</time>
      </trkpt>
      <trkpt lat="41.86877" lon="26.03586">
        <ele>118.693525</ele>
        <time>2022-02-27T07:48:05.608Z</time>
      </trkpt>
      <trkpt lat="41.86879" lon="26.0357">
        <ele>118.750671</ele>
        <time>2022-02-27T07:48:08.593Z</time>
      </trkpt>
      <trkpt lat="41.86881" lon="26.03553">
        <ele>118.807964</ele>
        <time>2022-02-27T07:48:11.579Z</time>
      </trkpt>
      <trkpt lat="41.86883" lon="26.03537">
        <ele>118.865042</ele>
        <time>2022-02-27T07:48:14.599Z</time>
      </trkpt>
      <trkpt lat="41.86886" lon="26.0352">
        <ele>118.929395</ele>
        <time>2022-02-27T07:48:17.605Z</time>
      </trkpt>
      <trkpt lat="41.86889" lon="26.03503">
        <ele>119.062975</ele>
        <time>2022-02-27T07:48:20.590Z</time>
      </trkpt>
      <trkpt lat="41.86891" lon="26.03487">
        <ele>119.196315</ele>
        <time>2022-02-27T07:48:23.598Z</time>
      </trkpt>
      <trkpt lat="41.86894" lon="26.03471">
        <ele>119.320093</ele>
        <time>2022-02-27T07:48:26.600Z</time>
      </trkpt>
      <trkpt lat="41.86897" lon="26.03455">
        <ele>119.449649</ele>
        <time>2022-02-27T07:48:29.633Z</time>
      </trkpt>
      <trkpt lat="41.869" lon="26.03439">
        <ele>119.580995</ele>
        <time>2022-02-27T07:48:32.608Z</time>
      </trkpt>
      <trkpt lat="41.86904" lon="26.03422">
        <ele>119.715146</ele>
        <time>2022-02-27T07:48:35.607Z</time>
      </trkpt>
      <trkpt lat="41.86907" lon="26.03405">
        <ele>119.850247</ele>
        <time>2022-02-27T07:48:38.597Z</time>
      </trkpt>
      <trkpt lat="41.8691" lon="26.03388">
        <ele>119.98534</ele>
        <time>2022-02-27T07:48:41.606Z</time>
      </trkpt>
      <trkpt lat="41.86913" lon="26.03372">
        <ele>120.118764</ele>
        <time>2022-02-27T07:48:44.608Z</time>
      </trkpt>
      <trkpt lat="41.86915" lon="26.03355">
        <ele>120.251991</ele>
        <time>2022-02-27T07:48:47.607Z</time>
      </trkpt>
      <trkpt lat="41.86917" lon="26.03338">
        <ele>120.385969</ele>
        <time>2022-02-27T07:48:50.595Z</time>
      </trkpt>
      <trkpt lat="41.8692" lon="26.03321">
        <ele>120.518026</ele>
        <time>2022-02-27T07:48:53.606Z</time>
      </trkpt>
      <trkpt lat="41.86922" lon="26.03305">
        <ele>120.649615</ele>
        <time>2022-02-27T07:48:56.611Z</time>
      </trkpt>
      <trkpt lat="41.86925" lon="26.03288">
        <ele>120.778425</ele>
        <time>2022-02-27T07:48:59.611Z</time>
      </trkpt>
      <trkpt lat="41.86928" lon="26.03273">
        <ele>120.84469</ele>
        <time>2022-02-27T07:49:02.593Z</time>
      </trkpt>
      <trkpt lat="41.86931" lon="26.03256">
        <ele>120.905783</ele>
        <time>2022-02-27T07:49:05.604Z</time>
      </trkpt>
      <trkpt lat="41.86934" lon="26.03239">
        <ele>120.967103</ele>
        <time>2022-02-27T07:49:08.611Z</time>
      </trkpt>
      <trkpt lat="41.86937" lon="26.03221">
        <ele>121.027881</ele>
        <time>2022-02-27T07:49:11.593Z</time>
      </trkpt>
      <trkpt lat="41.8694" lon="26.03204">
        <ele>121.088421</ele>
        <time>2022-02-27T07:49:14.607Z</time>
      </trkpt>
      <trkpt lat="41.86943" lon="26.03188">
        <ele>121.146937</ele>
        <time>2022-02-27T07:49:17.703Z</time>
      </trkpt>
      <trkpt lat="41.86945" lon="26.03172">
        <ele>121.204463</ele>
        <time>2022-02-27T07:49:20.612Z</time>
      </trkpt>
      <trkpt lat="41.86948" lon="26.03156">
        <ele>121.262233</ele>
        <time>2022-02-27T07:49:23.610Z</time>
      </trkpt>
      <trkpt lat="41.86951" lon="26.0314">
        <ele>121.318167</ele>
        <time>2022-02-27T07:49:26.611Z</time>
      </trkpt>
      <trkpt lat="41.86953" lon="26.03124">
        <ele>121.373462</ele>
        <time>2022-02-27T07:49:29.616Z</time>
      </trkpt>
      <trkpt lat="41.86956" lon="26.0311">
        <ele>121.42591</ele>
        <time>2022-02-27T07:49:32.612Z</time>
      </trkpt>
      <trkpt lat="41.86958" lon="26.03094">
        <ele>121.480386</ele>
        <time>2022-02-27T07:49:35.642Z</time>
      </trkpt>
      <trkpt lat="41.86961" lon="26.0308">
        <ele>121.532188</ele>
        <time>2022-02-27T07:49:38.605Z</time>
      </trkpt>
      <trkpt lat="41.86963" lon="26.03065">
        <ele>121.586224</ele>
        <time>2022-02-27T07:49:41.587Z</time>
      </trkpt>
      <trkpt lat="41.86965" lon="26.03049">
        <ele>121.659607</ele>
        <time>2022-02-27T07:49:44.607Z</time>
      </trkpt>
      <trkpt lat="41.86967" lon="26.03034">
        <ele>121.862575</ele>
        <time>2022-02-27T07:49:47.600Z</time>
      </trkpt>
      <trkpt lat="41.86969" lon="26.03018">
        <ele>122.068129</ele>
        <time>2022-02-27T07:49:50.607Z</time>
      </trkpt>
      <trkpt lat="41.86972" lon="26.03003">
        <ele>122.275536</ele>
        <time>2022-02-27T07:49:53.617Z</time>
      </trkpt>
      <trkpt lat="41.86975" lon="26.02988">
        <ele>122.482303</ele>
        <time>2022-02-27T07:49:56.627Z</time>
      </trkpt>
      <trkpt lat="41.86978" lon="26.02973">
        <ele>122.689949</ele>
        <time>2022-02-27T07:49:59.591Z</time>
      </trkpt>
      <trkpt lat="41.86981" lon="26.02957">
        <ele>122.906544</ele>
        <time>2022-02-27T07:50:02.585Z</time>
      </trkpt>
      <trkpt lat="41.86984" lon="26.02941">
        <ele>123.124858</ele>
        <time>2022-02-27T07:50:05.617Z</time>
      </trkpt>
      <trkpt lat="41.86986" lon="26.02925">
        <ele>123.331923</ele>
        <time>2022-02-27T07:50:08.615Z</time>
      </trkpt>
      <trkpt lat="41.86988" lon="26.02909">
        <ele>123.543555</ele>
        <time>2022-02-27T07:50:11.600Z</time>
      </trkpt>
      <trkpt lat="41.8699" lon="26.02894">
        <ele>123.757784</ele>
        <time>2022-02-27T07:50:14.594Z</time>
      </trkpt>
      <trkpt lat="41.86993" lon="26.02878">
        <ele>123.97482</ele>
        <time>2022-02-27T07:50:17.608Z</time>
      </trkpt>
      <trkpt lat="41.86996" lon="26.02861">
        <ele>124.199576</ele>
        <time>2022-02-27T07:50:20.598Z</time>
      </trkpt>
      <trkpt lat="41.86999" lon="26.02844">
        <ele>124.431563</ele>
        <time>2022-02-27T07:50:23.591Z</time>
      </trkpt>
      <trkpt lat="41.87002" lon="26.02828">
        <ele>124.647313</ele>
        <time>2022-02-27T07:50:26.616Z</time>
      </trkpt>
      <trkpt lat="41.87004" lon="26.02811">
        <ele>124.804607</ele>
        <time>2022-02-27T07:50:29.605Z</time>
      </trkpt>
      <trkpt lat="41.87006" lon="26.02795">
        <ele>124.706194</ele>
        <time>2022-02-27T07:50:32.607Z</time>
      </trkpt>
      <trkpt lat="41.87009" lon="26.02778">
        <ele>124.605485</ele>
        <time>2022-02-27T07:50:35.669Z</time>
      </trkpt>
      <trkpt lat="41.87011" lon="26.02761">
        <ele>124.505649</ele>
        <time>2022-02-27T07:50:38.595Z</time>
      </trkpt>
      <trkpt lat="41.87014" lon="26.02744">
        <ele>124.408349</ele>
        <time>2022-02-27T07:50:41.597Z</time>
      </trkpt>
      <trkpt lat="41.87016" lon="26.02728">
        <ele>124.310792</ele>
        <time>2022-02-27T07:50:44.594Z</time>
      </trkpt>
      <trkpt lat="41.87019" lon="26.02711">
        <ele>124.212096</ele>
        <time>2022-02-27T07:50:47.606Z</time>
      </trkpt>
      <trkpt lat="41.87022" lon="26.02695">
        <ele>124.113309</ele>
        <time>2022-02-27T07:50:50.605Z</time>
      </trkpt>
      <trkpt lat="41.87025" lon="26.02678">
        <ele>124.015289</ele>
        <time>2022-02-27T07:50:53.599Z</time>
      </trkpt>
      <trkpt lat="41.87029" lon="26.02662">
        <ele>123.917103</ele>
        <time>2022-02-27T07:50:56.595Z</time>
      </trkpt>
      <trkpt lat="41.87031" lon="26.02647">
        <ele>123.82564</ele>
        <time>2022-02-27T07:50:59.599Z</time>
      </trkpt>
      <trkpt lat="41.87034" lon="26.02632">
        <ele>123.736073</ele>
        <time>2022-02-27T07:51:02.616Z</time>
      </trkpt>
      <trkpt lat="41.87037" lon="26.02616">
        <ele>123.641454</ele>
        <time>2022-02-27T07:51:05.612Z</time>
      </trkpt>
      <trkpt lat="41.8704" lon="26.026">
        <ele>123.548901</ele>
        <time>2022-02-27T07:51:08.652Z</time>
      </trkpt>
      <trkpt lat="41.87043" lon="26.02585">
        <ele>123.457658</ele>
        <time>2022-02-27T07:51:11.596Z</time>
      </trkpt>
      <trkpt lat="41.87045" lon="26.02568">
        <ele>123.313672</ele>
        <time>2022-02-27T07:51:14.606Z</time>
      </trkpt>
      <trkpt lat="41.87047" lon="26.02556">
        <ele>123.194622</ele>
        <time>2022-02-27T07:51:16.595Z</time>
      </trkpt>
      <trkpt lat="41.87049" lon="26.02544">
        <ele>123.078644</ele>
        <time>2022-02-27T07:51:18.607Z</time>
      </trkpt>
      <trkpt lat="41.87053" lon="26.02528">
        <ele>122.914395</ele>
        <time>2022-02-27T07:51:21.608Z</time>
      </trkpt>
      <trkpt lat="41.87056" lon="26.02512">
        <ele>122.755765</ele>
        <time>2022-02-27T07:51:24.603Z</time>
      </trkpt>
      <trkpt lat="41.87058" lon="26.02496">
        <ele>122.603257</ele>
        <time>2022-02-27T07:51:27.587Z</time>
      </trkpt>
      <trkpt lat="41.87061" lon="26.02481">
        <ele>122.453037</ele>
        <time>2022-02-27T07:51:30.622Z</time>
      </trkpt>
      <trkpt lat="41.87063" lon="26.02467">
        <ele>122.311684</ele>
        <time>2022-02-27T07:51:33.587Z</time>
      </trkpt>
      <trkpt lat="41.87065" lon="26.02451">
        <ele>122.160566</ele>
        <time>2022-02-27T07:51:36.608Z</time>
      </trkpt>
      <trkpt lat="41.87067" lon="26.02435">
        <ele>122.003537</ele>
        <time>2022-02-27T07:51:39.602Z</time>
      </trkpt>
      <trkpt lat="41.87069" lon="26.02419">
        <ele>121.845499</ele>
        <time>2022-02-27T07:51:42.594Z</time>
      </trkpt>
      <trkpt lat="41.87072" lon="26.02403">
        <ele>121.683791</ele>
        <time>2022-02-27T07:51:45.584Z</time>
      </trkpt>
      <trkpt lat="41.87075" lon="26.02386">
        <ele>121.51954</ele>
        <time>2022-02-27T07:51:48.611Z</time>
      </trkpt>
      <trkpt lat="41.87077" lon="26.0237">
        <ele>121.355698</ele>
        <time>2022-02-27T07:51:51.623Z</time>
      </trkpt>
      <trkpt lat="41.87079" lon="26.02353">
        <ele>121.191598</ele>
        <time>2022-02-27T07:51:54.598Z</time>
      </trkpt>
      <trkpt lat="41.87081" lon="26.02336">
        <ele>121.102599</ele>
        <time>2022-02-27T07:51:57.629Z</time>
      </trkpt>
      <trkpt lat="41.87084" lon="26.0232">
        <ele>121.117185</ele>
        <time>2022-02-27T07:52:00.619Z</time>
      </trkpt>
      <trkpt lat="41.87086" lon="26.02303">
        <ele>121.131855</ele>
        <time>2022-02-27T07:52:03.611Z</time>
      </trkpt>
      <trkpt lat="41.87089" lon="26.02286">
        <ele>121.14638</ele>
        <time>2022-02-27T07:52:06.609Z</time>
      </trkpt>
      <trkpt lat="41.87091" lon="26.0227">
        <ele>121.160564</ele>
        <time>2022-02-27T07:52:09.595Z</time>
      </trkpt>
      <trkpt lat="41.87093" lon="26.02253">
        <ele>121.175002</ele>
        <time>2022-02-27T07:52:12.615Z</time>
      </trkpt>
      <trkpt lat="41.87096" lon="26.02237">
        <ele>121.189061</ele>
        <time>2022-02-27T07:52:15.639Z</time>
      </trkpt>
      <trkpt lat="41.87098" lon="26.02221">
        <ele>121.203527</ele>
        <time>2022-02-27T07:52:18.594Z</time>
      </trkpt>
      <trkpt lat="41.87101" lon="26.02204">
        <ele>121.218243</ele>
        <time>2022-02-27T07:52:21.607Z</time>
      </trkpt>
      <trkpt lat="41.87104" lon="26.02188">
        <ele>121.232709</ele>
        <time>2022-02-27T07:52:24.597Z</time>
      </trkpt>
      <trkpt lat="41.87107" lon="26.02171">
        <ele>121.247309</ele>
        <time>2022-02-27T07:52:27.603Z</time>
      </trkpt>
      <trkpt lat="41.8711" lon="26.02154">
        <ele>121.262602</ele>
        <time>2022-02-27T07:52:30.642Z</time>
      </trkpt>
      <trkpt lat="41.87112" lon="26.02136">
        <ele>121.277502</ele>
        <time>2022-02-27T07:52:33.590Z</time>
      </trkpt>
      <trkpt lat="41.87115" lon="26.02119">
        <ele>121.292721</ele>
        <time>2022-02-27T07:52:36.593Z</time>
      </trkpt>
      <trkpt lat="41.87117" lon="26.02102">
        <ele>121.350248</ele>
        <time>2022-02-27T07:52:39.613Z</time>
      </trkpt>
      <trkpt lat="41.8712" lon="26.02086">
        <ele>121.520498</ele>
        <time>2022-02-27T07:52:42.623Z</time>
      </trkpt>
      <trkpt lat="41.87123" lon="26.02069">
        <ele>121.698016</ele>
        <time>2022-02-27T07:52:45.603Z</time>
      </trkpt>
      <trkpt lat="41.87126" lon="26.02052">
        <ele>121.876655</ele>
        <time>2022-02-27T07:52:48.606Z</time>
      </trkpt>
      <trkpt lat="41.87128" lon="26.02035">
        <ele>122.043518</ele>
        <time>2022-02-27T07:52:51.627Z</time>
      </trkpt>
      <trkpt lat="41.8713" lon="26.02018">
        <ele>122.221389</ele>
        <time>2022-02-27T07:52:54.606Z</time>
      </trkpt>
      <trkpt lat="41.87132" lon="26.02002">
        <ele>122.392551</ele>
        <time>2022-02-27T07:52:57.591Z</time>
      </trkpt>
      <trkpt lat="41.87135" lon="26.01984">
        <ele>122.576183</ele>
        <time>2022-02-27T07:53:00.606Z</time>
      </trkpt>
      <trkpt lat="41.87137" lon="26.01966">
        <ele>122.756828</ele>
        <time>2022-02-27T07:53:03.606Z</time>
      </trkpt>
      <trkpt lat="41.8714" lon="26.01949">
        <ele>122.936467</ele>
        <time>2022-02-27T07:53:06.603Z</time>
      </trkpt>
      <trkpt lat="41.87142" lon="26.01932">
        <ele>123.110333</ele>
        <time>2022-02-27T07:53:09.640Z</time>
      </trkpt>
      <trkpt lat="41.87144" lon="26.01915">
        <ele>123.290706</ele>
        <time>2022-02-27T07:53:12.589Z</time>
      </trkpt>
      <trkpt lat="41.87147" lon="26.01899">
        <ele>123.459306</ele>
        <time>2022-02-27T07:53:15.624Z</time>
      </trkpt>
      <trkpt lat="41.87151" lon="26.01884">
        <ele>123.621109</ele>
        <time>2022-02-27T07:53:18.605Z</time>
      </trkpt>
      <trkpt lat="41.87154" lon="26.01868">
        <ele>123.757421</ele>
        <time>2022-02-27T07:53:21.611Z</time>
      </trkpt>
      <trkpt lat="41.87157" lon="26.01852">
        <ele>123.718954</ele>
        <time>2022-02-27T07:53:24.584Z</time>
      </trkpt>
      <trkpt lat="41.8716" lon="26.01835">
        <ele>123.680195</ele>
        <time>2022-02-27T07:53:27.623Z</time>
      </trkpt>
      <trkpt lat="41.87163" lon="26.01818">
        <ele>123.641296</ele>
        <time>2022-02-27T07:53:30.605Z</time>
      </trkpt>
      <trkpt lat="41.87165" lon="26.01801">
        <ele>123.603085</ele>
        <time>2022-02-27T07:53:33.601Z</time>
      </trkpt>
      <trkpt lat="41.87168" lon="26.01784">
        <ele>123.564051</ele>
        <time>2022-02-27T07:53:36.594Z</time>
      </trkpt>
      <trkpt lat="41.8717" lon="26.01767">
        <ele>123.524779</ele>
        <time>2022-02-27T07:53:39.609Z</time>
      </trkpt>
      <trkpt lat="41.87172" lon="26.0175">
        <ele>123.487058</ele>
        <time>2022-02-27T07:53:42.613Z</time>
      </trkpt>
      <trkpt lat="41.87174" lon="26.01733">
        <ele>123.448794</ele>
        <time>2022-02-27T07:53:45.631Z</time>
      </trkpt>
      <trkpt lat="41.87176" lon="26.01716">
        <ele>123.409743</ele>
        <time>2022-02-27T07:53:48.612Z</time>
      </trkpt>
      <trkpt lat="41.87178" lon="26.01699">
        <ele>123.370337</ele>
        <time>2022-02-27T07:53:51.603Z</time>
      </trkpt>
      <trkpt lat="41.8718" lon="26.01682">
        <ele>123.330968</ele>
        <time>2022-02-27T07:53:54.628Z</time>
      </trkpt>
      <trkpt lat="41.87182" lon="26.01665">
        <ele>123.292209</ele>
        <time>2022-02-27T07:53:57.584Z</time>
      </trkpt>
      <trkpt lat="41.87184" lon="26.01648">
        <ele>123.254387</ele>
        <time>2022-02-27T07:54:00.605Z</time>
      </trkpt>
      <trkpt lat="41.87187" lon="26.01631">
        <ele>123.219611</ele>
        <time>2022-02-27T07:54:03.620Z</time>
      </trkpt>
      <trkpt lat="41.8719" lon="26.01614">
        <ele>123.212278</ele>
        <time>2022-02-27T07:54:06.586Z</time>
      </trkpt>
      <trkpt lat="41.87192" lon="26.01598">
        <ele>123.20507</ele>
        <time>2022-02-27T07:54:09.606Z</time>
      </trkpt>
      <trkpt lat="41.87195" lon="26.01582">
        <ele>123.198005</ele>
        <time>2022-02-27T07:54:12.610Z</time>
      </trkpt>
      <trkpt lat="41.87198" lon="26.01566">
        <ele>123.191066</ele>
        <time>2022-02-27T07:54:15.591Z</time>
      </trkpt>
      <trkpt lat="41.872" lon="26.0155">
        <ele>123.184025</ele>
        <time>2022-02-27T07:54:18.626Z</time>
      </trkpt>
      <trkpt lat="41.87202" lon="26.01533">
        <ele>123.176978</ele>
        <time>2022-02-27T07:54:21.625Z</time>
      </trkpt>
      <trkpt lat="41.87204" lon="26.01517">
        <ele>123.170016</ele>
        <time>2022-02-27T07:54:24.575Z</time>
      </trkpt>
      <trkpt lat="41.87205" lon="26.01501">
        <ele>123.163214</ele>
        <time>2022-02-27T07:54:27.591Z</time>
      </trkpt>
      <trkpt lat="41.87206" lon="26.01485">
        <ele>123.156274</ele>
        <time>2022-02-27T07:54:30.615Z</time>
      </trkpt>
      <trkpt lat="41.87208" lon="26.01469">
        <ele>123.149269</ele>
        <time>2022-02-27T07:54:33.603Z</time>
      </trkpt>
      <trkpt lat="41.87209" lon="26.01452">
        <ele>123.142038</ele>
        <time>2022-02-27T07:54:36.616Z</time>
      </trkpt>
      <trkpt lat="41.8721" lon="26.01435">
        <ele>123.134823</ele>
        <time>2022-02-27T07:54:39.643Z</time>
      </trkpt>
      <trkpt lat="41.87211" lon="26.01419">
        <ele>123.127948</ele>
        <time>2022-02-27T07:54:42.615Z</time>
      </trkpt>
      <trkpt lat="41.87213" lon="26.01401">
        <ele>123.120384</ele>
        <time>2022-02-27T07:54:45.606Z</time>
      </trkpt>
      <trkpt lat="41.87213" lon="26.01384">
        <ele>123.127204</ele>
        <time>2022-02-27T07:54:48.595Z</time>
      </trkpt>
      <trkpt lat="41.87214" lon="26.01372">
        <ele>123.138412</ele>
        <time>2022-02-27T07:54:50.644Z</time>
      </trkpt>
      <trkpt lat="41.87215" lon="26.01355">
        <ele>123.154289</ele>
        <time>2022-02-27T07:54:53.597Z</time>
      </trkpt>
      <trkpt lat="41.87216" lon="26.01338">
        <ele>123.169727</ele>
        <time>2022-02-27T07:54:56.635Z</time>
      </trkpt>
      <trkpt lat="41.87217" lon="26.01321">
        <ele>123.184821</ele>
        <time>2022-02-27T07:54:59.592Z</time>
      </trkpt>
      <trkpt lat="41.87218" lon="26.01305">
        <ele>123.199915</ele>
        <time>2022-02-27T07:55:02.647Z</time>
      </trkpt>
      <trkpt lat="41.87219" lon="26.01288">
        <ele>123.215261</ele>
        <time>2022-02-27T07:55:05.603Z</time>
      </trkpt>
      <trkpt lat="41.8722" lon="26.01271">
        <ele>123.230709</ele>
        <time>2022-02-27T07:55:08.599Z</time>
      </trkpt>
      <trkpt lat="41.87222" lon="26.01255">
        <ele>123.245907</ele>
        <time>2022-02-27T07:55:11.591Z</time>
      </trkpt>
      <trkpt lat="41.87223" lon="26.01238">
        <ele>123.261457</ele>
        <time>2022-02-27T07:55:14.603Z</time>
      </trkpt>
      <trkpt lat="41.87224" lon="26.01221">
        <ele>123.277179</ele>
        <time>2022-02-27T07:55:17.591Z</time>
      </trkpt>
      <trkpt lat="41.87225" lon="26.01204">
        <ele>123.292481</ele>
        <time>2022-02-27T07:55:20.600Z</time>
      </trkpt>
      <trkpt lat="41.87226" lon="26.01188">
        <ele>123.307544</ele>
        <time>2022-02-27T07:55:23.644Z</time>
      </trkpt>
      <trkpt lat="41.87227" lon="26.01172">
        <ele>123.32215</ele>
        <time>2022-02-27T07:55:26.602Z</time>
      </trkpt>
      <trkpt lat="41.87228" lon="26.01156">
        <ele>123.336948</ele>
        <time>2022-02-27T07:55:29.643Z</time>
      </trkpt>
      <trkpt lat="41.87229" lon="26.01139">
        <ele>123.3583</ele>
        <time>2022-02-27T07:55:32.625Z</time>
      </trkpt>
      <trkpt lat="41.8723" lon="26.01122">
        <ele>123.38146</ele>
        <time>2022-02-27T07:55:35.596Z</time>
      </trkpt>
      <trkpt lat="41.8723" lon="26.01105">
        <ele>123.404505</ele>
        <time>2022-02-27T07:55:38.629Z</time>
      </trkpt>
      <trkpt lat="41.87231" lon="26.01089">
        <ele>123.426758</ele>
        <time>2022-02-27T07:55:41.610Z</time>
      </trkpt>
      <trkpt lat="41.87232" lon="26.01072">
        <ele>123.449174</ele>
        <time>2022-02-27T07:55:44.601Z</time>
      </trkpt>
      <trkpt lat="41.87233" lon="26.01056">
        <ele>123.471011</ele>
        <time>2022-02-27T07:55:47.605Z</time>
      </trkpt>
      <trkpt lat="41.87235" lon="26.01039">
        <ele>123.493864</ele>
        <time>2022-02-27T07:55:50.598Z</time>
      </trkpt>
      <trkpt lat="41.87236" lon="26.01021">
        <ele>123.517754</ele>
        <time>2022-02-27T07:55:53.600Z</time>
      </trkpt>
      <trkpt lat="41.87237" lon="26.01004">
        <ele>123.541659</ele>
        <time>2022-02-27T07:55:56.611Z</time>
      </trkpt>
      <trkpt lat="41.87238" lon="26.00986">
        <ele>123.565522</ele>
        <time>2022-02-27T07:55:59.591Z</time>
      </trkpt>
      <trkpt lat="41.87239" lon="26.00969">
        <ele>123.588624</ele>
        <time>2022-02-27T07:56:02.588Z</time>
      </trkpt>
      <trkpt lat="41.8724" lon="26.00951">
        <ele>123.612621</ele>
        <time>2022-02-27T07:56:05.591Z</time>
      </trkpt>
      <trkpt lat="41.87241" lon="26.00934">
        <ele>123.635492</ele>
        <time>2022-02-27T07:56:08.622Z</time>
      </trkpt>
      <trkpt lat="41.87243" lon="26.00917">
        <ele>123.658746</ele>
        <time>2022-02-27T07:56:11.616Z</time>
      </trkpt>
      <trkpt lat="41.87244" lon="26.009">
        <ele>123.68321</ele>
        <time>2022-02-27T07:56:14.651Z</time>
      </trkpt>
      <trkpt lat="41.87245" lon="26.00882">
        <ele>123.708351</ele>
        <time>2022-02-27T07:56:17.593Z</time>
      </trkpt>
      <trkpt lat="41.87246" lon="26.00865">
        <ele>123.733741</ele>
        <time>2022-02-27T07:56:20.616Z</time>
      </trkpt>
      <trkpt lat="41.87248" lon="26.00848">
        <ele>123.75897</ele>
        <time>2022-02-27T07:56:23.618Z</time>
      </trkpt>
      <trkpt lat="41.87249" lon="26.0083">
        <ele>123.784055</ele>
        <time>2022-02-27T07:56:26.607Z</time>
      </trkpt>
      <trkpt lat="41.87249" lon="26.00813">
        <ele>123.808499</ele>
        <time>2022-02-27T07:56:29.601Z</time>
      </trkpt>
      <trkpt lat="41.8725" lon="26.00797">
        <ele>123.832417</ele>
        <time>2022-02-27T07:56:32.589Z</time>
      </trkpt>
      <trkpt lat="41.87251" lon="26.0078">
        <ele>123.857328</ele>
        <time>2022-02-27T07:56:35.605Z</time>
      </trkpt>
      <trkpt lat="41.87252" lon="26.00762">
        <ele>123.882791</ele>
        <time>2022-02-27T07:56:38.609Z</time>
      </trkpt>
      <trkpt lat="41.87253" lon="26.00744">
        <ele>123.908529</ele>
        <time>2022-02-27T07:56:41.598Z</time>
      </trkpt>
      <trkpt lat="41.87255" lon="26.00727">
        <ele>123.933883</ele>
        <time>2022-02-27T07:56:44.613Z</time>
      </trkpt>
      <trkpt lat="41.87256" lon="26.0071">
        <ele>123.958938</ele>
        <time>2022-02-27T07:56:47.597Z</time>
      </trkpt>
      <trkpt lat="41.87257" lon="26.00693">
        <ele>123.983303</ele>
        <time>2022-02-27T07:56:50.592Z</time>
      </trkpt>
      <trkpt lat="41.87258" lon="26.00677">
        <ele>124.006949</ele>
        <time>2022-02-27T07:56:53.607Z</time>
      </trkpt>
      <trkpt lat="41.87259" lon="26.0066">
        <ele>124.077552</ele>
        <time>2022-02-27T07:56:56.604Z</time>
      </trkpt>
      <trkpt lat="41.8726" lon="26.00644">
        <ele>124.159079</ele>
        <time>2022-02-27T07:56:59.606Z</time>
      </trkpt>
      <trkpt lat="41.87261" lon="26.00627">
        <ele>124.243807</ele>
        <time>2022-02-27T07:57:02.593Z</time>
      </trkpt>
      <trkpt lat="41.87262" lon="26.00611">
        <ele>124.328235</ele>
        <time>2022-02-27T07:57:05.615Z</time>
      </trkpt>
      <trkpt lat="41.87263" lon="26.00593">
        <ele>124.416402</ele>
        <time>2022-02-27T07:57:08.590Z</time>
      </trkpt>
      <trkpt lat="41.87264" lon="26.00577">
        <ele>124.502205</ele>
        <time>2022-02-27T07:57:11.603Z</time>
      </trkpt>
      <trkpt lat="41.87265" lon="26.0056">
        <ele>124.589408</ele>
        <time>2022-02-27T07:57:14.604Z</time>
      </trkpt>
      <trkpt lat="41.87266" lon="26.00542">
        <ele>124.677998</ele>
        <time>2022-02-27T07:57:17.609Z</time>
      </trkpt>
      <trkpt lat="41.87267" lon="26.00526">
        <ele>124.762219</ele>
        <time>2022-02-27T07:57:20.608Z</time>
      </trkpt>
      <trkpt lat="41.87268" lon="26.00508">
        <ele>124.849986</ele>
        <time>2022-02-27T07:57:23.606Z</time>
      </trkpt>
      <trkpt lat="41.8727" lon="26.00492">
        <ele>124.935282</ele>
        <time>2022-02-27T07:57:26.636Z</time>
      </trkpt>
      <trkpt lat="41.87272" lon="26.00475">
        <ele>125.020272</ele>
        <time>2022-02-27T07:57:29.613Z</time>
      </trkpt>
      <trkpt lat="41.87273" lon="26.00458">
        <ele>125.110839</ele>
        <time>2022-02-27T07:57:32.601Z</time>
      </trkpt>
      <trkpt lat="41.87274" lon="26.0044">
        <ele>125.198379</ele>
        <time>2022-02-27T07:57:35.592Z</time>
      </trkpt>
      <trkpt lat="41.87274" lon="26.00424">
        <ele>125.238145</ele>
        <time>2022-02-27T07:57:38.609Z</time>
      </trkpt>
      <trkpt lat="41.87275" lon="26.00407">
        <ele>125.232922</ele>
        <time>2022-02-27T07:57:41.599Z</time>
      </trkpt>
      <trkpt lat="41.87276" lon="26.00391">
        <ele>125.227631</ele>
        <time>2022-02-27T07:57:44.609Z</time>
      </trkpt>
      <trkpt lat="41.87277" lon="26.00374">
        <ele>125.222315</ele>
        <time>2022-02-27T07:57:47.593Z</time>
      </trkpt>
      <trkpt lat="41.87278" lon="26.00357">
        <ele>125.216778</ele>
        <time>2022-02-27T07:57:50.584Z</time>
      </trkpt>
      <trkpt lat="41.87279" lon="26.0034">
        <ele>125.211322</ele>
        <time>2022-02-27T07:57:53.615Z</time>
      </trkpt>
      <trkpt lat="41.8728" lon="26.00323">
        <ele>125.20596</ele>
        <time>2022-02-27T07:57:56.603Z</time>
      </trkpt>
      <trkpt lat="41.87281" lon="26.00306">
        <ele>125.200517</ele>
        <time>2022-02-27T07:57:59.633Z</time>
      </trkpt>
      <trkpt lat="41.87282" lon="26.00289">
        <ele>125.195128</ele>
        <time>2022-02-27T07:58:02.596Z</time>
      </trkpt>
      <trkpt lat="41.87284" lon="26.00272">
        <ele>125.18982</ele>
        <time>2022-02-27T07:58:05.623Z</time>
      </trkpt>
      <trkpt lat="41.87285" lon="26.00256">
        <ele>125.184567</ele>
        <time>2022-02-27T07:58:08.587Z</time>
      </trkpt>
      <trkpt lat="41.87286" lon="26.00238">
        <ele>125.178777</ele>
        <time>2022-02-27T07:58:11.611Z</time>
      </trkpt>
      <trkpt lat="41.87286" lon="26.00225">
        <ele>125.174713</ele>
        <time>2022-02-27T07:58:13.599Z</time>
      </trkpt>
      <trkpt lat="41.87286" lon="26.00212">
        <ele>125.170642</ele>
        <time>2022-02-27T07:58:15.592Z</time>
      </trkpt>
      <trkpt lat="41.87287" lon="26.00199">
        <ele>125.166461</ele>
        <time>2022-02-27T07:58:17.593Z</time>
      </trkpt>
      <trkpt lat="41.87288" lon="26.00185">
        <ele>125.055237</ele>
        <time>2022-02-27T07:58:19.597Z</time>
      </trkpt>
      <trkpt lat="41.87289" lon="26.00171">
        <ele>124.819002</ele>
        <time>2022-02-27T07:58:21.587Z</time>
      </trkpt>
      <trkpt lat="41.8729" lon="26.00157">
        <ele>124.583673</ele>
        <time>2022-02-27T07:58:23.592Z</time>
      </trkpt>
      <trkpt lat="41.87291" lon="26.00142">
        <ele>124.334136</ele>
        <time>2022-02-27T07:58:25.605Z</time>
      </trkpt>
      <trkpt lat="41.87293" lon="26.00127">
        <ele>124.07156</ele>
        <time>2022-02-27T07:58:27.641Z</time>
      </trkpt>
      <trkpt lat="41.87296" lon="26.0011">
        <ele>123.788351</ele>
        <time>2022-02-27T07:58:29.597Z</time>
      </trkpt>
      <trkpt lat="41.87298" lon="26.00092">
        <ele>123.482769</ele>
        <time>2022-02-27T07:58:31.603Z</time>
      </trkpt>
      <trkpt lat="41.87302" lon="26.00074">
        <ele>123.162156</ele>
        <time>2022-02-27T07:58:33.589Z</time>
      </trkpt>
      <trkpt lat="41.87305" lon="26.00055">
        <ele>122.838286</ele>
        <time>2022-02-27T07:58:35.602Z</time>
      </trkpt>
      <trkpt lat="41.87309" lon="26.00036">
        <ele>122.513286</ele>
        <time>2022-02-27T07:58:37.587Z</time>
      </trkpt>
      <trkpt lat="41.87313" lon="26.00018">
        <ele>122.18608</ele>
        <time>2022-02-27T07:58:39.622Z</time>
      </trkpt>
      <trkpt lat="41.87316" lon="26">
        <ele>121.8714</ele>
        <time>2022-02-27T07:58:41.593Z</time>
      </trkpt>
      <trkpt lat="41.87321" lon="25.99981">
        <ele>121.541305</ele>
        <time>2022-02-27T07:58:43.628Z</time>
      </trkpt>
      <trkpt lat="41.87326" lon="25.99962">
        <ele>121.200509</ele>
        <time>2022-02-27T07:58:45.667Z</time>
      </trkpt>
      <trkpt lat="41.87332" lon="25.99941">
        <ele>120.504208</ele>
        <time>2022-02-27T07:58:47.619Z</time>
      </trkpt>
      <trkpt lat="41.8734" lon="25.99919">
        <ele>119.658986</ele>
        <time>2022-02-27T07:58:49.602Z</time>
      </trkpt>
      <trkpt lat="41.87344" lon="25.99908">
        <ele>119.236499</ele>
        <time>2022-02-27T07:58:50.594Z</time>
      </trkpt>
      <trkpt lat="41.87352" lon="25.99887">
        <ele>118.410099</ele>
        <time>2022-02-27T07:58:52.603Z</time>
      </trkpt>
      <trkpt lat="41.87357" lon="25.99876">
        <ele>117.966568</ele>
        <time>2022-02-27T07:58:53.600Z</time>
      </trkpt>
      <trkpt lat="41.87362" lon="25.99865">
        <ele>117.522831</ele>
        <time>2022-02-27T07:58:54.649Z</time>
      </trkpt>
      <trkpt lat="41.87366" lon="25.99854">
        <ele>117.080108</ele>
        <time>2022-02-27T07:58:55.610Z</time>
      </trkpt>
      <trkpt lat="41.87371" lon="25.99842">
        <ele>116.631281</ele>
        <time>2022-02-27T07:58:56.612Z</time>
      </trkpt>
      <trkpt lat="41.87375" lon="25.99831">
        <ele>116.187752</ele>
        <time>2022-02-27T07:58:57.613Z</time>
      </trkpt>
      <trkpt lat="41.8738" lon="25.9982">
        <ele>115.739701</ele>
        <time>2022-02-27T07:58:58.609Z</time>
      </trkpt>
      <trkpt lat="41.87385" lon="25.99809">
        <ele>115.305345</ele>
        <time>2022-02-27T07:58:59.602Z</time>
      </trkpt>
      <trkpt lat="41.87389" lon="25.99798">
        <ele>114.873239</ele>
        <time>2022-02-27T07:59:00.609Z</time>
      </trkpt>
      <trkpt lat="41.87394" lon="25.99787">
        <ele>114.427469</ele>
        <time>2022-02-27T07:59:01.590Z</time>
      </trkpt>
      <trkpt lat="41.87398" lon="25.99776">
        <ele>113.980121</ele>
        <time>2022-02-27T07:59:02.618Z</time>
      </trkpt>
      <trkpt lat="41.87403" lon="25.99764">
        <ele>113.528235</ele>
        <time>2022-02-27T07:59:03.613Z</time>
      </trkpt>
      <trkpt lat="41.87408" lon="25.99753">
        <ele>113.085514</ele>
        <time>2022-02-27T07:59:04.609Z</time>
      </trkpt>
      <trkpt lat="41.87412" lon="25.99742">
        <ele>112.638746</ele>
        <time>2022-02-27T07:59:05.624Z</time>
      </trkpt>
      <trkpt lat="41.87417" lon="25.99731">
        <ele>112.171657</ele>
        <time>2022-02-27T07:59:06.645Z</time>
      </trkpt>
      <trkpt lat="41.87421" lon="25.99721">
        <ele>111.706164</ele>
        <time>2022-02-27T07:59:07.609Z</time>
      </trkpt>
      <trkpt lat="41.87431" lon="25.997">
        <ele>110.798624</ele>
        <time>2022-02-27T07:59:09.609Z</time>
      </trkpt>
      <trkpt lat="41.87439" lon="25.99681">
        <ele>109.923747</ele>
        <time>2022-02-27T07:59:11.604Z</time>
      </trkpt>
      <trkpt lat="41.87447" lon="25.99661">
        <ele>109.089783</ele>
        <time>2022-02-27T07:59:13.604Z</time>
      </trkpt>
      <trkpt lat="41.87455" lon="25.99644">
        <ele>108.312988</ele>
        <time>2022-02-27T07:59:15.596Z</time>
      </trkpt>
      <trkpt lat="41.87462" lon="25.99626">
        <ele>107.558541</ele>
        <time>2022-02-27T07:59:17.652Z</time>
      </trkpt>
      <trkpt lat="41.87469" lon="25.9961">
        <ele>106.841331</ele>
        <time>2022-02-27T07:59:19.628Z</time>
      </trkpt>
      <trkpt lat="41.87475" lon="25.99593">
        <ele>106.131041</ele>
        <time>2022-02-27T07:59:21.590Z</time>
      </trkpt>
      <trkpt lat="41.87482" lon="25.99578">
        <ele>105.479119</ele>
        <time>2022-02-27T07:59:23.583Z</time>
      </trkpt>
      <trkpt lat="41.87488" lon="25.99564">
        <ele>104.862159</ele>
        <time>2022-02-27T07:59:25.610Z</time>
      </trkpt>
      <trkpt lat="41.87494" lon="25.99551">
        <ele>104.272729</ele>
        <time>2022-02-27T07:59:27.591Z</time>
      </trkpt>
      <trkpt lat="41.875" lon="25.99538">
        <ele>103.704234</ele>
        <time>2022-02-27T07:59:29.602Z</time>
      </trkpt>
      <trkpt lat="41.87505" lon="25.99526">
        <ele>103.396852</ele>
        <time>2022-02-27T07:59:31.611Z</time>
      </trkpt>
      <trkpt lat="41.8751" lon="25.99514">
        <ele>103.208805</ele>
        <time>2022-02-27T07:59:33.601Z</time>
      </trkpt>
      <trkpt lat="41.87515" lon="25.99503">
        <ele>103.032088</ele>
        <time>2022-02-27T07:59:35.612Z</time>
      </trkpt>
      <trkpt lat="41.8752" lon="25.99492">
        <ele>102.863613</ele>
        <time>2022-02-27T07:59:37.611Z</time>
      </trkpt>
      <trkpt lat="41.87526" lon="25.99476">
        <ele>102.619689</ele>
        <time>2022-02-27T07:59:40.600Z</time>
      </trkpt>
      <trkpt lat="41.87533" lon="25.9946">
        <ele>102.375434</ele>
        <time>2022-02-27T07:59:43.615Z</time>
      </trkpt>
      <trkpt lat="41.87537" lon="25.99449">
        <ele>102.209824</ele>
        <time>2022-02-27T07:59:45.622Z</time>
      </trkpt>
      <trkpt lat="41.87541" lon="25.99439">
        <ele>102.04018</ele>
        <time>2022-02-27T07:59:47.597Z</time>
      </trkpt>
      <trkpt lat="41.87546" lon="25.99428">
        <ele>101.875564</ele>
        <time>2022-02-27T07:59:49.622Z</time>
      </trkpt>
      <trkpt lat="41.87553" lon="25.99413">
        <ele>101.632758</ele>
        <time>2022-02-27T07:59:52.594Z</time>
      </trkpt>
      <trkpt lat="41.87559" lon="25.99398">
        <ele>101.394146</ele>
        <time>2022-02-27T07:59:55.604Z</time>
      </trkpt>
      <trkpt lat="41.87565" lon="25.99382">
        <ele>101.160508</ele>
        <time>2022-02-27T07:59:58.599Z</time>
      </trkpt>
      <trkpt lat="41.87571" lon="25.99367">
        <ele>100.923701</ele>
        <time>2022-02-27T08:00:01.628Z</time>
      </trkpt>
      <trkpt lat="41.87576" lon="25.99356">
        <ele>100.760001</ele>
        <time>2022-02-27T08:00:03.609Z</time>
      </trkpt>
      <trkpt lat="41.8758" lon="25.99345">
        <ele>100.593915</ele>
        <time>2022-02-27T08:00:05.607Z</time>
      </trkpt>
      <trkpt lat="41.87586" lon="25.9933">
        <ele>100.354122</ele>
        <time>2022-02-27T08:00:08.614Z</time>
      </trkpt>
      <trkpt lat="41.87591" lon="25.9932">
        <ele>100.296058</ele>
        <time>2022-02-27T08:00:10.607Z</time>
      </trkpt>
      <trkpt lat="41.87595" lon="25.99309">
        <ele>100.433732</ele>
        <time>2022-02-27T08:00:12.623Z</time>
      </trkpt>
      <trkpt lat="41.876" lon="25.99298">
        <ele>100.576837</ele>
        <time>2022-02-27T08:00:14.599Z</time>
      </trkpt>
      <trkpt lat="41.87607" lon="25.99282">
        <ele>100.781516</ele>
        <time>2022-02-27T08:00:17.603Z</time>
      </trkpt>
      <trkpt lat="41.87613" lon="25.99267">
        <ele>100.98246</ele>
        <time>2022-02-27T08:00:20.590Z</time>
      </trkpt>
      <trkpt lat="41.87619" lon="25.99251">
        <ele>101.179969</ele>
        <time>2022-02-27T08:00:23.608Z</time>
      </trkpt>
      <trkpt lat="41.87625" lon="25.99236">
        <ele>101.374225</ele>
        <time>2022-02-27T08:00:26.593Z</time>
      </trkpt>
      <trkpt lat="41.8763" lon="25.99226">
        <ele>101.512385</ele>
        <time>2022-02-27T08:00:28.619Z</time>
      </trkpt>
      <trkpt lat="41.87634" lon="25.99215">
        <ele>101.65377</ele>
        <time>2022-02-27T08:00:30.623Z</time>
      </trkpt>
      <trkpt lat="41.87638" lon="25.99204">
        <ele>101.791443</ele>
        <time>2022-02-27T08:00:32.596Z</time>
      </trkpt>
      <trkpt lat="41.87645" lon="25.99189">
        <ele>101.98916</ele>
        <time>2022-02-27T08:00:35.592Z</time>
      </trkpt>
      <trkpt lat="41.8765" lon="25.99178">
        <ele>102.126833</ele>
        <time>2022-02-27T08:00:37.621Z</time>
      </trkpt>
      <trkpt lat="41.87655" lon="25.99164">
        <ele>102.308981</ele>
        <time>2022-02-27T08:00:40.595Z</time>
      </trkpt>
      <trkpt lat="41.87662" lon="25.9915">
        <ele>102.496142</ele>
        <time>2022-02-27T08:00:43.608Z</time>
      </trkpt>
      <trkpt lat="41.87668" lon="25.99135">
        <ele>102.694199</ele>
        <time>2022-02-27T08:00:46.586Z</time>
      </trkpt>
      <trkpt lat="41.87675" lon="25.9912">
        <ele>102.896153</ele>
        <time>2022-02-27T08:00:49.648Z</time>
      </trkpt>
      <trkpt lat="41.87681" lon="25.99104">
        <ele>102.909555</ele>
        <time>2022-02-27T08:00:52.610Z</time>
      </trkpt>
      <trkpt lat="41.87686" lon="25.99094">
        <ele>102.820533</ele>
        <time>2022-02-27T08:00:54.600Z</time>
      </trkpt>
      <trkpt lat="41.87692" lon="25.99078">
        <ele>102.687292</ele>
        <time>2022-02-27T08:00:57.608Z</time>
      </trkpt>
      <trkpt lat="41.87696" lon="25.99067">
        <ele>102.597168</ele>
        <time>2022-02-27T08:00:59.605Z</time>
      </trkpt>
      <trkpt lat="41.87703" lon="25.99052">
        <ele>102.468912</ele>
        <time>2022-02-27T08:01:02.603Z</time>
      </trkpt>
      <trkpt lat="41.8771" lon="25.99037">
        <ele>102.337603</ele>
        <time>2022-02-27T08:01:05.594Z</time>
      </trkpt>
      <trkpt lat="41.87716" lon="25.99022">
        <ele>102.211333</ele>
        <time>2022-02-27T08:01:08.619Z</time>
      </trkpt>
      <trkpt lat="41.87722" lon="25.99007">
        <ele>102.079089</ele>
        <time>2022-02-27T08:01:11.636Z</time>
      </trkpt>
      <trkpt lat="41.87728" lon="25.98991">
        <ele>101.950511</ele>
        <time>2022-02-27T08:01:14.593Z</time>
      </trkpt>
      <trkpt lat="41.87735" lon="25.98976">
        <ele>101.820688</ele>
        <time>2022-02-27T08:01:17.620Z</time>
      </trkpt>
      <trkpt lat="41.87741" lon="25.98961">
        <ele>101.692642</ele>
        <time>2022-02-27T08:01:20.606Z</time>
      </trkpt>
      <trkpt lat="41.87747" lon="25.98946">
        <ele>101.56395</ele>
        <time>2022-02-27T08:01:23.600Z</time>
      </trkpt>
      <trkpt lat="41.87754" lon="25.98931">
        <ele>101.437034</ele>
        <time>2022-02-27T08:01:26.601Z</time>
      </trkpt>
      <trkpt lat="41.87758" lon="25.9892">
        <ele>101.346434</ele>
        <time>2022-02-27T08:01:28.643Z</time>
      </trkpt>
      <trkpt lat="41.87763" lon="25.98909">
        <ele>101.254656</ele>
        <time>2022-02-27T08:01:30.595Z</time>
      </trkpt>
      <trkpt lat="41.87768" lon="25.98898">
        <ele>101.198152</ele>
        <time>2022-02-27T08:01:32.608Z</time>
      </trkpt>
      <trkpt lat="41.87774" lon="25.98882">
        <ele>101.206768</ele>
        <time>2022-02-27T08:01:35.572Z</time>
      </trkpt>
      <trkpt lat="41.87779" lon="25.98872">
        <ele>101.212506</ele>
        <time>2022-02-27T08:01:37.597Z</time>
      </trkpt>
      <trkpt lat="41.87785" lon="25.98856">
        <ele>101.220845</ele>
        <time>2022-02-27T08:01:40.609Z</time>
      </trkpt>
      <trkpt lat="41.87792" lon="25.98841">
        <ele>101.229287</ele>
        <time>2022-02-27T08:01:43.638Z</time>
      </trkpt>
      <trkpt lat="41.87796" lon="25.9883">
        <ele>101.235051</ele>
        <time>2022-02-27T08:01:45.601Z</time>
      </trkpt>
      <trkpt lat="41.87801" lon="25.98819">
        <ele>101.241146</ele>
        <time>2022-02-27T08:01:47.610Z</time>
      </trkpt>
      <trkpt lat="41.87805" lon="25.98807">
        <ele>101.24722</ele>
        <time>2022-02-27T08:01:49.608Z</time>
      </trkpt>
      <trkpt lat="41.8781" lon="25.98796">
        <ele>101.253176</ele>
        <time>2022-02-27T08:01:51.605Z</time>
      </trkpt>
      <trkpt lat="41.87814" lon="25.98785">
        <ele>101.258972</ele>
        <time>2022-02-27T08:01:53.609Z</time>
      </trkpt>
      <trkpt lat="41.8782" lon="25.98774">
        <ele>101.265225</ele>
        <time>2022-02-27T08:01:55.624Z</time>
      </trkpt>
      <trkpt lat="41.87825" lon="25.98763">
        <ele>101.271416</ele>
        <time>2022-02-27T08:01:57.612Z</time>
      </trkpt>
      <trkpt lat="41.8783" lon="25.98752">
        <ele>101.277583</ele>
        <time>2022-02-27T08:01:59.603Z</time>
      </trkpt>
      <trkpt lat="41.87834" lon="25.98741">
        <ele>101.283585</ele>
        <time>2022-02-27T08:02:01.591Z</time>
      </trkpt>
      <trkpt lat="41.87839" lon="25.98729">
        <ele>101.28968</ele>
        <time>2022-02-27T08:02:03.613Z</time>
      </trkpt>
      <trkpt lat="41.87844" lon="25.98718">
        <ele>101.295693</ele>
        <time>2022-02-27T08:02:05.598Z</time>
      </trkpt>
      <trkpt lat="41.87848" lon="25.98708">
        <ele>101.301665</ele>
        <time>2022-02-27T08:02:07.585Z</time>
      </trkpt>
      <trkpt lat="41.87853" lon="25.98696">
        <ele>101.30778</ele>
        <time>2022-02-27T08:02:09.612Z</time>
      </trkpt>
      <trkpt lat="41.87858" lon="25.98685">
        <ele>101.429907</ele>
        <time>2022-02-27T08:02:11.641Z</time>
      </trkpt>
      <trkpt lat="41.87862" lon="25.98673">
        <ele>101.610136</ele>
        <time>2022-02-27T08:02:13.605Z</time>
      </trkpt>
      <trkpt lat="41.87867" lon="25.98662">
        <ele>101.787914</ele>
        <time>2022-02-27T08:02:15.609Z</time>
      </trkpt>
      <trkpt lat="41.87871" lon="25.98651">
        <ele>101.964821</ele>
        <time>2022-02-27T08:02:17.642Z</time>
      </trkpt>
      <trkpt lat="41.87876" lon="25.9864">
        <ele>102.140274</ele>
        <time>2022-02-27T08:02:19.602Z</time>
      </trkpt>
      <trkpt lat="41.87881" lon="25.98629">
        <ele>102.313363</ele>
        <time>2022-02-27T08:02:21.610Z</time>
      </trkpt>
      <trkpt lat="41.87885" lon="25.98618">
        <ele>102.488387</ele>
        <time>2022-02-27T08:02:23.601Z</time>
      </trkpt>
      <trkpt lat="41.8789" lon="25.98608">
        <ele>102.657068</ele>
        <time>2022-02-27T08:02:25.592Z</time>
      </trkpt>
      <trkpt lat="41.87896" lon="25.98592">
        <ele>102.903611</ele>
        <time>2022-02-27T08:02:28.624Z</time>
      </trkpt>
      <trkpt lat="41.87901" lon="25.98581">
        <ele>103.075724</ele>
        <time>2022-02-27T08:02:30.624Z</time>
      </trkpt>
      <trkpt lat="41.87905" lon="25.98571">
        <ele>103.24807</ele>
        <time>2022-02-27T08:02:32.606Z</time>
      </trkpt>
      <trkpt lat="41.8791" lon="25.98559">
        <ele>103.428284</ele>
        <time>2022-02-27T08:02:34.588Z</time>
      </trkpt>
      <trkpt lat="41.87915" lon="25.98548">
        <ele>103.602402</ele>
        <time>2022-02-27T08:02:36.591Z</time>
      </trkpt>
      <trkpt lat="41.87919" lon="25.98538">
        <ele>103.775011</ele>
        <time>2022-02-27T08:02:38.604Z</time>
      </trkpt>
      <trkpt lat="41.87926" lon="25.98521">
        <ele>104.028559</ele>
        <time>2022-02-27T08:02:41.604Z</time>
      </trkpt>
      <trkpt lat="41.8793" lon="25.9851">
        <ele>104.204792</ele>
        <time>2022-02-27T08:02:43.601Z</time>
      </trkpt>
      <trkpt lat="41.87935" lon="25.98499">
        <ele>104.377147</ele>
        <time>2022-02-27T08:02:45.603Z</time>
      </trkpt>
      <trkpt lat="41.87939" lon="25.98488">
        <ele>104.55005</ele>
        <time>2022-02-27T08:02:47.613Z</time>
      </trkpt>
      <trkpt lat="41.87944" lon="25.98477">
        <ele>104.646205</ele>
        <time>2022-02-27T08:02:49.624Z</time>
      </trkpt>
      <trkpt lat="41.87948" lon="25.98467">
        <ele>104.607357</ele>
        <time>2022-02-27T08:02:51.628Z</time>
      </trkpt>
      <trkpt lat="41.87953" lon="25.98456">
        <ele>104.568638</ele>
        <time>2022-02-27T08:02:53.606Z</time>
      </trkpt>
      <trkpt lat="41.87959" lon="25.9844">
        <ele>104.511396</ele>
        <time>2022-02-27T08:02:56.594Z</time>
      </trkpt>
      <trkpt lat="41.87964" lon="25.98429">
        <ele>104.470744</ele>
        <time>2022-02-27T08:02:58.612Z</time>
      </trkpt>
      <trkpt lat="41.87968" lon="25.98418">
        <ele>104.429121</ele>
        <time>2022-02-27T08:03:00.615Z</time>
      </trkpt>
      <trkpt lat="41.87973" lon="25.98406">
        <ele>104.387835</ele>
        <time>2022-02-27T08:03:02.626Z</time>
      </trkpt>
      <trkpt lat="41.87978" lon="25.98395">
        <ele>104.347528</ele>
        <time>2022-02-27T08:03:04.610Z</time>
      </trkpt>
      <trkpt lat="41.87983" lon="25.98384">
        <ele>104.306039</ele>
        <time>2022-02-27T08:03:06.601Z</time>
      </trkpt>
      <trkpt lat="41.87987" lon="25.98372">
        <ele>104.264067</ele>
        <time>2022-02-27T08:03:08.594Z</time>
      </trkpt>
      <trkpt lat="41.87992" lon="25.98361">
        <ele>104.22382</ele>
        <time>2022-02-27T08:03:10.601Z</time>
      </trkpt>
      <trkpt lat="41.87997" lon="25.98349">
        <ele>104.180602</ele>
        <time>2022-02-27T08:03:12.664Z</time>
      </trkpt>
      <trkpt lat="41.88001" lon="25.98338">
        <ele>104.138425</ele>
        <time>2022-02-27T08:03:14.595Z</time>
      </trkpt>
      <trkpt lat="41.88007" lon="25.98326">
        <ele>104.095664</ele>
        <time>2022-02-27T08:03:16.599Z</time>
      </trkpt>
      <trkpt lat="41.88011" lon="25.98315">
        <ele>104.055357</ele>
        <time>2022-02-27T08:03:18.673Z</time>
      </trkpt>
      <trkpt lat="41.88016" lon="25.98304">
        <ele>104.014891</ele>
        <time>2022-02-27T08:03:20.627Z</time>
      </trkpt>
      <trkpt lat="41.88021" lon="25.98293">
        <ele>103.974859</ele>
        <time>2022-02-27T08:03:22.617Z</time>
      </trkpt>
      <trkpt lat="41.88026" lon="25.98282">
        <ele>103.93504</ele>
        <time>2022-02-27T08:03:24.605Z</time>
      </trkpt>
      <trkpt lat="41.8803" lon="25.98271">
        <ele>103.894457</ele>
        <time>2022-02-27T08:03:26.585Z</time>
      </trkpt>
      <trkpt lat="41.88035" lon="25.98261">
        <ele>103.961478</ele>
        <time>2022-02-27T08:03:28.601Z</time>
      </trkpt>
      <trkpt lat="41.88039" lon="25.9825">
        <ele>104.030205</ele>
        <time>2022-02-27T08:03:30.590Z</time>
      </trkpt>
      <trkpt lat="41.88044" lon="25.98239">
        <ele>104.100023</ele>
        <time>2022-02-27T08:03:32.607Z</time>
      </trkpt>
      <trkpt lat="41.88048" lon="25.98228">
        <ele>104.169473</ele>
        <time>2022-02-27T08:03:34.596Z</time>
      </trkpt>
      <trkpt lat="41.88053" lon="25.98218">
        <ele>104.240154</ele>
        <time>2022-02-27T08:03:36.605Z</time>
      </trkpt>
      <trkpt lat="41.88059" lon="25.98202">
        <ele>104.338918</ele>
        <time>2022-02-27T08:03:39.613Z</time>
      </trkpt>
      <trkpt lat="41.88065" lon="25.98187">
        <ele>104.438538</ele>
        <time>2022-02-27T08:03:42.605Z</time>
      </trkpt>
      <trkpt lat="41.88072" lon="25.98172">
        <ele>104.536557</ele>
        <time>2022-02-27T08:03:45.682Z</time>
      </trkpt>
      <trkpt lat="41.88078" lon="25.98157">
        <ele>104.631001</ele>
        <time>2022-02-27T08:03:48.610Z</time>
      </trkpt>
      <trkpt lat="41.88084" lon="25.98142">
        <ele>104.728421</ele>
        <time>2022-02-27T08:03:51.594Z</time>
      </trkpt>
      <trkpt lat="41.88091" lon="25.98126">
        <ele>104.828178</ele>
        <time>2022-02-27T08:03:54.597Z</time>
      </trkpt>
      <trkpt lat="41.88097" lon="25.98111">
        <ele>104.928698</ele>
        <time>2022-02-27T08:03:57.625Z</time>
      </trkpt>
      <trkpt lat="41.88105" lon="25.98097">
        <ele>105.0266</ele>
        <time>2022-02-27T08:04:00.640Z</time>
      </trkpt>
      <trkpt lat="41.88111" lon="25.98082">
        <ele>105.12082</ele>
        <time>2022-02-27T08:04:03.608Z</time>
      </trkpt>
      <trkpt lat="41.88117" lon="25.98067">
        <ele>105.218727</ele>
        <time>2022-02-27T08:04:06.600Z</time>
      </trkpt>
      <trkpt lat="41.88122" lon="25.98052">
        <ele>105.415617</ele>
        <time>2022-02-27T08:04:09.577Z</time>
      </trkpt>
      <trkpt lat="41.88128" lon="25.98037">
        <ele>105.6746</ele>
        <time>2022-02-27T08:04:12.602Z</time>
      </trkpt>
      <trkpt lat="41.88135" lon="25.98024">
        <ele>105.931714</ele>
        <time>2022-02-27T08:04:15.600Z</time>
      </trkpt>
      <trkpt lat="41.88141" lon="25.9801">
        <ele>106.189736</ele>
        <time>2022-02-27T08:04:18.627Z</time>
      </trkpt>
      <trkpt lat="41.88147" lon="25.97995">
        <ele>106.451321</ele>
        <time>2022-02-27T08:04:21.620Z</time>
      </trkpt>
      <trkpt lat="41.88152" lon="25.97981">
        <ele>106.69836</ele>
        <time>2022-02-27T08:04:24.604Z</time>
      </trkpt>
      <trkpt lat="41.88158" lon="25.97968">
        <ele>106.942301</ele>
        <time>2022-02-27T08:04:27.639Z</time>
      </trkpt>
      <trkpt lat="41.88164" lon="25.97954">
        <ele>107.196021</ele>
        <time>2022-02-27T08:04:30.613Z</time>
      </trkpt>
      <trkpt lat="41.88171" lon="25.9794">
        <ele>107.461121</ele>
        <time>2022-02-27T08:04:33.600Z</time>
      </trkpt>
      <trkpt lat="41.88177" lon="25.97926">
        <ele>107.721319</ele>
        <time>2022-02-27T08:04:36.595Z</time>
      </trkpt>
      <trkpt lat="41.88184" lon="25.97911">
        <ele>107.992065</ele>
        <time>2022-02-27T08:04:39.596Z</time>
      </trkpt>
      <trkpt lat="41.8819" lon="25.97896">
        <ele>108.26553</ele>
        <time>2022-02-27T08:04:42.592Z</time>
      </trkpt>
      <trkpt lat="41.88196" lon="25.97881">
        <ele>108.535856</ele>
        <time>2022-02-27T08:04:45.602Z</time>
      </trkpt>
      <trkpt lat="41.88202" lon="25.97866">
        <ele>108.7966</ele>
        <time>2022-02-27T08:04:48.594Z</time>
      </trkpt>
      <trkpt lat="41.88208" lon="25.97852">
        <ele>109.057983</ele>
        <time>2022-02-27T08:04:51.599Z</time>
      </trkpt>
      <trkpt lat="41.88214" lon="25.97836">
        <ele>109.015973</ele>
        <time>2022-02-27T08:04:54.602Z</time>
      </trkpt>
      <trkpt lat="41.88221" lon="25.97821">
        <ele>108.968155</ele>
        <time>2022-02-27T08:04:57.643Z</time>
      </trkpt>
      <trkpt lat="41.88226" lon="25.97806">
        <ele>108.922522</ele>
        <time>2022-02-27T08:05:00.601Z</time>
      </trkpt>
      <trkpt lat="41.88232" lon="25.97791">
        <ele>108.874181</ele>
        <time>2022-02-27T08:05:03.614Z</time>
      </trkpt>
      <trkpt lat="41.88238" lon="25.97775">
        <ele>108.825349</ele>
        <time>2022-02-27T08:05:06.602Z</time>
      </trkpt>
      <trkpt lat="41.88244" lon="25.9776">
        <ele>108.777886</ele>
        <time>2022-02-27T08:05:09.614Z</time>
      </trkpt>
      <trkpt lat="41.8825" lon="25.97744">
        <ele>108.729345</ele>
        <time>2022-02-27T08:05:12.633Z</time>
      </trkpt>
      <trkpt lat="41.88257" lon="25.97728">
        <ele>108.679935</ele>
        <time>2022-02-27T08:05:15.617Z</time>
      </trkpt>
      <trkpt lat="41.88261" lon="25.97717">
        <ele>108.6462</ele>
        <time>2022-02-27T08:05:17.607Z</time>
      </trkpt>
      <trkpt lat="41.88267" lon="25.97702">
        <ele>108.597357</ele>
        <time>2022-02-27T08:05:20.605Z</time>
      </trkpt>
      <trkpt lat="41.88272" lon="25.97691">
        <ele>108.564056</ele>
        <time>2022-02-27T08:05:22.586Z</time>
      </trkpt>
      <trkpt lat="41.88278" lon="25.97676">
        <ele>108.516296</ele>
        <time>2022-02-27T08:05:25.602Z</time>
      </trkpt>
      <trkpt lat="41.88285" lon="25.9766">
        <ele>108.465838</ele>
        <time>2022-02-27T08:05:28.603Z</time>
      </trkpt>
      <trkpt lat="41.8829" lon="25.97649">
        <ele>108.43092</ele>
        <time>2022-02-27T08:05:30.640Z</time>
      </trkpt>
      <trkpt lat="41.88294" lon="25.97639">
        <ele>108.40157</ele>
        <time>2022-02-27T08:05:32.601Z</time>
      </trkpt>
      <trkpt lat="41.883" lon="25.97623">
        <ele>108.589559</ele>
        <time>2022-02-27T08:05:35.622Z</time>
      </trkpt>
      <trkpt lat="41.88307" lon="25.97608">
        <ele>108.779093</ele>
        <time>2022-02-27T08:05:38.605Z</time>
      </trkpt>
      <trkpt lat="41.88313" lon="25.97593">
        <ele>108.957461</ele>
        <time>2022-02-27T08:05:41.621Z</time>
      </trkpt>
      <trkpt lat="41.88319" lon="25.97578">
        <ele>109.130936</ele>
        <time>2022-02-27T08:05:44.611Z</time>
      </trkpt>
      <trkpt lat="41.88324" lon="25.97568">
        <ele>109.259185</ele>
        <time>2022-02-27T08:05:46.604Z</time>
      </trkpt>
      <trkpt lat="41.88329" lon="25.97557">
        <ele>109.393948</ele>
        <time>2022-02-27T08:05:48.611Z</time>
      </trkpt>
      <trkpt lat="41.88335" lon="25.97542">
        <ele>109.580574</ele>
        <time>2022-02-27T08:05:51.596Z</time>
      </trkpt>
      <trkpt lat="41.8834" lon="25.97531">
        <ele>109.714229</ele>
        <time>2022-02-27T08:05:53.633Z</time>
      </trkpt>
      <trkpt lat="41.88344" lon="25.9752">
        <ele>109.845355</ele>
        <time>2022-02-27T08:05:55.613Z</time>
      </trkpt>
      <trkpt lat="41.8835" lon="25.97504">
        <ele>110.038253</ele>
        <time>2022-02-27T08:05:58.632Z</time>
      </trkpt>
      <trkpt lat="41.88355" lon="25.97492">
        <ele>110.173778</ele>
        <time>2022-02-27T08:06:00.605Z</time>
      </trkpt>
      <trkpt lat="41.88361" lon="25.97476">
        <ele>110.370758</ele>
        <time>2022-02-27T08:06:03.618Z</time>
      </trkpt>
      <trkpt lat="41.88366" lon="25.97464">
        <ele>110.510401</ele>
        <time>2022-02-27T08:06:05.621Z</time>
      </trkpt>
      <trkpt lat="41.88373" lon="25.97449">
        <ele>110.699035</ele>
        <time>2022-02-27T08:06:08.621Z</time>
      </trkpt>
      <trkpt lat="41.8838" lon="25.97436">
        <ele>110.872732</ele>
        <time>2022-02-27T08:06:11.601Z</time>
      </trkpt>
      <trkpt lat="41.88388" lon="25.97421">
        <ele>111.108274</ele>
        <time>2022-02-27T08:06:14.605Z</time>
      </trkpt>
      <trkpt lat="41.88393" lon="25.97411">
        <ele>111.307128</ele>
        <time>2022-02-27T08:06:16.609Z</time>
      </trkpt>
      <trkpt lat="41.884" lon="25.97397">
        <ele>111.587748</ele>
        <time>2022-02-27T08:06:19.619Z</time>
      </trkpt>
      <trkpt lat="41.88408" lon="25.97382">
        <ele>111.870848</ele>
        <time>2022-02-27T08:06:22.595Z</time>
      </trkpt>
      <trkpt lat="41.88416" lon="25.97368">
        <ele>112.151391</ele>
        <time>2022-02-27T08:06:25.597Z</time>
      </trkpt>
      <trkpt lat="41.88424" lon="25.97356">
        <ele>112.414282</ele>
        <time>2022-02-27T08:06:28.600Z</time>
      </trkpt>
      <trkpt lat="41.88431" lon="25.97344">
        <ele>112.654821</ele>
        <time>2022-02-27T08:06:31.607Z</time>
      </trkpt>
      <trkpt lat="41.88438" lon="25.97335">
        <ele>112.869519</ele>
        <time>2022-02-27T08:06:34.594Z</time>
      </trkpt>
      <trkpt lat="41.88446" lon="25.97325">
        <ele>113.102216</ele>
        <time>2022-02-27T08:06:37.617Z</time>
      </trkpt>
      <trkpt lat="41.88454" lon="25.97315">
        <ele>113.344017</ele>
        <time>2022-02-27T08:06:40.590Z</time>
      </trkpt>
      <trkpt lat="41.88462" lon="25.97306">
        <ele>113.550143</ele>
        <time>2022-02-27T08:06:43.635Z</time>
      </trkpt>
      <trkpt lat="41.88469" lon="25.97298">
        <ele>113.749542</ele>
        <time>2022-02-27T08:06:46.608Z</time>
      </trkpt>
      <trkpt lat="41.88476" lon="25.9729">
        <ele>113.950373</ele>
        <time>2022-02-27T08:06:49.632Z</time>
      </trkpt>
      <trkpt lat="41.88484" lon="25.9728">
        <ele>114.184293</ele>
        <time>2022-02-27T08:06:52.623Z</time>
      </trkpt>
      <trkpt lat="41.88492" lon="25.9727">
        <ele>114.419317</ele>
        <time>2022-02-27T08:06:55.640Z</time>
      </trkpt>
      <trkpt lat="41.88499" lon="25.9726">
        <ele>114.63667</ele>
        <time>2022-02-27T08:06:58.596Z</time>
      </trkpt>
      <trkpt lat="41.88507" lon="25.97251">
        <ele>114.817547</ele>
        <time>2022-02-27T08:07:01.607Z</time>
      </trkpt>
      <trkpt lat="41.88514" lon="25.97243">
        <ele>114.862778</ele>
        <time>2022-02-27T08:07:04.612Z</time>
      </trkpt>
      <trkpt lat="41.88521" lon="25.97234">
        <ele>114.90933</ele>
        <time>2022-02-27T08:07:07.609Z</time>
      </trkpt>
      <trkpt lat="41.88529" lon="25.97225">
        <ele>114.958458</ele>
        <time>2022-02-27T08:07:10.594Z</time>
      </trkpt>
      <trkpt lat="41.88537" lon="25.97216">
        <ele>115.008798</ele>
        <time>2022-02-27T08:07:13.613Z</time>
      </trkpt>
      <trkpt lat="41.88546" lon="25.97206">
        <ele>115.062664</ele>
        <time>2022-02-27T08:07:16.594Z</time>
      </trkpt>
      <trkpt lat="41.88555" lon="25.97197">
        <ele>115.11658</ele>
        <time>2022-02-27T08:07:19.601Z</time>
      </trkpt>
      <trkpt lat="41.88563" lon="25.97187">
        <ele>115.169496</ele>
        <time>2022-02-27T08:07:22.597Z</time>
      </trkpt>
      <trkpt lat="41.88572" lon="25.97177">
        <ele>115.224546</ele>
        <time>2022-02-27T08:07:25.621Z</time>
      </trkpt>
      <trkpt lat="41.8858" lon="25.97167">
        <ele>115.27854</ele>
        <time>2022-02-27T08:07:28.657Z</time>
      </trkpt>
      <trkpt lat="41.88589" lon="25.97156">
        <ele>115.335014</ele>
        <time>2022-02-27T08:07:31.610Z</time>
      </trkpt>
      <trkpt lat="41.88597" lon="25.97145">
        <ele>115.390939</ele>
        <time>2022-02-27T08:07:34.604Z</time>
      </trkpt>
      <trkpt lat="41.88606" lon="25.97134">
        <ele>115.448004</ele>
        <time>2022-02-27T08:07:37.597Z</time>
      </trkpt>
      <trkpt lat="41.88615" lon="25.97124">
        <ele>115.503998</ele>
        <time>2022-02-27T08:07:40.585Z</time>
      </trkpt>
      <trkpt lat="41.88624" lon="25.97114">
        <ele>115.559601</ele>
        <time>2022-02-27T08:07:43.608Z</time>
      </trkpt>
      <trkpt lat="41.88633" lon="25.97102">
        <ele>115.619621</ele>
        <time>2022-02-27T08:07:46.606Z</time>
      </trkpt>
      <trkpt lat="41.88642" lon="25.97091">
        <ele>115.618604</ele>
        <time>2022-02-27T08:07:49.599Z</time>
      </trkpt>
      <trkpt lat="41.88652" lon="25.9708">
        <ele>115.435942</ele>
        <time>2022-02-27T08:07:52.614Z</time>
      </trkpt>
      <trkpt lat="41.88661" lon="25.97068">
        <ele>115.245389</ele>
        <time>2022-02-27T08:07:55.612Z</time>
      </trkpt>
      <trkpt lat="41.88671" lon="25.97057">
        <ele>115.051348</ele>
        <time>2022-02-27T08:07:58.605Z</time>
      </trkpt>
      <trkpt lat="41.88681" lon="25.97046">
        <ele>114.85592</ele>
        <time>2022-02-27T08:08:01.639Z</time>
      </trkpt>
      <trkpt lat="41.88688" lon="25.97038">
        <ele>114.718061</ele>
        <time>2022-02-27T08:08:03.605Z</time>
      </trkpt>
      <trkpt lat="41.88696" lon="25.97029">
        <ele>114.576574</ele>
        <time>2022-02-27T08:08:05.589Z</time>
      </trkpt>
      <trkpt lat="41.88702" lon="25.97021">
        <ele>114.44168</ele>
        <time>2022-02-27T08:08:07.628Z</time>
      </trkpt>
      <trkpt lat="41.88712" lon="25.97011">
        <ele>114.259333</ele>
        <time>2022-02-27T08:08:10.612Z</time>
      </trkpt>
      <trkpt lat="41.88721" lon="25.96998">
        <ele>114.069059</ele>
        <time>2022-02-27T08:08:13.610Z</time>
      </trkpt>
      <trkpt lat="41.88728" lon="25.9699">
        <ele>113.933742</ele>
        <time>2022-02-27T08:08:15.647Z</time>
      </trkpt>
      <trkpt lat="41.88735" lon="25.96982">
        <ele>113.795883</ele>
        <time>2022-02-27T08:08:17.606Z</time>
      </trkpt>
      <trkpt lat="41.88742" lon="25.96973">
        <ele>113.648885</ele>
        <time>2022-02-27T08:08:19.604Z</time>
      </trkpt>
      <trkpt lat="41.8875" lon="25.96964">
        <ele>113.498942</ele>
        <time>2022-02-27T08:08:21.590Z</time>
      </trkpt>
      <trkpt lat="41.88757" lon="25.96955">
        <ele>113.350447</ele>
        <time>2022-02-27T08:08:23.595Z</time>
      </trkpt>
      <trkpt lat="41.88765" lon="25.96946">
        <ele>113.201952</ele>
        <time>2022-02-27T08:08:25.613Z</time>
      </trkpt>
      <trkpt lat="41.88773" lon="25.96937">
        <ele>113.049441</ele>
        <time>2022-02-27T08:08:27.624Z</time>
      </trkpt>
      <trkpt lat="41.88781" lon="25.96928">
        <ele>113.048243</ele>
        <time>2022-02-27T08:08:29.632Z</time>
      </trkpt>
      <trkpt lat="41.88788" lon="25.96918">
        <ele>113.112008</ele>
        <time>2022-02-27T08:08:31.617Z</time>
      </trkpt>
      <trkpt lat="41.88796" lon="25.96909">
        <ele>113.17605</ele>
        <time>2022-02-27T08:08:33.613Z</time>
      </trkpt>
      <trkpt lat="41.88803" lon="25.96899">
        <ele>113.238424</ele>
        <time>2022-02-27T08:08:35.647Z</time>
      </trkpt>
      <trkpt lat="41.8881" lon="25.9689">
        <ele>113.298826</ele>
        <time>2022-02-27T08:08:37.594Z</time>
      </trkpt>
      <trkpt lat="41.88818" lon="25.96882">
        <ele>113.356525</ele>
        <time>2022-02-27T08:08:39.608Z</time>
      </trkpt>
      <trkpt lat="41.88824" lon="25.96874">
        <ele>113.413077</ele>
        <time>2022-02-27T08:08:41.623Z</time>
      </trkpt>
      <trkpt lat="41.88831" lon="25.96865">
        <ele>113.47164</ele>
        <time>2022-02-27T08:08:43.607Z</time>
      </trkpt>
      <trkpt lat="41.88842" lon="25.96855">
        <ele>113.552484</ele>
        <time>2022-02-27T08:08:46.624Z</time>
      </trkpt>
      <trkpt lat="41.88849" lon="25.96847">
        <ele>113.609613</ele>
        <time>2022-02-27T08:08:48.609Z</time>
      </trkpt>
      <trkpt lat="41.88859" lon="25.96835">
        <ele>113.691404</ele>
        <time>2022-02-27T08:08:51.607Z</time>
      </trkpt>
      <trkpt lat="41.88869" lon="25.96824">
        <ele>113.770192</ele>
        <time>2022-02-27T08:08:54.604Z</time>
      </trkpt>
      <trkpt lat="41.88879" lon="25.96813">
        <ele>113.850892</ele>
        <time>2022-02-27T08:08:57.642Z</time>
      </trkpt>
      <trkpt lat="41.88889" lon="25.96801">
        <ele>113.93399</ele>
        <time>2022-02-27T08:09:00.613Z</time>
      </trkpt>
      <trkpt lat="41.88899" lon="25.9679">
        <ele>114.012397</ele>
        <time>2022-02-27T08:09:03.647Z</time>
      </trkpt>
      <trkpt lat="41.88907" lon="25.96779">
        <ele>114.084097</ele>
        <time>2022-02-27T08:09:06.615Z</time>
      </trkpt>
      <trkpt lat="41.88915" lon="25.96769">
        <ele>114.186682</ele>
        <time>2022-02-27T08:09:09.603Z</time>
      </trkpt>
      <trkpt lat="41.88923" lon="25.96758">
        <ele>114.308253</ele>
        <time>2022-02-27T08:09:12.598Z</time>
      </trkpt>
      <trkpt lat="41.88931" lon="25.96748">
        <ele>114.432667</ele>
        <time>2022-02-27T08:09:15.602Z</time>
      </trkpt>
      <trkpt lat="41.8894" lon="25.96739">
        <ele>114.551552</ele>
        <time>2022-02-27T08:09:18.612Z</time>
      </trkpt>
      <trkpt lat="41.88948" lon="25.96729">
        <ele>114.677479</ele>
        <time>2022-02-27T08:09:21.600Z</time>
      </trkpt>
      <trkpt lat="41.88957" lon="25.96719">
        <ele>114.80347</ele>
        <time>2022-02-27T08:09:24.609Z</time>
      </trkpt>
      <trkpt lat="41.88965" lon="25.9671">
        <ele>114.917822</ele>
        <time>2022-02-27T08:09:27.645Z</time>
      </trkpt>
      <trkpt lat="41.88973" lon="25.967">
        <ele>115.043813</ele>
        <time>2022-02-27T08:09:30.607Z</time>
      </trkpt>
      <trkpt lat="41.88981" lon="25.96692">
        <ele>115.153235</ele>
        <time>2022-02-27T08:09:33.607Z</time>
      </trkpt>
      <trkpt lat="41.88989" lon="25.96684">
        <ele>115.262133</ele>
        <time>2022-02-27T08:09:36.634Z</time>
      </trkpt>
      <trkpt lat="41.88997" lon="25.96674">
        <ele>115.382834</ele>
        <time>2022-02-27T08:09:39.621Z</time>
      </trkpt>
      <trkpt lat="41.89005" lon="25.96664">
        <ele>115.508628</ele>
        <time>2022-02-27T08:09:42.593Z</time>
      </trkpt>
      <trkpt lat="41.89014" lon="25.96654">
        <ele>115.635655</ele>
        <time>2022-02-27T08:09:45.592Z</time>
      </trkpt>
      <trkpt lat="41.89022" lon="25.96644">
        <ele>115.75662</ele>
        <time>2022-02-27T08:09:48.614Z</time>
      </trkpt>
      <trkpt lat="41.89031" lon="25.96634">
        <ele>115.880918</ele>
        <time>2022-02-27T08:09:51.605Z</time>
      </trkpt>
      <trkpt lat="41.89039" lon="25.96625">
        <ele>116.002996</ele>
        <time>2022-02-27T08:09:54.620Z</time>
      </trkpt>
      <trkpt lat="41.89047" lon="25.96615">
        <ele>116.112636</ele>
        <time>2022-02-27T08:09:57.621Z</time>
      </trkpt>
      <trkpt lat="41.89055" lon="25.96606">
        <ele>116.153654</ele>
        <time>2022-02-27T08:10:00.607Z</time>
      </trkpt>
      <trkpt lat="41.89063" lon="25.96598">
        <ele>116.194862</ele>
        <time>2022-02-27T08:10:03.612Z</time>
      </trkpt>
      <trkpt lat="41.89073" lon="25.96589">
        <ele>116.242839</ele>
        <time>2022-02-27T08:10:07.604Z</time>
      </trkpt>
      <trkpt lat="41.8908" lon="25.96581">
        <ele>116.279585</ele>
        <time>2022-02-27T08:10:10.602Z</time>
      </trkpt>
      <trkpt lat="41.89088" lon="25.96572">
        <ele>116.319893</ele>
        <time>2022-02-27T08:10:13.615Z</time>
      </trkpt>
      <trkpt lat="41.89095" lon="25.96563">
        <ele>116.360995</ele>
        <time>2022-02-27T08:10:16.587Z</time>
      </trkpt>
      <trkpt lat="41.89104" lon="25.96554">
        <ele>116.406501</ele>
        <time>2022-02-27T08:10:19.590Z</time>
      </trkpt>
      <trkpt lat="41.89113" lon="25.96545">
        <ele>116.450678</ele>
        <time>2022-02-27T08:10:22.604Z</time>
      </trkpt>
      <trkpt lat="41.89122" lon="25.96537">
        <ele>116.494856</ele>
        <time>2022-02-27T08:10:25.592Z</time>
      </trkpt>
      <trkpt lat="41.89131" lon="25.96528">
        <ele>116.539835</ele>
        <time>2022-02-27T08:10:28.585Z</time>
      </trkpt>
      <trkpt lat="41.8914" lon="25.96519">
        <ele>116.584293</ele>
        <time>2022-02-27T08:10:31.650Z</time>
      </trkpt>
      <trkpt lat="41.89148" lon="25.96509">
        <ele>116.62882</ele>
        <time>2022-02-27T08:10:34.609Z</time>
      </trkpt>
      <trkpt lat="41.89157" lon="25.965">
        <ele>116.673039</ele>
        <time>2022-02-27T08:10:37.582Z</time>
      </trkpt>
      <trkpt lat="41.89166" lon="25.96491">
        <ele>116.717124</ele>
        <time>2022-02-27T08:10:40.605Z</time>
      </trkpt>
      <trkpt lat="41.89175" lon="25.96482">
        <ele>116.764816</ele>
        <time>2022-02-27T08:10:43.605Z</time>
      </trkpt>
      <trkpt lat="41.89184" lon="25.96473">
        <ele>116.809675</ele>
        <time>2022-02-27T08:10:46.606Z</time>
      </trkpt>
      <trkpt lat="41.89193" lon="25.96463">
        <ele>116.776534</ele>
        <time>2022-02-27T08:10:49.591Z</time>
      </trkpt>
      <trkpt lat="41.89203" lon="25.96453">
        <ele>116.684482</ele>
        <time>2022-02-27T08:10:52.591Z</time>
      </trkpt>
      <trkpt lat="41.89212" lon="25.96444">
        <ele>116.6002</ele>
        <time>2022-02-27T08:10:55.611Z</time>
      </trkpt>
      <trkpt lat="41.89222" lon="25.96434">
        <ele>116.50781</ele>
        <time>2022-02-27T08:10:58.636Z</time>
      </trkpt>
      <trkpt lat="41.89232" lon="25.96424">
        <ele>116.416687</ele>
        <time>2022-02-27T08:11:01.629Z</time>
      </trkpt>
      <trkpt lat="41.89241" lon="25.96414">
        <ele>116.326494</ele>
        <time>2022-02-27T08:11:04.615Z</time>
      </trkpt>
      <trkpt lat="41.8925" lon="25.96404">
        <ele>116.240802</ele>
        <time>2022-02-27T08:11:07.591Z</time>
      </trkpt>
      <trkpt lat="41.89259" lon="25.96392">
        <ele>116.150371</ele>
        <time>2022-02-27T08:11:10.617Z</time>
      </trkpt>
      <trkpt lat="41.89268" lon="25.96381">
        <ele>116.05648</ele>
        <time>2022-02-27T08:11:13.607Z</time>
      </trkpt>
      <trkpt lat="41.89278" lon="25.96371">
        <ele>115.961205</ele>
        <time>2022-02-27T08:11:16.595Z</time>
      </trkpt>
      <trkpt lat="41.89286" lon="25.96363">
        <ele>115.893714</ele>
        <time>2022-02-27T08:11:18.707Z</time>
      </trkpt>
      <trkpt lat="41.89296" lon="25.96353">
        <ele>115.795496</ele>
        <time>2022-02-27T08:11:21.607Z</time>
      </trkpt>
      <trkpt lat="41.89306" lon="25.96341">
        <ele>115.695743</ele>
        <time>2022-02-27T08:11:24.589Z</time>
      </trkpt>
      <trkpt lat="41.89313" lon="25.96332">
        <ele>115.627065</ele>
        <time>2022-02-27T08:11:26.618Z</time>
      </trkpt>
      <trkpt lat="41.89322" lon="25.9632">
        <ele>115.529153</ele>
        <time>2022-02-27T08:11:29.663Z</time>
      </trkpt>
      <trkpt lat="41.89332" lon="25.96308">
        <ele>115.372462</ele>
        <time>2022-02-27T08:11:32.688Z</time>
      </trkpt>
      <trkpt lat="41.89338" lon="25.963">
        <ele>115.228906</ele>
        <time>2022-02-27T08:11:34.593Z</time>
      </trkpt>
      <trkpt lat="41.89345" lon="25.96291">
        <ele>115.083243</ele>
        <time>2022-02-27T08:11:36.621Z</time>
      </trkpt>
      <trkpt lat="41.89352" lon="25.96282">
        <ele>114.935341</ele>
        <time>2022-02-27T08:11:38.617Z</time>
      </trkpt>
      <trkpt lat="41.89358" lon="25.96273">
        <ele>114.787194</ele>
        <time>2022-02-27T08:11:40.662Z</time>
      </trkpt>
      <trkpt lat="41.89365" lon="25.96264">
        <ele>114.64235</ele>
        <time>2022-02-27T08:11:42.616Z</time>
      </trkpt>
      <trkpt lat="41.89372" lon="25.96255">
        <ele>114.493637</ele>
        <time>2022-02-27T08:11:44.608Z</time>
      </trkpt>
      <trkpt lat="41.89378" lon="25.96247">
        <ele>114.350874</ele>
        <time>2022-02-27T08:11:46.604Z</time>
      </trkpt>
      <trkpt lat="41.89385" lon="25.96239">
        <ele>114.209899</ele>
        <time>2022-02-27T08:11:48.668Z</time>
      </trkpt>
      <trkpt lat="41.89391" lon="25.96229">
        <ele>114.060942</ele>
        <time>2022-02-27T08:11:50.593Z</time>
      </trkpt>
      <trkpt lat="41.89397" lon="25.96219">
        <ele>113.915781</ele>
        <time>2022-02-27T08:11:52.612Z</time>
      </trkpt>
      <trkpt lat="41.89403" lon="25.96209">
        <ele>113.767962</ele>
        <time>2022-02-27T08:11:54.600Z</time>
      </trkpt>
      <trkpt lat="41.89409" lon="25.96199">
        <ele>113.615457</ele>
        <time>2022-02-27T08:11:56.615Z</time>
      </trkpt>
      <trkpt lat="41.89415" lon="25.96189">
        <ele>113.466501</ele>
        <time>2022-02-27T08:11:58.602Z</time>
      </trkpt>
      <trkpt lat="41.89421" lon="25.96179">
        <ele>113.313449</ele>
        <time>2022-02-27T08:12:00.608Z</time>
      </trkpt>
      <trkpt lat="41.89427" lon="25.96169">
        <ele>113.161793</ele>
        <time>2022-02-27T08:12:02.611Z</time>
      </trkpt>
      <trkpt lat="41.89433" lon="25.96158">
        <ele>113.004646</ele>
        <time>2022-02-27T08:12:04.599Z</time>
      </trkpt>
      <trkpt lat="41.89439" lon="25.96147">
        <ele>112.843763</ele>
        <time>2022-02-27T08:12:06.596Z</time>
      </trkpt>
      <trkpt lat="41.89446" lon="25.96136">
        <ele>112.679144</ele>
        <time>2022-02-27T08:12:08.605Z</time>
      </trkpt>
      <trkpt lat="41.89452" lon="25.96125">
        <ele>112.78869</ele>
        <time>2022-02-27T08:12:10.608Z</time>
      </trkpt>
      <trkpt lat="41.89458" lon="25.96114">
        <ele>112.912699</ele>
        <time>2022-02-27T08:12:12.597Z</time>
      </trkpt>
      <trkpt lat="41.89464" lon="25.96103">
        <ele>113.033036</ele>
        <time>2022-02-27T08:12:14.604Z</time>
      </trkpt>
      <trkpt lat="41.8947" lon="25.96093">
        <ele>113.14416</ele>
        <time>2022-02-27T08:12:16.605Z</time>
      </trkpt>
      <trkpt lat="41.89475" lon="25.96082">
        <ele>113.256965</ele>
        <time>2022-02-27T08:12:18.597Z</time>
      </trkpt>
      <trkpt lat="41.8948" lon="25.96071">
        <ele>113.375585</ele>
        <time>2022-02-27T08:12:20.627Z</time>
      </trkpt>
      <trkpt lat="41.89485" lon="25.9606">
        <ele>113.493841</ele>
        <time>2022-02-27T08:12:22.604Z</time>
      </trkpt>
      <trkpt lat="41.89491" lon="25.96049">
        <ele>113.615625</ele>
        <time>2022-02-27T08:12:24.635Z</time>
      </trkpt>
      <trkpt lat="41.89497" lon="25.96038">
        <ele>113.73173</ele>
        <time>2022-02-27T08:12:26.632Z</time>
      </trkpt>
      <trkpt lat="41.89502" lon="25.96027">
        <ele>113.851459</ele>
        <time>2022-02-27T08:12:28.610Z</time>
      </trkpt>
      <trkpt lat="41.89508" lon="25.96016">
        <ele>113.970079</ele>
        <time>2022-02-27T08:12:30.657Z</time>
      </trkpt>
      <trkpt lat="41.89513" lon="25.96005">
        <ele>114.086549</ele>
        <time>2022-02-27T08:12:32.595Z</time>
      </trkpt>
      <trkpt lat="41.89518" lon="25.95994">
        <ele>114.20441</ele>
        <time>2022-02-27T08:12:34.596Z</time>
      </trkpt>
      <trkpt lat="41.89523" lon="25.95982">
        <ele>114.321177</ele>
        <time>2022-02-27T08:12:36.602Z</time>
      </trkpt>
      <trkpt lat="41.89528" lon="25.95972">
        <ele>114.433715</ele>
        <time>2022-02-27T08:12:38.596Z</time>
      </trkpt>
      <trkpt lat="41.89533" lon="25.95961">
        <ele>114.547161</ele>
        <time>2022-02-27T08:12:40.623Z</time>
      </trkpt>
      <trkpt lat="41.89539" lon="25.95951">
        <ele>114.664626</ele>
        <time>2022-02-27T08:12:42.588Z</time>
      </trkpt>
      <trkpt lat="41.89544" lon="25.95939">
        <ele>114.781235</ele>
        <time>2022-02-27T08:12:44.596Z</time>
      </trkpt>
      <trkpt lat="41.89549" lon="25.95928">
        <ele>114.909705</ele>
        <time>2022-02-27T08:12:46.653Z</time>
      </trkpt>
      <trkpt lat="41.89554" lon="25.95917">
        <ele>115.042889</ele>
        <time>2022-02-27T08:12:48.584Z</time>
      </trkpt>
      <trkpt lat="41.89559" lon="25.95906">
        <ele>115.183906</ele>
        <time>2022-02-27T08:12:50.602Z</time>
      </trkpt>
      <trkpt lat="41.89563" lon="25.95895">
        <ele>115.317632</ele>
        <time>2022-02-27T08:12:52.604Z</time>
      </trkpt>
      <trkpt lat="41.89568" lon="25.95883">
        <ele>115.460062</ele>
        <time>2022-02-27T08:12:54.595Z</time>
      </trkpt>
      <trkpt lat="41.89573" lon="25.95872">
        <ele>115.598539</ele>
        <time>2022-02-27T08:12:56.618Z</time>
      </trkpt>
      <trkpt lat="41.89578" lon="25.95861">
        <ele>115.731723</ele>
        <time>2022-02-27T08:12:58.606Z</time>
      </trkpt>
      <trkpt lat="41.89582" lon="25.95849">
        <ele>115.865262</ele>
        <time>2022-02-27T08:13:00.614Z</time>
      </trkpt>
      <trkpt lat="41.89586" lon="25.95838">
        <ele>116.004169</ele>
        <time>2022-02-27T08:13:02.595Z</time>
      </trkpt>
      <trkpt lat="41.89591" lon="25.95826">
        <ele>116.139938</ele>
        <time>2022-02-27T08:13:04.593Z</time>
      </trkpt>
      <trkpt lat="41.89595" lon="25.95815">
        <ele>116.269433</ele>
        <time>2022-02-27T08:13:06.605Z</time>
      </trkpt>
      <trkpt lat="41.89599" lon="25.95804">
        <ele>116.402971</ele>
        <time>2022-02-27T08:13:08.668Z</time>
      </trkpt>
      <trkpt lat="41.89604" lon="25.95794">
        <ele>116.534896</ele>
        <time>2022-02-27T08:13:10.594Z</time>
      </trkpt>
      <trkpt lat="41.89609" lon="25.95783">
        <ele>116.669366</ele>
        <time>2022-02-27T08:13:12.619Z</time>
      </trkpt>
      <trkpt lat="41.89615" lon="25.95772">
        <ele>116.805914</ele>
        <time>2022-02-27T08:13:14.613Z</time>
      </trkpt>
      <trkpt lat="41.8962" lon="25.95762">
        <ele>116.935154</ele>
        <time>2022-02-27T08:13:16.613Z</time>
      </trkpt>
      <trkpt lat="41.89624" lon="25.95752">
        <ele>117.064695</ele>
        <time>2022-02-27T08:13:18.612Z</time>
      </trkpt>
      <trkpt lat="41.89629" lon="25.95741">
        <ele>117.194827</ele>
        <time>2022-02-27T08:13:20.590Z</time>
      </trkpt>
      <trkpt lat="41.89635" lon="25.95731">
        <ele>117.324591</ele>
        <time>2022-02-27T08:13:22.590Z</time>
      </trkpt>
      <trkpt lat="41.89642" lon="25.95716">
        <ele>117.16665</ele>
        <time>2022-02-27T08:13:25.590Z</time>
      </trkpt>
      <trkpt lat="41.89647" lon="25.95706">
        <ele>116.95582</ele>
        <time>2022-02-27T08:13:27.628Z</time>
      </trkpt>
      <trkpt lat="41.89651" lon="25.95696">
        <ele>116.747965</ele>
        <time>2022-02-27T08:13:29.616Z</time>
      </trkpt>
      <trkpt lat="41.89659" lon="25.95681">
        <ele>116.431335</ele>
        <time>2022-02-27T08:13:32.609Z</time>
      </trkpt>
      <trkpt lat="41.89665" lon="25.9567">
        <ele>116.210625</ele>
        <time>2022-02-27T08:13:34.647Z</time>
      </trkpt>
      <trkpt lat="41.89671" lon="25.9566">
        <ele>115.989885</ele>
        <time>2022-02-27T08:13:36.602Z</time>
      </trkpt>
      <trkpt lat="41.89676" lon="25.9565">
        <ele>115.770556</ele>
        <time>2022-02-27T08:13:38.608Z</time>
      </trkpt>
      <trkpt lat="41.89682" lon="25.9564">
        <ele>115.558171</ele>
        <time>2022-02-27T08:13:40.616Z</time>
      </trkpt>
      <trkpt lat="41.89689" lon="25.95626">
        <ele>115.267765</ele>
        <time>2022-02-27T08:13:43.605Z</time>
      </trkpt>
      <trkpt lat="41.89696" lon="25.95613">
        <ele>114.978896</ele>
        <time>2022-02-27T08:13:46.620Z</time>
      </trkpt>
      <trkpt lat="41.89702" lon="25.95598">
        <ele>114.68986</ele>
        <time>2022-02-27T08:13:49.596Z</time>
      </trkpt>
      <trkpt lat="41.89709" lon="25.95584">
        <ele>114.392797</ele>
        <time>2022-02-27T08:13:52.594Z</time>
      </trkpt>
      <trkpt lat="41.89714" lon="25.95569">
        <ele>114.115801</ele>
        <time>2022-02-27T08:13:55.594Z</time>
      </trkpt>
      <trkpt lat="41.89719" lon="25.95555">
        <ele>113.837365</ele>
        <time>2022-02-27T08:13:58.602Z</time>
      </trkpt>
      <trkpt lat="41.89725" lon="25.95539">
        <ele>113.532983</ele>
        <time>2022-02-27T08:14:01.624Z</time>
      </trkpt>
      <trkpt lat="41.8973" lon="25.95524">
        <ele>113.247003</ele>
        <time>2022-02-27T08:14:04.611Z</time>
      </trkpt>
      <trkpt lat="41.89734" lon="25.95509">
        <ele>113.08029</ele>
        <time>2022-02-27T08:14:07.613Z</time>
      </trkpt>
      <trkpt lat="41.89739" lon="25.95495">
        <ele>112.93472</ele>
        <time>2022-02-27T08:14:10.621Z</time>
      </trkpt>
      <trkpt lat="41.89745" lon="25.95481">
        <ele>112.783533</ele>
        <time>2022-02-27T08:14:13.616Z</time>
      </trkpt>
      <trkpt lat="41.8975" lon="25.95465">
        <ele>112.62501</ele>
        <time>2022-02-27T08:14:16.607Z</time>
      </trkpt>
      <trkpt lat="41.89754" lon="25.9545">
        <ele>112.471581</ele>
        <time>2022-02-27T08:14:19.630Z</time>
      </trkpt>
      <trkpt lat="41.8976" lon="25.95436">
        <ele>112.317912</ele>
        <time>2022-02-27T08:14:22.600Z</time>
      </trkpt>
      <trkpt lat="41.89764" lon="25.95421">
        <ele>112.169851</ele>
        <time>2022-02-27T08:14:25.651Z</time>
      </trkpt>
      <trkpt lat="41.89769" lon="25.95407">
        <ele>112.021944</ele>
        <time>2022-02-27T08:14:28.587Z</time>
      </trkpt>
      <trkpt lat="41.89774" lon="25.95393">
        <ele>111.878487</ele>
        <time>2022-02-27T08:14:31.644Z</time>
      </trkpt>
      <trkpt lat="41.89778" lon="25.95378">
        <ele>111.736583</ele>
        <time>2022-02-27T08:14:34.605Z</time>
      </trkpt>
      <trkpt lat="41.89783" lon="25.95365">
        <ele>111.59439</ele>
        <time>2022-02-27T08:14:37.600Z</time>
      </trkpt>
      <trkpt lat="41.89787" lon="25.95351">
        <ele>111.456583</ele>
        <time>2022-02-27T08:14:40.596Z</time>
      </trkpt>
      <trkpt lat="41.89791" lon="25.95339">
        <ele>111.329896</ele>
        <time>2022-02-27T08:14:43.613Z</time>
      </trkpt>
      <trkpt lat="41.89797" lon="25.95324">
        <ele>111.164345</ele>
        <time>2022-02-27T08:14:46.605Z</time>
      </trkpt>
      <trkpt lat="41.89802" lon="25.95313">
        <ele>111.051389</ele>
        <time>2022-02-27T08:14:48.605Z</time>
      </trkpt>
      <trkpt lat="41.89807" lon="25.95303">
        <ele>110.937835</ele>
        <time>2022-02-27T08:14:50.604Z</time>
      </trkpt>
      <trkpt lat="41.89812" lon="25.95291">
        <ele>111.16623</ele>
        <time>2022-02-27T08:14:52.594Z</time>
      </trkpt>
      <trkpt lat="41.89818" lon="25.9528">
        <ele>111.390129</ele>
        <time>2022-02-27T08:14:54.623Z</time>
      </trkpt>
      <trkpt lat="41.89825" lon="25.95265">
        <ele>111.690586</ele>
        <time>2022-02-27T08:14:57.604Z</time>
      </trkpt>
      <trkpt lat="41.89832" lon="25.9525">
        <ele>111.982932</ele>
        <time>2022-02-27T08:15:00.606Z</time>
      </trkpt>
      <trkpt lat="41.8984" lon="25.95237">
        <ele>112.274949</ele>
        <time>2022-02-27T08:15:03.610Z</time>
      </trkpt>
      <trkpt lat="41.89846" lon="25.95228">
        <ele>112.481783</ele>
        <time>2022-02-27T08:15:05.631Z</time>
      </trkpt>
      <trkpt lat="41.89852" lon="25.95218">
        <ele>112.687485</ele>
        <time>2022-02-27T08:15:07.583Z</time>
      </trkpt>
      <trkpt lat="41.89858" lon="25.95209">
        <ele>112.895802</ele>
        <time>2022-02-27T08:15:09.592Z</time>
      </trkpt>
      <trkpt lat="41.89865" lon="25.952">
        <ele>113.110554</ele>
        <time>2022-02-27T08:15:11.598Z</time>
      </trkpt>
      <trkpt lat="41.89872" lon="25.95192">
        <ele>113.326215</ele>
        <time>2022-02-27T08:15:13.593Z</time>
      </trkpt>
      <trkpt lat="41.89879" lon="25.95184">
        <ele>113.534843</ele>
        <time>2022-02-27T08:15:15.657Z</time>
      </trkpt>
      <trkpt lat="41.89887" lon="25.95177">
        <ele>113.749936</ele>
        <time>2022-02-27T08:15:17.597Z</time>
      </trkpt>
      <trkpt lat="41.89895" lon="25.95168">
        <ele>113.974968</ele>
        <time>2022-02-27T08:15:19.609Z</time>
      </trkpt>
      <trkpt lat="41.89902" lon="25.9516">
        <ele>114.200354</ele>
        <time>2022-02-27T08:15:21.625Z</time>
      </trkpt>
      <trkpt lat="41.8991" lon="25.95152">
        <ele>114.423617</ele>
        <time>2022-02-27T08:15:23.597Z</time>
      </trkpt>
      <trkpt lat="41.89918" lon="25.95143">
        <ele>114.649698</ele>
        <time>2022-02-27T08:15:25.631Z</time>
      </trkpt>
      <trkpt lat="41.89926" lon="25.95135">
        <ele>114.87907</ele>
        <time>2022-02-27T08:15:27.591Z</time>
      </trkpt>
      <trkpt lat="41.89934" lon="25.95127">
        <ele>114.901893</ele>
        <time>2022-02-27T08:15:29.629Z</time>
      </trkpt>
      <trkpt lat="41.89941" lon="25.95119">
        <ele>114.660548</ele>
        <time>2022-02-27T08:15:31.607Z</time>
      </trkpt>
      <trkpt lat="41.89949" lon="25.95111">
        <ele>114.428046</ele>
        <time>2022-02-27T08:15:33.602Z</time>
      </trkpt>
      <trkpt lat="41.89957" lon="25.95103">
        <ele>114.196913</ele>
        <time>2022-02-27T08:15:35.599Z</time>
      </trkpt>
      <trkpt lat="41.89965" lon="25.95095">
        <ele>113.952526</ele>
        <time>2022-02-27T08:15:37.613Z</time>
      </trkpt>
      <trkpt lat="41.89973" lon="25.95087">
        <ele>113.701432</ele>
        <time>2022-02-27T08:15:39.605Z</time>
      </trkpt>
      <trkpt lat="41.89981" lon="25.95078">
        <ele>113.446826</ele>
        <time>2022-02-27T08:15:41.617Z</time>
      </trkpt>
      <trkpt lat="41.8999" lon="25.9507">
        <ele>113.184392</ele>
        <time>2022-02-27T08:15:43.652Z</time>
      </trkpt>
      <trkpt lat="41.89998" lon="25.95061">
        <ele>112.918446</ele>
        <time>2022-02-27T08:15:45.595Z</time>
      </trkpt>
      <trkpt lat="41.90006" lon="25.95053">
        <ele>112.673188</ele>
        <time>2022-02-27T08:15:47.601Z</time>
      </trkpt>
      <trkpt lat="41.90015" lon="25.95045">
        <ele>112.423981</ele>
        <time>2022-02-27T08:15:49.635Z</time>
      </trkpt>
      <trkpt lat="41.90023" lon="25.95036">
        <ele>112.164389</ele>
        <time>2022-02-27T08:15:51.607Z</time>
      </trkpt>
      <trkpt lat="41.90032" lon="25.95027">
        <ele>111.904798</ele>
        <time>2022-02-27T08:15:53.595Z</time>
      </trkpt>
      <trkpt lat="41.9004" lon="25.95019">
        <ele>111.641293</ele>
        <time>2022-02-27T08:15:55.594Z</time>
      </trkpt>
      <trkpt lat="41.90049" lon="25.9501">
        <ele>111.383349</ele>
        <time>2022-02-27T08:15:57.612Z</time>
      </trkpt>
      <trkpt lat="41.90057" lon="25.95001">
        <ele>111.119844</ele>
        <time>2022-02-27T08:15:59.589Z</time>
      </trkpt>
      <trkpt lat="41.90066" lon="25.94993">
        <ele>110.860452</ele>
        <time>2022-02-27T08:16:01.611Z</time>
      </trkpt>
      <trkpt lat="41.90074" lon="25.94985">
        <ele>110.617121</ele>
        <time>2022-02-27T08:16:03.591Z</time>
      </trkpt>
      <trkpt lat="41.90082" lon="25.94977">
        <ele>110.64246</ele>
        <time>2022-02-27T08:16:05.624Z</time>
      </trkpt>
      <trkpt lat="41.9009" lon="25.94969">
        <ele>110.667712</ele>
        <time>2022-02-27T08:16:07.607Z</time>
      </trkpt>
      <trkpt lat="41.90097" lon="25.94961">
        <ele>110.691571</ele>
        <time>2022-02-27T08:16:09.610Z</time>
      </trkpt>
      <trkpt lat="41.90104" lon="25.94953">
        <ele>110.715343</ele>
        <time>2022-02-27T08:16:11.631Z</time>
      </trkpt>
      <trkpt lat="41.90112" lon="25.94946">
        <ele>110.738563</ele>
        <time>2022-02-27T08:16:13.617Z</time>
      </trkpt>
      <trkpt lat="41.90122" lon="25.94936">
        <ele>110.771864</ele>
        <time>2022-02-27T08:16:16.591Z</time>
      </trkpt>
      <trkpt lat="41.9013" lon="25.94928">
        <ele>110.795906</ele>
        <time>2022-02-27T08:16:18.603Z</time>
      </trkpt>
      <trkpt lat="41.90137" lon="25.9492">
        <ele>110.820674</ele>
        <time>2022-02-27T08:16:20.583Z</time>
      </trkpt>
      <trkpt lat="41.90145" lon="25.94912">
        <ele>110.844213</ele>
        <time>2022-02-27T08:16:22.598Z</time>
      </trkpt>
      <trkpt lat="41.90152" lon="25.94905">
        <ele>110.868463</ele>
        <time>2022-02-27T08:16:24.614Z</time>
      </trkpt>
      <trkpt lat="41.9016" lon="25.94898">
        <ele>110.892713</ele>
        <time>2022-02-27T08:16:26.603Z</time>
      </trkpt>
      <trkpt lat="41.90168" lon="25.94889">
        <ele>110.918877</ele>
        <time>2022-02-27T08:16:28.627Z</time>
      </trkpt>
      <trkpt lat="41.90175" lon="25.94881">
        <ele>110.942852</ele>
        <time>2022-02-27T08:16:30.629Z</time>
      </trkpt>
      <trkpt lat="41.90182" lon="25.94874">
        <ele>110.965842</ele>
        <time>2022-02-27T08:16:32.585Z</time>
      </trkpt>
      <trkpt lat="41.9019" lon="25.94866">
        <ele>110.989615</ele>
        <time>2022-02-27T08:16:34.643Z</time>
      </trkpt>
      <trkpt lat="41.90197" lon="25.94859">
        <ele>111.013107</ele>
        <time>2022-02-27T08:16:36.602Z</time>
      </trkpt>
      <trkpt lat="41.90204" lon="25.94851">
        <ele>111.036159</ele>
        <time>2022-02-27T08:16:38.609Z</time>
      </trkpt>
      <trkpt lat="41.90211" lon="25.94844">
        <ele>111.05977</ele>
        <time>2022-02-27T08:16:40.609Z</time>
      </trkpt>
      <trkpt lat="41.90222" lon="25.94834">
        <ele>111.062625</ele>
        <time>2022-02-27T08:16:43.600Z</time>
      </trkpt>
      <trkpt lat="41.9023" lon="25.94826">
        <ele>111.04196</ele>
        <time>2022-02-27T08:16:45.625Z</time>
      </trkpt>
      <trkpt lat="41.90237" lon="25.94818">
        <ele>111.021396</ele>
        <time>2022-02-27T08:16:47.610Z</time>
      </trkpt>
      <trkpt lat="41.90244" lon="25.94811">
        <ele>111.001186</ele>
        <time>2022-02-27T08:16:49.599Z</time>
      </trkpt>
      <trkpt lat="41.90251" lon="25.94804">
        <ele>110.980901</ele>
        <time>2022-02-27T08:16:51.624Z</time>
      </trkpt>
      <trkpt lat="41.90259" lon="25.94796">
        <ele>110.959534</ele>
        <time>2022-02-27T08:16:53.590Z</time>
      </trkpt>
      <trkpt lat="41.90267" lon="25.94789">
        <ele>110.938155</ele>
        <time>2022-02-27T08:16:55.599Z</time>
      </trkpt>
      <trkpt lat="41.90274" lon="25.94781">
        <ele>110.916932</ele>
        <time>2022-02-27T08:16:57.670Z</time>
      </trkpt>
      <trkpt lat="41.90281" lon="25.94773">
        <ele>110.896748</ele>
        <time>2022-02-27T08:16:59.610Z</time>
      </trkpt>
      <trkpt lat="41.90292" lon="25.94763">
        <ele>110.866832</ele>
        <time>2022-02-27T08:17:02.597Z</time>
      </trkpt>
      <trkpt lat="41.90303" lon="25.94752">
        <ele>110.837698</ele>
        <time>2022-02-27T08:17:05.590Z</time>
      </trkpt>
      <trkpt lat="41.90313" lon="25.94742">
        <ele>110.808488</ele>
        <time>2022-02-27T08:17:08.624Z</time>
      </trkpt>
      <trkpt lat="41.90324" lon="25.94731">
        <ele>110.778619</ele>
        <time>2022-02-27T08:17:11.600Z</time>
      </trkpt>
      <trkpt lat="41.90331" lon="25.94723">
        <ele>110.758306</ele>
        <time>2022-02-27T08:17:13.620Z</time>
      </trkpt>
      <trkpt lat="41.90338" lon="25.94715">
        <ele>110.737083</ele>
        <time>2022-02-27T08:17:15.602Z</time>
      </trkpt>
      <trkpt lat="41.90346" lon="25.94707">
        <ele>110.715302</ele>
        <time>2022-02-27T08:17:17.599Z</time>
      </trkpt>
      <trkpt lat="41.90353" lon="25.947">
        <ele>110.6938</ele>
        <time>2022-02-27T08:17:19.628Z</time>
      </trkpt>
      <trkpt lat="41.90361" lon="25.94692">
        <ele>110.673801</ele>
        <time>2022-02-27T08:17:21.594Z</time>
      </trkpt>
      <trkpt lat="41.90369" lon="25.94684">
        <ele>110.66538</ele>
        <time>2022-02-27T08:17:23.599Z</time>
      </trkpt>
      <trkpt lat="41.90376" lon="25.94676">
        <ele>110.657043</ele>
        <time>2022-02-27T08:17:25.598Z</time>
      </trkpt>
      <trkpt lat="41.90384" lon="25.94668">
        <ele>110.648908</ele>
        <time>2022-02-27T08:17:27.609Z</time>
      </trkpt>
      <trkpt lat="41.90391" lon="25.94661">
        <ele>110.640989</ele>
        <time>2022-02-27T08:17:29.594Z</time>
      </trkpt>
      <trkpt lat="41.90398" lon="25.94653">
        <ele>110.632793</ele>
        <time>2022-02-27T08:17:31.605Z</time>
      </trkpt>
      <trkpt lat="41.90406" lon="25.94645">
        <ele>110.624549</ele>
        <time>2022-02-27T08:17:33.594Z</time>
      </trkpt>
      <trkpt lat="41.90414" lon="25.94638">
        <ele>110.616315</ele>
        <time>2022-02-27T08:17:35.586Z</time>
      </trkpt>
      <trkpt lat="41.90421" lon="25.9463">
        <ele>110.6081</ele>
        <time>2022-02-27T08:17:37.609Z</time>
      </trkpt>
      <trkpt lat="41.90431" lon="25.9462">
        <ele>110.596984</ele>
        <time>2022-02-27T08:17:40.602Z</time>
      </trkpt>
      <trkpt lat="41.90438" lon="25.94612">
        <ele>110.589094</ele>
        <time>2022-02-27T08:17:42.615Z</time>
      </trkpt>
      <trkpt lat="41.90446" lon="25.94605">
        <ele>110.581203</ele>
        <time>2022-02-27T08:17:44.617Z</time>
      </trkpt>
      <trkpt lat="41.90456" lon="25.94594">
        <ele>110.569827</ele>
        <time>2022-02-27T08:17:47.581Z</time>
      </trkpt>
      <trkpt lat="41.90467" lon="25.94583">
        <ele>110.558037</ele>
        <time>2022-02-27T08:17:50.606Z</time>
      </trkpt>
      <trkpt lat="41.90474" lon="25.94576">
        <ele>110.550197</ele>
        <time>2022-02-27T08:17:52.594Z</time>
      </trkpt>
      <trkpt lat="41.90485" lon="25.94565">
        <ele>110.538565</ele>
        <time>2022-02-27T08:17:55.620Z</time>
      </trkpt>
      <trkpt lat="41.90495" lon="25.94554">
        <ele>110.527288</ele>
        <time>2022-02-27T08:17:58.610Z</time>
      </trkpt>
      <trkpt lat="41.90505" lon="25.94544">
        <ele>110.558371</ele>
        <time>2022-02-27T08:18:01.595Z</time>
      </trkpt>
      <trkpt lat="41.90515" lon="25.94534">
        <ele>110.779867</ele>
        <time>2022-02-27T08:18:04.609Z</time>
      </trkpt>
      <trkpt lat="41.90526" lon="25.94524">
        <ele>111.008614</ele>
        <time>2022-02-27T08:18:07.606Z</time>
      </trkpt>
      <trkpt lat="41.90536" lon="25.94514">
        <ele>111.232917</ele>
        <time>2022-02-27T08:18:10.590Z</time>
      </trkpt>
      <trkpt lat="41.90546" lon="25.94504">
        <ele>111.449374</ele>
        <time>2022-02-27T08:18:13.608Z</time>
      </trkpt>
      <trkpt lat="41.90555" lon="25.94496">
        <ele>111.647366</ele>
        <time>2022-02-27T08:18:16.604Z</time>
      </trkpt>
      <trkpt lat="41.90565" lon="25.94486">
        <ele>111.852415</ele>
        <time>2022-02-27T08:18:19.612Z</time>
      </trkpt>
      <trkpt lat="41.90574" lon="25.94475">
        <ele>112.069652</ele>
        <time>2022-02-27T08:18:22.589Z</time>
      </trkpt>
      <trkpt lat="41.90583" lon="25.94465">
        <ele>112.28152</ele>
        <time>2022-02-27T08:18:25.618Z</time>
      </trkpt>
      <trkpt lat="41.90593" lon="25.94455">
        <ele>112.498891</ele>
        <time>2022-02-27T08:18:28.588Z</time>
      </trkpt>
      <trkpt lat="41.90603" lon="25.94444">
        <ele>112.719296</ele>
        <time>2022-02-27T08:18:31.602Z</time>
      </trkpt>
      <trkpt lat="41.90613" lon="25.94435">
        <ele>112.937172</ele>
        <time>2022-02-27T08:18:34.610Z</time>
      </trkpt>
      <trkpt lat="41.90622" lon="25.94425">
        <ele>113.151594</ele>
        <time>2022-02-27T08:18:37.617Z</time>
      </trkpt>
      <trkpt lat="41.90632" lon="25.94415">
        <ele>113.364312</ele>
        <time>2022-02-27T08:18:40.603Z</time>
      </trkpt>
      <trkpt lat="41.90642" lon="25.94405">
        <ele>113.57654</ele>
        <time>2022-02-27T08:18:43.584Z</time>
      </trkpt>
      <trkpt lat="41.90652" lon="25.94394">
        <ele>113.715541</ele>
        <time>2022-02-27T08:18:46.622Z</time>
      </trkpt>
      <trkpt lat="41.90662" lon="25.94384">
        <ele>113.77184</ele>
        <time>2022-02-27T08:18:49.591Z</time>
      </trkpt>
      <trkpt lat="41.90672" lon="25.94374">
        <ele>113.825019</ele>
        <time>2022-02-27T08:18:52.606Z</time>
      </trkpt>
      <trkpt lat="41.90681" lon="25.94365">
        <ele>113.878316</ele>
        <time>2022-02-27T08:18:55.607Z</time>
      </trkpt>
      <trkpt lat="41.90691" lon="25.94356">
        <ele>113.931209</ele>
        <time>2022-02-27T08:18:58.628Z</time>
      </trkpt>
      <trkpt lat="41.90701" lon="25.94346">
        <ele>113.985495</ele>
        <time>2022-02-27T08:19:01.615Z</time>
      </trkpt>
      <trkpt lat="41.90711" lon="25.94335">
        <ele>114.04441</ele>
        <time>2022-02-27T08:19:04.611Z</time>
      </trkpt>
      <trkpt lat="41.90722" lon="25.94324">
        <ele>114.10217</ele>
        <time>2022-02-27T08:19:07.604Z</time>
      </trkpt>
      <trkpt lat="41.90731" lon="25.94315">
        <ele>114.153541</ele>
        <time>2022-02-27T08:19:10.602Z</time>
      </trkpt>
      <trkpt lat="41.9074" lon="25.94305">
        <ele>114.205344</ele>
        <time>2022-02-27T08:19:13.627Z</time>
      </trkpt>
      <trkpt lat="41.9075" lon="25.94296">
        <ele>114.257416</ele>
        <time>2022-02-27T08:19:16.620Z</time>
      </trkpt>
      <trkpt lat="41.90759" lon="25.94286">
        <ele>114.30906</ele>
        <time>2022-02-27T08:19:19.631Z</time>
      </trkpt>
      <trkpt lat="41.90768" lon="25.94275">
        <ele>114.364784</ele>
        <time>2022-02-27T08:19:22.627Z</time>
      </trkpt>
      <trkpt lat="41.90778" lon="25.94265">
        <ele>114.420932</ele>
        <time>2022-02-27T08:19:25.628Z</time>
      </trkpt>
      <trkpt lat="41.90789" lon="25.94254">
        <ele>114.480653</ele>
        <time>2022-02-27T08:19:28.601Z</time>
      </trkpt>
      <trkpt lat="41.90797" lon="25.94247">
        <ele>114.459036</ele>
        <time>2022-02-27T08:19:30.593Z</time>
      </trkpt>
      <trkpt lat="41.90804" lon="25.9424">
        <ele>114.433468</ele>
        <time>2022-02-27T08:19:32.624Z</time>
      </trkpt>
      <trkpt lat="41.90811" lon="25.94233">
        <ele>114.408089</ele>
        <time>2022-02-27T08:19:34.599Z</time>
      </trkpt>
      <trkpt lat="41.90821" lon="25.94222">
        <ele>114.37295</ele>
        <time>2022-02-27T08:19:37.596Z</time>
      </trkpt>
      <trkpt lat="41.9083" lon="25.94211">
        <ele>114.33648</ele>
        <time>2022-02-27T08:19:40.613Z</time>
      </trkpt>
      <trkpt lat="41.9084" lon="25.94201">
        <ele>114.301498</ele>
        <time>2022-02-27T08:19:43.592Z</time>
      </trkpt>
      <trkpt lat="41.9085" lon="25.94192">
        <ele>114.266642</ele>
        <time>2022-02-27T08:19:46.630Z</time>
      </trkpt>
      <trkpt lat="41.90861" lon="25.94182">
        <ele>114.230165</ele>
        <time>2022-02-27T08:19:49.595Z</time>
      </trkpt>
      <trkpt lat="41.90871" lon="25.94173">
        <ele>114.195571</ele>
        <time>2022-02-27T08:19:52.593Z</time>
      </trkpt>
      <trkpt lat="41.90879" lon="25.94164">
        <ele>114.164984</ele>
        <time>2022-02-27T08:19:55.606Z</time>
      </trkpt>
      <trkpt lat="41.90889" lon="25.94154">
        <ele>114.132318</ele>
        <time>2022-02-27T08:19:58.635Z</time>
      </trkpt>
      <trkpt lat="41.90898" lon="25.94143">
        <ele>114.097179</ele>
        <time>2022-02-27T08:20:01.618Z</time>
      </trkpt>
      <trkpt lat="41.90908" lon="25.94132">
        <ele>114.060545</ele>
        <time>2022-02-27T08:20:04.629Z</time>
      </trkpt>
      <trkpt lat="41.90918" lon="25.94123">
        <ele>114.024898</ele>
        <time>2022-02-27T08:20:07.606Z</time>
      </trkpt>
      <trkpt lat="41.90928" lon="25.94113">
        <ele>113.991782</ele>
        <time>2022-02-27T08:20:10.593Z</time>
      </trkpt>
      <trkpt lat="41.90936" lon="25.94104">
        <ele>114.094998</ele>
        <time>2022-02-27T08:20:13.604Z</time>
      </trkpt>
      <trkpt lat="41.90946" lon="25.94095">
        <ele>114.403023</ele>
        <time>2022-02-27T08:20:16.604Z</time>
      </trkpt>
      <trkpt lat="41.90955" lon="25.94085">
        <ele>114.71986</ele>
        <time>2022-02-27T08:20:19.601Z</time>
      </trkpt>
      <trkpt lat="41.90964" lon="25.94076">
        <ele>115.026691</ele>
        <time>2022-02-27T08:20:22.606Z</time>
      </trkpt>
      <trkpt lat="41.90973" lon="25.94067">
        <ele>115.319565</ele>
        <time>2022-02-27T08:20:25.608Z</time>
      </trkpt>
      <trkpt lat="41.90981" lon="25.94058">
        <ele>115.605445</ele>
        <time>2022-02-27T08:20:28.613Z</time>
      </trkpt>
      <trkpt lat="41.9099" lon="25.9405">
        <ele>115.896437</ele>
        <time>2022-02-27T08:20:31.634Z</time>
      </trkpt>
      <trkpt lat="41.90999" lon="25.94042">
        <ele>116.186256</ele>
        <time>2022-02-27T08:20:34.595Z</time>
      </trkpt>
      <trkpt lat="41.91008" lon="25.94033">
        <ele>116.487609</ele>
        <time>2022-02-27T08:20:37.595Z</time>
      </trkpt>
      <trkpt lat="41.91017" lon="25.94023">
        <ele>116.791374</ele>
        <time>2022-02-27T08:20:40.626Z</time>
      </trkpt>
      <trkpt lat="41.91026" lon="25.94014">
        <ele>117.081799</ele>
        <time>2022-02-27T08:20:43.602Z</time>
      </trkpt>
      <trkpt lat="41.91034" lon="25.94006">
        <ele>117.362789</ele>
        <time>2022-02-27T08:20:46.606Z</time>
      </trkpt>
      <trkpt lat="41.91044" lon="25.93998">
        <ele>117.663782</ele>
        <time>2022-02-27T08:20:49.605Z</time>
      </trkpt>
      <trkpt lat="41.91053" lon="25.93988">
        <ele>117.968763</ele>
        <time>2022-02-27T08:20:52.605Z</time>
      </trkpt>
      <trkpt lat="41.91061" lon="25.93979">
        <ele>118.24587</ele>
        <time>2022-02-27T08:20:55.601Z</time>
      </trkpt>
      <trkpt lat="41.91068" lon="25.9397">
        <ele>118.519553</ele>
        <time>2022-02-27T08:20:58.575Z</time>
      </trkpt>
      <trkpt lat="41.91076" lon="25.93961">
        <ele>118.793912</ele>
        <time>2022-02-27T08:21:01.607Z</time>
      </trkpt>
      <trkpt lat="41.91084" lon="25.93953">
        <ele>119.176487</ele>
        <time>2022-02-27T08:21:04.629Z</time>
      </trkpt>
      <trkpt lat="41.91092" lon="25.93945">
        <ele>119.52376</ele>
        <time>2022-02-27T08:21:07.621Z</time>
      </trkpt>
      <trkpt lat="41.91101" lon="25.93937">
        <ele>119.96038</ele>
        <time>2022-02-27T08:21:11.607Z</time>
      </trkpt>
      <trkpt lat="41.9111" lon="25.93928">
        <ele>120.367675</ele>
        <time>2022-02-27T08:21:15.617Z</time>
      </trkpt>
      <trkpt lat="41.9112" lon="25.93918">
        <ele>120.826068</ele>
        <time>2022-02-27T08:21:19.608Z</time>
      </trkpt>
      <trkpt lat="41.91128" lon="25.93911">
        <ele>121.176371</ele>
        <time>2022-02-27T08:21:22.589Z</time>
      </trkpt>
      <trkpt lat="41.91136" lon="25.93902">
        <ele>121.570237</ele>
        <time>2022-02-27T08:21:26.593Z</time>
      </trkpt>
      <trkpt lat="41.91144" lon="25.93893">
        <ele>121.964491</ele>
        <time>2022-02-27T08:21:30.593Z</time>
      </trkpt>
      <trkpt lat="41.91152" lon="25.93884">
        <ele>122.355197</ele>
        <time>2022-02-27T08:21:34.609Z</time>
      </trkpt>
      <trkpt lat="41.91161" lon="25.93875">
        <ele>122.7424</ele>
        <time>2022-02-27T08:21:38.617Z</time>
      </trkpt>
      <trkpt lat="41.91169" lon="25.93867">
        <ele>123.132009</ele>
        <time>2022-02-27T08:21:42.596Z</time>
      </trkpt>
      <trkpt lat="41.91177" lon="25.93858">
        <ele>123.507339</ele>
        <time>2022-02-27T08:21:46.630Z</time>
      </trkpt>
      <trkpt lat="41.91185" lon="25.93851">
        <ele>123.866905</ele>
        <time>2022-02-27T08:21:50.607Z</time>
      </trkpt>
      <trkpt lat="41.91193" lon="25.93843">
        <ele>124.222056</ele>
        <time>2022-02-27T08:21:54.633Z</time>
      </trkpt>
      <trkpt lat="41.91201" lon="25.93835">
        <ele>124.591107</ele>
        <time>2022-02-27T08:21:58.613Z</time>
      </trkpt>
      <trkpt lat="41.91208" lon="25.93828">
        <ele>124.930558</ele>
        <time>2022-02-27T08:22:02.595Z</time>
      </trkpt>
      <trkpt lat="41.91216" lon="25.93822">
        <ele>125.268585</ele>
        <time>2022-02-27T08:22:06.598Z</time>
      </trkpt>
      <trkpt lat="41.91223" lon="25.93815">
        <ele>125.611619</ele>
        <time>2022-02-27T08:22:10.602Z</time>
      </trkpt>
      <trkpt lat="41.91231" lon="25.93808">
        <ele>125.954716</ele>
        <time>2022-02-27T08:22:14.662Z</time>
      </trkpt>
      <trkpt lat="41.91238" lon="25.938">
        <ele>126.291355</ele>
        <time>2022-02-27T08:22:18.601Z</time>
      </trkpt>
      <trkpt lat="41.91247" lon="25.93791">
        <ele>126.698139</ele>
        <time>2022-02-27T08:22:23.621Z</time>
      </trkpt>
      <trkpt lat="41.91254" lon="25.93783">
        <ele>127.038002</ele>
        <time>2022-02-27T08:22:27.622Z</time>
      </trkpt>
      <trkpt lat="41.91261" lon="25.93775">
        <ele>127.37884</ele>
        <time>2022-02-27T08:22:31.673Z</time>
      </trkpt>
      <trkpt lat="41.91269" lon="25.93765">
        <ele>127.779339</ele>
        <time>2022-02-27T08:22:36.607Z</time>
      </trkpt>
      <trkpt lat="41.91277" lon="25.93758">
        <ele>128.151448</ele>
        <time>2022-02-27T08:22:40.595Z</time>
      </trkpt>
      <trkpt lat="41.91285" lon="25.93751">
        <ele>128.48527</ele>
        <time>2022-02-27T08:22:44.611Z</time>
      </trkpt>
      <trkpt lat="41.91292" lon="25.93743">
        <ele>128.831559</ele>
        <time>2022-02-27T08:22:48.623Z</time>
      </trkpt>
      <trkpt lat="41.91301" lon="25.93734">
        <ele>129.238342</ele>
        <time>2022-02-27T08:22:52.613Z</time>
      </trkpt>
      <trkpt lat="41.91309" lon="25.93726">
        <ele>129.628426</ele>
        <time>2022-02-27T08:22:56.612Z</time>
      </trkpt>
      <trkpt lat="41.91319" lon="25.93716">
        <ele>130.052896</ele>
        <time>2022-02-27T08:23:00.608Z</time>
      </trkpt>
      <trkpt lat="41.91327" lon="25.93707">
        <ele>130.450579</ele>
        <time>2022-02-27T08:23:04.653Z</time>
      </trkpt>
      <trkpt lat="41.91335" lon="25.93698">
        <ele>130.826161</ele>
        <time>2022-02-27T08:23:08.607Z</time>
      </trkpt>
      <trkpt lat="41.91343" lon="25.93688">
        <ele>131.242649</ele>
        <time>2022-02-27T08:23:12.607Z</time>
      </trkpt>
      <trkpt lat="41.91352" lon="25.93679">
        <ele>131.658221</ele>
        <time>2022-02-27T08:23:16.625Z</time>
      </trkpt>
      <trkpt lat="41.91361" lon="25.93671">
        <ele>132.053488</ele>
        <time>2022-02-27T08:23:20.591Z</time>
      </trkpt>
      <trkpt lat="41.9137" lon="25.93662">
        <ele>132.15356</ele>
        <time>2022-02-27T08:23:24.616Z</time>
      </trkpt>
      <trkpt lat="41.91378" lon="25.93654">
        <ele>132.203777</ele>
        <time>2022-02-27T08:23:28.621Z</time>
      </trkpt>
      <trkpt lat="41.91386" lon="25.93645">
        <ele>132.256045</ele>
        <time>2022-02-27T08:23:32.609Z</time>
      </trkpt>
      <trkpt lat="41.91394" lon="25.93636">
        <ele>132.30581</ele>
        <time>2022-02-27T08:23:36.609Z</time>
      </trkpt>
      <trkpt lat="41.91402" lon="25.93627">
        <ele>132.358382</ele>
        <time>2022-02-27T08:23:40.603Z</time>
      </trkpt>
      <trkpt lat="41.91411" lon="25.93618">
        <ele>132.412325</ele>
        <time>2022-02-27T08:23:44.627Z</time>
      </trkpt>
      <trkpt lat="41.91419" lon="25.93611">
        <ele>132.457347</ele>
        <time>2022-02-27T08:23:47.609Z</time>
      </trkpt>
      <trkpt lat="41.91427" lon="25.93604">
        <ele>132.50501</ele>
        <time>2022-02-27T08:23:50.617Z</time>
      </trkpt>
      <trkpt lat="41.91437" lon="25.93596">
        <ele>132.562063</ele>
        <time>2022-02-27T08:23:54.609Z</time>
      </trkpt>
      <trkpt lat="41.91447" lon="25.93588">
        <ele>132.618698</ele>
        <time>2022-02-27T08:23:58.596Z</time>
      </trkpt>
      <trkpt lat="41.91456" lon="25.93578">
        <ele>132.676608</ele>
        <time>2022-02-27T08:24:02.612Z</time>
      </trkpt>
      <trkpt lat="41.91465" lon="25.93568">
        <ele>132.73321</ele>
        <time>2022-02-27T08:24:06.608Z</time>
      </trkpt>
      <trkpt lat="41.91474" lon="25.93559">
        <ele>132.78709</ele>
        <time>2022-02-27T08:24:10.664Z</time>
      </trkpt>
      <trkpt lat="41.91482" lon="25.93549">
        <ele>132.838891</ele>
        <time>2022-02-27T08:24:14.598Z</time>
      </trkpt>
      <trkpt lat="41.91489" lon="25.9354">
        <ele>132.889843</ele>
        <time>2022-02-27T08:24:18.598Z</time>
      </trkpt>
      <trkpt lat="41.91497" lon="25.9353">
        <ele>132.942009</ele>
        <time>2022-02-27T08:24:22.608Z</time>
      </trkpt>
      <trkpt lat="41.91505" lon="25.93522">
        <ele>132.998702</ele>
        <time>2022-02-27T08:24:26.608Z</time>
      </trkpt>
      <trkpt lat="41.91514" lon="25.93512">
        <ele>133.103337</ele>
        <time>2022-02-27T08:24:30.605Z</time>
      </trkpt>
      <trkpt lat="41.91521" lon="25.93503">
        <ele>133.200613</ele>
        <time>2022-02-27T08:24:34.603Z</time>
      </trkpt>
      <trkpt lat="41.91529" lon="25.93494">
        <ele>133.300679</ele>
        <time>2022-02-27T08:24:38.606Z</time>
      </trkpt>
      <trkpt lat="41.91536" lon="25.93484">
        <ele>133.403527</ele>
        <time>2022-02-27T08:24:42.601Z</time>
      </trkpt>
      <trkpt lat="41.91545" lon="25.93472">
        <ele>133.519302</ele>
        <time>2022-02-27T08:24:46.614Z</time>
      </trkpt>
      <trkpt lat="41.91553" lon="25.93461">
        <ele>133.631664</ele>
        <time>2022-02-27T08:24:50.596Z</time>
      </trkpt>
      <trkpt lat="41.91561" lon="25.93451">
        <ele>133.741308</ele>
        <time>2022-02-27T08:24:54.605Z</time>
      </trkpt>
      <trkpt lat="41.91568" lon="25.9344">
        <ele>133.843817</ele>
        <time>2022-02-27T08:24:58.585Z</time>
      </trkpt>
      <trkpt lat="41.91576" lon="25.9343">
        <ele>133.951233</ele>
        <time>2022-02-27T08:25:02.596Z</time>
      </trkpt>
      <trkpt lat="41.91584" lon="25.93419">
        <ele>134.058883</ele>
        <time>2022-02-27T08:25:06.646Z</time>
      </trkpt>
      <trkpt lat="41.91592" lon="25.9341">
        <ele>134.166097</ele>
        <time>2022-02-27T08:25:10.602Z</time>
      </trkpt>
      <trkpt lat="41.91601" lon="25.934">
        <ele>134.27424</ele>
        <time>2022-02-27T08:25:14.607Z</time>
      </trkpt>
      <trkpt lat="41.91608" lon="25.9339">
        <ele>134.374994</ele>
        <time>2022-02-27T08:25:18.624Z</time>
      </trkpt>
      <trkpt lat="41.91616" lon="25.93381">
        <ele>134.47594</ele>
        <time>2022-02-27T08:25:22.603Z</time>
      </trkpt>
      <trkpt lat="41.91622" lon="25.93369">
        <ele>134.581896</ele>
        <time>2022-02-27T08:25:26.631Z</time>
      </trkpt>
      <trkpt lat="41.91631" lon="25.9336">
        <ele>134.686722</ele>
        <time>2022-02-27T08:25:30.613Z</time>
      </trkpt>
      <trkpt lat="41.91639" lon="25.9335">
        <ele>134.734291</ele>
        <time>2022-02-27T08:25:34.608Z</time>
      </trkpt>
      <trkpt lat="41.91647" lon="25.93339">
        <ele>134.739623</ele>
        <time>2022-02-27T08:25:38.599Z</time>
      </trkpt>
      <trkpt lat="41.91655" lon="25.93328">
        <ele>134.744673</ele>
        <time>2022-02-27T08:25:42.611Z</time>
      </trkpt>
      <trkpt lat="41.91662" lon="25.93318">
        <ele>134.74911</ele>
        <time>2022-02-27T08:25:46.611Z</time>
      </trkpt>
      <trkpt lat="41.91669" lon="25.93308">
        <ele>134.753833</ele>
        <time>2022-02-27T08:25:50.614Z</time>
      </trkpt>
      <trkpt lat="41.91677" lon="25.93297">
        <ele>134.759067</ele>
        <time>2022-02-27T08:25:54.606Z</time>
      </trkpt>
      <trkpt lat="41.91685" lon="25.93285">
        <ele>134.764473</ele>
        <time>2022-02-27T08:25:58.589Z</time>
      </trkpt>
      <trkpt lat="41.91691" lon="25.93276">
        <ele>134.768623</ele>
        <time>2022-02-27T08:26:01.620Z</time>
      </trkpt>
      <trkpt lat="41.91698" lon="25.93267">
        <ele>134.772924</ele>
        <time>2022-02-27T08:26:04.598Z</time>
      </trkpt>
      <trkpt lat="41.91705" lon="25.93257">
        <ele>134.777639</ele>
        <time>2022-02-27T08:26:07.618Z</time>
      </trkpt>
      <trkpt lat="41.91711" lon="25.93247">
        <ele>134.781946</ele>
        <time>2022-02-27T08:26:10.603Z</time>
      </trkpt>
      <trkpt lat="41.91717" lon="25.93237">
        <ele>134.78622</ele>
        <time>2022-02-27T08:26:13.643Z</time>
      </trkpt>
      <trkpt lat="41.91723" lon="25.93225">
        <ele>134.791063</ele>
        <time>2022-02-27T08:26:16.602Z</time>
      </trkpt>
      <trkpt lat="41.91729" lon="25.93212">
        <ele>134.796346</ele>
        <time>2022-02-27T08:26:19.637Z</time>
      </trkpt>
      <trkpt lat="41.91736" lon="25.93199">
        <ele>134.801864</ele>
        <time>2022-02-27T08:26:22.617Z</time>
      </trkpt>
      <trkpt lat="41.91743" lon="25.93185">
        <ele>134.80736</ele>
        <time>2022-02-27T08:26:25.637Z</time>
      </trkpt>
      <trkpt lat="41.9175" lon="25.9317">
        <ele>134.801649</ele>
        <time>2022-02-27T08:26:28.604Z</time>
      </trkpt>
      <trkpt lat="41.91755" lon="25.9316">
        <ele>134.719978</ele>
        <time>2022-02-27T08:26:30.606Z</time>
      </trkpt>
      <trkpt lat="41.91763" lon="25.93146">
        <ele>134.599313</ele>
        <time>2022-02-27T08:26:33.591Z</time>
      </trkpt>
      <trkpt lat="41.91768" lon="25.93136">
        <ele>134.516166</ele>
        <time>2022-02-27T08:26:35.588Z</time>
      </trkpt>
      <trkpt lat="41.91774" lon="25.93126">
        <ele>134.431347</ele>
        <time>2022-02-27T08:26:37.609Z</time>
      </trkpt>
      <trkpt lat="41.91781" lon="25.93116">
        <ele>134.342927</ele>
        <time>2022-02-27T08:26:39.612Z</time>
      </trkpt>
      <trkpt lat="41.91787" lon="25.93107">
        <ele>134.254506</ele>
        <time>2022-02-27T08:26:41.588Z</time>
      </trkpt>
      <trkpt lat="41.91793" lon="25.93096">
        <ele>134.165865</ele>
        <time>2022-02-27T08:26:43.600Z</time>
      </trkpt>
      <trkpt lat="41.91799" lon="25.93086">
        <ele>134.080003</ele>
        <time>2022-02-27T08:26:45.610Z</time>
      </trkpt>
      <trkpt lat="41.91807" lon="25.93072">
        <ele>133.962079</ele>
        <time>2022-02-27T08:26:48.615Z</time>
      </trkpt>
      <trkpt lat="41.91812" lon="25.93062">
        <ele>133.87771</ele>
        <time>2022-02-27T08:26:50.603Z</time>
      </trkpt>
      <trkpt lat="41.91818" lon="25.93052">
        <ele>133.790755</ele>
        <time>2022-02-27T08:26:52.609Z</time>
      </trkpt>
      <trkpt lat="41.91823" lon="25.93042">
        <ele>133.708148</ele>
        <time>2022-02-27T08:26:54.608Z</time>
      </trkpt>
      <trkpt lat="41.9183" lon="25.93027">
        <ele>133.591381</ele>
        <time>2022-02-27T08:26:57.598Z</time>
      </trkpt>
      <trkpt lat="41.91837" lon="25.93016">
        <ele>133.492941</ele>
        <time>2022-02-27T08:27:00.613Z</time>
      </trkpt>
      <trkpt lat="41.91842" lon="25.93005">
        <ele>133.402462</ele>
        <time>2022-02-27T08:27:03.641Z</time>
      </trkpt>
      <trkpt lat="41.91847" lon="25.92993">
        <ele>133.310179</ele>
        <time>2022-02-27T08:27:06.593Z</time>
      </trkpt>
      <trkpt lat="41.91846" lon="25.92978">
        <ele>133.211079</ele>
        <time>2022-02-27T08:27:09.630Z</time>
      </trkpt>
      <trkpt lat="41.91836" lon="25.92976">
        <ele>133.169756</ele>
        <time>2022-02-27T08:27:12.595Z</time>
      </trkpt>
      <trkpt lat="41.91829" lon="25.92985">
        <ele>133.160346</ele>
        <time>2022-02-27T08:27:15.633Z</time>
      </trkpt>
      <trkpt lat="41.91823" lon="25.92995">
        <ele>133.151464</ele>
        <time>2022-02-27T08:27:19.599Z</time>
      </trkpt>
      <trkpt lat="41.91817" lon="25.93005">
        <ele>133.142817</ele>
        <time>2022-02-27T08:27:24.595Z</time>
      </trkpt>
      <trkpt lat="41.91818" lon="25.93019">
        <ele>133.133</ele>
        <time>2022-02-27T08:30:53.647Z</time>
      </trkpt>
      <trkpt lat="41.91827" lon="25.93014">
        <ele>133.124169</ele>
        <time>2022-02-27T08:30:58.620Z</time>
      </trkpt>
      <trkpt lat="41.91836" lon="25.9301">
        <ele>133.115514</ele>
        <time>2022-02-27T08:31:01.588Z</time>
      </trkpt>
      <trkpt lat="41.91843" lon="25.93001">
        <ele>133.106104</ele>
        <time>2022-02-27T08:31:04.609Z</time>
      </trkpt>
      <trkpt lat="41.9185" lon="25.9299">
        <ele>133.096323</ele>
        <time>2022-02-27T08:31:07.593Z</time>
      </trkpt>
      <trkpt lat="41.91855" lon="25.92976">
        <ele>133.085539</ele>
        <time>2022-02-27T08:31:10.640Z</time>
      </trkpt>
      <trkpt lat="41.9186" lon="25.92964">
        <ele>133.075624</ele>
        <time>2022-02-27T08:31:13.591Z</time>
      </trkpt>
      <trkpt lat="41.91866" lon="25.92951">
        <ele>133.064929</ele>
        <time>2022-02-27T08:31:16.595Z</time>
      </trkpt>
      <trkpt lat="41.91872" lon="25.92937">
        <ele>133.053647</ele>
        <time>2022-02-27T08:31:19.592Z</time>
      </trkpt>
      <trkpt lat="41.91877" lon="25.92924">
        <ele>133.043273</ele>
        <time>2022-02-27T08:31:22.610Z</time>
      </trkpt>
      <trkpt lat="41.91882" lon="25.92911">
        <ele>133.032969</ele>
        <time>2022-02-27T08:31:25.600Z</time>
      </trkpt>
      <trkpt lat="41.91887" lon="25.92897">
        <ele>133.022478</ele>
        <time>2022-02-27T08:31:28.597Z</time>
      </trkpt>
      <trkpt lat="41.91892" lon="25.92883">
        <ele>133.011736</ele>
        <time>2022-02-27T08:31:31.591Z</time>
      </trkpt>
      <trkpt lat="41.91897" lon="25.9287">
        <ele>133.003372</ele>
        <time>2022-02-27T08:31:34.592Z</time>
      </trkpt>
      <trkpt lat="41.91903" lon="25.92857">
        <ele>132.997341</ele>
        <time>2022-02-27T08:31:37.626Z</time>
      </trkpt>
      <trkpt lat="41.91909" lon="25.92845">
        <ele>132.991633</ele>
        <time>2022-02-27T08:31:40.599Z</time>
      </trkpt>
      <trkpt lat="41.91914" lon="25.92832">
        <ele>132.985857</ele>
        <time>2022-02-27T08:31:43.591Z</time>
      </trkpt>
      <trkpt lat="41.91919" lon="25.9282">
        <ele>132.980391</ele>
        <time>2022-02-27T08:31:46.593Z</time>
      </trkpt>
      <trkpt lat="41.91925" lon="25.92808">
        <ele>132.974792</ele>
        <time>2022-02-27T08:31:49.589Z</time>
      </trkpt>
      <trkpt lat="41.91931" lon="25.92794">
        <ele>132.968514</ele>
        <time>2022-02-27T08:31:52.583Z</time>
      </trkpt>
      <trkpt lat="41.91936" lon="25.9278">
        <ele>132.962367</ele>
        <time>2022-02-27T08:31:55.601Z</time>
      </trkpt>
      <trkpt lat="41.91942" lon="25.92768">
        <ele>132.956633</ele>
        <time>2022-02-27T08:31:58.597Z</time>
      </trkpt>
      <trkpt lat="41.91947" lon="25.92756">
        <ele>132.95108</ele>
        <time>2022-02-27T08:32:01.621Z</time>
      </trkpt>
      <trkpt lat="41.91953" lon="25.92743">
        <ele>132.945122</ele>
        <time>2022-02-27T08:32:04.589Z</time>
      </trkpt>
      <trkpt lat="41.91959" lon="25.9273">
        <ele>132.939057</ele>
        <time>2022-02-27T08:32:07.609Z</time>
      </trkpt>
      <trkpt lat="41.91964" lon="25.92719">
        <ele>132.933886</ele>
        <time>2022-02-27T08:32:10.636Z</time>
      </trkpt>
      <trkpt lat="41.91969" lon="25.92706">
        <ele>132.92839</ele>
        <time>2022-02-27T08:32:13.608Z</time>
      </trkpt>
      <trkpt lat="41.91974" lon="25.9269">
        <ele>132.92142</ele>
        <time>2022-02-27T08:32:16.587Z</time>
      </trkpt>
      <trkpt lat="41.9198" lon="25.92675">
        <ele>132.91473</ele>
        <time>2022-02-27T08:32:19.606Z</time>
      </trkpt>
      <trkpt lat="41.91986" lon="25.92661">
        <ele>133.013562</ele>
        <time>2022-02-27T08:32:22.600Z</time>
      </trkpt>
      <trkpt lat="41.91991" lon="25.92647">
        <ele>133.269077</ele>
        <time>2022-02-27T08:32:25.595Z</time>
      </trkpt>
      <trkpt lat="41.91996" lon="25.92634">
        <ele>133.511182</ele>
        <time>2022-02-27T08:32:28.607Z</time>
      </trkpt>
      <trkpt lat="41.92001" lon="25.92622">
        <ele>133.7368</ele>
        <time>2022-02-27T08:32:31.597Z</time>
      </trkpt>
      <trkpt lat="41.92007" lon="25.92609">
        <ele>133.989677</ele>
        <time>2022-02-27T08:32:34.624Z</time>
      </trkpt>
      <trkpt lat="41.92012" lon="25.92596">
        <ele>134.242216</ele>
        <time>2022-02-27T08:32:37.588Z</time>
      </trkpt>
      <trkpt lat="41.92018" lon="25.92581">
        <ele>134.512002</ele>
        <time>2022-02-27T08:32:40.589Z</time>
      </trkpt>
      <trkpt lat="41.92025" lon="25.92567">
        <ele>134.780068</ele>
        <time>2022-02-27T08:32:43.587Z</time>
      </trkpt>
      <trkpt lat="41.92031" lon="25.92554">
        <ele>135.051035</ele>
        <time>2022-02-27T08:32:46.597Z</time>
      </trkpt>
      <trkpt lat="41.92038" lon="25.92539">
        <ele>135.33562</ele>
        <time>2022-02-27T08:32:49.604Z</time>
      </trkpt>
      <trkpt lat="41.92045" lon="25.92525">
        <ele>135.610551</ele>
        <time>2022-02-27T08:32:52.587Z</time>
      </trkpt>
      <trkpt lat="41.92051" lon="25.92511">
        <ele>135.872115</ele>
        <time>2022-02-27T08:32:55.588Z</time>
      </trkpt>
      <trkpt lat="41.92058" lon="25.92497">
        <ele>136.148097</ele>
        <time>2022-02-27T08:32:58.595Z</time>
      </trkpt>
      <trkpt lat="41.92061" lon="25.92486">
        <ele>136.346722</ele>
        <time>2022-02-27T08:33:00.592Z</time>
      </trkpt>
      <trkpt lat="41.92065" lon="25.92475">
        <ele>136.550184</ele>
        <time>2022-02-27T08:33:02.607Z</time>
      </trkpt>
      <trkpt lat="41.92071" lon="25.92458">
        <ele>136.851861</ele>
        <time>2022-02-27T08:33:05.595Z</time>
      </trkpt>
      <trkpt lat="41.92075" lon="25.92447">
        <ele>136.715984</ele>
        <time>2022-02-27T08:33:07.621Z</time>
      </trkpt>
      <trkpt lat="41.92079" lon="25.92436">
        <ele>136.516563</ele>
        <time>2022-02-27T08:33:09.604Z</time>
      </trkpt>
      <trkpt lat="41.92083" lon="25.92425">
        <ele>136.313203</ele>
        <time>2022-02-27T08:33:11.601Z</time>
      </trkpt>
      <trkpt lat="41.92089" lon="25.92409">
        <ele>136.024176</ele>
        <time>2022-02-27T08:33:14.592Z</time>
      </trkpt>
      <trkpt lat="41.92095" lon="25.92393">
        <ele>135.743149</ele>
        <time>2022-02-27T08:33:17.578Z</time>
      </trkpt>
      <trkpt lat="41.92101" lon="25.92379">
        <ele>135.464094</ele>
        <time>2022-02-27T08:33:20.609Z</time>
      </trkpt>
      <trkpt lat="41.92107" lon="25.92364">
        <ele>135.185354</ele>
        <time>2022-02-27T08:33:23.589Z</time>
      </trkpt>
      <trkpt lat="41.92115" lon="25.92349">
        <ele>134.892016</ele>
        <time>2022-02-27T08:33:26.613Z</time>
      </trkpt>
      <trkpt lat="41.9212" lon="25.92337">
        <ele>134.66868</ele>
        <time>2022-02-27T08:33:28.603Z</time>
      </trkpt>
      <trkpt lat="41.92124" lon="25.92325">
        <ele>134.445291</ele>
        <time>2022-02-27T08:33:30.589Z</time>
      </trkpt>
      <trkpt lat="41.92129" lon="25.92313">
        <ele>134.227273</ele>
        <time>2022-02-27T08:33:32.590Z</time>
      </trkpt>
      <trkpt lat="41.92134" lon="25.92303">
        <ele>134.022792</ele>
        <time>2022-02-27T08:33:34.599Z</time>
      </trkpt>
      <trkpt lat="41.9214" lon="25.92287">
        <ele>133.732301</ele>
        <time>2022-02-27T08:33:37.604Z</time>
      </trkpt>
      <trkpt lat="41.92146" lon="25.92273">
        <ele>133.469304</ele>
        <time>2022-02-27T08:33:40.617Z</time>
      </trkpt>
      <trkpt lat="41.92152" lon="25.92258">
        <ele>133.190976</ele>
        <time>2022-02-27T08:33:43.595Z</time>
      </trkpt>
      <trkpt lat="41.92159" lon="25.92244">
        <ele>132.930808</ele>
        <time>2022-02-27T08:33:46.592Z</time>
      </trkpt>
      <trkpt lat="41.92165" lon="25.92229">
        <ele>132.917737</ele>
        <time>2022-02-27T08:33:49.602Z</time>
      </trkpt>
      <trkpt lat="41.92172" lon="25.92213">
        <ele>132.903804</ele>
        <time>2022-02-27T08:33:52.609Z</time>
      </trkpt>
      <trkpt lat="41.92178" lon="25.92198">
        <ele>132.890279</ele>
        <time>2022-02-27T08:33:55.598Z</time>
      </trkpt>
      <trkpt lat="41.92184" lon="25.92183">
        <ele>132.877326</ele>
        <time>2022-02-27T08:33:58.602Z</time>
      </trkpt>
      <trkpt lat="41.9219" lon="25.92167">
        <ele>132.863383</ele>
        <time>2022-02-27T08:34:01.591Z</time>
      </trkpt>
      <trkpt lat="41.92194" lon="25.92156">
        <ele>132.853933</ele>
        <time>2022-02-27T08:34:03.630Z</time>
      </trkpt>
      <trkpt lat="41.92198" lon="25.92145">
        <ele>132.844433</ele>
        <time>2022-02-27T08:34:05.587Z</time>
      </trkpt>
      <trkpt lat="41.92204" lon="25.92131">
        <ele>132.831784</ele>
        <time>2022-02-27T08:34:08.586Z</time>
      </trkpt>
      <trkpt lat="41.9221" lon="25.92116">
        <ele>132.818508</ele>
        <time>2022-02-27T08:34:11.606Z</time>
      </trkpt>
      <trkpt lat="41.92216" lon="25.92101">
        <ele>132.805164</ele>
        <time>2022-02-27T08:34:14.639Z</time>
      </trkpt>
      <trkpt lat="41.92222" lon="25.92085">
        <ele>132.791144</ele>
        <time>2022-02-27T08:34:17.607Z</time>
      </trkpt>
      <trkpt lat="41.92229" lon="25.9207">
        <ele>132.777973</ele>
        <time>2022-02-27T08:34:20.601Z</time>
      </trkpt>
      <trkpt lat="41.92236" lon="25.92054">
        <ele>132.76379</ele>
        <time>2022-02-27T08:34:23.606Z</time>
      </trkpt>
      <trkpt lat="41.92242" lon="25.9204">
        <ele>132.750553</ele>
        <time>2022-02-27T08:34:26.580Z</time>
      </trkpt>
      <trkpt lat="41.92249" lon="25.92025">
        <ele>132.702979</ele>
        <time>2022-02-27T08:34:29.601Z</time>
      </trkpt>
      <trkpt lat="41.92255" lon="25.9201">
        <ele>132.62474</ele>
        <time>2022-02-27T08:34:32.585Z</time>
      </trkpt>
      <trkpt lat="41.92262" lon="25.91995">
        <ele>132.549009</ele>
        <time>2022-02-27T08:34:35.597Z</time>
      </trkpt>
      <trkpt lat="41.92266" lon="25.91984">
        <ele>132.494231</ele>
        <time>2022-02-27T08:34:37.597Z</time>
      </trkpt>
      <trkpt lat="41.92271" lon="25.91973">
        <ele>132.438856</ele>
        <time>2022-02-27T08:34:39.600Z</time>
      </trkpt>
      <trkpt lat="41.92277" lon="25.91958">
        <ele>132.366161</ele>
        <time>2022-02-27T08:34:42.610Z</time>
      </trkpt>
      <trkpt lat="41.92282" lon="25.91945">
        <ele>132.299648</ele>
        <time>2022-02-27T08:34:45.594Z</time>
      </trkpt>
      <trkpt lat="41.92287" lon="25.91932">
        <ele>132.233437</ele>
        <time>2022-02-27T08:34:48.649Z</time>
      </trkpt>
      <trkpt lat="41.92292" lon="25.91918">
        <ele>132.164686</ele>
        <time>2022-02-27T08:34:51.631Z</time>
      </trkpt>
      <trkpt lat="41.92298" lon="25.91902">
        <ele>132.085293</ele>
        <time>2022-02-27T08:34:54.608Z</time>
      </trkpt>
      <trkpt lat="41.92303" lon="25.9189">
        <ele>132.025519</ele>
        <time>2022-02-27T08:34:56.595Z</time>
      </trkpt>
      <trkpt lat="41.92307" lon="25.91879">
        <ele>131.972281</ele>
        <time>2022-02-27T08:34:58.597Z</time>
      </trkpt>
      <trkpt lat="41.92313" lon="25.91863">
        <ele>131.893263</ele>
        <time>2022-02-27T08:35:01.587Z</time>
      </trkpt>
      <trkpt lat="41.92318" lon="25.91847">
        <ele>131.817954</ele>
        <time>2022-02-27T08:35:04.586Z</time>
      </trkpt>
      <trkpt lat="41.92324" lon="25.91831">
        <ele>131.737883</ele>
        <time>2022-02-27T08:35:07.583Z</time>
      </trkpt>
      <trkpt lat="41.92329" lon="25.9182">
        <ele>131.683188</ele>
        <time>2022-02-27T08:35:09.593Z</time>
      </trkpt>
      <trkpt lat="41.92334" lon="25.9181">
        <ele>131.875791</ele>
        <time>2022-02-27T08:35:11.612Z</time>
      </trkpt>
      <trkpt lat="41.92338" lon="25.91799">
        <ele>132.080217</ele>
        <time>2022-02-27T08:35:13.606Z</time>
      </trkpt>
      <trkpt lat="41.92343" lon="25.91788">
        <ele>132.28935</ele>
        <time>2022-02-27T08:35:15.579Z</time>
      </trkpt>
      <trkpt lat="41.92349" lon="25.91775">
        <ele>132.552019</ele>
        <time>2022-02-27T08:35:18.598Z</time>
      </trkpt>
      <trkpt lat="41.92354" lon="25.91761">
        <ele>132.810641</ele>
        <time>2022-02-27T08:35:21.603Z</time>
      </trkpt>
      <trkpt lat="41.92359" lon="25.91748">
        <ele>133.067648</ele>
        <time>2022-02-27T08:35:24.592Z</time>
      </trkpt>
      <trkpt lat="41.92364" lon="25.91736">
        <ele>133.297295</ele>
        <time>2022-02-27T08:35:27.632Z</time>
      </trkpt>
      <trkpt lat="41.92369" lon="25.91721">
        <ele>133.55536</ele>
        <time>2022-02-27T08:35:30.597Z</time>
      </trkpt>
      <trkpt lat="41.92374" lon="25.91707">
        <ele>133.823837</ele>
        <time>2022-02-27T08:35:33.635Z</time>
      </trkpt>
      <trkpt lat="41.9238" lon="25.91694">
        <ele>134.080741</ele>
        <time>2022-02-27T08:35:36.592Z</time>
      </trkpt>
      <trkpt lat="41.92386" lon="25.9168">
        <ele>134.35763</ele>
        <time>2022-02-27T08:35:39.583Z</time>
      </trkpt>
      <trkpt lat="41.92391" lon="25.91666">
        <ele>134.610163</ele>
        <time>2022-02-27T08:35:42.597Z</time>
      </trkpt>
      <trkpt lat="41.92398" lon="25.91651">
        <ele>134.904847</ele>
        <time>2022-02-27T08:35:45.590Z</time>
      </trkpt>
      <trkpt lat="41.92403" lon="25.9164">
        <ele>135.129452</ele>
        <time>2022-02-27T08:35:47.611Z</time>
      </trkpt>
      <trkpt lat="41.92408" lon="25.91629">
        <ele>135.335655</ele>
        <time>2022-02-27T08:35:49.581Z</time>
      </trkpt>
      <trkpt lat="41.92413" lon="25.91618">
        <ele>135.567478</ele>
        <time>2022-02-27T08:35:51.627Z</time>
      </trkpt>
      <trkpt lat="41.92419" lon="25.91601">
        <ele>135.814796</ele>
        <time>2022-02-27T08:35:54.619Z</time>
      </trkpt>
      <trkpt lat="41.92426" lon="25.91586">
        <ele>135.980458</ele>
        <time>2022-02-27T08:35:57.607Z</time>
      </trkpt>
      <trkpt lat="41.92432" lon="25.9157">
        <ele>136.154287</ele>
        <time>2022-02-27T08:36:00.606Z</time>
      </trkpt>
      <trkpt lat="41.92437" lon="25.91558">
        <ele>136.288641</ele>
        <time>2022-02-27T08:36:02.597Z</time>
      </trkpt>
      <trkpt lat="41.92442" lon="25.91546">
        <ele>136.421526</ele>
        <time>2022-02-27T08:36:04.593Z</time>
      </trkpt>
      <trkpt lat="41.92447" lon="25.91535">
        <ele>136.542319</ele>
        <time>2022-02-27T08:36:06.614Z</time>
      </trkpt>
      <trkpt lat="41.92453" lon="25.91519">
        <ele>136.712918</ele>
        <time>2022-02-27T08:36:09.620Z</time>
      </trkpt>
      <trkpt lat="41.92458" lon="25.91504">
        <ele>136.874415</ele>
        <time>2022-02-27T08:36:12.606Z</time>
      </trkpt>
      <trkpt lat="41.92464" lon="25.91489">
        <ele>137.036538</ele>
        <time>2022-02-27T08:36:15.615Z</time>
      </trkpt>
      <trkpt lat="41.9247" lon="25.91474">
        <ele>137.190877</ele>
        <time>2022-02-27T08:36:18.632Z</time>
      </trkpt>
      <trkpt lat="41.92475" lon="25.91461">
        <ele>137.336896</ele>
        <time>2022-02-27T08:36:21.610Z</time>
      </trkpt>
      <trkpt lat="41.92479" lon="25.91448">
        <ele>137.47177</ele>
        <time>2022-02-27T08:36:24.610Z</time>
      </trkpt>
      <trkpt lat="41.92484" lon="25.91436">
        <ele>137.599222</ele>
        <time>2022-02-27T08:36:27.616Z</time>
      </trkpt>
      <trkpt lat="41.92488" lon="25.91426">
        <ele>137.716004</ele>
        <time>2022-02-27T08:36:30.594Z</time>
      </trkpt>
      <trkpt lat="41.92494" lon="25.91412">
        <ele>137.867962</ele>
        <time>2022-02-27T08:36:34.610Z</time>
      </trkpt>
      <trkpt lat="41.92499" lon="25.91401">
        <ele>137.994975</ele>
        <time>2022-02-27T08:36:37.712Z</time>
      </trkpt>
      <trkpt lat="41.92505" lon="25.9139">
        <ele>137.990929</ele>
        <time>2022-02-27T08:36:40.598Z</time>
      </trkpt>
      <trkpt lat="41.92511" lon="25.91377">
        <ele>137.879221</ele>
        <time>2022-02-27T08:36:43.587Z</time>
      </trkpt>
      <trkpt lat="41.92518" lon="25.91364">
        <ele>137.763614</ele>
        <time>2022-02-27T08:36:46.606Z</time>
      </trkpt>
      <trkpt lat="41.92524" lon="25.91351">
        <ele>137.644571</ele>
        <time>2022-02-27T08:36:49.630Z</time>
      </trkpt>
      <trkpt lat="41.9253" lon="25.91338">
        <ele>137.529523</ele>
        <time>2022-02-27T08:36:52.605Z</time>
      </trkpt>
      <trkpt lat="41.92537" lon="25.91326">
        <ele>137.412841</ele>
        <time>2022-02-27T08:36:55.616Z</time>
      </trkpt>
      <trkpt lat="41.92545" lon="25.91313">
        <ele>137.286017</ele>
        <time>2022-02-27T08:36:58.616Z</time>
      </trkpt>
      <trkpt lat="41.92557" lon="25.91304">
        <ele>137.156054</ele>
        <time>2022-02-27T08:37:01.594Z</time>
      </trkpt>
      <trkpt lat="41.92568" lon="25.91295">
        <ele>137.024317</ele>
        <time>2022-02-27T08:37:04.641Z</time>
      </trkpt>
      <trkpt lat="41.92575" lon="25.91283">
        <ele>136.908056</ele>
        <time>2022-02-27T08:37:07.610Z</time>
      </trkpt>
      <trkpt lat="41.92577" lon="25.9127">
        <ele>136.807074</ele>
        <time>2022-02-27T08:37:09.614Z</time>
      </trkpt>
      <trkpt lat="41.92581" lon="25.91253">
        <ele>136.676738</ele>
        <time>2022-02-27T08:37:12.612Z</time>
      </trkpt>
      <trkpt lat="41.92586" lon="25.91238">
        <ele>136.553791</ele>
        <time>2022-02-27T08:37:15.607Z</time>
      </trkpt>
      <trkpt lat="41.9259" lon="25.91228">
        <ele>136.462048</ele>
        <time>2022-02-27T08:37:17.610Z</time>
      </trkpt>
      <trkpt lat="41.92596" lon="25.91218">
        <ele>136.369358</ele>
        <time>2022-02-27T08:37:19.602Z</time>
      </trkpt>
      <trkpt lat="41.92601" lon="25.91208">
        <ele>136.275519</ele>
        <time>2022-02-27T08:37:21.603Z</time>
      </trkpt>
      <trkpt lat="41.92607" lon="25.91196">
        <ele>136.305844</ele>
        <time>2022-02-27T08:37:23.609Z</time>
      </trkpt>
      <trkpt lat="41.92613" lon="25.91185">
        <ele>136.416971</ele>
        <time>2022-02-27T08:37:25.641Z</time>
      </trkpt>
      <trkpt lat="41.92619" lon="25.91174">
        <ele>136.523616</ele>
        <time>2022-02-27T08:37:27.623Z</time>
      </trkpt>
      <trkpt lat="41.92625" lon="25.91163">
        <ele>136.628986</ele>
        <time>2022-02-27T08:37:29.596Z</time>
      </trkpt>
      <trkpt lat="41.92632" lon="25.91152">
        <ele>136.743895</ele>
        <time>2022-02-27T08:37:31.612Z</time>
      </trkpt>
      <trkpt lat="41.92639" lon="25.9114">
        <ele>136.865786</ele>
        <time>2022-02-27T08:37:33.607Z</time>
      </trkpt>
      <trkpt lat="41.92645" lon="25.91125">
        <ele>136.998788</ele>
        <time>2022-02-27T08:37:35.646Z</time>
      </trkpt>
      <trkpt lat="41.92651" lon="25.91112">
        <ele>137.119552</ele>
        <time>2022-02-27T08:37:37.611Z</time>
      </trkpt>
      <trkpt lat="41.92656" lon="25.91099">
        <ele>137.234632</ele>
        <time>2022-02-27T08:37:39.603Z</time>
      </trkpt>
      <trkpt lat="41.92662" lon="25.91086">
        <ele>137.353479</ele>
        <time>2022-02-27T08:37:41.656Z</time>
      </trkpt>
      <trkpt lat="41.92667" lon="25.91074">
        <ele>137.468243</ele>
        <time>2022-02-27T08:37:43.602Z</time>
      </trkpt>
      <trkpt lat="41.92674" lon="25.91062">
        <ele>137.585194</ele>
        <time>2022-02-27T08:37:45.615Z</time>
      </trkpt>
      <trkpt lat="41.9268" lon="25.91049">
        <ele>137.709662</ele>
        <time>2022-02-27T08:37:47.612Z</time>
      </trkpt>
      <trkpt lat="41.92686" lon="25.91035">
        <ele>137.833533</ele>
        <time>2022-02-27T08:37:49.602Z</time>
      </trkpt>
      <trkpt lat="41.92692" lon="25.91023">
        <ele>137.95189</ele>
        <time>2022-02-27T08:37:51.607Z</time>
      </trkpt>
      <trkpt lat="41.92698" lon="25.91011">
        <ele>138.065865</ele>
        <time>2022-02-27T08:37:53.610Z</time>
      </trkpt>
      <trkpt lat="41.92704" lon="25.90999">
        <ele>138.098657</ele>
        <time>2022-02-27T08:37:55.620Z</time>
      </trkpt>
      <trkpt lat="41.92711" lon="25.90987">
        <ele>137.915679</ele>
        <time>2022-02-27T08:37:57.615Z</time>
      </trkpt>
      <trkpt lat="41.92717" lon="25.90974">
        <ele>137.730605</ele>
        <time>2022-02-27T08:37:59.609Z</time>
      </trkpt>
      <trkpt lat="41.92723" lon="25.90963">
        <ele>137.562562</ele>
        <time>2022-02-27T08:38:01.600Z</time>
      </trkpt>
      <trkpt lat="41.92729" lon="25.90952">
        <ele>137.398459</ele>
        <time>2022-02-27T08:38:03.606Z</time>
      </trkpt>
      <trkpt lat="41.92732" lon="25.90941">
        <ele>137.249928</ele>
        <time>2022-02-27T08:38:05.605Z</time>
      </trkpt>
      <trkpt lat="41.92737" lon="25.9093">
        <ele>137.097423</ele>
        <time>2022-02-27T08:38:07.615Z</time>
      </trkpt>
      <trkpt lat="41.92745" lon="25.90917">
        <ele>136.88586</ele>
        <time>2022-02-27T08:38:10.603Z</time>
      </trkpt>
      <trkpt lat="41.9275" lon="25.90907">
        <ele>136.736555</ele>
        <time>2022-02-27T08:38:12.608Z</time>
      </trkpt>
      <trkpt lat="41.92754" lon="25.90896">
        <ele>136.577056</ele>
        <time>2022-02-27T08:38:14.631Z</time>
      </trkpt>
      <trkpt lat="41.92759" lon="25.90883">
        <ele>136.410318</ele>
        <time>2022-02-27T08:38:16.600Z</time>
      </trkpt>
      <trkpt lat="41.92764" lon="25.9087">
        <ele>136.230773</ele>
        <time>2022-02-27T08:38:18.604Z</time>
      </trkpt>
      <trkpt lat="41.92768" lon="25.9086">
        <ele>136.079859</ele>
        <time>2022-02-27T08:38:20.616Z</time>
      </trkpt>
      <trkpt lat="41.92772" lon="25.90849">
        <ele>135.929236</ele>
        <time>2022-02-27T08:38:22.611Z</time>
      </trkpt>
      <trkpt lat="41.92778" lon="25.90834">
        <ele>135.717827</ele>
        <time>2022-02-27T08:38:25.607Z</time>
      </trkpt>
      <trkpt lat="41.92786" lon="25.90822">
        <ele>135.530854</ele>
        <time>2022-02-27T08:38:28.625Z</time>
      </trkpt>
      <trkpt lat="41.92793" lon="25.9081">
        <ele>135.346839</ele>
        <time>2022-02-27T08:38:31.600Z</time>
      </trkpt>
      <trkpt lat="41.92799" lon="25.90798">
        <ele>135.16174</ele>
        <time>2022-02-27T08:38:34.616Z</time>
      </trkpt>
      <trkpt lat="41.92805" lon="25.90787">
        <ele>135.036253</ele>
        <time>2022-02-27T08:38:37.585Z</time>
      </trkpt>
      <trkpt lat="41.9281" lon="25.90774">
        <ele>134.916008</ele>
        <time>2022-02-27T08:38:41.609Z</time>
      </trkpt>
      <trkpt lat="41.92814" lon="25.90764">
        <ele>134.807893</ele>
        <time>2022-02-27T08:38:44.611Z</time>
      </trkpt>
      <trkpt lat="41.92819" lon="25.90753">
        <ele>134.69648</ele>
        <time>2022-02-27T08:38:47.599Z</time>
      </trkpt>
      <trkpt lat="41.92825" lon="25.9074">
        <ele>134.560505</ele>
        <time>2022-02-27T08:38:50.628Z</time>
      </trkpt>
      <trkpt lat="41.92832" lon="25.90727">
        <ele>134.412227</ele>
        <time>2022-02-27T08:38:53.609Z</time>
      </trkpt>
      <trkpt lat="41.9284" lon="25.90712">
        <ele>134.255114</ele>
        <time>2022-02-27T08:38:56.620Z</time>
      </trkpt>
      <trkpt lat="41.92844" lon="25.90701">
        <ele>134.145711</ele>
        <time>2022-02-27T08:38:58.632Z</time>
      </trkpt>
      <trkpt lat="41.9285" lon="25.90688">
        <ele>134.009154</ele>
        <time>2022-02-27T08:39:01.608Z</time>
      </trkpt>
      <trkpt lat="41.92856" lon="25.90676">
        <ele>133.881495</ele>
        <time>2022-02-27T08:39:04.609Z</time>
      </trkpt>
      <trkpt lat="41.92861" lon="25.90662">
        <ele>133.743745</ele>
        <time>2022-02-27T08:39:07.607Z</time>
      </trkpt>
      <trkpt lat="41.92867" lon="25.9065">
        <ele>133.617534</ele>
        <time>2022-02-27T08:39:10.610Z</time>
      </trkpt>
      <trkpt lat="41.92873" lon="25.90639">
        <ele>133.496234</ele>
        <time>2022-02-27T08:39:13.634Z</time>
      </trkpt>
      <trkpt lat="41.92878" lon="25.90629">
        <ele>133.385355</ele>
        <time>2022-02-27T08:39:16.599Z</time>
      </trkpt>
      <trkpt lat="41.92884" lon="25.90616">
        <ele>133.251571</ele>
        <time>2022-02-27T08:39:20.635Z</time>
      </trkpt>
      <trkpt lat="41.92888" lon="25.90605">
        <ele>133.140231</ele>
        <time>2022-02-27T08:39:24.630Z</time>
      </trkpt>
      <trkpt lat="41.92893" lon="25.90593">
        <ele>133.023202</ele>
        <time>2022-02-27T08:39:28.659Z</time>
      </trkpt>
      <trkpt lat="41.92898" lon="25.90582">
        <ele>133.019139</ele>
        <time>2022-02-27T08:39:33.608Z</time>
      </trkpt>
      <trkpt lat="41.92902" lon="25.90571">
        <ele>133.015357</ele>
        <time>2022-02-27T08:39:39.637Z</time>
      </trkpt>
      <trkpt lat="41.92909" lon="25.90558">
        <ele>133.010649</ele>
        <time>2022-02-27T08:39:43.607Z</time>
      </trkpt>
      <trkpt lat="41.92913" lon="25.90547">
        <ele>133.006681</ele>
        <time>2022-02-27T08:39:46.610Z</time>
      </trkpt>
      <trkpt lat="41.92919" lon="25.90534">
        <ele>133.002344</ele>
        <time>2022-02-27T08:39:49.639Z</time>
      </trkpt>
      <trkpt lat="41.92925" lon="25.9052">
        <ele>132.99728</ele>
        <time>2022-02-27T08:39:52.600Z</time>
      </trkpt>
      <trkpt lat="41.92931" lon="25.90507">
        <ele>132.992453</ele>
        <time>2022-02-27T08:39:55.624Z</time>
      </trkpt>
      <trkpt lat="41.92937" lon="25.90494">
        <ele>132.987754</ele>
        <time>2022-02-27T08:39:58.620Z</time>
      </trkpt>
      <trkpt lat="41.92943" lon="25.9048">
        <ele>132.982774</ele>
        <time>2022-02-27T08:40:01.619Z</time>
      </trkpt>
      <trkpt lat="41.92949" lon="25.9047">
        <ele>132.978961</ele>
        <time>2022-02-27T08:40:03.617Z</time>
      </trkpt>
      <trkpt lat="41.92956" lon="25.90459">
        <ele>132.974509</ele>
        <time>2022-02-27T08:40:05.605Z</time>
      </trkpt>
      <trkpt lat="41.92963" lon="25.90446">
        <ele>132.96959</ele>
        <time>2022-02-27T08:40:07.631Z</time>
      </trkpt>
      <trkpt lat="41.9297" lon="25.90434">
        <ele>132.965035</ele>
        <time>2022-02-27T08:40:09.614Z</time>
      </trkpt>
      <trkpt lat="41.92977" lon="25.90425">
        <ele>132.960949</ele>
        <time>2022-02-27T08:40:11.608Z</time>
      </trkpt>
      <trkpt lat="41.92983" lon="25.90415">
        <ele>132.957105</ele>
        <time>2022-02-27T08:40:13.648Z</time>
      </trkpt>
      <trkpt lat="41.92989" lon="25.90405">
        <ele>132.953258</ele>
        <time>2022-02-27T08:40:15.614Z</time>
      </trkpt>
      <trkpt lat="41.92994" lon="25.90395">
        <ele>132.949369</ele>
        <time>2022-02-27T08:40:17.620Z</time>
      </trkpt>
      <trkpt lat="41.92998" lon="25.90384">
        <ele>132.845644</ele>
        <time>2022-02-27T08:40:19.617Z</time>
      </trkpt>
      <trkpt lat="41.93003" lon="25.90373">
        <ele>132.727435</ele>
        <time>2022-02-27T08:40:21.607Z</time>
      </trkpt>
      <trkpt lat="41.93007" lon="25.90362">
        <ele>132.619428</ele>
        <time>2022-02-27T08:40:23.607Z</time>
      </trkpt>
      <trkpt lat="41.93014" lon="25.90349">
        <ele>132.477953</ele>
        <time>2022-02-27T08:40:26.620Z</time>
      </trkpt>
      <trkpt lat="41.93021" lon="25.90336">
        <ele>132.337845</ele>
        <time>2022-02-27T08:40:29.612Z</time>
      </trkpt>
      <trkpt lat="41.93028" lon="25.90323">
        <ele>132.196321</ele>
        <time>2022-02-27T08:40:32.597Z</time>
      </trkpt>
      <trkpt lat="41.93036" lon="25.9031">
        <ele>132.044626</ele>
        <time>2022-02-27T08:40:35.675Z</time>
      </trkpt>
      <trkpt lat="41.93043" lon="25.90296">
        <ele>131.892429</ele>
        <time>2022-02-27T08:40:38.615Z</time>
      </trkpt>
      <trkpt lat="41.93052" lon="25.90283">
        <ele>131.739758</ele>
        <time>2022-02-27T08:40:41.600Z</time>
      </trkpt>
      <trkpt lat="41.93059" lon="25.90273">
        <ele>131.606984</ele>
        <time>2022-02-27T08:40:44.605Z</time>
      </trkpt>
      <trkpt lat="41.93072" lon="25.90266">
        <ele>131.446745</ele>
        <time>2022-02-27T08:40:47.611Z</time>
      </trkpt>
      <trkpt lat="41.93082" lon="25.90262">
        <ele>131.323695</ele>
        <time>2022-02-27T08:40:49.598Z</time>
      </trkpt>
      <trkpt lat="41.93092" lon="25.9026">
        <ele>131.201771</ele>
        <time>2022-02-27T08:40:51.615Z</time>
      </trkpt>
      <trkpt lat="41.931" lon="25.90255">
        <ele>131.09162</ele>
        <time>2022-02-27T08:40:53.606Z</time>
      </trkpt>
      <trkpt lat="41.93108" lon="25.9025">
        <ele>130.983464</ele>
        <time>2022-02-27T08:40:55.613Z</time>
      </trkpt>
      <trkpt lat="41.93117" lon="25.90245">
        <ele>130.871651</ele>
        <time>2022-02-27T08:40:57.658Z</time>
      </trkpt>
      <trkpt lat="41.93126" lon="25.90241">
        <ele>130.623453</ele>
        <time>2022-02-27T08:40:59.616Z</time>
      </trkpt>
      <trkpt lat="41.93136" lon="25.90237">
        <ele>130.118087</ele>
        <time>2022-02-27T08:41:01.617Z</time>
      </trkpt>
      <trkpt lat="41.93144" lon="25.90233">
        <ele>129.640875</ele>
        <time>2022-02-27T08:41:03.586Z</time>
      </trkpt>
      <trkpt lat="41.93155" lon="25.90226">
        <ele>129.030768</ele>
        <time>2022-02-27T08:41:06.639Z</time>
      </trkpt>
      <trkpt lat="41.93165" lon="25.90218">
        <ele>128.424479</ele>
        <time>2022-02-27T08:41:09.608Z</time>
      </trkpt>
      <trkpt lat="41.93176" lon="25.90212">
        <ele>127.83203</ele>
        <time>2022-02-27T08:41:12.601Z</time>
      </trkpt>
      <trkpt lat="41.93186" lon="25.90206">
        <ele>127.265466</ele>
        <time>2022-02-27T08:41:15.606Z</time>
      </trkpt>
      <trkpt lat="41.93198" lon="25.90201">
        <ele>126.64573</ele>
        <time>2022-02-27T08:41:18.613Z</time>
      </trkpt>
      <trkpt lat="41.93208" lon="25.90196">
        <ele>126.077789</ele>
        <time>2022-02-27T08:41:21.613Z</time>
      </trkpt>
      <trkpt lat="41.93217" lon="25.9019">
        <ele>125.551123</ele>
        <time>2022-02-27T08:41:24.594Z</time>
      </trkpt>
      <trkpt lat="41.93227" lon="25.90187">
        <ele>125.013057</ele>
        <time>2022-02-27T08:41:29.611Z</time>
      </trkpt>
      <trkpt lat="41.93237" lon="25.90191">
        <ele>124.516936</ele>
        <time>2022-02-27T08:41:33.608Z</time>
      </trkpt>
      <trkpt lat="41.93259" lon="25.902">
        <ele>123.312878</ele>
        <time>2022-02-27T08:41:57.600Z</time>
      </trkpt>
      <trkpt lat="41.93266" lon="25.90192">
        <ele>122.825044</ele>
        <time>2022-02-27T08:42:00.635Z</time>
      </trkpt>
      <trkpt lat="41.93273" lon="25.90183">
        <ele>122.332948</ele>
        <time>2022-02-27T08:42:03.607Z</time>
      </trkpt>
      <trkpt lat="41.93281" lon="25.90171">
        <ele>121.722153</ele>
        <time>2022-02-27T08:42:07.621Z</time>
      </trkpt>
      <trkpt lat="41.93289" lon="25.90161">
        <ele>121.592968</ele>
        <time>2022-02-27T08:42:11.617Z</time>
      </trkpt>
      <trkpt lat="41.93298" lon="25.90152">
        <ele>121.647967</ele>
        <time>2022-02-27T08:42:15.620Z</time>
      </trkpt>
      <trkpt lat="41.93306" lon="25.90145">
        <ele>121.691075</ele>
        <time>2022-02-27T08:42:18.649Z</time>
      </trkpt>
      <trkpt lat="41.93315" lon="25.90138">
        <ele>121.740297</ele>
        <time>2022-02-27T08:42:21.597Z</time>
      </trkpt>
      <trkpt lat="41.93325" lon="25.90131">
        <ele>121.793962</ele>
        <time>2022-02-27T08:42:24.645Z</time>
      </trkpt>
      <trkpt lat="41.93335" lon="25.90125">
        <ele>121.84448</ele>
        <time>2022-02-27T08:42:27.607Z</time>
      </trkpt>
      <trkpt lat="41.93344" lon="25.90118">
        <ele>121.891851</ele>
        <time>2022-02-27T08:42:30.620Z</time>
      </trkpt>
      <trkpt lat="41.93353" lon="25.90112">
        <ele>121.941949</ele>
        <time>2022-02-27T08:42:33.622Z</time>
      </trkpt>
      <trkpt lat="41.93364" lon="25.90105">
        <ele>121.995678</ele>
        <time>2022-02-27T08:42:36.634Z</time>
      </trkpt>
      <trkpt lat="41.93373" lon="25.90097">
        <ele>122.047106</ele>
        <time>2022-02-27T08:42:39.600Z</time>
      </trkpt>
      <trkpt lat="41.93383" lon="25.90091">
        <ele>122.101192</ele>
        <time>2022-02-27T08:42:42.616Z</time>
      </trkpt>
      <trkpt lat="41.93393" lon="25.90084">
        <ele>122.153521</ele>
        <time>2022-02-27T08:42:45.592Z</time>
      </trkpt>
      <trkpt lat="41.93403" lon="25.90078">
        <ele>122.205612</ele>
        <time>2022-02-27T08:42:48.611Z</time>
      </trkpt>
      <trkpt lat="41.93414" lon="25.90071">
        <ele>122.260368</ele>
        <time>2022-02-27T08:42:51.658Z</time>
      </trkpt>
      <trkpt lat="41.93424" lon="25.90064">
        <ele>122.314875</ele>
        <time>2022-02-27T08:42:54.606Z</time>
      </trkpt>
      <trkpt lat="41.93434" lon="25.90057">
        <ele>122.367808</ele>
        <time>2022-02-27T08:42:57.626Z</time>
      </trkpt>
      <trkpt lat="41.93445" lon="25.90051">
        <ele>122.499331</ele>
        <time>2022-02-27T08:43:00.607Z</time>
      </trkpt>
      <trkpt lat="41.93456" lon="25.90043">
        <ele>122.765765</ele>
        <time>2022-02-27T08:43:03.654Z</time>
      </trkpt>
      <trkpt lat="41.93467" lon="25.90036">
        <ele>123.043863</ele>
        <time>2022-02-27T08:43:06.607Z</time>
      </trkpt>
      <trkpt lat="41.93478" lon="25.90029">
        <ele>123.311873</ele>
        <time>2022-02-27T08:43:09.678Z</time>
      </trkpt>
      <trkpt lat="41.93489" lon="25.90023">
        <ele>123.572468</ele>
        <time>2022-02-27T08:43:12.612Z</time>
      </trkpt>
      <trkpt lat="41.93499" lon="25.90016">
        <ele>123.831087</ele>
        <time>2022-02-27T08:43:15.618Z</time>
      </trkpt>
      <trkpt lat="41.9351" lon="25.9001">
        <ele>124.086979</ele>
        <time>2022-02-27T08:43:18.606Z</time>
      </trkpt>
      <trkpt lat="41.93521" lon="25.90003">
        <ele>124.347732</ele>
        <time>2022-02-27T08:43:21.613Z</time>
      </trkpt>
      <trkpt lat="41.93531" lon="25.89997">
        <ele>124.597608</ele>
        <time>2022-02-27T08:43:24.608Z</time>
      </trkpt>
      <trkpt lat="41.93542" lon="25.8999">
        <ele>124.854169</ele>
        <time>2022-02-27T08:43:27.645Z</time>
      </trkpt>
      <trkpt lat="41.93552" lon="25.89983">
        <ele>125.112942</ele>
        <time>2022-02-27T08:43:30.617Z</time>
      </trkpt>
      <trkpt lat="41.93562" lon="25.89977">
        <ele>125.360101</ele>
        <time>2022-02-27T08:43:33.595Z</time>
      </trkpt>
      <trkpt lat="41.93572" lon="25.89971">
        <ele>125.597954</ele>
        <time>2022-02-27T08:43:36.612Z</time>
      </trkpt>
      <trkpt lat="41.93581" lon="25.89965">
        <ele>125.827006</ele>
        <time>2022-02-27T08:43:39.607Z</time>
      </trkpt>
      <trkpt lat="41.9359" lon="25.89959">
        <ele>126.051044</ele>
        <time>2022-02-27T08:43:42.623Z</time>
      </trkpt>
      <trkpt lat="41.936" lon="25.89952">
        <ele>126.277799</ele>
        <time>2022-02-27T08:43:45.618Z</time>
      </trkpt>
      <trkpt lat="41.93608" lon="25.89946">
        <ele>126.478632</ele>
        <time>2022-02-27T08:43:48.618Z</time>
      </trkpt>
      <trkpt lat="41.93616" lon="25.8994">
        <ele>126.690878</ele>
        <time>2022-02-27T08:43:51.619Z</time>
      </trkpt>
      <trkpt lat="41.93625" lon="25.89934">
        <ele>126.910339</ele>
        <time>2022-02-27T08:43:54.623Z</time>
      </trkpt>
      <trkpt lat="41.93635" lon="25.89927">
        <ele>127.146512</ele>
        <time>2022-02-27T08:43:57.626Z</time>
      </trkpt>
      <trkpt lat="41.93645" lon="25.8992">
        <ele>127.385715</ele>
        <time>2022-02-27T08:44:00.615Z</time>
      </trkpt>
      <trkpt lat="41.93654" lon="25.89913">
        <ele>127.606345</ele>
        <time>2022-02-27T08:44:03.602Z</time>
      </trkpt>
      <trkpt lat="41.93663" lon="25.89907">
        <ele>127.825129</ele>
        <time>2022-02-27T08:44:06.593Z</time>
      </trkpt>
      <trkpt lat="41.93672" lon="25.899">
        <ele>128.045344</ele>
        <time>2022-02-27T08:44:09.640Z</time>
      </trkpt>
      <trkpt lat="41.9368" lon="25.89894">
        <ele>128.241673</ele>
        <time>2022-02-27T08:44:12.607Z</time>
      </trkpt>
      <trkpt lat="41.9369" lon="25.89887">
        <ele>128.493821</ele>
        <time>2022-02-27T08:44:16.624Z</time>
      </trkpt>
      <trkpt lat="41.93698" lon="25.89882">
        <ele>128.689937</ele>
        <time>2022-02-27T08:44:19.617Z</time>
      </trkpt>
      <trkpt lat="41.93709" lon="25.89875">
        <ele>128.943097</ele>
        <time>2022-02-27T08:44:23.604Z</time>
      </trkpt>
      <trkpt lat="41.9372" lon="25.89868">
        <ele>129.204739</ele>
        <time>2022-02-27T08:44:27.619Z</time>
      </trkpt>
      <trkpt lat="41.93729" lon="25.89863">
        <ele>129.415209</ele>
        <time>2022-02-27T08:44:30.598Z</time>
      </trkpt>
      <trkpt lat="41.93738" lon="25.89858">
        <ele>129.623056</ele>
        <time>2022-02-27T08:44:33.609Z</time>
      </trkpt>
      <trkpt lat="41.93746" lon="25.89852">
        <ele>129.833818</ele>
        <time>2022-02-27T08:44:36.611Z</time>
      </trkpt>
      <trkpt lat="41.93755" lon="25.89846">
        <ele>130.037363</ele>
        <time>2022-02-27T08:44:39.604Z</time>
      </trkpt>
      <trkpt lat="41.93765" lon="25.89838">
        <ele>130.287962</ele>
        <time>2022-02-27T08:44:43.615Z</time>
      </trkpt>
      <trkpt lat="41.93775" lon="25.89832">
        <ele>130.528347</ele>
        <time>2022-02-27T08:44:47.616Z</time>
      </trkpt>
      <trkpt lat="41.93783" lon="25.89826">
        <ele>130.723869</ele>
        <time>2022-02-27T08:44:50.604Z</time>
      </trkpt>
      <trkpt lat="41.93791" lon="25.8982">
        <ele>130.920897</ele>
        <time>2022-02-27T08:44:53.641Z</time>
      </trkpt>
      <trkpt lat="41.93802" lon="25.89813">
        <ele>131.175575</ele>
        <time>2022-02-27T08:44:57.610Z</time>
      </trkpt>
      <trkpt lat="41.93812" lon="25.89807">
        <ele>131.408012</ele>
        <time>2022-02-27T08:45:01.599Z</time>
      </trkpt>
      <trkpt lat="41.93822" lon="25.89801">
        <ele>131.644388</ele>
        <time>2022-02-27T08:45:05.604Z</time>
      </trkpt>
      <trkpt lat="41.93831" lon="25.89796">
        <ele>131.84046</ele>
        <time>2022-02-27T08:45:08.618Z</time>
      </trkpt>
      <trkpt lat="41.93841" lon="25.8979">
        <ele>132.088469</ele>
        <time>2022-02-27T08:45:12.633Z</time>
      </trkpt>
      <trkpt lat="41.93852" lon="25.89783">
        <ele>132.340401</ele>
        <time>2022-02-27T08:45:16.630Z</time>
      </trkpt>
      <trkpt lat="41.93861" lon="25.89777">
        <ele>132.545595</ele>
        <time>2022-02-27T08:45:19.620Z</time>
      </trkpt>
      <trkpt lat="41.93869" lon="25.89772">
        <ele>132.739105</ele>
        <time>2022-02-27T08:45:22.608Z</time>
      </trkpt>
      <trkpt lat="41.93877" lon="25.89766">
        <ele>132.947386</ele>
        <time>2022-02-27T08:45:25.625Z</time>
      </trkpt>
      <trkpt lat="41.93888" lon="25.8976">
        <ele>133.191521</ele>
        <time>2022-02-27T08:45:29.601Z</time>
      </trkpt>
      <trkpt lat="41.93899" lon="25.89754">
        <ele>133.444754</ele>
        <time>2022-02-27T08:45:33.605Z</time>
      </trkpt>
      <trkpt lat="41.93907" lon="25.89748">
        <ele>133.642255</ele>
        <time>2022-02-27T08:45:36.618Z</time>
      </trkpt>
      <trkpt lat="41.93917" lon="25.89741">
        <ele>133.885516</ele>
        <time>2022-02-27T08:45:40.591Z</time>
      </trkpt>
      <trkpt lat="41.93927" lon="25.89735">
        <ele>134.119423</ele>
        <time>2022-02-27T08:45:44.610Z</time>
      </trkpt>
      <trkpt lat="41.93937" lon="25.89728">
        <ele>134.432545</ele>
        <time>2022-02-27T08:45:48.615Z</time>
      </trkpt>
      <trkpt lat="41.93947" lon="25.8972">
        <ele>134.750423</ele>
        <time>2022-02-27T08:45:52.683Z</time>
      </trkpt>
      <trkpt lat="41.93958" lon="25.89712">
        <ele>135.074521</ele>
        <time>2022-02-27T08:45:56.607Z</time>
      </trkpt>
      <trkpt lat="41.93968" lon="25.89706">
        <ele>135.393092</ele>
        <time>2022-02-27T08:46:00.654Z</time>
      </trkpt>
      <trkpt lat="41.93978" lon="25.897">
        <ele>135.672683</ele>
        <time>2022-02-27T08:46:04.618Z</time>
      </trkpt>
      <trkpt lat="41.93987" lon="25.89693">
        <ele>135.959477</ele>
        <time>2022-02-27T08:46:08.655Z</time>
      </trkpt>
      <trkpt lat="41.93995" lon="25.89687">
        <ele>136.216917</ele>
        <time>2022-02-27T08:46:12.613Z</time>
      </trkpt>
      <trkpt lat="41.94004" lon="25.8968">
        <ele>136.512693</ele>
        <time>2022-02-27T08:46:17.655Z</time>
      </trkpt>
      <trkpt lat="41.94013" lon="25.89674">
        <ele>136.772929</ele>
        <time>2022-02-27T08:46:21.613Z</time>
      </trkpt>
      <trkpt lat="41.94021" lon="25.89669">
        <ele>137.017852</ele>
        <time>2022-02-27T08:46:25.607Z</time>
      </trkpt>
      <trkpt lat="41.94031" lon="25.89662">
        <ele>137.317938</ele>
        <time>2022-02-27T08:46:30.647Z</time>
      </trkpt>
      <trkpt lat="41.9404" lon="25.89655">
        <ele>137.601357</ele>
        <time>2022-02-27T08:46:35.607Z</time>
      </trkpt>
      <trkpt lat="41.94048" lon="25.89648">
        <ele>137.874347</ele>
        <time>2022-02-27T08:46:40.620Z</time>
      </trkpt>
      <trkpt lat="41.94056" lon="25.89641">
        <ele>138.131479</ele>
        <time>2022-02-27T08:46:45.630Z</time>
      </trkpt>
      <trkpt lat="41.94064" lon="25.89634">
        <ele>138.395052</ele>
        <time>2022-02-27T08:46:50.626Z</time>
      </trkpt>
      <trkpt lat="41.94071" lon="25.89626">
        <ele>138.643704</ele>
        <time>2022-02-27T08:46:54.617Z</time>
      </trkpt>
      <trkpt lat="41.94079" lon="25.89618">
        <ele>138.919515</ele>
        <time>2022-02-27T08:46:59.621Z</time>
      </trkpt>
      <trkpt lat="41.94087" lon="25.89609">
        <ele>139.191935</ele>
        <time>2022-02-27T08:47:04.627Z</time>
      </trkpt>
      <trkpt lat="41.94094" lon="25.89599">
        <ele>139.476098</ele>
        <time>2022-02-27T08:47:09.610Z</time>
      </trkpt>
      <trkpt lat="41.94101" lon="25.8959">
        <ele>139.730432</ele>
        <time>2022-02-27T08:47:14.606Z</time>
      </trkpt>
      <trkpt lat="41.94107" lon="25.8958">
        <ele>139.992459</ele>
        <time>2022-02-27T08:47:19.598Z</time>
      </trkpt>
      <trkpt lat="41.94114" lon="25.89571">
        <ele>140.254865</ele>
        <time>2022-02-27T08:47:24.640Z</time>
      </trkpt>
      <trkpt lat="41.94121" lon="25.89562">
        <ele>140.497292</ele>
        <time>2022-02-27T08:47:29.651Z</time>
      </trkpt>
      <trkpt lat="41.94127" lon="25.89553">
        <ele>140.763434</ele>
        <time>2022-02-27T08:47:34.605Z</time>
      </trkpt>
      <trkpt lat="41.94134" lon="25.89543">
        <ele>141.0239</ele>
        <time>2022-02-27T08:47:39.621Z</time>
      </trkpt>
      <trkpt lat="41.94141" lon="25.89535">
        <ele>141.26774</ele>
        <time>2022-02-27T08:47:44.620Z</time>
      </trkpt>
      <trkpt lat="41.94147" lon="25.89526">
        <ele>141.517747</ele>
        <time>2022-02-27T08:47:49.617Z</time>
      </trkpt>
      <trkpt lat="41.94154" lon="25.89517">
        <ele>141.77914</ele>
        <time>2022-02-27T08:47:54.628Z</time>
      </trkpt>
      <trkpt lat="41.94161" lon="25.89506">
        <ele>142.066171</ele>
        <time>2022-02-27T08:48:00.610Z</time>
      </trkpt>
      <trkpt lat="41.94169" lon="25.89496">
        <ele>142.346577</ele>
        <time>2022-02-27T08:48:06.612Z</time>
      </trkpt>
      <trkpt lat="41.94175" lon="25.89487">
        <ele>142.604651</ele>
        <time>2022-02-27T08:48:11.612Z</time>
      </trkpt>
      <trkpt lat="41.94183" lon="25.89477">
        <ele>142.893561</ele>
        <time>2022-02-27T08:48:17.611Z</time>
      </trkpt>
      <trkpt lat="41.9419" lon="25.89467">
        <ele>143.170655</ele>
        <time>2022-02-27T08:48:23.600Z</time>
      </trkpt>
      <trkpt lat="41.94197" lon="25.89458">
        <ele>143.426851</ele>
        <time>2022-02-27T08:48:28.605Z</time>
      </trkpt>
      <trkpt lat="41.94203" lon="25.89448">
        <ele>143.684493</ele>
        <time>2022-02-27T08:48:33.630Z</time>
      </trkpt>
      <trkpt lat="41.9421" lon="25.89439">
        <ele>144.172937</ele>
        <time>2022-02-27T08:48:38.645Z</time>
      </trkpt>
      <trkpt lat="41.94217" lon="25.89431">
        <ele>144.915555</ele>
        <time>2022-02-27T08:48:43.611Z</time>
      </trkpt>
      <trkpt lat="41.94224" lon="25.89422">
        <ele>145.681351</ele>
        <time>2022-02-27T08:48:48.628Z</time>
      </trkpt>
      <trkpt lat="41.94232" lon="25.89412">
        <ele>146.518726</ele>
        <time>2022-02-27T08:48:55.637Z</time>
      </trkpt>
      <trkpt lat="41.94239" lon="25.89403">
        <ele>147.31827</ele>
        <time>2022-02-27T08:49:02.609Z</time>
      </trkpt>
      <trkpt lat="41.94246" lon="25.89394">
        <ele>148.057165</ele>
        <time>2022-02-27T08:49:08.610Z</time>
      </trkpt>
      <trkpt lat="41.94253" lon="25.89385">
        <ele>148.855004</ele>
        <time>2022-02-27T08:49:14.629Z</time>
      </trkpt>
      <trkpt lat="41.94259" lon="25.89376">
        <ele>149.604878</ele>
        <time>2022-02-27T08:49:20.620Z</time>
      </trkpt>
      <trkpt lat="41.94266" lon="25.89367">
        <ele>150.356065</ele>
        <time>2022-02-27T08:49:27.652Z</time>
      </trkpt>
      <trkpt lat="41.94272" lon="25.89358">
        <ele>151.087572</ele>
        <time>2022-02-27T08:49:33.626Z</time>
      </trkpt>
      <trkpt lat="41.94279" lon="25.89349">
        <ele>151.869796</ele>
        <time>2022-02-27T08:49:40.624Z</time>
      </trkpt>
      <trkpt lat="41.94286" lon="25.89339">
        <ele>152.658983</ele>
        <time>2022-02-27T08:49:47.608Z</time>
      </trkpt>
      <trkpt lat="41.94292" lon="25.8933">
        <ele>153.406621</ele>
        <time>2022-02-27T08:49:54.616Z</time>
      </trkpt>
      <trkpt lat="41.94298" lon="25.89321">
        <ele>154.129394</ele>
        <time>2022-02-27T08:50:01.669Z</time>
      </trkpt>
      <trkpt lat="41.94305" lon="25.89311">
        <ele>154.907499</ele>
        <time>2022-02-27T08:50:08.606Z</time>
      </trkpt>
      <trkpt lat="41.94312" lon="25.893">
        <ele>155.762742</ele>
        <time>2022-02-27T08:50:15.611Z</time>
      </trkpt>
      <trkpt lat="41.94318" lon="25.89291">
        <ele>156.492413</ele>
        <time>2022-02-27T08:50:22.632Z</time>
      </trkpt>
      <trkpt lat="41.94324" lon="25.89281">
        <ele>157.219643</ele>
        <time>2022-02-27T08:50:29.625Z</time>
      </trkpt>
      <trkpt lat="41.94329" lon="25.8927">
        <ele>158.018675</ele>
        <time>2022-02-27T08:50:36.615Z</time>
      </trkpt>
      <trkpt lat="41.94334" lon="25.8926">
        <ele>158.833041</ele>
        <time>2022-02-27T08:50:42.608Z</time>
      </trkpt>
      <trkpt lat="41.94338" lon="25.89249">
        <ele>159.662347</ele>
        <time>2022-02-27T08:50:48.624Z</time>
      </trkpt>
      <trkpt lat="41.94343" lon="25.89238">
        <ele>160.581242</ele>
        <time>2022-02-27T08:50:55.628Z</time>
      </trkpt>
      <trkpt lat="41.94348" lon="25.89227">
        <ele>161.452255</ele>
        <time>2022-02-27T08:51:02.627Z</time>
      </trkpt>
      <trkpt lat="41.94352" lon="25.89215">
        <ele>162.343522</ele>
        <time>2022-02-27T08:51:08.642Z</time>
      </trkpt>
      <trkpt lat="41.94357" lon="25.89203">
        <ele>163.264909</ele>
        <time>2022-02-27T08:51:14.606Z</time>
      </trkpt>
      <trkpt lat="41.94359" lon="25.89191">
        <ele>164.097165</ele>
        <time>2022-02-27T08:51:20.636Z</time>
      </trkpt>
      <trkpt lat="41.94363" lon="25.89179">
        <ele>164.970883</ele>
        <time>2022-02-27T08:51:28.611Z</time>
      </trkpt>
      <trkpt lat="41.94366" lon="25.89166">
        <ele>165.91201</ele>
        <time>2022-02-27T08:51:35.625Z</time>
      </trkpt>
      <trkpt lat="41.94369" lon="25.89155">
        <ele>166.763764</ele>
        <time>2022-02-27T08:51:41.634Z</time>
      </trkpt>
      <trkpt lat="41.94371" lon="25.89141">
        <ele>167.688929</ele>
        <time>2022-02-27T08:51:47.680Z</time>
      </trkpt>
      <trkpt lat="41.94374" lon="25.89129">
        <ele>168.582706</ele>
        <time>2022-02-27T08:51:53.607Z</time>
      </trkpt>
      <trkpt lat="41.94375" lon="25.89115">
        <ele>169.507624</ele>
        <time>2022-02-27T08:51:59.663Z</time>
      </trkpt>
      <trkpt lat="41.94377" lon="25.89102">
        <ele>170.433813</ele>
        <time>2022-02-27T08:52:06.618Z</time>
      </trkpt>
      <trkpt lat="41.94378" lon="25.89089">
        <ele>171.364611</ele>
        <time>2022-02-27T08:52:13.593Z</time>
      </trkpt>
      <trkpt lat="41.94379" lon="25.89076">
        <ele>172.233092</ele>
        <time>2022-02-27T08:52:20.619Z</time>
      </trkpt>
      <trkpt lat="41.94379" lon="25.89063">
        <ele>173.111587</ele>
        <time>2022-02-27T08:52:26.613Z</time>
      </trkpt>
      <trkpt lat="41.94379" lon="25.8905">
        <ele>174.037034</ele>
        <time>2022-02-27T08:52:32.593Z</time>
      </trkpt>
      <trkpt lat="41.94379" lon="25.89037">
        <ele>174.847428</ele>
        <time>2022-02-27T08:52:38.681Z</time>
      </trkpt>
      <trkpt lat="41.94378" lon="25.89025">
        <ele>175.443957</ele>
        <time>2022-02-27T08:52:44.653Z</time>
      </trkpt>
      <trkpt lat="41.94376" lon="25.89013">
        <ele>176.035006</ele>
        <time>2022-02-27T08:52:50.622Z</time>
      </trkpt>
      <trkpt lat="41.94375" lon="25.89">
        <ele>176.62301</ele>
        <time>2022-02-27T08:52:56.608Z</time>
      </trkpt>
      <trkpt lat="41.94373" lon="25.88987">
        <ele>177.238413</ele>
        <time>2022-02-27T08:53:03.636Z</time>
      </trkpt>
      <trkpt lat="41.94372" lon="25.88975">
        <ele>177.815424</ele>
        <time>2022-02-27T08:53:09.607Z</time>
      </trkpt>
      <trkpt lat="41.9437" lon="25.88963">
        <ele>178.435808</ele>
        <time>2022-02-27T08:53:15.617Z</time>
      </trkpt>
      <trkpt lat="41.94368" lon="25.88949">
        <ele>179.095402</ele>
        <time>2022-02-27T08:53:22.621Z</time>
      </trkpt>
      <trkpt lat="41.94366" lon="25.88937">
        <ele>179.682063</ele>
        <time>2022-02-27T08:53:28.626Z</time>
      </trkpt>
      <trkpt lat="41.94364" lon="25.88923">
        <ele>180.337005</ele>
        <time>2022-02-27T08:53:34.622Z</time>
      </trkpt>
      <trkpt lat="41.94363" lon="25.88911">
        <ele>180.911908</ele>
        <time>2022-02-27T08:53:40.606Z</time>
      </trkpt>
      <trkpt lat="41.9436" lon="25.88899">
        <ele>181.490904</ele>
        <time>2022-02-27T08:53:46.622Z</time>
      </trkpt>
      <trkpt lat="41.94359" lon="25.88887">
        <ele>182.102348</ele>
        <time>2022-02-27T08:53:53.629Z</time>
      </trkpt>
      <trkpt lat="41.94357" lon="25.88874">
        <ele>182.722413</ele>
        <time>2022-02-27T08:53:59.641Z</time>
      </trkpt>
      <trkpt lat="41.94355" lon="25.88862">
        <ele>183.310488</ele>
        <time>2022-02-27T08:54:05.636Z</time>
      </trkpt>
      <trkpt lat="41.94353" lon="25.88848">
        <ele>183.979838</ele>
        <time>2022-02-27T08:54:12.627Z</time>
      </trkpt>
      <trkpt lat="41.94351" lon="25.88835">
        <ele>184.573452</ele>
        <time>2022-02-27T08:54:18.610Z</time>
      </trkpt>
      <trkpt lat="41.94349" lon="25.88823">
        <ele>185.169359</ele>
        <time>2022-02-27T08:54:24.613Z</time>
      </trkpt>
      <trkpt lat="41.94348" lon="25.88811">
        <ele>185.74288</ele>
        <time>2022-02-27T08:54:30.607Z</time>
      </trkpt>
      <trkpt lat="41.94346" lon="25.88799">
        <ele>186.310466</ele>
        <time>2022-02-27T08:54:37.636Z</time>
      </trkpt>
      <trkpt lat="41.94344" lon="25.88787">
        <ele>186.698475</ele>
        <time>2022-02-27T08:54:43.631Z</time>
      </trkpt>
      <trkpt lat="41.94341" lon="25.88775">
        <ele>187.101691</ele>
        <time>2022-02-27T08:54:49.617Z</time>
      </trkpt>
      <trkpt lat="41.94339" lon="25.88761">
        <ele>187.543345</ele>
        <time>2022-02-27T08:54:56.605Z</time>
      </trkpt>
      <trkpt lat="41.94337" lon="25.88748">
        <ele>187.972139</ele>
        <time>2022-02-27T08:55:03.606Z</time>
      </trkpt>
      <trkpt lat="41.94335" lon="25.88735">
        <ele>188.410365</ele>
        <time>2022-02-27T08:55:10.634Z</time>
      </trkpt>
      <trkpt lat="41.94333" lon="25.88723">
        <ele>188.805504</ele>
        <time>2022-02-27T08:55:16.620Z</time>
      </trkpt>
      <trkpt lat="41.94331" lon="25.88711">
        <ele>189.19127</ele>
        <time>2022-02-27T08:55:22.623Z</time>
      </trkpt>
      <trkpt lat="41.94329" lon="25.88697">
        <ele>189.650324</ele>
        <time>2022-02-27T08:55:29.624Z</time>
      </trkpt>
      <trkpt lat="41.94327" lon="25.88684">
        <ele>190.070507</ele>
        <time>2022-02-27T08:55:35.621Z</time>
      </trkpt>
      <trkpt lat="41.94325" lon="25.88671">
        <ele>190.487693</ele>
        <time>2022-02-27T08:55:41.607Z</time>
      </trkpt>
      <trkpt lat="41.94323" lon="25.88659">
        <ele>190.887052</ele>
        <time>2022-02-27T08:55:47.619Z</time>
      </trkpt>
      <trkpt lat="41.94321" lon="25.88646">
        <ele>191.313506</ele>
        <time>2022-02-27T08:55:54.615Z</time>
      </trkpt>
      <trkpt lat="41.94319" lon="25.88633">
        <ele>191.726597</ele>
        <time>2022-02-27T08:56:00.629Z</time>
      </trkpt>
      <trkpt lat="41.94317" lon="25.88619">
        <ele>192.178167</ele>
        <time>2022-02-27T08:56:06.613Z</time>
      </trkpt>
      <trkpt lat="41.94315" lon="25.88607">
        <ele>192.584512</ele>
        <time>2022-02-27T08:56:11.663Z</time>
      </trkpt>
      <trkpt lat="41.94312" lon="25.88595">
        <ele>192.980805</ele>
        <time>2022-02-27T08:56:16.632Z</time>
      </trkpt>
      <trkpt lat="41.94311" lon="25.88582">
        <ele>193.393897</ele>
        <time>2022-02-27T08:56:21.594Z</time>
      </trkpt>
      <trkpt lat="41.94308" lon="25.88568">
        <ele>193.856349</ele>
        <time>2022-02-27T08:56:27.634Z</time>
      </trkpt>
      <trkpt lat="41.94304" lon="25.88555">
        <ele>194.203426</ele>
        <time>2022-02-27T08:56:33.609Z</time>
      </trkpt>
      <trkpt lat="41.94301" lon="25.88543">
        <ele>194.504548</ele>
        <time>2022-02-27T08:56:38.610Z</time>
      </trkpt>
      <trkpt lat="41.94299" lon="25.8853">
        <ele>194.824972</ele>
        <time>2022-02-27T08:56:43.593Z</time>
      </trkpt>
      <trkpt lat="41.94295" lon="25.88518">
        <ele>195.128269</ele>
        <time>2022-02-27T08:56:48.647Z</time>
      </trkpt>
      <trkpt lat="41.94292" lon="25.88506">
        <ele>195.427889</ele>
        <time>2022-02-27T08:56:53.617Z</time>
      </trkpt>
      <trkpt lat="41.94289" lon="25.88494">
        <ele>195.72557</ele>
        <time>2022-02-27T08:56:58.609Z</time>
      </trkpt>
      <trkpt lat="41.94286" lon="25.88483">
        <ele>196.011062</ele>
        <time>2022-02-27T08:57:03.632Z</time>
      </trkpt>
      <trkpt lat="41.94283" lon="25.8847">
        <ele>196.330881</ele>
        <time>2022-02-27T08:57:08.598Z</time>
      </trkpt>
      <trkpt lat="41.94279" lon="25.88459">
        <ele>196.630802</ele>
        <time>2022-02-27T08:57:13.623Z</time>
      </trkpt>
      <trkpt lat="41.94276" lon="25.88446">
        <ele>196.937288</ele>
        <time>2022-02-27T08:57:18.603Z</time>
      </trkpt>
      <trkpt lat="41.94272" lon="25.88434">
        <ele>197.257107</ele>
        <time>2022-02-27T08:57:23.634Z</time>
      </trkpt>
      <trkpt lat="41.94268" lon="25.88422">
        <ele>197.55819</ele>
        <time>2022-02-27T08:57:28.596Z</time>
      </trkpt>
      <trkpt lat="41.94265" lon="25.8841">
        <ele>197.854838</ele>
        <time>2022-02-27T08:57:33.619Z</time>
      </trkpt>
      <trkpt lat="41.94261" lon="25.88399">
        <ele>198.14165</ele>
        <time>2022-02-27T08:57:38.646Z</time>
      </trkpt>
      <trkpt lat="41.94257" lon="25.88386">
        <ele>198.470678</ele>
        <time>2022-02-27T08:57:44.617Z</time>
      </trkpt>
      <trkpt lat="41.94254" lon="25.88374">
        <ele>198.77729</ele>
        <time>2022-02-27T08:57:49.619Z</time>
      </trkpt>
      <trkpt lat="41.9425" lon="25.88363">
        <ele>199.071395</ele>
        <time>2022-02-27T08:57:54.603Z</time>
      </trkpt>
      <trkpt lat="41.94247" lon="25.88351">
        <ele>199.36685</ele>
        <time>2022-02-27T08:57:59.609Z</time>
      </trkpt>
      <trkpt lat="41.94244" lon="25.88339">
        <ele>199.660253</ele>
        <time>2022-02-27T08:58:04.620Z</time>
      </trkpt>
      <trkpt lat="41.94241" lon="25.88328">
        <ele>199.782287</ele>
        <time>2022-02-27T08:58:09.602Z</time>
      </trkpt>
      <trkpt lat="41.94238" lon="25.88315">
        <ele>199.912678</ele>
        <time>2022-02-27T08:58:14.600Z</time>
      </trkpt>
      <trkpt lat="41.94235" lon="25.88302">
        <ele>200.03645</ele>
        <time>2022-02-27T08:58:19.667Z</time>
      </trkpt>
      <trkpt lat="41.94232" lon="25.88291">
        <ele>200.153453</ele>
        <time>2022-02-27T08:58:24.600Z</time>
      </trkpt>
      <trkpt lat="41.94229" lon="25.88278">
        <ele>200.280886</ele>
        <time>2022-02-27T08:58:29.642Z</time>
      </trkpt>
      <trkpt lat="41.94227" lon="25.88263">
        <ele>200.420359</ele>
        <time>2022-02-27T08:58:34.619Z</time>
      </trkpt>
      <trkpt lat="41.94225" lon="25.88251">
        <ele>200.545203</ele>
        <time>2022-02-27T08:58:39.595Z</time>
      </trkpt>
      <trkpt lat="41.94223" lon="25.88237">
        <ele>200.673686</ele>
        <time>2022-02-27T08:58:44.633Z</time>
      </trkpt>
      <trkpt lat="41.94222" lon="25.88225">
        <ele>200.798022</ele>
        <time>2022-02-27T08:58:49.659Z</time>
      </trkpt>
      <trkpt lat="41.94221" lon="25.88213">
        <ele>200.913504</ele>
        <time>2022-02-27T08:58:54.632Z</time>
      </trkpt>
      <trkpt lat="41.9422" lon="25.882">
        <ele>201.030205</ele>
        <time>2022-02-27T08:58:59.617Z</time>
      </trkpt>
      <trkpt lat="41.9422" lon="25.88188">
        <ele>201.150578</ele>
        <time>2022-02-27T08:59:04.614Z</time>
      </trkpt>
      <trkpt lat="41.94221" lon="25.88175">
        <ele>201.273849</ele>
        <time>2022-02-27T08:59:09.605Z</time>
      </trkpt>
      <trkpt lat="41.94222" lon="25.88162">
        <ele>201.399703</ele>
        <time>2022-02-27T08:59:14.621Z</time>
      </trkpt>
      <trkpt lat="41.94223" lon="25.88147">
        <ele>201.537964</ele>
        <time>2022-02-27T08:59:20.658Z</time>
      </trkpt>
      <trkpt lat="41.94225" lon="25.88134">
        <ele>201.663247</ele>
        <time>2022-02-27T08:59:25.607Z</time>
      </trkpt>
      <trkpt lat="41.94226" lon="25.88123">
        <ele>201.777946</ele>
        <time>2022-02-27T08:59:30.614Z</time>
      </trkpt>
      <trkpt lat="41.94227" lon="25.8811">
        <ele>201.896943</ele>
        <time>2022-02-27T08:59:35.615Z</time>
      </trkpt>
      <trkpt lat="41.94227" lon="25.88097">
        <ele>202.122426</ele>
        <time>2022-02-27T08:59:40.635Z</time>
      </trkpt>
      <trkpt lat="41.94228" lon="25.88083">
        <ele>202.53958</ele>
        <time>2022-02-27T08:59:45.614Z</time>
      </trkpt>
      <trkpt lat="41.94229" lon="25.8807">
        <ele>202.91428</ele>
        <time>2022-02-27T08:59:50.631Z</time>
      </trkpt>
      <trkpt lat="41.9423" lon="25.88057">
        <ele>203.302528</ele>
        <time>2022-02-27T08:59:55.612Z</time>
      </trkpt>
      <trkpt lat="41.94232" lon="25.88043">
        <ele>203.70029</ele>
        <time>2022-02-27T09:00:00.648Z</time>
      </trkpt>
      <trkpt lat="41.94233" lon="25.8803">
        <ele>204.067427</ele>
        <time>2022-02-27T09:00:05.613Z</time>
      </trkpt>
      <trkpt lat="41.94235" lon="25.88017">
        <ele>204.450127</ele>
        <time>2022-02-27T09:00:10.630Z</time>
      </trkpt>
      <trkpt lat="41.94236" lon="25.88005">
        <ele>204.813827</ele>
        <time>2022-02-27T09:00:15.620Z</time>
      </trkpt>
      <trkpt lat="41.94237" lon="25.87993">
        <ele>205.175002</ele>
        <time>2022-02-27T09:00:20.626Z</time>
      </trkpt>
      <trkpt lat="41.94238" lon="25.8798">
        <ele>205.555465</ele>
        <time>2022-02-27T09:00:25.611Z</time>
      </trkpt>
      <trkpt lat="41.94238" lon="25.87966">
        <ele>205.942237</ele>
        <time>2022-02-27T09:00:30.609Z</time>
      </trkpt>
      <trkpt lat="41.94238" lon="25.87953">
        <ele>206.328595</ele>
        <time>2022-02-27T09:00:35.626Z</time>
      </trkpt>
      <trkpt lat="41.94239" lon="25.8794">
        <ele>206.71519</ele>
        <time>2022-02-27T09:00:40.604Z</time>
      </trkpt>
      <trkpt lat="41.94239" lon="25.87928">
        <ele>207.070295</ele>
        <time>2022-02-27T09:00:45.633Z</time>
      </trkpt>
      <trkpt lat="41.94239" lon="25.87915">
        <ele>207.442134</ele>
        <time>2022-02-27T09:00:50.613Z</time>
      </trkpt>
      <trkpt lat="41.9424" lon="25.87903">
        <ele>207.797518</ele>
        <time>2022-02-27T09:00:55.618Z</time>
      </trkpt>
      <trkpt lat="41.94241" lon="25.8789">
        <ele>208.153994</ele>
        <time>2022-02-27T09:01:00.612Z</time>
      </trkpt>
      <trkpt lat="41.94242" lon="25.87878">
        <ele>208.523858</ele>
        <time>2022-02-27T09:01:05.637Z</time>
      </trkpt>
      <trkpt lat="41.94243" lon="25.87865">
        <ele>208.89149</ele>
        <time>2022-02-27T09:01:10.610Z</time>
      </trkpt>
      <trkpt lat="41.94243" lon="25.87852">
        <ele>209.232537</ele>
        <time>2022-02-27T09:01:15.696Z</time>
      </trkpt>
      <trkpt lat="41.94244" lon="25.87839">
        <ele>209.575828</ele>
        <time>2022-02-27T09:01:20.611Z</time>
      </trkpt>
      <trkpt lat="41.94245" lon="25.87826">
        <ele>209.917336</ele>
        <time>2022-02-27T09:01:25.641Z</time>
      </trkpt>
      <trkpt lat="41.94246" lon="25.87814">
        <ele>210.249981</ele>
        <time>2022-02-27T09:01:30.619Z</time>
      </trkpt>
      <trkpt lat="41.94247" lon="25.87802">
        <ele>210.57032</ele>
        <time>2022-02-27T09:01:35.665Z</time>
      </trkpt>
      <trkpt lat="41.94248" lon="25.87789">
        <ele>210.897543</ele>
        <time>2022-02-27T09:01:40.614Z</time>
      </trkpt>
      <trkpt lat="41.9425" lon="25.87777">
        <ele>211.229798</ele>
        <time>2022-02-27T09:01:45.625Z</time>
      </trkpt>
      <trkpt lat="41.94251" lon="25.87763">
        <ele>211.591499</ele>
        <time>2022-02-27T09:01:50.616Z</time>
      </trkpt>
      <trkpt lat="41.94252" lon="25.8775">
        <ele>211.92852</ele>
        <time>2022-02-27T09:01:55.625Z</time>
      </trkpt>
      <trkpt lat="41.94253" lon="25.87736">
        <ele>212.288577</ele>
        <time>2022-02-27T09:02:00.620Z</time>
      </trkpt>
      <trkpt lat="41.94254" lon="25.87722">
        <ele>212.655837</ele>
        <time>2022-02-27T09:02:05.646Z</time>
      </trkpt>
      <trkpt lat="41.94254" lon="25.87708">
        <ele>213.032891</ele>
        <time>2022-02-27T09:02:10.650Z</time>
      </trkpt>
      <trkpt lat="41.94255" lon="25.87693">
        <ele>213.425291</ele>
        <time>2022-02-27T09:02:15.631Z</time>
      </trkpt>
      <trkpt lat="41.94255" lon="25.87678">
        <ele>213.808201</ele>
        <time>2022-02-27T09:02:20.622Z</time>
      </trkpt>
      <trkpt lat="41.94256" lon="25.87666">
        <ele>214.141291</ele>
        <time>2022-02-27T09:02:24.627Z</time>
      </trkpt>
      <trkpt lat="41.94256" lon="25.87653">
        <ele>214.470873</ele>
        <time>2022-02-27T09:02:28.624Z</time>
      </trkpt>
      <trkpt lat="41.94256" lon="25.87641">
        <ele>214.797896</ele>
        <time>2022-02-27T09:02:32.629Z</time>
      </trkpt>
      <trkpt lat="41.94256" lon="25.87628">
        <ele>215.11992</ele>
        <time>2022-02-27T09:02:36.627Z</time>
      </trkpt>
      <trkpt lat="41.94255" lon="25.87616">
        <ele>215.428787</ele>
        <time>2022-02-27T09:02:40.619Z</time>
      </trkpt>
      <trkpt lat="41.94256" lon="25.87603">
        <ele>215.685151</ele>
        <time>2022-02-27T09:02:44.628Z</time>
      </trkpt>
      <trkpt lat="41.94254" lon="25.87589">
        <ele>215.99484</ele>
        <time>2022-02-27T09:02:49.625Z</time>
      </trkpt>
      <trkpt lat="41.94254" lon="25.87574">
        <ele>216.303718</ele>
        <time>2022-02-27T09:02:54.620Z</time>
      </trkpt>
      <trkpt lat="41.94254" lon="25.87562">
        <ele>216.564651</ele>
        <time>2022-02-27T09:02:58.625Z</time>
      </trkpt>
      <trkpt lat="41.94253" lon="25.87547">
        <ele>216.873852</ele>
        <time>2022-02-27T09:03:03.629Z</time>
      </trkpt>
      <trkpt lat="41.94252" lon="25.87533">
        <ele>217.169659</ele>
        <time>2022-02-27T09:03:08.614Z</time>
      </trkpt>
      <trkpt lat="41.94252" lon="25.87521">
        <ele>217.426007</ele>
        <time>2022-02-27T09:03:12.654Z</time>
      </trkpt>
      <trkpt lat="41.94251" lon="25.87508">
        <ele>217.705787</ele>
        <time>2022-02-27T09:03:17.618Z</time>
      </trkpt>
      <trkpt lat="41.94249" lon="25.87493">
        <ele>218.012343</ele>
        <time>2022-02-27T09:03:22.637Z</time>
      </trkpt>
      <trkpt lat="41.94248" lon="25.87481">
        <ele>218.270568</ele>
        <time>2022-02-27T09:03:26.617Z</time>
      </trkpt>
      <trkpt lat="41.94247" lon="25.87468">
        <ele>218.546183</ele>
        <time>2022-02-27T09:03:30.627Z</time>
      </trkpt>
      <trkpt lat="41.94246" lon="25.87455">
        <ele>218.818708</ele>
        <time>2022-02-27T09:03:34.627Z</time>
      </trkpt>
      <trkpt lat="41.94245" lon="25.87441">
        <ele>219.117607</ele>
        <time>2022-02-27T09:03:39.616Z</time>
      </trkpt>
      <trkpt lat="41.94244" lon="25.87426">
        <ele>219.425436</ele>
        <time>2022-02-27T09:03:44.616Z</time>
      </trkpt>
      <trkpt lat="41.94242" lon="25.87412">
        <ele>219.727213</ele>
        <time>2022-02-27T09:03:49.618Z</time>
      </trkpt>
      <trkpt lat="41.94241" lon="25.87399">
        <ele>220.006159</ele>
        <time>2022-02-27T09:03:54.658Z</time>
      </trkpt>
      <trkpt lat="41.94239" lon="25.87385">
        <ele>220.299876</ele>
        <time>2022-02-27T09:03:59.616Z</time>
      </trkpt>
      <trkpt lat="41.94238" lon="25.87371">
        <ele>220.558018</ele>
        <time>2022-02-27T09:04:04.590Z</time>
      </trkpt>
      <trkpt lat="41.94236" lon="25.87357">
        <ele>220.802342</ele>
        <time>2022-02-27T09:04:09.634Z</time>
      </trkpt>
      <trkpt lat="41.94234" lon="25.87344">
        <ele>221.037041</ele>
        <time>2022-02-27T09:04:14.631Z</time>
      </trkpt>
      <trkpt lat="41.94232" lon="25.8733">
        <ele>221.2806</ele>
        <time>2022-02-27T09:04:19.613Z</time>
      </trkpt>
      <trkpt lat="41.94229" lon="25.87316">
        <ele>221.534233</ele>
        <time>2022-02-27T09:04:24.628Z</time>
      </trkpt>
      <trkpt lat="41.94226" lon="25.87302">
        <ele>221.775477</ele>
        <time>2022-02-27T09:04:29.638Z</time>
      </trkpt>
      <trkpt lat="41.94224" lon="25.8729">
        <ele>221.989518</ele>
        <time>2022-02-27T09:04:33.609Z</time>
      </trkpt>
      <trkpt lat="41.94222" lon="25.87277">
        <ele>222.212002</ele>
        <time>2022-02-27T09:04:37.604Z</time>
      </trkpt>
      <trkpt lat="41.94219" lon="25.87264">
        <ele>222.443228</ele>
        <time>2022-02-27T09:04:41.619Z</time>
      </trkpt>
      <trkpt lat="41.94217" lon="25.8725">
        <ele>222.688871</ele>
        <time>2022-02-27T09:04:45.613Z</time>
      </trkpt>
      <trkpt lat="41.94214" lon="25.87237">
        <ele>222.92846</ele>
        <time>2022-02-27T09:04:49.645Z</time>
      </trkpt>
      <trkpt lat="41.94211" lon="25.87222">
        <ele>223.185208</ele>
        <time>2022-02-27T09:04:53.616Z</time>
      </trkpt>
      <trkpt lat="41.94209" lon="25.8721">
        <ele>223.399249</ele>
        <time>2022-02-27T09:04:56.609Z</time>
      </trkpt>
      <trkpt lat="41.94206" lon="25.87197">
        <ele>223.62606</ele>
        <time>2022-02-27T09:04:59.628Z</time>
      </trkpt>
      <trkpt lat="41.94204" lon="25.87185">
        <ele>223.855734</ele>
        <time>2022-02-27T09:05:02.648Z</time>
      </trkpt>
      <trkpt lat="41.94201" lon="25.87172">
        <ele>224.079754</ele>
        <time>2022-02-27T09:05:05.626Z</time>
      </trkpt>
      <trkpt lat="41.94199" lon="25.87159">
        <ele>224.304908</ele>
        <time>2022-02-27T09:05:08.625Z</time>
      </trkpt>
      <trkpt lat="41.94196" lon="25.87147">
        <ele>224.527822</ele>
        <time>2022-02-27T09:05:11.608Z</time>
      </trkpt>
      <trkpt lat="41.94194" lon="25.87135">
        <ele>224.966957</ele>
        <time>2022-02-27T09:05:14.626Z</time>
      </trkpt>
      <trkpt lat="41.94191" lon="25.87123">
        <ele>225.450905</ele>
        <time>2022-02-27T09:05:17.630Z</time>
      </trkpt>
      <trkpt lat="41.94189" lon="25.87111">
        <ele>225.92096</ele>
        <time>2022-02-27T09:05:20.612Z</time>
      </trkpt>
      <trkpt lat="41.94186" lon="25.87097">
        <ele>226.46752</ele>
        <time>2022-02-27T09:05:24.625Z</time>
      </trkpt>
      <trkpt lat="41.94183" lon="25.87086">
        <ele>226.930167</ele>
        <time>2022-02-27T09:05:28.620Z</time>
      </trkpt>
      <trkpt lat="41.94181" lon="25.87072">
        <ele>227.462286</ele>
        <time>2022-02-27T09:05:33.616Z</time>
      </trkpt>
      <trkpt lat="41.94178" lon="25.8706">
        <ele>227.961019</ele>
        <time>2022-02-27T09:05:38.609Z</time>
      </trkpt>
      <trkpt lat="41.94175" lon="25.87046">
        <ele>228.504643</ele>
        <time>2022-02-27T09:05:44.626Z</time>
      </trkpt>
      <trkpt lat="41.94172" lon="25.87032">
        <ele>229.078443</ele>
        <time>2022-02-27T09:05:50.614Z</time>
      </trkpt>
      <trkpt lat="41.94169" lon="25.87019">
        <ele>229.617174</ele>
        <time>2022-02-27T09:05:56.639Z</time>
      </trkpt>
      <trkpt lat="41.94165" lon="25.87006">
        <ele>230.14862</ele>
        <time>2022-02-27T09:06:02.616Z</time>
      </trkpt>
      <trkpt lat="41.94162" lon="25.86993">
        <ele>230.680067</ele>
        <time>2022-02-27T09:06:08.652Z</time>
      </trkpt>
      <trkpt lat="41.94158" lon="25.8698">
        <ele>231.195887</ele>
        <time>2022-02-27T09:06:14.642Z</time>
      </trkpt>
      <trkpt lat="41.94154" lon="25.86968">
        <ele>231.706796</ele>
        <time>2022-02-27T09:06:20.609Z</time>
      </trkpt>
      <trkpt lat="41.9415" lon="25.86955">
        <ele>232.244362</ele>
        <time>2022-02-27T09:06:26.608Z</time>
      </trkpt>
      <trkpt lat="41.94145" lon="25.86943">
        <ele>232.777969</ele>
        <time>2022-02-27T09:06:32.630Z</time>
      </trkpt>
      <trkpt lat="41.94141" lon="25.86932">
        <ele>233.259925</ele>
        <time>2022-02-27T09:06:37.624Z</time>
      </trkpt>
      <trkpt lat="41.94137" lon="25.8692">
        <ele>233.774001</ele>
        <time>2022-02-27T09:06:43.628Z</time>
      </trkpt>
      <trkpt lat="41.94132" lon="25.86908">
        <ele>234.025198</ele>
        <time>2022-02-27T09:06:49.604Z</time>
      </trkpt>
      <trkpt lat="41.94128" lon="25.86896">
        <ele>234.233418</ele>
        <time>2022-02-27T09:06:55.631Z</time>
      </trkpt>
      <trkpt lat="41.94124" lon="25.86885">
        <ele>234.424798</ele>
        <time>2022-02-27T09:07:01.621Z</time>
      </trkpt>
      <trkpt lat="41.94119" lon="25.86872">
        <ele>234.6508</ele>
        <time>2022-02-27T09:07:07.611Z</time>
      </trkpt>
      <trkpt lat="41.94115" lon="25.8686">
        <ele>234.861135</ele>
        <time>2022-02-27T09:07:14.629Z</time>
      </trkpt>
      <trkpt lat="41.94111" lon="25.86848">
        <ele>235.06187</ele>
        <time>2022-02-27T09:07:20.681Z</time>
      </trkpt>
      <trkpt lat="41.94106" lon="25.86836">
        <ele>235.276781</ele>
        <time>2022-02-27T09:07:26.627Z</time>
      </trkpt>
      <trkpt lat="41.94102" lon="25.86824">
        <ele>235.472368</ele>
        <time>2022-02-27T09:07:31.667Z</time>
      </trkpt>
      <trkpt lat="41.94098" lon="25.86813">
        <ele>235.670772</ele>
        <time>2022-02-27T09:07:36.608Z</time>
      </trkpt>
      <trkpt lat="41.94094" lon="25.86801">
        <ele>235.882545</ele>
        <time>2022-02-27T09:07:41.636Z</time>
      </trkpt>
      <trkpt lat="41.94091" lon="25.86788">
        <ele>236.092641</ele>
        <time>2022-02-27T09:07:46.609Z</time>
      </trkpt>
      <trkpt lat="41.94088" lon="25.86774">
        <ele>236.319129</ele>
        <time>2022-02-27T09:07:52.632Z</time>
      </trkpt>
      <trkpt lat="41.94085" lon="25.86762">
        <ele>236.513293</ele>
        <time>2022-02-27T09:07:57.610Z</time>
      </trkpt>
      <trkpt lat="41.94083" lon="25.8675">
        <ele>236.713033</ele>
        <time>2022-02-27T09:08:02.632Z</time>
      </trkpt>
      <trkpt lat="41.94081" lon="25.86736">
        <ele>236.938142</ele>
        <time>2022-02-27T09:08:07.617Z</time>
      </trkpt>
      <trkpt lat="41.94079" lon="25.86721">
        <ele>237.176568</ele>
        <time>2022-02-27T09:08:12.629Z</time>
      </trkpt>
      <trkpt lat="41.94078" lon="25.86708">
        <ele>237.379598</ele>
        <time>2022-02-27T09:08:16.617Z</time>
      </trkpt>
      <trkpt lat="41.94077" lon="25.86695">
        <ele>237.585126</ele>
        <time>2022-02-27T09:08:20.632Z</time>
      </trkpt>
      <trkpt lat="41.94077" lon="25.8668">
        <ele>237.532211</ele>
        <time>2022-02-27T09:08:24.609Z</time>
      </trkpt>
      <trkpt lat="41.94076" lon="25.86666">
        <ele>237.413843</ele>
        <time>2022-02-27T09:08:28.623Z</time>
      </trkpt>
      <trkpt lat="41.94076" lon="25.86654">
        <ele>237.312964</ele>
        <time>2022-02-27T09:08:31.608Z</time>
      </trkpt>
      <trkpt lat="41.94077" lon="25.8664">
        <ele>237.194596</ele>
        <time>2022-02-27T09:08:34.609Z</time>
      </trkpt>
      <trkpt lat="41.94077" lon="25.86624">
        <ele>237.066316</ele>
        <time>2022-02-27T09:08:37.618Z</time>
      </trkpt>
      <trkpt lat="41.94079" lon="25.86607">
        <ele>236.921212</ele>
        <time>2022-02-27T09:08:40.620Z</time>
      </trkpt>
      <trkpt lat="41.94081" lon="25.86594">
        <ele>236.814101</ele>
        <time>2022-02-27T09:08:42.612Z</time>
      </trkpt>
      <trkpt lat="41.94083" lon="25.8658">
        <ele>236.698216</ele>
        <time>2022-02-27T09:08:44.613Z</time>
      </trkpt>
      <trkpt lat="41.94086" lon="25.86566">
        <ele>236.575366</ele>
        <time>2022-02-27T09:08:46.616Z</time>
      </trkpt>
      <trkpt lat="41.94089" lon="25.86551">
        <ele>236.442223</ele>
        <time>2022-02-27T09:08:48.621Z</time>
      </trkpt>
      <trkpt lat="41.94094" lon="25.86534">
        <ele>236.294979</ele>
        <time>2022-02-27T09:08:50.627Z</time>
      </trkpt>
      <trkpt lat="41.941" lon="25.86517">
        <ele>236.139915</ele>
        <time>2022-02-27T09:08:52.604Z</time>
      </trkpt>
      <trkpt lat="41.94107" lon="25.865">
        <ele>235.979892</ele>
        <time>2022-02-27T09:08:54.615Z</time>
      </trkpt>
      <trkpt lat="41.94113" lon="25.86482">
        <ele>235.816923</ele>
        <time>2022-02-27T09:08:56.633Z</time>
      </trkpt>
      <trkpt lat="41.94121" lon="25.86464">
        <ele>235.64502</ele>
        <time>2022-02-27T09:08:58.640Z</time>
      </trkpt>
      <trkpt lat="41.94128" lon="25.86445">
        <ele>235.052734</ele>
        <time>2022-02-27T09:09:00.660Z</time>
      </trkpt>
      <trkpt lat="41.94135" lon="25.86426">
        <ele>234.404238</ele>
        <time>2022-02-27T09:09:02.603Z</time>
      </trkpt>
      <trkpt lat="41.94143" lon="25.86406">
        <ele>233.741349</ele>
        <time>2022-02-27T09:09:04.609Z</time>
      </trkpt>
      <trkpt lat="41.9415" lon="25.86386">
        <ele>233.062265</ele>
        <time>2022-02-27T09:09:06.610Z</time>
      </trkpt>
      <trkpt lat="41.94157" lon="25.86366">
        <ele>232.389505</ele>
        <time>2022-02-27T09:09:08.619Z</time>
      </trkpt>
      <trkpt lat="41.94165" lon="25.86346">
        <ele>231.72127</ele>
        <time>2022-02-27T09:09:10.616Z</time>
      </trkpt>
      <trkpt lat="41.94172" lon="25.86327">
        <ele>231.071921</ele>
        <time>2022-02-27T09:09:12.605Z</time>
      </trkpt>
      <trkpt lat="41.94179" lon="25.86308">
        <ele>230.437819</ele>
        <time>2022-02-27T09:09:14.617Z</time>
      </trkpt>
      <trkpt lat="41.94186" lon="25.8629">
        <ele>229.808742</ele>
        <time>2022-02-27T09:09:16.626Z</time>
      </trkpt>
      <trkpt lat="41.94193" lon="25.86272">
        <ele>229.213071</ele>
        <time>2022-02-27T09:09:18.634Z</time>
      </trkpt>
      <trkpt lat="41.942" lon="25.86256">
        <ele>228.660208</ele>
        <time>2022-02-27T09:09:20.610Z</time>
      </trkpt>
      <trkpt lat="41.94206" lon="25.86241">
        <ele>228.448562</ele>
        <time>2022-02-27T09:09:22.647Z</time>
      </trkpt>
      <trkpt lat="41.94213" lon="25.86227">
        <ele>228.648334</ele>
        <time>2022-02-27T09:09:24.621Z</time>
      </trkpt>
      <trkpt lat="41.9422" lon="25.86215">
        <ele>228.839711</ele>
        <time>2022-02-27T09:09:26.615Z</time>
      </trkpt>
      <trkpt lat="41.94227" lon="25.86204">
        <ele>229.01563</ele>
        <time>2022-02-27T09:09:28.664Z</time>
      </trkpt>
      <trkpt lat="41.94233" lon="25.86195">
        <ele>229.173306</ele>
        <time>2022-02-27T09:09:30.608Z</time>
      </trkpt>
      <trkpt lat="41.94241" lon="25.86183">
        <ele>229.372377</ele>
        <time>2022-02-27T09:09:33.613Z</time>
      </trkpt>
      <trkpt lat="41.94248" lon="25.86172">
        <ele>229.558781</ele>
        <time>2022-02-27T09:09:36.622Z</time>
      </trkpt>
      <trkpt lat="41.94256" lon="25.86163">
        <ele>229.724333</ele>
        <time>2022-02-27T09:09:39.651Z</time>
      </trkpt>
      <trkpt lat="41.94263" lon="25.86154">
        <ele>229.885618</ele>
        <time>2022-02-27T09:09:42.613Z</time>
      </trkpt>
      <trkpt lat="41.9427" lon="25.86146">
        <ele>230.041897</ele>
        <time>2022-02-27T09:09:45.622Z</time>
      </trkpt>
      <trkpt lat="41.94278" lon="25.86139">
        <ele>230.206941</ele>
        <time>2022-02-27T09:09:48.618Z</time>
      </trkpt>
      <trkpt lat="41.94286" lon="25.86132">
        <ele>230.368431</ele>
        <time>2022-02-27T09:09:51.629Z</time>
      </trkpt>
      <trkpt lat="41.94294" lon="25.86125">
        <ele>230.521589</ele>
        <time>2022-02-27T09:09:54.645Z</time>
      </trkpt>
      <trkpt lat="41.94304" lon="25.86117">
        <ele>230.710765</ele>
        <time>2022-02-27T09:09:58.606Z</time>
      </trkpt>
      <trkpt lat="41.94314" lon="25.8611">
        <ele>230.903747</ele>
        <time>2022-02-27T09:10:02.608Z</time>
      </trkpt>
      <trkpt lat="41.94324" lon="25.86103">
        <ele>231.08856</ele>
        <time>2022-02-27T09:10:06.616Z</time>
      </trkpt>
      <trkpt lat="41.94334" lon="25.86096">
        <ele>231.277208</ele>
        <time>2022-02-27T09:10:10.621Z</time>
      </trkpt>
      <trkpt lat="41.94343" lon="25.8609">
        <ele>231.50203</ele>
        <time>2022-02-27T09:10:14.640Z</time>
      </trkpt>
      <trkpt lat="41.94352" lon="25.86083">
        <ele>231.774234</ele>
        <time>2022-02-27T09:10:18.652Z</time>
      </trkpt>
      <trkpt lat="41.94362" lon="25.86076">
        <ele>232.052992</ele>
        <time>2022-02-27T09:10:22.618Z</time>
      </trkpt>
      <trkpt lat="41.94372" lon="25.8607">
        <ele>232.322271</ele>
        <time>2022-02-27T09:10:26.621Z</time>
      </trkpt>
      <trkpt lat="41.94381" lon="25.86064">
        <ele>232.595392</ele>
        <time>2022-02-27T09:10:30.629Z</time>
      </trkpt>
      <trkpt lat="41.94389" lon="25.86059">
        <ele>232.834972</ele>
        <time>2022-02-27T09:10:34.619Z</time>
      </trkpt>
      <trkpt lat="41.94399" lon="25.86052">
        <ele>233.11373</ele>
        <time>2022-02-27T09:10:39.638Z</time>
      </trkpt>
      <trkpt lat="41.94409" lon="25.86046">
        <ele>233.3986</ele>
        <time>2022-02-27T09:10:44.624Z</time>
      </trkpt>
      <trkpt lat="41.94419" lon="25.8604">
        <ele>233.675688</ele>
        <time>2022-02-27T09:10:49.618Z</time>
      </trkpt>
      <trkpt lat="41.94428" lon="25.86034">
        <ele>233.942515</ele>
        <time>2022-02-27T09:10:54.626Z</time>
      </trkpt>
      <trkpt lat="41.94438" lon="25.86028">
        <ele>234.215636</ele>
        <time>2022-02-27T09:10:59.630Z</time>
      </trkpt>
      <trkpt lat="41.94447" lon="25.86023">
        <ele>234.48012</ele>
        <time>2022-02-27T09:11:04.614Z</time>
      </trkpt>
      <trkpt lat="41.94457" lon="25.86015">
        <ele>234.758918</ele>
        <time>2022-02-27T09:11:09.613Z</time>
      </trkpt>
      <trkpt lat="41.94466" lon="25.86009">
        <ele>235.020398</ele>
        <time>2022-02-27T09:11:14.628Z</time>
      </trkpt>
      <trkpt lat="41.94475" lon="25.86002">
        <ele>235.31227</ele>
        <time>2022-02-27T09:11:19.659Z</time>
      </trkpt>
      <trkpt lat="41.94484" lon="25.85994">
        <ele>235.570435</ele>
        <time>2022-02-27T09:11:23.618Z</time>
      </trkpt>
      <trkpt lat="41.94493" lon="25.85986">
        <ele>235.846764</ele>
        <time>2022-02-27T09:11:27.610Z</time>
      </trkpt>
      <trkpt lat="41.945" lon="25.85978">
        <ele>236.020909</ele>
        <time>2022-02-27T09:11:30.621Z</time>
      </trkpt>
      <trkpt lat="41.94508" lon="25.85969">
        <ele>236.084166</ele>
        <time>2022-02-27T09:11:33.616Z</time>
      </trkpt>
      <trkpt lat="41.94516" lon="25.85958">
        <ele>236.153365</ele>
        <time>2022-02-27T09:11:36.609Z</time>
      </trkpt>
      <trkpt lat="41.94523" lon="25.8595">
        <ele>236.206738</ele>
        <time>2022-02-27T09:11:38.616Z</time>
      </trkpt>
      <trkpt lat="41.94532" lon="25.85936">
        <ele>236.289682</ele>
        <time>2022-02-27T09:11:41.625Z</time>
      </trkpt>
      <trkpt lat="41.9454" lon="25.85924">
        <ele>236.35799</ele>
        <time>2022-02-27T09:11:43.630Z</time>
      </trkpt>
      <trkpt lat="41.94547" lon="25.8591">
        <ele>236.434386</ele>
        <time>2022-02-27T09:11:45.623Z</time>
      </trkpt>
      <trkpt lat="41.94555" lon="25.85894">
        <ele>236.519522</ele>
        <time>2022-02-27T09:11:47.605Z</time>
      </trkpt>
      <trkpt lat="41.94563" lon="25.85876">
        <ele>236.611928</ele>
        <time>2022-02-27T09:11:49.622Z</time>
      </trkpt>
      <trkpt lat="41.94571" lon="25.85857">
        <ele>236.709143</ele>
        <time>2022-02-27T09:11:51.632Z</time>
      </trkpt>
      <trkpt lat="41.94578" lon="25.85836">
        <ele>236.812029</ele>
        <time>2022-02-27T09:11:53.630Z</time>
      </trkpt>
      <trkpt lat="41.94582" lon="25.85825">
        <ele>236.865653</ele>
        <time>2022-02-27T09:11:54.646Z</time>
      </trkpt>
      <trkpt lat="41.94585" lon="25.85813">
        <ele>236.920268</ele>
        <time>2022-02-27T09:11:55.629Z</time>
      </trkpt>
      <trkpt lat="41.94589" lon="25.85801">
        <ele>236.976719</ele>
        <time>2022-02-27T09:11:56.608Z</time>
      </trkpt>
      <trkpt lat="41.94592" lon="25.85789">
        <ele>237.03362</ele>
        <time>2022-02-27T09:11:57.639Z</time>
      </trkpt>
      <trkpt lat="41.94595" lon="25.85776">
        <ele>236.915588</ele>
        <time>2022-02-27T09:11:58.625Z</time>
      </trkpt>
      <trkpt lat="41.94597" lon="25.85763">
        <ele>236.486151</ele>
        <time>2022-02-27T09:11:59.650Z</time>
      </trkpt>
      <trkpt lat="41.946" lon="25.8575">
        <ele>236.050591</ele>
        <time>2022-02-27T09:12:00.628Z</time>
      </trkpt>
      <trkpt lat="41.94602" lon="25.85737">
        <ele>235.615954</ele>
        <time>2022-02-27T09:12:01.653Z</time>
      </trkpt>
      <trkpt lat="41.94604" lon="25.85722">
        <ele>235.162833</ele>
        <time>2022-02-27T09:12:02.621Z</time>
      </trkpt>
      <trkpt lat="41.94606" lon="25.85709">
        <ele>234.715954</ele>
        <time>2022-02-27T09:12:03.603Z</time>
      </trkpt>
      <trkpt lat="41.94607" lon="25.85694">
        <ele>234.25971</ele>
        <time>2022-02-27T09:12:04.627Z</time>
      </trkpt>
      <trkpt lat="41.94609" lon="25.8568">
        <ele>233.806018</ele>
        <time>2022-02-27T09:12:05.610Z</time>
      </trkpt>
      <trkpt lat="41.9461" lon="25.85666">
        <ele>233.346579</ele>
        <time>2022-02-27T09:12:06.632Z</time>
      </trkpt>
      <trkpt lat="41.94611" lon="25.85651">
        <ele>232.890283</ele>
        <time>2022-02-27T09:12:07.607Z</time>
      </trkpt>
      <trkpt lat="41.94613" lon="25.85637">
        <ele>232.418264</ele>
        <time>2022-02-27T09:12:08.631Z</time>
      </trkpt>
      <trkpt lat="41.94614" lon="25.85622">
        <ele>231.95617</ele>
        <time>2022-02-27T09:12:09.619Z</time>
      </trkpt>
      <trkpt lat="41.94615" lon="25.85608">
        <ele>231.489916</ele>
        <time>2022-02-27T09:12:10.645Z</time>
      </trkpt>
      <trkpt lat="41.94616" lon="25.85594">
        <ele>231.047995</ele>
        <time>2022-02-27T09:12:11.630Z</time>
      </trkpt>
      <trkpt lat="41.94617" lon="25.8558">
        <ele>230.605255</ele>
        <time>2022-02-27T09:12:12.608Z</time>
      </trkpt>
      <trkpt lat="41.94618" lon="25.85566">
        <ele>230.16649</ele>
        <time>2022-02-27T09:12:13.607Z</time>
      </trkpt>
      <trkpt lat="41.94619" lon="25.85553">
        <ele>229.74702</ele>
        <time>2022-02-27T09:12:14.618Z</time>
      </trkpt>
      <trkpt lat="41.9462" lon="25.8554">
        <ele>229.375089</ele>
        <time>2022-02-27T09:12:15.623Z</time>
      </trkpt>
      <trkpt lat="41.94621" lon="25.85528">
        <ele>229.162384</ele>
        <time>2022-02-27T09:12:16.620Z</time>
      </trkpt>
      <trkpt lat="41.94621" lon="25.85515">
        <ele>228.951554</ele>
        <time>2022-02-27T09:12:17.608Z</time>
      </trkpt>
      <trkpt lat="41.94623" lon="25.85492">
        <ele>228.554853</ele>
        <time>2022-02-27T09:12:19.637Z</time>
      </trkpt>
      <trkpt lat="41.94624" lon="25.8547">
        <ele>228.182561</ele>
        <time>2022-02-27T09:12:21.656Z</time>
      </trkpt>
      <trkpt lat="41.94626" lon="25.85448">
        <ele>227.816457</ele>
        <time>2022-02-27T09:12:23.630Z</time>
      </trkpt>
      <trkpt lat="41.94627" lon="25.85428">
        <ele>227.460691</ele>
        <time>2022-02-27T09:12:25.616Z</time>
      </trkpt>
      <trkpt lat="41.94628" lon="25.85407">
        <ele>227.118826</ele>
        <time>2022-02-27T09:12:27.615Z</time>
      </trkpt>
      <trkpt lat="41.9463" lon="25.85388">
        <ele>226.790479</ele>
        <time>2022-02-27T09:12:29.621Z</time>
      </trkpt>
      <trkpt lat="41.9463" lon="25.8537">
        <ele>226.481241</ele>
        <time>2022-02-27T09:12:31.627Z</time>
      </trkpt>
      <trkpt lat="41.94631" lon="25.85352">
        <ele>226.183843</ele>
        <time>2022-02-27T09:12:33.624Z</time>
      </trkpt>
      <trkpt lat="41.94632" lon="25.85336">
        <ele>225.900268</ele>
        <time>2022-02-27T09:12:35.606Z</time>
      </trkpt>
      <trkpt lat="41.94633" lon="25.8532">
        <ele>225.626971</ele>
        <time>2022-02-27T09:12:37.664Z</time>
      </trkpt>
      <trkpt lat="41.94633" lon="25.85304">
        <ele>225.35378</ele>
        <time>2022-02-27T09:12:39.617Z</time>
      </trkpt>
      <trkpt lat="41.94634" lon="25.85288">
        <ele>225.357491</ele>
        <time>2022-02-27T09:12:41.620Z</time>
      </trkpt>
      <trkpt lat="41.94634" lon="25.85272">
        <ele>225.410943</ele>
        <time>2022-02-27T09:12:43.597Z</time>
      </trkpt>
      <trkpt lat="41.94635" lon="25.85257">
        <ele>225.462351</ele>
        <time>2022-02-27T09:12:45.620Z</time>
      </trkpt>
      <trkpt lat="41.94635" lon="25.85242">
        <ele>225.512393</ele>
        <time>2022-02-27T09:12:47.628Z</time>
      </trkpt>
      <trkpt lat="41.94635" lon="25.85228">
        <ele>225.559383</ele>
        <time>2022-02-27T09:12:49.634Z</time>
      </trkpt>
      <trkpt lat="41.94636" lon="25.85215">
        <ele>225.604684</ele>
        <time>2022-02-27T09:12:51.629Z</time>
      </trkpt>
      <trkpt lat="41.94635" lon="25.85201">
        <ele>225.650316</ele>
        <time>2022-02-27T09:12:53.621Z</time>
      </trkpt>
      <trkpt lat="41.94636" lon="25.85189">
        <ele>225.692576</ele>
        <time>2022-02-27T09:12:55.626Z</time>
      </trkpt>
      <trkpt lat="41.94636" lon="25.85171">
        <ele>225.751403</ele>
        <time>2022-02-27T09:12:58.653Z</time>
      </trkpt>
      <trkpt lat="41.94636" lon="25.85156">
        <ele>225.802443</ele>
        <time>2022-02-27T09:13:01.610Z</time>
      </trkpt>
      <trkpt lat="41.94636" lon="25.8514">
        <ele>225.858558</ele>
        <time>2022-02-27T09:13:04.653Z</time>
      </trkpt>
      <trkpt lat="41.94636" lon="25.85123">
        <ele>225.912976</ele>
        <time>2022-02-27T09:13:07.601Z</time>
      </trkpt>
      <trkpt lat="41.94636" lon="25.8511">
        <ele>225.959281</ele>
        <time>2022-02-27T09:13:10.646Z</time>
      </trkpt>
      <trkpt lat="41.94637" lon="25.85093">
        <ele>226.016081</ele>
        <time>2022-02-27T09:13:13.611Z</time>
      </trkpt>
      <trkpt lat="41.94637" lon="25.85076">
        <ele>226.072235</ele>
        <time>2022-02-27T09:13:16.656Z</time>
      </trkpt>
      <trkpt lat="41.94637" lon="25.85059">
        <ele>226.141797</ele>
        <time>2022-02-27T09:13:19.604Z</time>
      </trkpt>
      <trkpt lat="41.94637" lon="25.85046">
        <ele>226.321432</ele>
        <time>2022-02-27T09:13:21.616Z</time>
      </trkpt>
      <trkpt lat="41.94637" lon="25.85029">
        <ele>226.578965</ele>
        <time>2022-02-27T09:13:24.631Z</time>
      </trkpt>
      <trkpt lat="41.94637" lon="25.85017">
        <ele>226.758512</ele>
        <time>2022-02-27T09:13:26.626Z</time>
      </trkpt>
      <trkpt lat="41.94637" lon="25.84999">
        <ele>227.013171</ele>
        <time>2022-02-27T09:13:29.613Z</time>
      </trkpt>
      <trkpt lat="41.94638" lon="25.84983">
        <ele>227.248762</ele>
        <time>2022-02-27T09:13:32.625Z</time>
      </trkpt>
      <trkpt lat="41.94638" lon="25.84968">
        <ele>227.468175</ele>
        <time>2022-02-27T09:13:35.623Z</time>
      </trkpt>
      <trkpt lat="41.94638" lon="25.84952">
        <ele>227.70665</ele>
        <time>2022-02-27T09:13:38.628Z</time>
      </trkpt>
      <trkpt lat="41.94638" lon="25.84936">
        <ele>227.942117</ele>
        <time>2022-02-27T09:13:41.633Z</time>
      </trkpt>
      <trkpt lat="41.94638" lon="25.84923">
        <ele>228.131955</ele>
        <time>2022-02-27T09:13:44.628Z</time>
      </trkpt>
      <trkpt lat="41.94638" lon="25.84909">
        <ele>228.349835</ele>
        <time>2022-02-27T09:13:47.613Z</time>
      </trkpt>
      <trkpt lat="41.94638" lon="25.84893">
        <ele>228.57507</ele>
        <time>2022-02-27T09:13:50.602Z</time>
      </trkpt>
      <trkpt lat="41.94637" lon="25.84879">
        <ele>228.784273</ele>
        <time>2022-02-27T09:13:53.624Z</time>
      </trkpt>
      <trkpt lat="41.94637" lon="25.84866">
        <ele>228.978526</ele>
        <time>2022-02-27T09:13:56.623Z</time>
      </trkpt>
      <trkpt lat="41.94637" lon="25.84851">
        <ele>229.196765</ele>
        <time>2022-02-27T09:13:59.619Z</time>
      </trkpt>
      <trkpt lat="41.94636" lon="25.84837">
        <ele>229.409792</ele>
        <time>2022-02-27T09:14:02.619Z</time>
      </trkpt>
      <trkpt lat="41.94635" lon="25.84822">
        <ele>229.627022</ele>
        <time>2022-02-27T09:14:05.617Z</time>
      </trkpt>
      <trkpt lat="41.94633" lon="25.84806">
        <ele>229.563862</ele>
        <time>2022-02-27T09:14:08.611Z</time>
      </trkpt>
      <trkpt lat="41.94631" lon="25.84791">
        <ele>229.395467</ele>
        <time>2022-02-27T09:14:11.603Z</time>
      </trkpt>
      <trkpt lat="41.94629" lon="25.84776">
        <ele>229.232063</ele>
        <time>2022-02-27T09:14:14.618Z</time>
      </trkpt>
      <trkpt lat="41.94626" lon="25.84762">
        <ele>229.074309</ele>
        <time>2022-02-27T09:14:17.591Z</time>
      </trkpt>
      <trkpt lat="41.94624" lon="25.84748">
        <ele>228.917602</ele>
        <time>2022-02-27T09:14:20.699Z</time>
      </trkpt>
      <trkpt lat="41.9462" lon="25.84733">
        <ele>228.753154</ele>
        <time>2022-02-27T09:14:23.622Z</time>
      </trkpt>
      <trkpt lat="41.94617" lon="25.84718">
        <ele>228.578196</ele>
        <time>2022-02-27T09:14:26.620Z</time>
      </trkpt>
      <trkpt lat="41.94613" lon="25.84703">
        <ele>228.407257</ele>
        <time>2022-02-27T09:14:29.628Z</time>
      </trkpt>
      <trkpt lat="41.94609" lon="25.84688">
        <ele>228.239377</ele>
        <time>2022-02-27T09:14:32.602Z</time>
      </trkpt>
      <trkpt lat="41.94606" lon="25.84674">
        <ele>228.082414</ele>
        <time>2022-02-27T09:14:35.633Z</time>
      </trkpt>
      <trkpt lat="41.94603" lon="25.84661">
        <ele>227.929682</ele>
        <time>2022-02-27T09:14:38.611Z</time>
      </trkpt>
      <trkpt lat="41.94599" lon="25.84648">
        <ele>227.788629</ele>
        <time>2022-02-27T09:14:41.608Z</time>
      </trkpt>
      <trkpt lat="41.94596" lon="25.84636">
        <ele>227.647575</ele>
        <time>2022-02-27T09:14:44.629Z</time>
      </trkpt>
      <trkpt lat="41.94593" lon="25.84624">
        <ele>227.513514</ele>
        <time>2022-02-27T09:14:47.612Z</time>
      </trkpt>
      <trkpt lat="41.9459" lon="25.84613">
        <ele>227.379453</ele>
        <time>2022-02-27T09:14:50.621Z</time>
      </trkpt>
      <trkpt lat="41.94587" lon="25.84601">
        <ele>227.245392</ele>
        <time>2022-02-27T09:14:53.636Z</time>
      </trkpt>
      <trkpt lat="41.94584" lon="25.84589">
        <ele>227.108357</ele>
        <time>2022-02-27T09:14:56.650Z</time>
      </trkpt>
      <trkpt lat="41.94581" lon="25.84577">
        <ele>227.274896</ele>
        <time>2022-02-27T09:14:59.686Z</time>
      </trkpt>
      <trkpt lat="41.94578" lon="25.84565">
        <ele>227.52778</ele>
        <time>2022-02-27T09:15:02.637Z</time>
      </trkpt>
      <trkpt lat="41.94574" lon="25.84549">
        <ele>227.835912</ele>
        <time>2022-02-27T09:15:06.625Z</time>
      </trkpt>
      <trkpt lat="41.9457" lon="25.84535">
        <ele>228.137946</ele>
        <time>2022-02-27T09:15:10.651Z</time>
      </trkpt>
      <trkpt lat="41.94566" lon="25.8452">
        <ele>228.430543</ele>
        <time>2022-02-27T09:15:14.625Z</time>
      </trkpt>
      <trkpt lat="41.94563" lon="25.84506">
        <ele>228.723205</ele>
        <time>2022-02-27T09:15:18.618Z</time>
      </trkpt>
      <trkpt lat="41.94559" lon="25.84491">
        <ele>229.030355</ele>
        <time>2022-02-27T09:15:22.630Z</time>
      </trkpt>
      <trkpt lat="41.94555" lon="25.84476">
        <ele>229.330331</ele>
        <time>2022-02-27T09:15:26.619Z</time>
      </trkpt>
      <trkpt lat="41.94551" lon="25.84462">
        <ele>229.627649</ele>
        <time>2022-02-27T09:15:30.616Z</time>
      </trkpt>
      <trkpt lat="41.94548" lon="25.84448">
        <ele>229.918487</ele>
        <time>2022-02-27T09:15:34.614Z</time>
      </trkpt>
      <trkpt lat="41.94544" lon="25.84433">
        <ele>230.223813</ele>
        <time>2022-02-27T09:15:38.641Z</time>
      </trkpt>
      <trkpt lat="41.9454" lon="25.84417">
        <ele>230.530625</ele>
        <time>2022-02-27T09:15:42.617Z</time>
      </trkpt>
      <trkpt lat="41.94537" lon="25.84406">
        <ele>230.773503</ele>
        <time>2022-02-27T09:15:45.627Z</time>
      </trkpt>
      <trkpt lat="41.94535" lon="25.84394">
        <ele>231.008224</ele>
        <time>2022-02-27T09:15:48.621Z</time>
      </trkpt>
      <trkpt lat="41.94531" lon="25.84379">
        <ele>231.304735</ele>
        <time>2022-02-27T09:15:52.624Z</time>
      </trkpt>
      <trkpt lat="41.94527" lon="25.84365">
        <ele>231.602882</ele>
        <time>2022-02-27T09:15:56.616Z</time>
      </trkpt>
      <trkpt lat="41.94524" lon="25.8435">
        <ele>231.890967</ele>
        <time>2022-02-27T09:16:00.653Z</time>
      </trkpt>
      <trkpt lat="41.94521" lon="25.84335">
        <ele>232.173052</ele>
        <time>2022-02-27T09:16:04.623Z</time>
      </trkpt>
      <trkpt lat="41.94518" lon="25.84321">
        <ele>232.427589</ele>
        <time>2022-02-27T09:16:08.628Z</time>
      </trkpt>
      <trkpt lat="41.94514" lon="25.84309">
        <ele>232.663101</ele>
        <time>2022-02-27T09:16:12.641Z</time>
      </trkpt>
      <trkpt lat="41.94512" lon="25.84297">
        <ele>232.893217</ele>
        <time>2022-02-27T09:16:16.623Z</time>
      </trkpt>
      <trkpt lat="41.94509" lon="25.84284">
        <ele>233.124027</ele>
        <time>2022-02-27T09:16:20.621Z</time>
      </trkpt>
      <trkpt lat="41.94506" lon="25.84272">
        <ele>233.365573</ele>
        <time>2022-02-27T09:16:24.605Z</time>
      </trkpt>
      <trkpt lat="41.94502" lon="25.84257">
        <ele>233.633997</ele>
        <time>2022-02-27T09:16:29.627Z</time>
      </trkpt>
      <trkpt lat="41.945" lon="25.84246">
        <ele>233.851388</ele>
        <time>2022-02-27T09:16:33.657Z</time>
      </trkpt>
      <trkpt lat="41.94496" lon="25.84233">
        <ele>234.0988</ele>
        <time>2022-02-27T09:16:37.634Z</time>
      </trkpt>
      <trkpt lat="41.94493" lon="25.84219">
        <ele>234.359187</ele>
        <time>2022-02-27T09:16:41.637Z</time>
      </trkpt>
      <trkpt lat="41.94491" lon="25.84206">
        <ele>234.593432</ele>
        <time>2022-02-27T09:16:45.605Z</time>
      </trkpt>
      <trkpt lat="41.94487" lon="25.84193">
        <ele>234.849964</ele>
        <time>2022-02-27T09:16:49.614Z</time>
      </trkpt>
      <trkpt lat="41.94484" lon="25.8418">
        <ele>235.08966</ele>
        <time>2022-02-27T09:16:53.630Z</time>
      </trkpt>
      <trkpt lat="41.9448" lon="25.84168">
        <ele>235.321754</ele>
        <time>2022-02-27T09:16:57.627Z</time>
      </trkpt>
      <trkpt lat="41.94477" lon="25.84157">
        <ele>235.541343</ele>
        <time>2022-02-27T09:17:01.648Z</time>
      </trkpt>
      <trkpt lat="41.94475" lon="25.84144">
        <ele>235.76974</ele>
        <time>2022-02-27T09:17:05.619Z</time>
      </trkpt>
      <trkpt lat="41.94472" lon="25.84132">
        <ele>236.008476</ele>
        <time>2022-02-27T09:17:09.633Z</time>
      </trkpt>
      <trkpt lat="41.9447" lon="25.8412">
        <ele>236.235345</ele>
        <time>2022-02-27T09:17:13.616Z</time>
      </trkpt>
      <trkpt lat="41.94467" lon="25.84106">
        <ele>236.51141</ele>
        <time>2022-02-27T09:17:18.616Z</time>
      </trkpt>
      <trkpt lat="41.94465" lon="25.84092">
        <ele>236.788955</ele>
        <time>2022-02-27T09:17:23.668Z</time>
      </trkpt>
      <trkpt lat="41.94463" lon="25.84079">
        <ele>237.031657</ele>
        <time>2022-02-27T09:17:28.631Z</time>
      </trkpt>
      <trkpt lat="41.94461" lon="25.84065">
        <ele>237.308711</ele>
        <time>2022-02-27T09:17:33.609Z</time>
      </trkpt>
      <trkpt lat="41.94459" lon="25.84053">
        <ele>237.550426</ele>
        <time>2022-02-27T09:17:37.629Z</time>
      </trkpt>
      <trkpt lat="41.94458" lon="25.8404">
        <ele>237.796547</ele>
        <time>2022-02-27T09:17:41.624Z</time>
      </trkpt>
      <trkpt lat="41.94456" lon="25.84026">
        <ele>238.07502</ele>
        <time>2022-02-27T09:17:46.642Z</time>
      </trkpt>
      <trkpt lat="41.94454" lon="25.84013">
        <ele>238.331385</ele>
        <time>2022-02-27T09:17:50.619Z</time>
      </trkpt>
      <trkpt lat="41.94452" lon="25.84001">
        <ele>238.568458</ele>
        <time>2022-02-27T09:17:54.629Z</time>
      </trkpt>
      <trkpt lat="41.9445" lon="25.83986">
        <ele>238.854029</ele>
        <time>2022-02-27T09:17:59.628Z</time>
      </trkpt>
      <trkpt lat="41.94448" lon="25.83974">
        <ele>239.09009</ele>
        <time>2022-02-27T09:18:03.618Z</time>
      </trkpt>
      <trkpt lat="41.94446" lon="25.83962">
        <ele>239.327708</ele>
        <time>2022-02-27T09:18:07.628Z</time>
      </trkpt>
      <trkpt lat="41.94444" lon="25.83949">
        <ele>239.578419</ele>
        <time>2022-02-27T09:18:11.611Z</time>
      </trkpt>
      <trkpt lat="41.94442" lon="25.83935">
        <ele>239.848448</ele>
        <time>2022-02-27T09:18:15.639Z</time>
      </trkpt>
      <trkpt lat="41.94441" lon="25.83921">
        <ele>240.127956</ele>
        <time>2022-02-27T09:18:19.652Z</time>
      </trkpt>
      <trkpt lat="41.94439" lon="25.83906">
        <ele>240.403279</ele>
        <time>2022-02-27T09:18:23.632Z</time>
      </trkpt>
      <trkpt lat="41.94437" lon="25.83894">
        <ele>240.656429</ele>
        <time>2022-02-27T09:18:27.645Z</time>
      </trkpt>
      <trkpt lat="41.94435" lon="25.8388">
        <ele>240.761256</ele>
        <time>2022-02-27T09:18:31.628Z</time>
      </trkpt>
      <trkpt lat="41.94433" lon="25.83866">
        <ele>240.807504</ele>
        <time>2022-02-27T09:18:35.610Z</time>
      </trkpt>
      <trkpt lat="41.94431" lon="25.83853">
        <ele>240.851428</ele>
        <time>2022-02-27T09:18:39.636Z</time>
      </trkpt>
      <trkpt lat="41.94429" lon="25.83839">
        <ele>240.897075</ele>
        <time>2022-02-27T09:18:43.625Z</time>
      </trkpt>
      <trkpt lat="41.94427" lon="25.83826">
        <ele>240.940227</ele>
        <time>2022-02-27T09:18:47.650Z</time>
      </trkpt>
      <trkpt lat="41.94425" lon="25.83812">
        <ele>240.989314</ele>
        <time>2022-02-27T09:18:52.624Z</time>
      </trkpt>
      <trkpt lat="41.94422" lon="25.83798">
        <ele>241.033793</ele>
        <time>2022-02-27T09:18:56.621Z</time>
      </trkpt>
      <trkpt lat="41.94421" lon="25.83783">
        <ele>241.08402</ele>
        <time>2022-02-27T09:19:00.618Z</time>
      </trkpt>
      <trkpt lat="41.94419" lon="25.83771">
        <ele>241.12542</ele>
        <time>2022-02-27T09:19:03.650Z</time>
      </trkpt>
      <trkpt lat="41.94418" lon="25.83759">
        <ele>241.164992</ele>
        <time>2022-02-27T09:19:06.610Z</time>
      </trkpt>
      <trkpt lat="41.94415" lon="25.83743">
        <ele>241.21726</ele>
        <time>2022-02-27T09:19:10.628Z</time>
      </trkpt>
      <trkpt lat="41.94413" lon="25.83727">
        <ele>241.269564</ele>
        <time>2022-02-27T09:19:14.616Z</time>
      </trkpt>
      <trkpt lat="41.94411" lon="25.83715">
        <ele>241.312158</ele>
        <time>2022-02-27T09:19:17.624Z</time>
      </trkpt>
      <trkpt lat="41.94409" lon="25.83701">
        <ele>241.356594</ele>
        <time>2022-02-27T09:19:20.665Z</time>
      </trkpt>
      <trkpt lat="41.94407" lon="25.83687">
        <ele>241.40265</ele>
        <time>2022-02-27T09:19:23.640Z</time>
      </trkpt>
      <trkpt lat="41.94405" lon="25.83673">
        <ele>241.449852</ele>
        <time>2022-02-27T09:19:26.607Z</time>
      </trkpt>
      <trkpt lat="41.94402" lon="25.83658">
        <ele>241.501837</ele>
        <time>2022-02-27T09:19:29.639Z</time>
      </trkpt>
      <trkpt lat="41.944" lon="25.83641">
        <ele>241.326748</ele>
        <time>2022-02-27T09:19:32.614Z</time>
      </trkpt>
      <trkpt lat="41.94397" lon="25.83624">
        <ele>241.059615</ele>
        <time>2022-02-27T09:19:35.637Z</time>
      </trkpt>
      <trkpt lat="41.94395" lon="25.83608">
        <ele>240.812319</ele>
        <time>2022-02-27T09:19:38.622Z</time>
      </trkpt>
      <trkpt lat="41.94393" lon="25.83593">
        <ele>240.569969</ele>
        <time>2022-02-27T09:19:41.635Z</time>
      </trkpt>
      <trkpt lat="41.94391" lon="25.83577">
        <ele>240.329868</ele>
        <time>2022-02-27T09:19:44.615Z</time>
      </trkpt>
      <trkpt lat="41.94389" lon="25.83562">
        <ele>240.088233</ele>
        <time>2022-02-27T09:19:47.622Z</time>
      </trkpt>
      <trkpt lat="41.94387" lon="25.83547">
        <ele>239.859155</ele>
        <time>2022-02-27T09:19:50.633Z</time>
      </trkpt>
      <trkpt lat="41.94386" lon="25.83533">
        <ele>239.627384</ele>
        <time>2022-02-27T09:19:53.659Z</time>
      </trkpt>
      <trkpt lat="41.94385" lon="25.83518">
        <ele>239.395987</ele>
        <time>2022-02-27T09:19:56.650Z</time>
      </trkpt>
      <trkpt lat="41.94384" lon="25.83504">
        <ele>239.183271</ele>
        <time>2022-02-27T09:19:59.656Z</time>
      </trkpt>
      <trkpt lat="41.94384" lon="25.83491">
        <ele>238.982</ele>
        <time>2022-02-27T09:20:02.625Z</time>
      </trkpt>
      <trkpt lat="41.94384" lon="25.83475">
        <ele>238.735874</ele>
        <time>2022-02-27T09:20:06.607Z</time>
      </trkpt>
      <trkpt lat="41.94384" lon="25.83459">
        <ele>238.491163</ele>
        <time>2022-02-27T09:20:10.624Z</time>
      </trkpt>
      <trkpt lat="41.94383" lon="25.83447">
        <ele>238.30382</ele>
        <time>2022-02-27T09:20:13.654Z</time>
      </trkpt>
      <trkpt lat="41.94383" lon="25.83433">
        <ele>238.077816</ele>
        <time>2022-02-27T09:20:16.623Z</time>
      </trkpt>
      <trkpt lat="41.94383" lon="25.83417">
        <ele>237.833167</ele>
        <time>2022-02-27T09:20:19.622Z</time>
      </trkpt>
      <trkpt lat="41.94384" lon="25.834">
        <ele>237.896962</ele>
        <time>2022-02-27T09:20:22.611Z</time>
      </trkpt>
      <trkpt lat="41.94383" lon="25.83383">
        <ele>238.057968</ele>
        <time>2022-02-27T09:20:25.626Z</time>
      </trkpt>
      <trkpt lat="41.94382" lon="25.83366">
        <ele>238.221848</ele>
        <time>2022-02-27T09:20:28.617Z</time>
      </trkpt>
      <trkpt lat="41.94382" lon="25.83349">
        <ele>238.379047</ele>
        <time>2022-02-27T09:20:31.611Z</time>
      </trkpt>
      <trkpt lat="41.94381" lon="25.83332">
        <ele>238.535409</ele>
        <time>2022-02-27T09:20:34.638Z</time>
      </trkpt>
      <trkpt lat="41.94381" lon="25.8332">
        <ele>238.654196</ele>
        <time>2022-02-27T09:20:36.627Z</time>
      </trkpt>
      <trkpt lat="41.9438" lon="25.83307">
        <ele>238.771908</ele>
        <time>2022-02-27T09:20:38.619Z</time>
      </trkpt>
      <trkpt lat="41.9438" lon="25.83289">
        <ele>238.946127</ele>
        <time>2022-02-27T09:20:41.643Z</time>
      </trkpt>
      <trkpt lat="41.94379" lon="25.83276">
        <ele>239.067658</ele>
        <time>2022-02-27T09:20:43.631Z</time>
      </trkpt>
      <trkpt lat="41.94379" lon="25.83263">
        <ele>239.18443</ele>
        <time>2022-02-27T09:20:45.617Z</time>
      </trkpt>
      <trkpt lat="41.94379" lon="25.83245">
        <ele>239.352857</ele>
        <time>2022-02-27T09:20:48.615Z</time>
      </trkpt>
      <trkpt lat="41.94379" lon="25.83233">
        <ele>239.469548</ele>
        <time>2022-02-27T09:20:50.612Z</time>
      </trkpt>
      <trkpt lat="41.94378" lon="25.83221">
        <ele>239.586382</ele>
        <time>2022-02-27T09:20:52.636Z</time>
      </trkpt>
      <trkpt lat="41.94378" lon="25.83208">
        <ele>239.704012</ele>
        <time>2022-02-27T09:20:54.624Z</time>
      </trkpt>
      <trkpt lat="41.94378" lon="25.83196">
        <ele>239.822617</ele>
        <time>2022-02-27T09:20:56.617Z</time>
      </trkpt>
      <trkpt lat="41.94377" lon="25.83183">
        <ele>239.94133</ele>
        <time>2022-02-27T09:20:58.621Z</time>
      </trkpt>
      <trkpt lat="41.94377" lon="25.83171">
        <ele>240.053589</ele>
        <time>2022-02-27T09:21:00.673Z</time>
      </trkpt>
      <trkpt lat="41.94376" lon="25.83153">
        <ele>240.165607</ele>
        <time>2022-02-27T09:21:03.619Z</time>
      </trkpt>
      <trkpt lat="41.94375" lon="25.83136">
        <ele>240.276498</ele>
        <time>2022-02-27T09:21:06.618Z</time>
      </trkpt>
      <trkpt lat="41.94375" lon="25.83119">
        <ele>240.387282</ele>
        <time>2022-02-27T09:21:09.649Z</time>
      </trkpt>
      <trkpt lat="41.94374" lon="25.83102">
        <ele>240.493011</ele>
        <time>2022-02-27T09:21:12.631Z</time>
      </trkpt>
      <trkpt lat="41.94373" lon="25.83087">
        <ele>240.593699</ele>
        <time>2022-02-27T09:21:15.626Z</time>
      </trkpt>
      <trkpt lat="41.94372" lon="25.83071">
        <ele>240.695458</ele>
        <time>2022-02-27T09:21:18.618Z</time>
      </trkpt>
      <trkpt lat="41.94372" lon="25.83055">
        <ele>240.796667</ele>
        <time>2022-02-27T09:21:21.618Z</time>
      </trkpt>
      <trkpt lat="41.94371" lon="25.83039">
        <ele>240.89655</ele>
        <time>2022-02-27T09:21:24.630Z</time>
      </trkpt>
      <trkpt lat="41.9437" lon="25.83024">
        <ele>240.996601</ele>
        <time>2022-02-27T09:21:27.626Z</time>
      </trkpt>
      <trkpt lat="41.94369" lon="25.83008">
        <ele>241.099086</ele>
        <time>2022-02-27T09:21:30.616Z</time>
      </trkpt>
      <trkpt lat="41.94369" lon="25.82992">
        <ele>241.199608</ele>
        <time>2022-02-27T09:21:33.616Z</time>
      </trkpt>
      <trkpt lat="41.94368" lon="25.82977">
        <ele>241.297044</ele>
        <time>2022-02-27T09:21:36.630Z</time>
      </trkpt>
      <trkpt lat="41.94367" lon="25.82961">
        <ele>241.397094</ele>
        <time>2022-02-27T09:21:39.616Z</time>
      </trkpt>
      <trkpt lat="41.94367" lon="25.82947">
        <ele>241.486124</ele>
        <time>2022-02-27T09:21:42.647Z</time>
      </trkpt>
      <trkpt lat="41.94365" lon="25.82934">
        <ele>241.572327</ele>
        <time>2022-02-27T09:21:45.657Z</time>
      </trkpt>
      <trkpt lat="41.94365" lon="25.8292">
        <ele>241.776208</ele>
        <time>2022-02-27T09:21:48.623Z</time>
      </trkpt>
      <trkpt lat="41.94364" lon="25.82905">
        <ele>242.034783</ele>
        <time>2022-02-27T09:21:51.637Z</time>
      </trkpt>
      <trkpt lat="41.94363" lon="25.8289">
        <ele>242.286606</ele>
        <time>2022-02-27T09:21:54.615Z</time>
      </trkpt>
      <trkpt lat="41.94363" lon="25.82877">
        <ele>242.513599</ele>
        <time>2022-02-27T09:21:57.636Z</time>
      </trkpt>
      <trkpt lat="41.94362" lon="25.82864">
        <ele>242.742513</ele>
        <time>2022-02-27T09:22:00.663Z</time>
      </trkpt>
      <trkpt lat="41.94362" lon="25.82852">
        <ele>242.959208</ele>
        <time>2022-02-27T09:22:03.629Z</time>
      </trkpt>
      <trkpt lat="41.94361" lon="25.82836">
        <ele>243.228024</ele>
        <time>2022-02-27T09:22:07.619Z</time>
      </trkpt>
      <trkpt lat="41.94361" lon="25.8282">
        <ele>243.508755</ele>
        <time>2022-02-27T09:22:11.683Z</time>
      </trkpt>
      <trkpt lat="41.9436" lon="25.82807">
        <ele>243.73968</ele>
        <time>2022-02-27T09:22:14.615Z</time>
      </trkpt>
      <trkpt lat="41.94359" lon="25.82793">
        <ele>243.972927</ele>
        <time>2022-02-27T09:22:17.666Z</time>
      </trkpt>
      <trkpt lat="41.94358" lon="25.82781">
        <ele>244.187782</ele>
        <time>2022-02-27T09:22:20.629Z</time>
      </trkpt>
      <trkpt lat="41.94356" lon="25.82769">
        <ele>244.397225</ele>
        <time>2022-02-27T09:22:23.629Z</time>
      </trkpt>
      <trkpt lat="41.94354" lon="25.82754">
        <ele>244.664654</ele>
        <time>2022-02-27T09:22:27.632Z</time>
      </trkpt>
      <trkpt lat="41.94351" lon="25.82739">
        <ele>244.923654</ele>
        <time>2022-02-27T09:22:31.630Z</time>
      </trkpt>
      <trkpt lat="41.94348" lon="25.82726">
        <ele>245.164109</ele>
        <time>2022-02-27T09:22:35.620Z</time>
      </trkpt>
      <trkpt lat="41.94345" lon="25.82713">
        <ele>245.406937</ele>
        <time>2022-02-27T09:22:39.639Z</time>
      </trkpt>
      <trkpt lat="41.94341" lon="25.827">
        <ele>245.644905</ele>
        <time>2022-02-27T09:22:43.640Z</time>
      </trkpt>
      <trkpt lat="41.94336" lon="25.82688">
        <ele>245.857677</ele>
        <time>2022-02-27T09:22:47.658Z</time>
      </trkpt>
      <trkpt lat="41.94331" lon="25.82677">
        <ele>246.034519</ele>
        <time>2022-02-27T09:22:51.616Z</time>
      </trkpt>
      <trkpt lat="41.94327" lon="25.82666">
        <ele>246.208992</ele>
        <time>2022-02-27T09:22:55.632Z</time>
      </trkpt>
      <trkpt lat="41.94321" lon="25.82654">
        <ele>246.402435</ele>
        <time>2022-02-27T09:23:00.620Z</time>
      </trkpt>
      <trkpt lat="41.94315" lon="25.82641">
        <ele>246.602262</ele>
        <time>2022-02-27T09:23:06.617Z</time>
      </trkpt>
      <trkpt lat="41.94309" lon="25.82631">
        <ele>246.768299</ele>
        <time>2022-02-27T09:23:11.625Z</time>
      </trkpt>
      <trkpt lat="41.94304" lon="25.82621">
        <ele>246.948339</ele>
        <time>2022-02-27T09:23:16.635Z</time>
      </trkpt>
      <trkpt lat="41.94297" lon="25.82609">
        <ele>247.148997</ele>
        <time>2022-02-27T09:23:22.620Z</time>
      </trkpt>
      <trkpt lat="41.94291" lon="25.82597">
        <ele>247.337714</ele>
        <time>2022-02-27T09:23:27.622Z</time>
      </trkpt>
      <trkpt lat="41.94285" lon="25.82587">
        <ele>247.513617</ele>
        <time>2022-02-27T09:23:32.656Z</time>
      </trkpt>
      <trkpt lat="41.94279" lon="25.82576">
        <ele>247.690458</ele>
        <time>2022-02-27T09:23:37.635Z</time>
      </trkpt>
      <trkpt lat="41.94274" lon="25.82566">
        <ele>247.857505</ele>
        <time>2022-02-27T09:23:42.628Z</time>
      </trkpt>
      <trkpt lat="41.94269" lon="25.82556">
        <ele>248.022433</ele>
        <time>2022-02-27T09:23:47.628Z</time>
      </trkpt>
      <trkpt lat="41.94262" lon="25.82546">
        <ele>248.206841</ele>
        <time>2022-02-27T09:23:53.619Z</time>
      </trkpt>
      <trkpt lat="41.94257" lon="25.82535">
        <ele>248.376074</ele>
        <time>2022-02-27T09:23:58.618Z</time>
      </trkpt>
      <trkpt lat="41.94251" lon="25.82526">
        <ele>248.546496</ele>
        <time>2022-02-27T09:24:03.635Z</time>
      </trkpt>
      <trkpt lat="41.94245" lon="25.82515">
        <ele>248.730879</ele>
        <time>2022-02-27T09:24:09.627Z</time>
      </trkpt>
      <trkpt lat="41.9424" lon="25.82505">
        <ele>248.901172</ele>
        <time>2022-02-27T09:24:14.676Z</time>
      </trkpt>
      <trkpt lat="41.94233" lon="25.82492">
        <ele>249.05617</ele>
        <time>2022-02-27T09:24:19.612Z</time>
      </trkpt>
      <trkpt lat="41.94228" lon="25.82482">
        <ele>249.066378</ele>
        <time>2022-02-27T09:24:24.631Z</time>
      </trkpt>
      <trkpt lat="41.94222" lon="25.8247">
        <ele>249.07849</ele>
        <time>2022-02-27T09:24:29.616Z</time>
      </trkpt>
      <trkpt lat="41.94215" lon="25.82459">
        <ele>249.09035</ele>
        <time>2022-02-27T09:24:34.628Z</time>
      </trkpt>
      <trkpt lat="41.94208" lon="25.82448">
        <ele>249.10161</ele>
        <time>2022-02-27T09:24:38.655Z</time>
      </trkpt>
      <trkpt lat="41.94202" lon="25.82437">
        <ele>249.112998</ele>
        <time>2022-02-27T09:24:42.632Z</time>
      </trkpt>
      <trkpt lat="41.94196" lon="25.82425">
        <ele>249.12498</ele>
        <time>2022-02-27T09:24:46.627Z</time>
      </trkpt>
      <trkpt lat="41.94189" lon="25.82415">
        <ele>249.135856</ele>
        <time>2022-02-27T09:24:49.638Z</time>
      </trkpt>
      <trkpt lat="41.94183" lon="25.82405">
        <ele>249.146589</ele>
        <time>2022-02-27T09:24:52.613Z</time>
      </trkpt>
      <trkpt lat="41.94177" lon="25.82394">
        <ele>249.157781</ele>
        <time>2022-02-27T09:24:55.682Z</time>
      </trkpt>
      <trkpt lat="41.94171" lon="25.82383">
        <ele>249.169038</ele>
        <time>2022-02-27T09:24:58.660Z</time>
      </trkpt>
      <trkpt lat="41.94165" lon="25.82372">
        <ele>249.179966</ele>
        <time>2022-02-27T09:25:01.609Z</time>
      </trkpt>
      <trkpt lat="41.9416" lon="25.82361">
        <ele>249.191044</ele>
        <time>2022-02-27T09:25:04.633Z</time>
      </trkpt>
      <trkpt lat="41.94154" lon="25.82349">
        <ele>249.202389</ele>
        <time>2022-02-27T09:25:07.624Z</time>
      </trkpt>
      <trkpt lat="41.94149" lon="25.82337">
        <ele>249.214248</ele>
        <time>2022-02-27T09:25:10.623Z</time>
      </trkpt>
      <trkpt lat="41.94144" lon="25.82325">
        <ele>249.225855</ele>
        <time>2022-02-27T09:25:13.611Z</time>
      </trkpt>
      <trkpt lat="41.94138" lon="25.82311">
        <ele>249.238234</ele>
        <time>2022-02-27T09:25:16.619Z</time>
      </trkpt>
      <trkpt lat="41.94133" lon="25.82297">
        <ele>249.251341</ele>
        <time>2022-02-27T09:25:19.625Z</time>
      </trkpt>
      <trkpt lat="41.94128" lon="25.82282">
        <ele>249.1096</ele>
        <time>2022-02-27T09:25:22.632Z</time>
      </trkpt>
      <trkpt lat="41.94123" lon="25.82266">
        <ele>248.969396</ele>
        <time>2022-02-27T09:25:25.608Z</time>
      </trkpt>
      <trkpt lat="41.94119" lon="25.82251">
        <ele>248.828453</ele>
        <time>2022-02-27T09:25:28.624Z</time>
      </trkpt>
      <trkpt lat="41.94115" lon="25.82235">
        <ele>248.685634</ele>
        <time>2022-02-27T09:25:31.617Z</time>
      </trkpt>
      <trkpt lat="41.94112" lon="25.8222">
        <ele>248.547818</ele>
        <time>2022-02-27T09:25:34.633Z</time>
      </trkpt>
      <trkpt lat="41.94109" lon="25.82204">
        <ele>248.41292</ele>
        <time>2022-02-27T09:25:37.604Z</time>
      </trkpt>
      <trkpt lat="41.94106" lon="25.82188">
        <ele>248.272628</ele>
        <time>2022-02-27T09:25:40.619Z</time>
      </trkpt>
      <trkpt lat="41.94104" lon="25.82173">
        <ele>248.139372</ele>
        <time>2022-02-27T09:25:43.629Z</time>
      </trkpt>
      <trkpt lat="41.94102" lon="25.82158">
        <ele>248.008526</ele>
        <time>2022-02-27T09:25:46.624Z</time>
      </trkpt>
      <trkpt lat="41.94101" lon="25.82144">
        <ele>247.885697</ele>
        <time>2022-02-27T09:25:49.615Z</time>
      </trkpt>
      <trkpt lat="41.941" lon="25.8213">
        <ele>247.770263</ele>
        <time>2022-02-27T09:25:52.614Z</time>
      </trkpt>
      <trkpt lat="41.941" lon="25.82115">
        <ele>247.644584</ele>
        <time>2022-02-27T09:25:55.616Z</time>
      </trkpt>
      <trkpt lat="41.941" lon="25.82101">
        <ele>247.522401</ele>
        <time>2022-02-27T09:25:58.629Z</time>
      </trkpt>
      <trkpt lat="41.94101" lon="25.82086">
        <ele>247.39042</ele>
        <time>2022-02-27T09:26:01.636Z</time>
      </trkpt>
      <trkpt lat="41.94102" lon="25.8207">
        <ele>247.257587</ele>
        <time>2022-02-27T09:26:04.631Z</time>
      </trkpt>
      <trkpt lat="41.94103" lon="25.82055">
        <ele>247.198049</ele>
        <time>2022-02-27T09:26:07.626Z</time>
      </trkpt>
      <trkpt lat="41.94104" lon="25.8204">
        <ele>247.22571</ele>
        <time>2022-02-27T09:26:10.630Z</time>
      </trkpt>
      <trkpt lat="41.94107" lon="25.82026">
        <ele>247.252679</ele>
        <time>2022-02-27T09:26:13.664Z</time>
      </trkpt>
      <trkpt lat="41.94109" lon="25.82013">
        <ele>247.277287</ele>
        <time>2022-02-27T09:26:16.613Z</time>
      </trkpt>
      <trkpt lat="41.94111" lon="25.81999">
        <ele>247.304126</ele>
        <time>2022-02-27T09:26:19.616Z</time>
      </trkpt>
      <trkpt lat="41.94115" lon="25.81985">
        <ele>247.331756</ele>
        <time>2022-02-27T09:26:22.600Z</time>
      </trkpt>
      <trkpt lat="41.9412" lon="25.8197">
        <ele>247.362777</ele>
        <time>2022-02-27T09:26:25.634Z</time>
      </trkpt>
      <trkpt lat="41.94124" lon="25.81955">
        <ele>247.39188</ele>
        <time>2022-02-27T09:26:28.615Z</time>
      </trkpt>
      <trkpt lat="41.94128" lon="25.81941">
        <ele>247.4202</ele>
        <time>2022-02-27T09:26:31.621Z</time>
      </trkpt>
      <trkpt lat="41.94131" lon="25.81927">
        <ele>247.448434</ele>
        <time>2022-02-27T09:26:34.627Z</time>
      </trkpt>
      <trkpt lat="41.94136" lon="25.81913">
        <ele>247.47611</ele>
        <time>2022-02-27T09:26:37.617Z</time>
      </trkpt>
      <trkpt lat="41.9414" lon="25.819">
        <ele>247.503044</ele>
        <time>2022-02-27T09:26:40.634Z</time>
      </trkpt>
      <trkpt lat="41.94145" lon="25.81887">
        <ele>247.529668</ele>
        <time>2022-02-27T09:26:43.599Z</time>
      </trkpt>
      <trkpt lat="41.94148" lon="25.81873">
        <ele>247.557117</ele>
        <time>2022-02-27T09:26:46.668Z</time>
      </trkpt>
      <trkpt lat="41.94153" lon="25.8186">
        <ele>247.583983</ele>
        <time>2022-02-27T09:26:49.624Z</time>
      </trkpt>
      <trkpt lat="41.94156" lon="25.81848">
        <ele>247.60704</ele>
        <time>2022-02-27T09:26:52.620Z</time>
      </trkpt>
      <trkpt lat="41.94161" lon="25.81834">
        <ele>247.628775</ele>
        <time>2022-02-27T09:26:56.616Z</time>
      </trkpt>
      <trkpt lat="41.94166" lon="25.81821">
        <ele>247.528796</ele>
        <time>2022-02-27T09:26:59.622Z</time>
      </trkpt>
      <trkpt lat="41.9417" lon="25.81807">
        <ele>247.421139</ele>
        <time>2022-02-27T09:27:02.642Z</time>
      </trkpt>
      <trkpt lat="41.94175" lon="25.81793">
        <ele>247.315887</ele>
        <time>2022-02-27T09:27:05.628Z</time>
      </trkpt>
      <trkpt lat="41.9418" lon="25.81776">
        <ele>247.186682</ele>
        <time>2022-02-27T09:27:08.651Z</time>
      </trkpt>
      <trkpt lat="41.94184" lon="25.81765">
        <ele>247.098674</ele>
        <time>2022-02-27T09:27:10.633Z</time>
      </trkpt>
      <trkpt lat="41.94188" lon="25.81753">
        <ele>247.008088</ele>
        <time>2022-02-27T09:27:12.615Z</time>
      </trkpt>
      <trkpt lat="41.94193" lon="25.81741">
        <ele>246.910043</ele>
        <time>2022-02-27T09:27:14.613Z</time>
      </trkpt>
      <trkpt lat="41.94197" lon="25.81727">
        <ele>246.804629</ele>
        <time>2022-02-27T09:27:16.626Z</time>
      </trkpt>
      <trkpt lat="41.94202" lon="25.81713">
        <ele>246.691146</ele>
        <time>2022-02-27T09:27:18.645Z</time>
      </trkpt>
      <trkpt lat="41.94208" lon="25.81697">
        <ele>246.567019</ele>
        <time>2022-02-27T09:27:20.627Z</time>
      </trkpt>
      <trkpt lat="41.94214" lon="25.81681">
        <ele>246.442846</ele>
        <time>2022-02-27T09:27:22.637Z</time>
      </trkpt>
      <trkpt lat="41.94219" lon="25.81664">
        <ele>246.315076</ele>
        <time>2022-02-27T09:27:24.619Z</time>
      </trkpt>
      <trkpt lat="41.94225" lon="25.81647">
        <ele>246.183918</ele>
        <time>2022-02-27T09:27:26.633Z</time>
      </trkpt>
      <trkpt lat="41.94229" lon="25.81631">
        <ele>246.061432</ele>
        <time>2022-02-27T09:27:28.628Z</time>
      </trkpt>
      <trkpt lat="41.94234" lon="25.81614">
        <ele>245.932666</ele>
        <time>2022-02-27T09:27:30.696Z</time>
      </trkpt>
      <trkpt lat="41.94237" lon="25.81596">
        <ele>245.348187</ele>
        <time>2022-02-27T09:27:32.632Z</time>
      </trkpt>
      <trkpt lat="41.94241" lon="25.81578">
        <ele>244.739216</ele>
        <time>2022-02-27T09:27:34.621Z</time>
      </trkpt>
      <trkpt lat="41.94245" lon="25.81559">
        <ele>244.084554</ele>
        <time>2022-02-27T09:27:36.619Z</time>
      </trkpt>
      <trkpt lat="41.94248" lon="25.81538">
        <ele>243.387402</ele>
        <time>2022-02-27T09:27:38.638Z</time>
      </trkpt>
      <trkpt lat="41.9425" lon="25.81516">
        <ele>242.662762</ele>
        <time>2022-02-27T09:27:40.624Z</time>
      </trkpt>
      <trkpt lat="41.94252" lon="25.81494">
        <ele>241.925688</ele>
        <time>2022-02-27T09:27:42.632Z</time>
      </trkpt>
      <trkpt lat="41.94254" lon="25.81472">
        <ele>241.192677</ele>
        <time>2022-02-27T09:27:44.622Z</time>
      </trkpt>
      <trkpt lat="41.94257" lon="25.81448">
        <ele>240.416194</ele>
        <time>2022-02-27T09:27:46.630Z</time>
      </trkpt>
      <trkpt lat="41.94259" lon="25.81436">
        <ele>240.007482</ele>
        <time>2022-02-27T09:27:47.653Z</time>
      </trkpt>
      <trkpt lat="41.9426" lon="25.81424">
        <ele>239.600103</ele>
        <time>2022-02-27T09:27:48.632Z</time>
      </trkpt>
      <trkpt lat="41.94262" lon="25.81401">
        <ele>238.832034</ele>
        <time>2022-02-27T09:27:50.633Z</time>
      </trkpt>
      <trkpt lat="41.94265" lon="25.81378">
        <ele>238.089297</ele>
        <time>2022-02-27T09:27:52.625Z</time>
      </trkpt>
      <trkpt lat="41.94267" lon="25.81355">
        <ele>237.468327</ele>
        <time>2022-02-27T09:27:54.626Z</time>
      </trkpt>
      <trkpt lat="41.94268" lon="25.81343">
        <ele>237.157767</ele>
        <time>2022-02-27T09:27:55.626Z</time>
      </trkpt>
      <trkpt lat="41.94271" lon="25.81319">
        <ele>236.539197</ele>
        <time>2022-02-27T09:27:57.634Z</time>
      </trkpt>
      <trkpt lat="41.94272" lon="25.81307">
        <ele>236.225175</ele>
        <time>2022-02-27T09:27:58.631Z</time>
      </trkpt>
      <trkpt lat="41.94273" lon="25.81295">
        <ele>235.911628</ele>
        <time>2022-02-27T09:27:59.659Z</time>
      </trkpt>
      <trkpt lat="41.94274" lon="25.81283">
        <ele>235.592989</ele>
        <time>2022-02-27T09:28:00.616Z</time>
      </trkpt>
      <trkpt lat="41.94275" lon="25.8127">
        <ele>235.274349</ele>
        <time>2022-02-27T09:28:01.612Z</time>
      </trkpt>
      <trkpt lat="41.94277" lon="25.81257">
        <ele>234.928826</ele>
        <time>2022-02-27T09:28:02.621Z</time>
      </trkpt>
      <trkpt lat="41.94278" lon="25.81245">
        <ele>234.617346</ele>
        <time>2022-02-27T09:28:03.617Z</time>
      </trkpt>
      <trkpt lat="41.9428" lon="25.81221">
        <ele>234.006423</ele>
        <time>2022-02-27T09:28:05.630Z</time>
      </trkpt>
      <trkpt lat="41.94281" lon="25.81209">
        <ele>233.693715</ele>
        <time>2022-02-27T09:28:06.644Z</time>
      </trkpt>
      <trkpt lat="41.94283" lon="25.81197">
        <ele>233.378056</ele>
        <time>2022-02-27T09:28:07.616Z</time>
      </trkpt>
      <trkpt lat="41.94284" lon="25.81185">
        <ele>233.064035</ele>
        <time>2022-02-27T09:28:08.622Z</time>
      </trkpt>
      <trkpt lat="41.94287" lon="25.81161">
        <ele>232.450192</ele>
        <time>2022-02-27T09:28:10.627Z</time>
      </trkpt>
      <trkpt lat="41.94288" lon="25.81149">
        <ele>232.136646</ele>
        <time>2022-02-27T09:28:11.611Z</time>
      </trkpt>
      <trkpt lat="41.94289" lon="25.81137">
        <ele>231.81396</ele>
        <time>2022-02-27T09:28:12.628Z</time>
      </trkpt>
      <trkpt lat="41.94291" lon="25.81125">
        <ele>231.492747</ele>
        <time>2022-02-27T09:28:13.623Z</time>
      </trkpt>
      <trkpt lat="41.94292" lon="25.81113">
        <ele>231.170469</ele>
        <time>2022-02-27T09:28:14.638Z</time>
      </trkpt>
      <trkpt lat="41.94293" lon="25.811">
        <ele>230.839947</ele>
        <time>2022-02-27T09:28:15.625Z</time>
      </trkpt>
      <trkpt lat="41.94294" lon="25.81088">
        <ele>230.518074</ele>
        <time>2022-02-27T09:28:16.630Z</time>
      </trkpt>
      <trkpt lat="41.94295" lon="25.81076">
        <ele>230.18968</ele>
        <time>2022-02-27T09:28:17.627Z</time>
      </trkpt>
      <trkpt lat="41.94297" lon="25.81062">
        <ele>229.82913</ele>
        <time>2022-02-27T09:28:18.627Z</time>
      </trkpt>
      <trkpt lat="41.94298" lon="25.8105">
        <ele>229.500225</ele>
        <time>2022-02-27T09:28:19.618Z</time>
      </trkpt>
      <trkpt lat="41.943" lon="25.81037">
        <ele>229.169234</ele>
        <time>2022-02-27T09:28:20.657Z</time>
      </trkpt>
      <trkpt lat="41.94301" lon="25.81024">
        <ele>228.83351</ele>
        <time>2022-02-27T09:28:21.614Z</time>
      </trkpt>
      <trkpt lat="41.94302" lon="25.81012">
        <ele>228.494725</ele>
        <time>2022-02-27T09:28:22.614Z</time>
      </trkpt>
      <trkpt lat="41.94304" lon="25.80999">
        <ele>228.150256</ele>
        <time>2022-02-27T09:28:23.620Z</time>
      </trkpt>
      <trkpt lat="41.94305" lon="25.80986">
        <ele>227.810446</ele>
        <time>2022-02-27T09:28:24.621Z</time>
      </trkpt>
      <trkpt lat="41.94307" lon="25.80972">
        <ele>227.447303</ele>
        <time>2022-02-27T09:28:25.623Z</time>
      </trkpt>
      <trkpt lat="41.94308" lon="25.8096">
        <ele>227.125026</ele>
        <time>2022-02-27T09:28:26.627Z</time>
      </trkpt>
      <trkpt lat="41.94309" lon="25.80947">
        <ele>226.795573</ele>
        <time>2022-02-27T09:28:27.619Z</time>
      </trkpt>
      <trkpt lat="41.94311" lon="25.80935">
        <ele>226.459757</ele>
        <time>2022-02-27T09:28:28.629Z</time>
      </trkpt>
      <trkpt lat="41.94312" lon="25.80923">
        <ele>226.13396</ele>
        <time>2022-02-27T09:28:29.634Z</time>
      </trkpt>
      <trkpt lat="41.94313" lon="25.8091">
        <ele>225.803439</ele>
        <time>2022-02-27T09:28:30.620Z</time>
      </trkpt>
      <trkpt lat="41.94315" lon="25.80898">
        <ele>225.471398</ele>
        <time>2022-02-27T09:28:31.670Z</time>
      </trkpt>
      <trkpt lat="41.94316" lon="25.80885">
        <ele>225.177652</ele>
        <time>2022-02-27T09:28:32.628Z</time>
      </trkpt>
      <trkpt lat="41.94318" lon="25.80873">
        <ele>224.874791</ele>
        <time>2022-02-27T09:28:33.646Z</time>
      </trkpt>
      <trkpt lat="41.9432" lon="25.8086">
        <ele>224.586192</ele>
        <time>2022-02-27T09:28:34.627Z</time>
      </trkpt>
      <trkpt lat="41.94321" lon="25.80848">
        <ele>224.294265</ele>
        <time>2022-02-27T09:28:35.634Z</time>
      </trkpt>
      <trkpt lat="41.94323" lon="25.80835">
        <ele>223.991405</ele>
        <time>2022-02-27T09:28:36.640Z</time>
      </trkpt>
      <trkpt lat="41.94325" lon="25.80823">
        <ele>223.694322</ele>
        <time>2022-02-27T09:28:37.617Z</time>
      </trkpt>
      <trkpt lat="41.94326" lon="25.80811">
        <ele>223.403412</ele>
        <time>2022-02-27T09:28:38.617Z</time>
      </trkpt>
      <trkpt lat="41.94327" lon="25.80798">
        <ele>223.111068</ele>
        <time>2022-02-27T09:28:39.633Z</time>
      </trkpt>
      <trkpt lat="41.94329" lon="25.80786">
        <ele>222.817847</ele>
        <time>2022-02-27T09:28:40.643Z</time>
      </trkpt>
      <trkpt lat="41.9433" lon="25.80774">
        <ele>222.532827</ele>
        <time>2022-02-27T09:28:41.623Z</time>
      </trkpt>
      <trkpt lat="41.94333" lon="25.80751">
        <ele>221.985213</ele>
        <time>2022-02-27T09:28:43.642Z</time>
      </trkpt>
      <trkpt lat="41.94335" lon="25.80728">
        <ele>221.452875</ele>
        <time>2022-02-27T09:28:45.636Z</time>
      </trkpt>
      <trkpt lat="41.94338" lon="25.80705">
        <ele>220.903388</ele>
        <time>2022-02-27T09:28:47.610Z</time>
      </trkpt>
      <trkpt lat="41.9434" lon="25.80693">
        <ele>220.61479</ele>
        <time>2022-02-27T09:28:48.672Z</time>
      </trkpt>
      <trkpt lat="41.94342" lon="25.80669">
        <ele>220.055596</ele>
        <time>2022-02-27T09:28:50.676Z</time>
      </trkpt>
      <trkpt lat="41.94345" lon="25.80645">
        <ele>219.354184</ele>
        <time>2022-02-27T09:28:52.613Z</time>
      </trkpt>
      <trkpt lat="41.94346" lon="25.80633">
        <ele>218.935064</ele>
        <time>2022-02-27T09:28:53.625Z</time>
      </trkpt>
      <trkpt lat="41.94347" lon="25.8062">
        <ele>218.504904</ele>
        <time>2022-02-27T09:28:54.649Z</time>
      </trkpt>
      <trkpt lat="41.94348" lon="25.80608">
        <ele>218.097653</ele>
        <time>2022-02-27T09:28:55.617Z</time>
      </trkpt>
      <trkpt lat="41.94351" lon="25.80584">
        <ele>217.28704</ele>
        <time>2022-02-27T09:28:57.636Z</time>
      </trkpt>
      <trkpt lat="41.94353" lon="25.80561">
        <ele>216.499276</ele>
        <time>2022-02-27T09:28:59.622Z</time>
      </trkpt>
      <trkpt lat="41.94355" lon="25.80538">
        <ele>215.726998</ele>
        <time>2022-02-27T09:29:01.619Z</time>
      </trkpt>
      <trkpt lat="41.94356" lon="25.80515">
        <ele>214.932146</ele>
        <time>2022-02-27T09:29:03.628Z</time>
      </trkpt>
      <trkpt lat="41.94356" lon="25.80491">
        <ele>214.137235</ele>
        <time>2022-02-27T09:29:05.631Z</time>
      </trkpt>
      <trkpt lat="41.94356" lon="25.80467">
        <ele>213.328801</ele>
        <time>2022-02-27T09:29:07.618Z</time>
      </trkpt>
      <trkpt lat="41.94356" lon="25.80455">
        <ele>212.920838</ele>
        <time>2022-02-27T09:29:08.628Z</time>
      </trkpt>
      <trkpt lat="41.94355" lon="25.80443">
        <ele>212.505923</ele>
        <time>2022-02-27T09:29:09.628Z</time>
      </trkpt>
      <trkpt lat="41.94354" lon="25.80431">
        <ele>212.095855</ele>
        <time>2022-02-27T09:29:10.604Z</time>
      </trkpt>
      <trkpt lat="41.94353" lon="25.80419">
        <ele>211.687398</ele>
        <time>2022-02-27T09:29:11.633Z</time>
      </trkpt>
      <trkpt lat="41.94351" lon="25.80407">
        <ele>211.263545</ele>
        <time>2022-02-27T09:29:12.628Z</time>
      </trkpt>
      <trkpt lat="41.9435" lon="25.80393">
        <ele>210.795518</ele>
        <time>2022-02-27T09:29:13.623Z</time>
      </trkpt>
      <trkpt lat="41.94349" lon="25.80381">
        <ele>210.347989</ele>
        <time>2022-02-27T09:29:14.606Z</time>
      </trkpt>
      <trkpt lat="41.94347" lon="25.80368">
        <ele>209.909091</ele>
        <time>2022-02-27T09:29:15.625Z</time>
      </trkpt>
      <trkpt lat="41.94345" lon="25.80356">
        <ele>209.464857</ele>
        <time>2022-02-27T09:29:16.621Z</time>
      </trkpt>
      <trkpt lat="41.94343" lon="25.80343">
        <ele>209.014019</ele>
        <time>2022-02-27T09:29:17.668Z</time>
      </trkpt>
      <trkpt lat="41.9434" lon="25.80331">
        <ele>208.558294</ele>
        <time>2022-02-27T09:29:18.612Z</time>
      </trkpt>
      <trkpt lat="41.94337" lon="25.80319">
        <ele>208.107933</ele>
        <time>2022-02-27T09:29:19.612Z</time>
      </trkpt>
      <trkpt lat="41.94334" lon="25.80307">
        <ele>207.66328</ele>
        <time>2022-02-27T09:29:20.617Z</time>
      </trkpt>
      <trkpt lat="41.9433" lon="25.80295">
        <ele>207.211993</ele>
        <time>2022-02-27T09:29:21.629Z</time>
      </trkpt>
      <trkpt lat="41.94327" lon="25.80283">
        <ele>206.761795</ele>
        <time>2022-02-27T09:29:22.629Z</time>
      </trkpt>
      <trkpt lat="41.94323" lon="25.80271">
        <ele>206.319891</ele>
        <time>2022-02-27T09:29:23.629Z</time>
      </trkpt>
      <trkpt lat="41.94319" lon="25.8026">
        <ele>205.872234</ele>
        <time>2022-02-27T09:29:24.661Z</time>
      </trkpt>
      <trkpt lat="41.94314" lon="25.80248">
        <ele>205.421224</ele>
        <time>2022-02-27T09:29:25.628Z</time>
      </trkpt>
      <trkpt lat="41.94309" lon="25.80237">
        <ele>204.971688</ele>
        <time>2022-02-27T09:29:26.648Z</time>
      </trkpt>
      <trkpt lat="41.94305" lon="25.80226">
        <ele>204.522774</ele>
        <time>2022-02-27T09:29:27.632Z</time>
      </trkpt>
      <trkpt lat="41.94299" lon="25.80216">
        <ele>204.07783</ele>
        <time>2022-02-27T09:29:28.654Z</time>
      </trkpt>
      <trkpt lat="41.94294" lon="25.80205">
        <ele>203.636441</ele>
        <time>2022-02-27T09:29:29.614Z</time>
      </trkpt>
      <trkpt lat="41.94289" lon="25.80195">
        <ele>203.203222</ele>
        <time>2022-02-27T09:29:30.629Z</time>
      </trkpt>
      <trkpt lat="41.94278" lon="25.80176">
        <ele>203.513893</ele>
        <time>2022-02-27T09:29:32.636Z</time>
      </trkpt>
      <trkpt lat="41.94268" lon="25.80158">
        <ele>203.840109</ele>
        <time>2022-02-27T09:29:34.620Z</time>
      </trkpt>
      <trkpt lat="41.94258" lon="25.80141">
        <ele>204.148207</ele>
        <time>2022-02-27T09:29:36.623Z</time>
      </trkpt>
      <trkpt lat="41.94248" lon="25.80125">
        <ele>204.436928</ele>
        <time>2022-02-27T09:29:38.621Z</time>
      </trkpt>
      <trkpt lat="41.94239" lon="25.8011">
        <ele>204.708973</ele>
        <time>2022-02-27T09:29:40.628Z</time>
      </trkpt>
      <trkpt lat="41.94231" lon="25.80097">
        <ele>204.956046</ele>
        <time>2022-02-27T09:29:42.623Z</time>
      </trkpt>
      <trkpt lat="41.94224" lon="25.80085">
        <ele>205.160576</ele>
        <time>2022-02-27T09:29:44.634Z</time>
      </trkpt>
      <trkpt lat="41.94217" lon="25.80072">
        <ele>205.394643</ele>
        <time>2022-02-27T09:29:47.615Z</time>
      </trkpt>
      <trkpt lat="41.94211" lon="25.80062">
        <ele>205.574212</ele>
        <time>2022-02-27T09:29:50.647Z</time>
      </trkpt>
      <trkpt lat="41.94205" lon="25.80052">
        <ele>205.751557</ele>
        <time>2022-02-27T09:29:53.620Z</time>
      </trkpt>
      <trkpt lat="41.94198" lon="25.80041">
        <ele>205.961775</ele>
        <time>2022-02-27T09:29:57.640Z</time>
      </trkpt>
      <trkpt lat="41.94192" lon="25.8003">
        <ele>206.150441</ele>
        <time>2022-02-27T09:30:01.621Z</time>
      </trkpt>
      <trkpt lat="41.94186" lon="25.8002">
        <ele>206.333481</ele>
        <time>2022-02-27T09:30:05.623Z</time>
      </trkpt>
      <trkpt lat="41.9418" lon="25.8001">
        <ele>206.519057</ele>
        <time>2022-02-27T09:30:09.615Z</time>
      </trkpt>
      <trkpt lat="41.94174" lon="25.8">
        <ele>207.126882</ele>
        <time>2022-02-27T09:30:13.651Z</time>
      </trkpt>
      <trkpt lat="41.94168" lon="25.79989">
        <ele>208.298522</ele>
        <time>2022-02-27T09:30:18.619Z</time>
      </trkpt>
      <trkpt lat="41.94161" lon="25.79977">
        <ele>209.489036</ele>
        <time>2022-02-27T09:30:23.624Z</time>
      </trkpt>
      <trkpt lat="41.94155" lon="25.79966">
        <ele>210.633331</ele>
        <time>2022-02-27T09:30:28.674Z</time>
      </trkpt>
      <trkpt lat="41.94148" lon="25.79956">
        <ele>211.78683</ele>
        <time>2022-02-27T09:30:33.643Z</time>
      </trkpt>
      <trkpt lat="41.94142" lon="25.79945">
        <ele>212.878625</ele>
        <time>2022-02-27T09:30:38.609Z</time>
      </trkpt>
      <trkpt lat="41.94136" lon="25.79935">
        <ele>213.932291</ele>
        <time>2022-02-27T09:30:43.630Z</time>
      </trkpt>
      <trkpt lat="41.9413" lon="25.79925">
        <ele>214.964895</ele>
        <time>2022-02-27T09:30:48.631Z</time>
      </trkpt>
      <trkpt lat="41.94123" lon="25.79914">
        <ele>216.170196</ele>
        <time>2022-02-27T09:30:54.619Z</time>
      </trkpt>
      <trkpt lat="41.94117" lon="25.79904">
        <ele>217.230189</ele>
        <time>2022-02-27T09:30:59.633Z</time>
      </trkpt>
      <trkpt lat="41.9411" lon="25.79895">
        <ele>218.283847</ele>
        <time>2022-02-27T09:31:05.625Z</time>
      </trkpt>
      <trkpt lat="41.94104" lon="25.79885">
        <ele>219.30136</ele>
        <time>2022-02-27T09:31:10.613Z</time>
      </trkpt>
      <trkpt lat="41.94097" lon="25.79876">
        <ele>220.386319</ele>
        <time>2022-02-27T09:31:16.633Z</time>
      </trkpt>
      <trkpt lat="41.94089" lon="25.79867">
        <ele>221.537359</ele>
        <time>2022-02-27T09:31:22.618Z</time>
      </trkpt>
      <trkpt lat="41.94081" lon="25.79859">
        <ele>222.652322</ele>
        <time>2022-02-27T09:31:28.630Z</time>
      </trkpt>
      <trkpt lat="41.94072" lon="25.79851">
        <ele>223.832785</ele>
        <time>2022-02-27T09:31:34.622Z</time>
      </trkpt>
      <trkpt lat="41.94064" lon="25.79845">
        <ele>224.832593</ele>
        <time>2022-02-27T09:31:39.625Z</time>
      </trkpt>
      <trkpt lat="41.94056" lon="25.79838">
        <ele>225.948957</ele>
        <time>2022-02-27T09:31:44.629Z</time>
      </trkpt>
      <trkpt lat="41.94047" lon="25.79831">
        <ele>226.384688</ele>
        <time>2022-02-27T09:31:50.629Z</time>
      </trkpt>
      <trkpt lat="41.94039" lon="25.79824">
        <ele>226.319633</ele>
        <time>2022-02-27T09:31:55.622Z</time>
      </trkpt>
      <trkpt lat="41.9403" lon="25.79818">
        <ele>226.251613</ele>
        <time>2022-02-27T09:32:01.626Z</time>
      </trkpt>
      <trkpt lat="41.94021" lon="25.79812">
        <ele>226.182274</ele>
        <time>2022-02-27T09:32:07.626Z</time>
      </trkpt>
      <trkpt lat="41.94013" lon="25.79806">
        <ele>226.11528</ele>
        <time>2022-02-27T09:32:13.609Z</time>
      </trkpt>
      <trkpt lat="41.94005" lon="25.79801">
        <ele>226.052128</ele>
        <time>2022-02-27T09:32:19.634Z</time>
      </trkpt>
      <trkpt lat="41.93997" lon="25.79795">
        <ele>225.988407</ele>
        <time>2022-02-27T09:32:25.630Z</time>
      </trkpt>
      <trkpt lat="41.93988" lon="25.7979">
        <ele>225.920421</ele>
        <time>2022-02-27T09:32:31.655Z</time>
      </trkpt>
      <trkpt lat="41.93978" lon="25.79784">
        <ele>225.846234</ele>
        <time>2022-02-27T09:32:38.633Z</time>
      </trkpt>
      <trkpt lat="41.93969" lon="25.79779">
        <ele>225.777391</ele>
        <time>2022-02-27T09:32:43.630Z</time>
      </trkpt>
      <trkpt lat="41.93959" lon="25.79774">
        <ele>225.700602</ele>
        <time>2022-02-27T09:32:48.620Z</time>
      </trkpt>
      <trkpt lat="41.9395" lon="25.7977">
        <ele>225.632438</ele>
        <time>2022-02-27T09:32:54.619Z</time>
      </trkpt>
      <trkpt lat="41.93941" lon="25.79768">
        <ele>225.567262</ele>
        <time>2022-02-27T09:32:59.622Z</time>
      </trkpt>
      <trkpt lat="41.93931" lon="25.79766">
        <ele>225.497243</ele>
        <time>2022-02-27T09:33:04.659Z</time>
      </trkpt>
      <trkpt lat="41.9392" lon="25.79765">
        <ele>225.423999</ele>
        <time>2022-02-27T09:33:10.633Z</time>
      </trkpt>
      <trkpt lat="41.93911" lon="25.79765">
        <ele>225.360034</ele>
        <time>2022-02-27T09:33:16.624Z</time>
      </trkpt>
      <trkpt lat="41.93901" lon="25.79766">
        <ele>225.287575</ele>
        <time>2022-02-27T09:33:22.627Z</time>
      </trkpt>
      <trkpt lat="41.93891" lon="25.79767">
        <ele>225.215339</ele>
        <time>2022-02-27T09:33:28.625Z</time>
      </trkpt>
      <trkpt lat="41.93881" lon="25.79768">
        <ele>225.325185</ele>
        <time>2022-02-27T09:33:34.629Z</time>
      </trkpt>
      <trkpt lat="41.93871" lon="25.79771">
        <ele>225.898069</ele>
        <time>2022-02-27T09:33:41.638Z</time>
      </trkpt>
      <trkpt lat="41.93861" lon="25.79773">
        <ele>226.432496</ele>
        <time>2022-02-27T09:33:47.619Z</time>
      </trkpt>
      <trkpt lat="41.93852" lon="25.79775">
        <ele>226.964442</ele>
        <time>2022-02-27T09:33:54.620Z</time>
      </trkpt>
      <trkpt lat="41.93842" lon="25.79777">
        <ele>227.530864</ele>
        <time>2022-02-27T09:34:00.644Z</time>
      </trkpt>
      <trkpt lat="41.93832" lon="25.79778">
        <ele>228.106342</ele>
        <time>2022-02-27T09:34:06.631Z</time>
      </trkpt>
      <trkpt lat="41.93823" lon="25.79781">
        <ele>228.632758</ele>
        <time>2022-02-27T09:34:12.627Z</time>
      </trkpt>
      <trkpt lat="41.93813" lon="25.79783">
        <ele>229.183142</ele>
        <time>2022-02-27T09:34:20.646Z</time>
      </trkpt>
      <trkpt lat="41.93804" lon="25.79785">
        <ele>229.693461</ele>
        <time>2022-02-27T09:34:26.621Z</time>
      </trkpt>
      <trkpt lat="41.93795" lon="25.79786">
        <ele>230.213222</ele>
        <time>2022-02-27T09:34:32.629Z</time>
      </trkpt>
      <trkpt lat="41.93785" lon="25.79786">
        <ele>230.740486</ele>
        <time>2022-02-27T09:34:38.632Z</time>
      </trkpt>
      <trkpt lat="41.93775" lon="25.79785">
        <ele>231.315116</ele>
        <time>2022-02-27T09:34:45.631Z</time>
      </trkpt>
      <trkpt lat="41.93766" lon="25.79783">
        <ele>231.851584</ele>
        <time>2022-02-27T09:34:51.617Z</time>
      </trkpt>
      <trkpt lat="41.93756" lon="25.79781">
        <ele>232.381187</ele>
        <time>2022-02-27T09:34:57.632Z</time>
      </trkpt>
      <trkpt lat="41.93746" lon="25.79778">
        <ele>232.95129</ele>
        <time>2022-02-27T09:35:04.621Z</time>
      </trkpt>
      <trkpt lat="41.93737" lon="25.79774">
        <ele>233.48163</ele>
        <time>2022-02-27T09:35:10.660Z</time>
      </trkpt>
      <trkpt lat="41.93728" lon="25.79769">
        <ele>234.036197</ele>
        <time>2022-02-27T09:35:16.609Z</time>
      </trkpt>
      <trkpt lat="41.93719" lon="25.79764">
        <ele>234.573654</ele>
        <time>2022-02-27T09:35:22.611Z</time>
      </trkpt>
      <trkpt lat="41.93711" lon="25.79758">
        <ele>235.083424</ele>
        <time>2022-02-27T09:35:27.631Z</time>
      </trkpt>
      <trkpt lat="41.93703" lon="25.79751">
        <ele>235.150836</ele>
        <time>2022-02-27T09:35:33.613Z</time>
      </trkpt>
      <trkpt lat="41.93694" lon="25.79743">
        <ele>235.013073</ele>
        <time>2022-02-27T09:35:39.618Z</time>
      </trkpt>
      <trkpt lat="41.93687" lon="25.79735">
        <ele>234.876298</ele>
        <time>2022-02-27T09:35:45.618Z</time>
      </trkpt>
      <trkpt lat="41.93679" lon="25.79726">
        <ele>234.741637</ele>
        <time>2022-02-27T09:35:51.635Z</time>
      </trkpt>
      <trkpt lat="41.93672" lon="25.79716">
        <ele>234.596898</ele>
        <time>2022-02-27T09:35:57.619Z</time>
      </trkpt>
      <trkpt lat="41.93665" lon="25.79706">
        <ele>234.451952</ele>
        <time>2022-02-27T09:36:03.624Z</time>
      </trkpt>
      <trkpt lat="41.93658" lon="25.79695">
        <ele>234.31381</ele>
        <time>2022-02-27T09:36:08.630Z</time>
      </trkpt>
      <trkpt lat="41.93653" lon="25.79685">
        <ele>234.18152</ele>
        <time>2022-02-27T09:36:12.625Z</time>
      </trkpt>
      <trkpt lat="41.93647" lon="25.79675">
        <ele>234.051699</ele>
        <time>2022-02-27T09:36:16.611Z</time>
      </trkpt>
      <trkpt lat="41.9364" lon="25.79663">
        <ele>233.89805</ele>
        <time>2022-02-27T09:36:20.621Z</time>
      </trkpt>
      <trkpt lat="41.93635" lon="25.79652">
        <ele>233.770638</ele>
        <time>2022-02-27T09:36:23.633Z</time>
      </trkpt>
      <trkpt lat="41.93629" lon="25.79641">
        <ele>233.628272</ele>
        <time>2022-02-27T09:36:26.633Z</time>
      </trkpt>
      <trkpt lat="41.93623" lon="25.79627">
        <ele>233.460373</ele>
        <time>2022-02-27T09:36:29.618Z</time>
      </trkpt>
      <trkpt lat="41.93615" lon="25.79612">
        <ele>233.273488</ele>
        <time>2022-02-27T09:36:32.620Z</time>
      </trkpt>
      <trkpt lat="41.9361" lon="25.79601">
        <ele>233.139883</ele>
        <time>2022-02-27T09:36:34.634Z</time>
      </trkpt>
      <trkpt lat="41.93605" lon="25.79588">
        <ele>232.993887</ele>
        <time>2022-02-27T09:36:36.620Z</time>
      </trkpt>
      <trkpt lat="41.93599" lon="25.79575">
        <ele>232.841116</ele>
        <time>2022-02-27T09:36:38.653Z</time>
      </trkpt>
      <trkpt lat="41.93593" lon="25.79563">
        <ele>232.627311</ele>
        <time>2022-02-27T09:36:40.649Z</time>
      </trkpt>
      <trkpt lat="41.93587" lon="25.79549">
        <ele>232.340589</ele>
        <time>2022-02-27T09:36:42.631Z</time>
      </trkpt>
      <trkpt lat="41.9358" lon="25.79534">
        <ele>232.048499</ele>
        <time>2022-02-27T09:36:44.621Z</time>
      </trkpt>
      <trkpt lat="41.93573" lon="25.79519">
        <ele>231.741243</ele>
        <time>2022-02-27T09:36:46.607Z</time>
      </trkpt>
      <trkpt lat="41.93566" lon="25.79501">
        <ele>231.393249</ele>
        <time>2022-02-27T09:36:48.612Z</time>
      </trkpt>
      <trkpt lat="41.93557" lon="25.79485">
        <ele>231.032992</ele>
        <time>2022-02-27T09:36:50.634Z</time>
      </trkpt>
      <trkpt lat="41.93546" lon="25.79469">
        <ele>230.669682</ele>
        <time>2022-02-27T09:36:52.614Z</time>
      </trkpt>
      <trkpt lat="41.93534" lon="25.79454">
        <ele>230.280475</ele>
        <time>2022-02-27T09:36:54.640Z</time>
      </trkpt>
      <trkpt lat="41.9352" lon="25.79439">
        <ele>229.877812</ele>
        <time>2022-02-27T09:36:56.636Z</time>
      </trkpt>
      <trkpt lat="41.93505" lon="25.79427">
        <ele>229.470814</ele>
        <time>2022-02-27T09:36:58.611Z</time>
      </trkpt>
      <trkpt lat="41.9349" lon="25.79418">
        <ele>229.085828</ele>
        <time>2022-02-27T09:37:00.650Z</time>
      </trkpt>
      <trkpt lat="41.93474" lon="25.79411">
        <ele>228.685767</ele>
        <time>2022-02-27T09:37:02.624Z</time>
      </trkpt>
      <trkpt lat="41.93465" lon="25.79407">
        <ele>228.4545</ele>
        <time>2022-02-27T09:37:03.628Z</time>
      </trkpt>
      <trkpt lat="41.93456" lon="25.79404">
        <ele>228.208501</ele>
        <time>2022-02-27T09:37:04.604Z</time>
      </trkpt>
      <trkpt lat="41.93447" lon="25.79402">
        <ele>227.957379</ele>
        <time>2022-02-27T09:37:05.628Z</time>
      </trkpt>
      <trkpt lat="41.93438" lon="25.79401">
        <ele>227.710593</ele>
        <time>2022-02-27T09:37:06.626Z</time>
      </trkpt>
      <trkpt lat="41.93429" lon="25.79399">
        <ele>227.469094</ele>
        <time>2022-02-27T09:37:07.634Z</time>
      </trkpt>
      <trkpt lat="41.93411" lon="25.79397">
        <ele>227.001399</ele>
        <time>2022-02-27T09:37:09.616Z</time>
      </trkpt>
      <trkpt lat="41.93394" lon="25.79395">
        <ele>226.533868</ele>
        <time>2022-02-27T09:37:11.652Z</time>
      </trkpt>
      <trkpt lat="41.93385" lon="25.79395">
        <ele>226.29125</ele>
        <time>2022-02-27T09:37:12.627Z</time>
      </trkpt>
      <trkpt lat="41.93375" lon="25.79394">
        <ele>226.048526</ele>
        <time>2022-02-27T09:37:13.608Z</time>
      </trkpt>
      <trkpt lat="41.93365" lon="25.79393">
        <ele>225.779103</ele>
        <time>2022-02-27T09:37:14.657Z</time>
      </trkpt>
      <trkpt lat="41.93356" lon="25.79392">
        <ele>225.525497</ele>
        <time>2022-02-27T09:37:15.616Z</time>
      </trkpt>
      <trkpt lat="41.93346" lon="25.79391">
        <ele>225.266578</ele>
        <time>2022-02-27T09:37:16.604Z</time>
      </trkpt>
      <trkpt lat="41.93336" lon="25.79391">
        <ele>224.997155</ele>
        <time>2022-02-27T09:37:17.617Z</time>
      </trkpt>
      <trkpt lat="41.93326" lon="25.7939">
        <ele>224.735579</ele>
        <time>2022-02-27T09:37:18.625Z</time>
      </trkpt>
      <trkpt lat="41.93316" lon="25.79389">
        <ele>224.474131</ele>
        <time>2022-02-27T09:37:19.621Z</time>
      </trkpt>
      <trkpt lat="41.93307" lon="25.79388">
        <ele>224.228748</ele>
        <time>2022-02-27T09:37:20.633Z</time>
      </trkpt>
      <trkpt lat="41.93298" lon="25.79388">
        <ele>223.983366</ele>
        <time>2022-02-27T09:37:21.629Z</time>
      </trkpt>
      <trkpt lat="41.93289" lon="25.79387">
        <ele>223.656029</ele>
        <time>2022-02-27T09:37:22.659Z</time>
      </trkpt>
      <trkpt lat="41.9328" lon="25.79386">
        <ele>223.17825</ele>
        <time>2022-02-27T09:37:23.636Z</time>
      </trkpt>
      <trkpt lat="41.93271" lon="25.79385">
        <ele>222.695197</ele>
        <time>2022-02-27T09:37:24.623Z</time>
      </trkpt>
      <trkpt lat="41.93261" lon="25.79384">
        <ele>222.202163</ele>
        <time>2022-02-27T09:37:25.612Z</time>
      </trkpt>
      <trkpt lat="41.93244" lon="25.79383">
        <ele>221.285229</ele>
        <time>2022-02-27T09:37:27.621Z</time>
      </trkpt>
      <trkpt lat="41.93227" lon="25.79381">
        <ele>220.394447</ele>
        <time>2022-02-27T09:37:29.623Z</time>
      </trkpt>
      <trkpt lat="41.93212" lon="25.7938">
        <ele>219.594392</ele>
        <time>2022-02-27T09:37:31.620Z</time>
      </trkpt>
      <trkpt lat="41.93196" lon="25.79381">
        <ele>218.736219</ele>
        <time>2022-02-27T09:37:33.659Z</time>
      </trkpt>
      <trkpt lat="41.93179" lon="25.79384">
        <ele>217.839586</ele>
        <time>2022-02-27T09:37:35.629Z</time>
      </trkpt>
      <trkpt lat="41.93163" lon="25.79388">
        <ele>216.979976</ele>
        <time>2022-02-27T09:37:37.609Z</time>
      </trkpt>
      <trkpt lat="41.93146" lon="25.79394">
        <ele>216.067428</ele>
        <time>2022-02-27T09:37:39.612Z</time>
      </trkpt>
      <trkpt lat="41.93129" lon="25.79402">
        <ele>215.105557</ele>
        <time>2022-02-27T09:37:41.630Z</time>
      </trkpt>
      <trkpt lat="41.9312" lon="25.79407">
        <ele>214.601618</ele>
        <time>2022-02-27T09:37:42.620Z</time>
      </trkpt>
      <trkpt lat="41.93112" lon="25.79413">
        <ele>214.076368</ele>
        <time>2022-02-27T09:37:43.628Z</time>
      </trkpt>
      <trkpt lat="41.93103" lon="25.79418">
        <ele>213.519463</ele>
        <time>2022-02-27T09:37:44.671Z</time>
      </trkpt>
      <trkpt lat="41.93094" lon="25.79424">
        <ele>212.947826</ele>
        <time>2022-02-27T09:37:45.637Z</time>
      </trkpt>
      <trkpt lat="41.93085" lon="25.79431">
        <ele>212.340661</ele>
        <time>2022-02-27T09:37:46.637Z</time>
      </trkpt>
      <trkpt lat="41.93076" lon="25.79437">
        <ele>211.749692</ele>
        <time>2022-02-27T09:37:47.629Z</time>
      </trkpt>
      <trkpt lat="41.93067" lon="25.79443">
        <ele>211.185154</ele>
        <time>2022-02-27T09:37:48.612Z</time>
      </trkpt>
      <trkpt lat="41.93059" lon="25.79449">
        <ele>210.635968</ele>
        <time>2022-02-27T09:37:49.616Z</time>
      </trkpt>
      <trkpt lat="41.93044" lon="25.79459">
        <ele>209.67769</ele>
        <time>2022-02-27T09:37:51.630Z</time>
      </trkpt>
      <trkpt lat="41.93033" lon="25.79467">
        <ele>208.937203</ele>
        <time>2022-02-27T09:37:53.618Z</time>
      </trkpt>
      <trkpt lat="41.93024" lon="25.79474">
        <ele>208.349364</ele>
        <time>2022-02-27T09:37:55.617Z</time>
      </trkpt>
      <trkpt lat="41.93012" lon="25.79482">
        <ele>207.580464</ele>
        <time>2022-02-27T09:37:58.621Z</time>
      </trkpt>
      <trkpt lat="41.93002" lon="25.79489">
        <ele>206.964162</ele>
        <time>2022-02-27T09:38:00.626Z</time>
      </trkpt>
      <trkpt lat="41.92992" lon="25.79496">
        <ele>206.277678</ele>
        <time>2022-02-27T09:38:02.627Z</time>
      </trkpt>
      <trkpt lat="41.92981" lon="25.79504">
        <ele>205.555605</ele>
        <time>2022-02-27T09:38:04.614Z</time>
      </trkpt>
      <trkpt lat="41.92968" lon="25.79513">
        <ele>204.746048</ele>
        <time>2022-02-27T09:38:06.625Z</time>
      </trkpt>
      <trkpt lat="41.92955" lon="25.79523">
        <ele>203.870432</ele>
        <time>2022-02-27T09:38:08.615Z</time>
      </trkpt>
      <trkpt lat="41.92941" lon="25.79532">
        <ele>202.957238</ele>
        <time>2022-02-27T09:38:10.617Z</time>
      </trkpt>
      <trkpt lat="41.92925" lon="25.79543">
        <ele>201.984872</ele>
        <time>2022-02-27T09:38:12.624Z</time>
      </trkpt>
      <trkpt lat="41.9291" lon="25.79554">
        <ele>201.001648</ele>
        <time>2022-02-27T09:38:14.621Z</time>
      </trkpt>
      <trkpt lat="41.92894" lon="25.79566">
        <ele>200.009497</ele>
        <time>2022-02-27T09:38:16.627Z</time>
      </trkpt>
      <trkpt lat="41.92886" lon="25.79571">
        <ele>199.498887</ele>
        <time>2022-02-27T09:38:17.620Z</time>
      </trkpt>
      <trkpt lat="41.92878" lon="25.79576">
        <ele>198.976767</ele>
        <time>2022-02-27T09:38:18.656Z</time>
      </trkpt>
      <trkpt lat="41.92869" lon="25.79582">
        <ele>198.432192</ele>
        <time>2022-02-27T09:38:19.610Z</time>
      </trkpt>
      <trkpt lat="41.9286" lon="25.79586">
        <ele>197.890824</ele>
        <time>2022-02-27T09:38:20.619Z</time>
      </trkpt>
      <trkpt lat="41.92851" lon="25.7959">
        <ele>197.365922</ele>
        <time>2022-02-27T09:38:21.631Z</time>
      </trkpt>
      <trkpt lat="41.92842" lon="25.79592">
        <ele>196.855979</ele>
        <time>2022-02-27T09:38:22.613Z</time>
      </trkpt>
      <trkpt lat="41.92832" lon="25.79593">
        <ele>196.300515</ele>
        <time>2022-02-27T09:38:23.624Z</time>
      </trkpt>
      <trkpt lat="41.92822" lon="25.79594">
        <ele>195.742472</ele>
        <time>2022-02-27T09:38:24.624Z</time>
      </trkpt>
      <trkpt lat="41.92812" lon="25.79594">
        <ele>195.156568</ele>
        <time>2022-02-27T09:38:25.628Z</time>
      </trkpt>
      <trkpt lat="41.92802" lon="25.79592">
        <ele>194.559868</ele>
        <time>2022-02-27T09:38:26.626Z</time>
      </trkpt>
      <trkpt lat="41.92792" lon="25.79589">
        <ele>193.984257</ele>
        <time>2022-02-27T09:38:27.641Z</time>
      </trkpt>
      <trkpt lat="41.92782" lon="25.79585">
        <ele>193.439324</ele>
        <time>2022-02-27T09:38:28.630Z</time>
      </trkpt>
      <trkpt lat="41.92766" lon="25.79575">
        <ele>192.409481</ele>
        <time>2022-02-27T09:38:30.628Z</time>
      </trkpt>
      <trkpt lat="41.92758" lon="25.79568">
        <ele>191.880651</ele>
        <time>2022-02-27T09:38:31.618Z</time>
      </trkpt>
      <trkpt lat="41.9275" lon="25.7956">
        <ele>191.323601</ele>
        <time>2022-02-27T09:38:32.633Z</time>
      </trkpt>
      <trkpt lat="41.92742" lon="25.79552">
        <ele>190.755123</ele>
        <time>2022-02-27T09:38:33.620Z</time>
      </trkpt>
      <trkpt lat="41.92735" lon="25.79542">
        <ele>190.171693</ele>
        <time>2022-02-27T09:38:34.634Z</time>
      </trkpt>
      <trkpt lat="41.92727" lon="25.79532">
        <ele>189.572523</ele>
        <time>2022-02-27T09:38:35.621Z</time>
      </trkpt>
      <trkpt lat="41.92721" lon="25.79521">
        <ele>188.967427</ele>
        <time>2022-02-27T09:38:36.621Z</time>
      </trkpt>
      <trkpt lat="41.92715" lon="25.79509">
        <ele>188.35528</ele>
        <time>2022-02-27T09:38:37.621Z</time>
      </trkpt>
      <trkpt lat="41.9271" lon="25.79496">
        <ele>187.760175</ele>
        <time>2022-02-27T09:38:38.621Z</time>
      </trkpt>
      <trkpt lat="41.92706" lon="25.79484">
        <ele>187.188635</ele>
        <time>2022-02-27T09:38:39.611Z</time>
      </trkpt>
      <trkpt lat="41.92702" lon="25.79471">
        <ele>186.588555</ele>
        <time>2022-02-27T09:38:40.663Z</time>
      </trkpt>
      <trkpt lat="41.92699" lon="25.79458">
        <ele>186.016915</ele>
        <time>2022-02-27T09:38:41.604Z</time>
      </trkpt>
      <trkpt lat="41.92697" lon="25.79445">
        <ele>185.458186</ele>
        <time>2022-02-27T09:38:42.644Z</time>
      </trkpt>
      <trkpt lat="41.92694" lon="25.79431">
        <ele>184.873149</ele>
        <time>2022-02-27T09:38:43.630Z</time>
      </trkpt>
      <trkpt lat="41.92693" lon="25.79418">
        <ele>184.317198</ele>
        <time>2022-02-27T09:38:44.617Z</time>
      </trkpt>
      <trkpt lat="41.92691" lon="25.79405">
        <ele>183.759765</ele>
        <time>2022-02-27T09:38:45.615Z</time>
      </trkpt>
      <trkpt lat="41.9269" lon="25.79392">
        <ele>183.265824</ele>
        <time>2022-02-27T09:38:46.694Z</time>
      </trkpt>
      <trkpt lat="41.92689" lon="25.79379">
        <ele>182.798621</ele>
        <time>2022-02-27T09:38:47.619Z</time>
      </trkpt>
      <trkpt lat="41.92688" lon="25.79367">
        <ele>182.346875</ele>
        <time>2022-02-27T09:38:48.630Z</time>
      </trkpt>
      <trkpt lat="41.92686" lon="25.79354">
        <ele>181.893895</ele>
        <time>2022-02-27T09:38:49.624Z</time>
      </trkpt>
      <trkpt lat="41.92684" lon="25.7933">
        <ele>181.026033</ele>
        <time>2022-02-27T09:38:51.639Z</time>
      </trkpt>
      <trkpt lat="41.92682" lon="25.79307">
        <ele>180.18013</ele>
        <time>2022-02-27T09:38:53.631Z</time>
      </trkpt>
      <trkpt lat="41.9268" lon="25.79284">
        <ele>179.375097</ele>
        <time>2022-02-27T09:38:55.625Z</time>
      </trkpt>
      <trkpt lat="41.92679" lon="25.79263">
        <ele>178.610806</ele>
        <time>2022-02-27T09:38:57.668Z</time>
      </trkpt>
      <trkpt lat="41.92677" lon="25.79243">
        <ele>177.897839</ele>
        <time>2022-02-27T09:38:59.637Z</time>
      </trkpt>
      <trkpt lat="41.92676" lon="25.79223">
        <ele>177.181294</ele>
        <time>2022-02-27T09:39:01.629Z</time>
      </trkpt>
      <trkpt lat="41.92675" lon="25.79205">
        <ele>176.530244</ele>
        <time>2022-02-27T09:39:03.629Z</time>
      </trkpt>
      <trkpt lat="41.92674" lon="25.79188">
        <ele>175.921795</ele>
        <time>2022-02-27T09:39:05.622Z</time>
      </trkpt>
      <trkpt lat="41.92673" lon="25.79172">
        <ele>175.320501</ele>
        <time>2022-02-27T09:39:07.628Z</time>
      </trkpt>
      <trkpt lat="41.92672" lon="25.79156">
        <ele>174.994801</ele>
        <time>2022-02-27T09:39:09.618Z</time>
      </trkpt>
      <trkpt lat="41.92671" lon="25.79142">
        <ele>175.175568</ele>
        <time>2022-02-27T09:39:11.639Z</time>
      </trkpt>
      <trkpt lat="41.92671" lon="25.79129">
        <ele>175.338148</ele>
        <time>2022-02-27T09:39:13.627Z</time>
      </trkpt>
      <trkpt lat="41.9267" lon="25.79116">
        <ele>175.497285</ele>
        <time>2022-02-27T09:39:15.624Z</time>
      </trkpt>
      <trkpt lat="41.92669" lon="25.79103">
        <ele>175.670202</ele>
        <time>2022-02-27T09:39:17.622Z</time>
      </trkpt>
      <trkpt lat="41.92668" lon="25.79089">
        <ele>175.847505</ele>
        <time>2022-02-27T09:39:19.614Z</time>
      </trkpt>
      <trkpt lat="41.92667" lon="25.79076">
        <ele>176.01454</ele>
        <time>2022-02-27T09:39:21.624Z</time>
      </trkpt>
      <trkpt lat="41.92667" lon="25.79064">
        <ele>176.168254</ele>
        <time>2022-02-27T09:39:23.630Z</time>
      </trkpt>
      <trkpt lat="41.92665" lon="25.79047">
        <ele>176.381419</ele>
        <time>2022-02-27T09:39:26.626Z</time>
      </trkpt>
      <trkpt lat="41.92664" lon="25.79033">
        <ele>176.565978</ele>
        <time>2022-02-27T09:39:29.623Z</time>
      </trkpt>
      <trkpt lat="41.92663" lon="25.79017">
        <ele>176.764584</ele>
        <time>2022-02-27T09:39:32.625Z</time>
      </trkpt>
      <trkpt lat="41.92663" lon="25.79001">
        <ele>176.96155</ele>
        <time>2022-02-27T09:39:35.619Z</time>
      </trkpt>
      <trkpt lat="41.92662" lon="25.78987">
        <ele>177.151035</ele>
        <time>2022-02-27T09:39:38.627Z</time>
      </trkpt>
      <trkpt lat="41.92662" lon="25.78971">
        <ele>177.354045</ele>
        <time>2022-02-27T09:39:41.635Z</time>
      </trkpt>
      <trkpt lat="41.92661" lon="25.78955">
        <ele>177.556593</ele>
        <time>2022-02-27T09:39:44.633Z</time>
      </trkpt>
      <trkpt lat="41.9266" lon="25.78939">
        <ele>177.75367</ele>
        <time>2022-02-27T09:39:47.660Z</time>
      </trkpt>
      <trkpt lat="41.92659" lon="25.78924">
        <ele>177.942786</ele>
        <time>2022-02-27T09:39:50.611Z</time>
      </trkpt>
      <trkpt lat="41.92658" lon="25.78909">
        <ele>178.151066</ele>
        <time>2022-02-27T09:39:53.631Z</time>
      </trkpt>
      <trkpt lat="41.92657" lon="25.78895">
        <ele>178.363917</ele>
        <time>2022-02-27T09:39:56.640Z</time>
      </trkpt>
      <trkpt lat="41.92656" lon="25.78879">
        <ele>178.583596</ele>
        <time>2022-02-27T09:39:59.619Z</time>
      </trkpt>
      <trkpt lat="41.92655" lon="25.78864">
        <ele>178.801838</ele>
        <time>2022-02-27T09:40:02.626Z</time>
      </trkpt>
      <trkpt lat="41.92654" lon="25.78849">
        <ele>179.020424</ele>
        <time>2022-02-27T09:40:05.618Z</time>
      </trkpt>
      <trkpt lat="41.92653" lon="25.78835">
        <ele>179.2299</ele>
        <time>2022-02-27T09:40:08.623Z</time>
      </trkpt>
      <trkpt lat="41.92653" lon="25.7882">
        <ele>179.442248</ele>
        <time>2022-02-27T09:40:11.626Z</time>
      </trkpt>
      <trkpt lat="41.92652" lon="25.78805">
        <ele>179.657967</ele>
        <time>2022-02-27T09:40:14.649Z</time>
      </trkpt>
      <trkpt lat="41.92651" lon="25.7879">
        <ele>179.872068</ele>
        <time>2022-02-27T09:40:17.617Z</time>
      </trkpt>
      <trkpt lat="41.9265" lon="25.78776">
        <ele>180.077233</ele>
        <time>2022-02-27T09:40:20.631Z</time>
      </trkpt>
      <trkpt lat="41.92649" lon="25.78761">
        <ele>180.300752</ele>
        <time>2022-02-27T09:40:23.631Z</time>
      </trkpt>
      <trkpt lat="41.92649" lon="25.78745">
        <ele>180.528588</ele>
        <time>2022-02-27T09:40:26.632Z</time>
      </trkpt>
      <trkpt lat="41.92648" lon="25.78729">
        <ele>180.763495</ele>
        <time>2022-02-27T09:40:29.620Z</time>
      </trkpt>
      <trkpt lat="41.92648" lon="25.78713">
        <ele>180.991652</ele>
        <time>2022-02-27T09:40:32.617Z</time>
      </trkpt>
      <trkpt lat="41.92646" lon="25.78697">
        <ele>181.214944</ele>
        <time>2022-02-27T09:40:35.673Z</time>
      </trkpt>
      <trkpt lat="41.92646" lon="25.78681">
        <ele>181.44431</ele>
        <time>2022-02-27T09:40:38.637Z</time>
      </trkpt>
      <trkpt lat="41.92644" lon="25.78666">
        <ele>181.591853</ele>
        <time>2022-02-27T09:40:41.639Z</time>
      </trkpt>
      <trkpt lat="41.92643" lon="25.78652">
        <ele>181.715161</ele>
        <time>2022-02-27T09:40:44.633Z</time>
      </trkpt>
      <trkpt lat="41.92643" lon="25.78637">
        <ele>181.838744</ele>
        <time>2022-02-27T09:40:47.624Z</time>
      </trkpt>
      <trkpt lat="41.92641" lon="25.78622">
        <ele>181.965435</ele>
        <time>2022-02-27T09:40:50.662Z</time>
      </trkpt>
      <trkpt lat="41.92641" lon="25.78607">
        <ele>182.095108</ele>
        <time>2022-02-27T09:40:53.632Z</time>
      </trkpt>
      <trkpt lat="41.9264" lon="25.78592">
        <ele>182.223267</ele>
        <time>2022-02-27T09:40:56.629Z</time>
      </trkpt>
      <trkpt lat="41.92639" lon="25.78577">
        <ele>182.354074</ele>
        <time>2022-02-27T09:40:59.647Z</time>
      </trkpt>
      <trkpt lat="41.92637" lon="25.78561">
        <ele>182.490075</ele>
        <time>2022-02-27T09:41:02.617Z</time>
      </trkpt>
      <trkpt lat="41.92637" lon="25.78544">
        <ele>182.631635</ele>
        <time>2022-02-27T09:41:05.626Z</time>
      </trkpt>
      <trkpt lat="41.92636" lon="25.78528">
        <ele>182.768181</ele>
        <time>2022-02-27T09:41:08.699Z</time>
      </trkpt>
      <trkpt lat="41.92635" lon="25.78512">
        <ele>182.904645</ele>
        <time>2022-02-27T09:41:11.627Z</time>
      </trkpt>
      <trkpt lat="41.92634" lon="25.78496">
        <ele>183.047219</ele>
        <time>2022-02-27T09:41:14.670Z</time>
      </trkpt>
      <trkpt lat="41.92634" lon="25.78483">
        <ele>183.150246</ele>
        <time>2022-02-27T09:41:16.638Z</time>
      </trkpt>
      <trkpt lat="41.92632" lon="25.78465">
        <ele>183.304037</ele>
        <time>2022-02-27T09:41:19.646Z</time>
      </trkpt>
      <trkpt lat="41.92632" lon="25.78448">
        <ele>183.450625</ele>
        <time>2022-02-27T09:41:22.630Z</time>
      </trkpt>
      <trkpt lat="41.92631" lon="25.78432">
        <ele>183.504763</ele>
        <time>2022-02-27T09:41:25.661Z</time>
      </trkpt>
      <trkpt lat="41.9263" lon="25.78415">
        <ele>183.418241</ele>
        <time>2022-02-27T09:41:28.632Z</time>
      </trkpt>
      <trkpt lat="41.92629" lon="25.78397">
        <ele>183.329803</ele>
        <time>2022-02-27T09:41:31.620Z</time>
      </trkpt>
      <trkpt lat="41.92628" lon="25.78385">
        <ele>183.267809</ele>
        <time>2022-02-27T09:41:33.665Z</time>
      </trkpt>
      <trkpt lat="41.92627" lon="25.78368">
        <ele>183.179573</ele>
        <time>2022-02-27T09:41:36.690Z</time>
      </trkpt>
      <trkpt lat="41.92626" lon="25.7835">
        <ele>183.089569</ele>
        <time>2022-02-27T09:41:39.626Z</time>
      </trkpt>
      <trkpt lat="41.92625" lon="25.78338">
        <ele>183.026754</ele>
        <time>2022-02-27T09:41:41.669Z</time>
      </trkpt>
      <trkpt lat="41.92624" lon="25.7832">
        <ele>182.939372</ele>
        <time>2022-02-27T09:41:44.639Z</time>
      </trkpt>
      <trkpt lat="41.92623" lon="25.78303">
        <ele>182.848685</ele>
        <time>2022-02-27T09:41:47.669Z</time>
      </trkpt>
      <trkpt lat="41.92621" lon="25.78286">
        <ele>182.761657</ele>
        <time>2022-02-27T09:41:50.637Z</time>
      </trkpt>
      <trkpt lat="41.9262" lon="25.78269">
        <ele>182.67766</ele>
        <time>2022-02-27T09:41:53.640Z</time>
      </trkpt>
      <trkpt lat="41.92619" lon="25.78253">
        <ele>182.597763</ele>
        <time>2022-02-27T09:41:56.665Z</time>
      </trkpt>
      <trkpt lat="41.92618" lon="25.78236">
        <ele>182.510736</ele>
        <time>2022-02-27T09:41:59.629Z</time>
      </trkpt>
      <trkpt lat="41.92617" lon="25.78219">
        <ele>182.423764</ele>
        <time>2022-02-27T09:42:02.629Z</time>
      </trkpt>
      <trkpt lat="41.92616" lon="25.78202">
        <ele>182.335781</ele>
        <time>2022-02-27T09:42:05.641Z</time>
      </trkpt>
      <trkpt lat="41.92615" lon="25.78185">
        <ele>182.411208</ele>
        <time>2022-02-27T09:42:08.632Z</time>
      </trkpt>
      <trkpt lat="41.92614" lon="25.78168">
        <ele>182.540979</ele>
        <time>2022-02-27T09:42:11.630Z</time>
      </trkpt>
      <trkpt lat="41.92613" lon="25.78151">
        <ele>182.670214</ele>
        <time>2022-02-27T09:42:14.656Z</time>
      </trkpt>
      <trkpt lat="41.92612" lon="25.78134">
        <ele>182.804889</ele>
        <time>2022-02-27T09:42:17.632Z</time>
      </trkpt>
      <trkpt lat="41.92611" lon="25.78118">
        <ele>182.934035</ele>
        <time>2022-02-27T09:42:20.624Z</time>
      </trkpt>
      <trkpt lat="41.9261" lon="25.78102">
        <ele>183.059136</ele>
        <time>2022-02-27T09:42:23.641Z</time>
      </trkpt>
      <trkpt lat="41.92609" lon="25.78086">
        <ele>183.185015</ele>
        <time>2022-02-27T09:42:26.711Z</time>
      </trkpt>
      <trkpt lat="41.92608" lon="25.78069">
        <ele>183.31408</ele>
        <time>2022-02-27T09:42:29.623Z</time>
      </trkpt>
      <trkpt lat="41.92608" lon="25.78052">
        <ele>183.449057</ele>
        <time>2022-02-27T09:42:32.623Z</time>
      </trkpt>
      <trkpt lat="41.92608" lon="25.78034">
        <ele>183.587922</ele>
        <time>2022-02-27T09:42:35.634Z</time>
      </trkpt>
      <trkpt lat="41.92608" lon="25.78016">
        <ele>183.726783</ele>
        <time>2022-02-27T09:42:38.654Z</time>
      </trkpt>
      <trkpt lat="41.92609" lon="25.77999">
        <ele>183.864228</ele>
        <time>2022-02-27T09:42:41.639Z</time>
      </trkpt>
      <trkpt lat="41.9261" lon="25.77981">
        <ele>184.001785</ele>
        <time>2022-02-27T09:42:44.654Z</time>
      </trkpt>
      <trkpt lat="41.92611" lon="25.77964">
        <ele>184.134906</ele>
        <time>2022-02-27T09:42:47.646Z</time>
      </trkpt>
      <trkpt lat="41.92612" lon="25.77947">
        <ele>184.334983</ele>
        <time>2022-02-27T09:42:50.670Z</time>
      </trkpt>
      <trkpt lat="41.92614" lon="25.7793">
        <ele>184.595715</ele>
        <time>2022-02-27T09:42:53.621Z</time>
      </trkpt>
      <trkpt lat="41.92617" lon="25.77913">
        <ele>184.858177</ele>
        <time>2022-02-27T09:42:56.641Z</time>
      </trkpt>
      <trkpt lat="41.9262" lon="25.77896">
        <ele>185.131807</ele>
        <time>2022-02-27T09:42:59.636Z</time>
      </trkpt>
      <trkpt lat="41.92622" lon="25.77884">
        <ele>185.317026</ele>
        <time>2022-02-27T09:43:01.639Z</time>
      </trkpt>
      <trkpt lat="41.92626" lon="25.77867">
        <ele>185.582329</ele>
        <time>2022-02-27T09:43:04.622Z</time>
      </trkpt>
      <trkpt lat="41.92629" lon="25.7785">
        <ele>185.845772</ele>
        <time>2022-02-27T09:43:07.627Z</time>
      </trkpt>
      <trkpt lat="41.92633" lon="25.77833">
        <ele>186.112994</ele>
        <time>2022-02-27T09:43:10.625Z</time>
      </trkpt>
      <trkpt lat="41.92637" lon="25.77817">
        <ele>186.377025</ele>
        <time>2022-02-27T09:43:13.625Z</time>
      </trkpt>
      <trkpt lat="41.92641" lon="25.77801">
        <ele>186.630442</ele>
        <time>2022-02-27T09:43:16.640Z</time>
      </trkpt>
      <trkpt lat="41.92646" lon="25.77785">
        <ele>186.895856</ele>
        <time>2022-02-27T09:43:19.637Z</time>
      </trkpt>
      <trkpt lat="41.92651" lon="25.77769">
        <ele>187.160627</ele>
        <time>2022-02-27T09:43:22.635Z</time>
      </trkpt>
      <trkpt lat="41.92656" lon="25.77752">
        <ele>187.432123</ele>
        <time>2022-02-27T09:43:25.631Z</time>
      </trkpt>
      <trkpt lat="41.92659" lon="25.77741">
        <ele>187.615796</ele>
        <time>2022-02-27T09:43:27.646Z</time>
      </trkpt>
      <trkpt lat="41.92663" lon="25.7773">
        <ele>187.804648</ele>
        <time>2022-02-27T09:43:29.627Z</time>
      </trkpt>
      <trkpt lat="41.92667" lon="25.77718">
        <ele>187.747703</ele>
        <time>2022-02-27T09:43:31.629Z</time>
      </trkpt>
      <trkpt lat="41.9267" lon="25.77707">
        <ele>187.575794</ele>
        <time>2022-02-27T09:43:33.631Z</time>
      </trkpt>
      <trkpt lat="41.92674" lon="25.77695">
        <ele>187.400547</ele>
        <time>2022-02-27T09:43:35.649Z</time>
      </trkpt>
      <trkpt lat="41.92678" lon="25.77684">
        <ele>187.221959</ele>
        <time>2022-02-27T09:43:37.631Z</time>
      </trkpt>
      <trkpt lat="41.92681" lon="25.77672">
        <ele>187.049291</ele>
        <time>2022-02-27T09:43:39.639Z</time>
      </trkpt>
      <trkpt lat="41.92685" lon="25.77661">
        <ele>186.874792</ele>
        <time>2022-02-27T09:43:41.633Z</time>
      </trkpt>
      <trkpt lat="41.92689" lon="25.77649">
        <ele>186.694365</ele>
        <time>2022-02-27T09:43:43.609Z</time>
      </trkpt>
      <trkpt lat="41.92692" lon="25.77638">
        <ele>186.520409</ele>
        <time>2022-02-27T09:43:45.631Z</time>
      </trkpt>
      <trkpt lat="41.92697" lon="25.77622">
        <ele>186.275311</ele>
        <time>2022-02-27T09:43:48.621Z</time>
      </trkpt>
      <trkpt lat="41.92701" lon="25.77611">
        <ele>186.10487</ele>
        <time>2022-02-27T09:43:50.664Z</time>
      </trkpt>
      <trkpt lat="41.92705" lon="25.77595">
        <ele>185.861181</ele>
        <time>2022-02-27T09:43:53.630Z</time>
      </trkpt>
      <trkpt lat="41.9271" lon="25.77579">
        <ele>185.62474</ele>
        <time>2022-02-27T09:43:56.658Z</time>
      </trkpt>
      <trkpt lat="41.92714" lon="25.77563">
        <ele>185.379097</ele>
        <time>2022-02-27T09:43:59.630Z</time>
      </trkpt>
      <trkpt lat="41.92719" lon="25.77546">
        <ele>185.127509</ele>
        <time>2022-02-27T09:44:02.631Z</time>
      </trkpt>
      <trkpt lat="41.92723" lon="25.7753">
        <ele>184.887737</ele>
        <time>2022-02-27T09:44:05.626Z</time>
      </trkpt>
      <trkpt lat="41.92727" lon="25.77514">
        <ele>184.651244</ele>
        <time>2022-02-27T09:44:08.638Z</time>
      </trkpt>
      <trkpt lat="41.92731" lon="25.77497">
        <ele>184.431401</ele>
        <time>2022-02-27T09:44:11.649Z</time>
      </trkpt>
      <trkpt lat="41.92734" lon="25.7748">
        <ele>184.297342</ele>
        <time>2022-02-27T09:44:14.641Z</time>
      </trkpt>
      <trkpt lat="41.92736" lon="25.77468">
        <ele>184.200744</ele>
        <time>2022-02-27T09:44:16.676Z</time>
      </trkpt>
      <trkpt lat="41.92738" lon="25.77456">
        <ele>184.101882</ele>
        <time>2022-02-27T09:44:18.635Z</time>
      </trkpt>
      <trkpt lat="41.9274" lon="25.77443">
        <ele>184.002488</ele>
        <time>2022-02-27T09:44:20.695Z</time>
      </trkpt>
      <trkpt lat="41.92742" lon="25.77431">
        <ele>183.900812</ele>
        <time>2022-02-27T09:44:22.621Z</time>
      </trkpt>
      <trkpt lat="41.92744" lon="25.77418">
        <ele>183.802794</ele>
        <time>2022-02-27T09:44:24.653Z</time>
      </trkpt>
      <trkpt lat="41.92745" lon="25.77406">
        <ele>183.706063</ele>
        <time>2022-02-27T09:44:26.627Z</time>
      </trkpt>
      <trkpt lat="41.92747" lon="25.77393">
        <ele>183.605164</ele>
        <time>2022-02-27T09:44:28.644Z</time>
      </trkpt>
      <trkpt lat="41.92748" lon="25.7738">
        <ele>183.504589</ele>
        <time>2022-02-27T09:44:30.638Z</time>
      </trkpt>
      <trkpt lat="41.9275" lon="25.77367">
        <ele>183.39832</ele>
        <time>2022-02-27T09:44:32.617Z</time>
      </trkpt>
      <trkpt lat="41.92752" lon="25.77354">
        <ele>183.295883</ele>
        <time>2022-02-27T09:44:34.643Z</time>
      </trkpt>
      <trkpt lat="41.92754" lon="25.77341">
        <ele>183.195941</ele>
        <time>2022-02-27T09:44:36.677Z</time>
      </trkpt>
      <trkpt lat="41.92755" lon="25.77329">
        <ele>183.097513</ele>
        <time>2022-02-27T09:44:38.644Z</time>
      </trkpt>
      <trkpt lat="41.92757" lon="25.77316">
        <ele>182.999679</ele>
        <time>2022-02-27T09:44:40.638Z</time>
      </trkpt>
      <trkpt lat="41.92759" lon="25.77299">
        <ele>182.860344</ele>
        <time>2022-02-27T09:44:43.648Z</time>
      </trkpt>
      <trkpt lat="41.92761" lon="25.77282">
        <ele>182.729312</ele>
        <time>2022-02-27T09:44:46.630Z</time>
      </trkpt>
      <trkpt lat="41.92763" lon="25.77265">
        <ele>182.598586</ele>
        <time>2022-02-27T09:44:49.641Z</time>
      </trkpt>
      <trkpt lat="41.92765" lon="25.77249">
        <ele>182.650055</ele>
        <time>2022-02-27T09:44:52.632Z</time>
      </trkpt>
      <trkpt lat="41.92767" lon="25.77234">
        <ele>182.724289</ele>
        <time>2022-02-27T09:44:55.623Z</time>
      </trkpt>
      <trkpt lat="41.92769" lon="25.77218">
        <ele>182.800624</ele>
        <time>2022-02-27T09:44:58.663Z</time>
      </trkpt>
      <trkpt lat="41.92772" lon="25.77202">
        <ele>182.877292</ele>
        <time>2022-02-27T09:45:01.642Z</time>
      </trkpt>
      <trkpt lat="41.92774" lon="25.77187">
        <ele>182.950721</ele>
        <time>2022-02-27T09:45:04.635Z</time>
      </trkpt>
      <trkpt lat="41.92777" lon="25.77172">
        <ele>183.026816</ele>
        <time>2022-02-27T09:45:07.659Z</time>
      </trkpt>
      <trkpt lat="41.92782" lon="25.77155">
        <ele>183.111465</ele>
        <time>2022-02-27T09:45:10.642Z</time>
      </trkpt>
      <trkpt lat="41.92784" lon="25.77143">
        <ele>183.168645</ele>
        <time>2022-02-27T09:45:12.628Z</time>
      </trkpt>
      <trkpt lat="41.92787" lon="25.77131">
        <ele>183.227126</ele>
        <time>2022-02-27T09:45:14.636Z</time>
      </trkpt>
      <trkpt lat="41.9279" lon="25.77119">
        <ele>183.287846</ele>
        <time>2022-02-27T09:45:16.678Z</time>
      </trkpt>
      <trkpt lat="41.92793" lon="25.77108">
        <ele>183.346123</ele>
        <time>2022-02-27T09:45:18.653Z</time>
      </trkpt>
      <trkpt lat="41.92798" lon="25.77091">
        <ele>183.428325</ele>
        <time>2022-02-27T09:45:21.668Z</time>
      </trkpt>
      <trkpt lat="41.92804" lon="25.77075">
        <ele>183.511615</ele>
        <time>2022-02-27T09:45:24.633Z</time>
      </trkpt>
      <trkpt lat="41.9281" lon="25.7706">
        <ele>183.595023</ele>
        <time>2022-02-27T09:45:27.631Z</time>
      </trkpt>
      <trkpt lat="41.92816" lon="25.77045">
        <ele>183.673843</ele>
        <time>2022-02-27T09:45:30.632Z</time>
      </trkpt>
      <trkpt lat="41.92822" lon="25.77031">
        <ele>183.702806</ele>
        <time>2022-02-27T09:45:33.638Z</time>
      </trkpt>
      <trkpt lat="41.92829" lon="25.77018">
        <ele>183.634837</ele>
        <time>2022-02-27T09:45:36.680Z</time>
      </trkpt>
      <trkpt lat="41.92836" lon="25.77005">
        <ele>183.56448</ele>
        <time>2022-02-27T09:45:39.630Z</time>
      </trkpt>
      <trkpt lat="41.92843" lon="25.76992">
        <ele>183.495183</ele>
        <time>2022-02-27T09:45:42.617Z</time>
      </trkpt>
      <trkpt lat="41.9285" lon="25.7698">
        <ele>183.433402</ele>
        <time>2022-02-27T09:45:45.627Z</time>
      </trkpt>
      <trkpt lat="41.92856" lon="25.7697">
        <ele>183.373932</ele>
        <time>2022-02-27T09:45:48.629Z</time>
      </trkpt>
      <trkpt lat="41.92864" lon="25.76959">
        <ele>183.310908</ele>
        <time>2022-02-27T09:45:51.623Z</time>
      </trkpt>
      <trkpt lat="41.92871" lon="25.76948">
        <ele>183.247114</ele>
        <time>2022-02-27T09:45:54.617Z</time>
      </trkpt>
      <trkpt lat="41.92879" lon="25.76938">
        <ele>183.185089</ele>
        <time>2022-02-27T09:45:57.614Z</time>
      </trkpt>
      <trkpt lat="41.92887" lon="25.76927">
        <ele>183.119927</ele>
        <time>2022-02-27T09:46:00.629Z</time>
      </trkpt>
      <trkpt lat="41.92895" lon="25.76916">
        <ele>183.05466</ele>
        <time>2022-02-27T09:46:03.636Z</time>
      </trkpt>
      <trkpt lat="41.92904" lon="25.76905">
        <ele>182.984301</ele>
        <time>2022-02-27T09:46:06.623Z</time>
      </trkpt>
      <trkpt lat="41.92913" lon="25.76893">
        <ele>182.912259</ele>
        <time>2022-02-27T09:46:09.647Z</time>
      </trkpt>
      <trkpt lat="41.92922" lon="25.7688">
        <ele>182.837686</ele>
        <time>2022-02-27T09:46:12.628Z</time>
      </trkpt>
      <trkpt lat="41.92931" lon="25.76868">
        <ele>182.762204</ele>
        <time>2022-02-27T09:46:15.694Z</time>
      </trkpt>
      <trkpt lat="41.9294" lon="25.76856">
        <ele>182.708796</ele>
        <time>2022-02-27T09:46:18.636Z</time>
      </trkpt>
      <trkpt lat="41.9295" lon="25.76844">
        <ele>183.102258</ele>
        <time>2022-02-27T09:46:21.621Z</time>
      </trkpt>
      <trkpt lat="41.92959" lon="25.76832">
        <ele>183.492913</ele>
        <time>2022-02-27T09:46:24.633Z</time>
      </trkpt>
      <trkpt lat="41.92967" lon="25.76821">
        <ele>183.852713</ele>
        <time>2022-02-27T09:46:27.642Z</time>
      </trkpt>
      <trkpt lat="41.92976" lon="25.7681">
        <ele>184.222363</ele>
        <time>2022-02-27T09:46:30.627Z</time>
      </trkpt>
      <trkpt lat="41.92985" lon="25.76798">
        <ele>184.614237</ele>
        <time>2022-02-27T09:46:33.630Z</time>
      </trkpt>
      <trkpt lat="41.92994" lon="25.76787">
        <ele>184.993487</ele>
        <time>2022-02-27T09:46:36.631Z</time>
      </trkpt>
      <trkpt lat="41.93003" lon="25.76775">
        <ele>185.379328</ele>
        <time>2022-02-27T09:46:39.638Z</time>
      </trkpt>
      <trkpt lat="41.93011" lon="25.76763">
        <ele>185.760762</ele>
        <time>2022-02-27T09:46:42.624Z</time>
      </trkpt>
      <trkpt lat="41.9302" lon="25.76752">
        <ele>186.141202</ele>
        <time>2022-02-27T09:46:45.638Z</time>
      </trkpt>
      <trkpt lat="41.93028" lon="25.76741">
        <ele>186.500954</ele>
        <time>2022-02-27T09:46:48.665Z</time>
      </trkpt>
      <trkpt lat="41.93036" lon="25.76729">
        <ele>186.860706</ele>
        <time>2022-02-27T09:46:51.639Z</time>
      </trkpt>
      <trkpt lat="41.93044" lon="25.76718">
        <ele>187.204123</ele>
        <time>2022-02-27T09:46:54.641Z</time>
      </trkpt>
      <trkpt lat="41.93052" lon="25.76706">
        <ele>187.579007</ele>
        <time>2022-02-27T09:46:57.621Z</time>
      </trkpt>
      <trkpt lat="41.9306" lon="25.76693">
        <ele>187.9674</ele>
        <time>2022-02-27T09:47:00.618Z</time>
      </trkpt>
      <trkpt lat="41.93068" lon="25.76679">
        <ele>188.203327</ele>
        <time>2022-02-27T09:47:03.636Z</time>
      </trkpt>
      <trkpt lat="41.93074" lon="25.76665">
        <ele>188.115569</ele>
        <time>2022-02-27T09:47:06.628Z</time>
      </trkpt>
      <trkpt lat="41.93081" lon="25.76651">
        <ele>188.028695</ele>
        <time>2022-02-27T09:47:09.612Z</time>
      </trkpt>
      <trkpt lat="41.93087" lon="25.76636">
        <ele>187.940763</ele>
        <time>2022-02-27T09:47:12.628Z</time>
      </trkpt>
      <trkpt lat="41.93093" lon="25.76622">
        <ele>187.853698</ele>
        <time>2022-02-27T09:47:15.649Z</time>
      </trkpt>
      <trkpt lat="41.93097" lon="25.76607">
        <ele>187.770596</ele>
        <time>2022-02-27T09:47:18.629Z</time>
      </trkpt>
      <trkpt lat="41.93101" lon="25.76592">
        <ele>187.686349</ele>
        <time>2022-02-27T09:47:21.650Z</time>
      </trkpt>
      <trkpt lat="41.93105" lon="25.76577">
        <ele>187.602313</ele>
        <time>2022-02-27T09:47:24.631Z</time>
      </trkpt>
      <trkpt lat="41.93109" lon="25.76563">
        <ele>187.521029</ele>
        <time>2022-02-27T09:47:27.619Z</time>
      </trkpt>
      <trkpt lat="41.93113" lon="25.76547">
        <ele>187.436763</ele>
        <time>2022-02-27T09:47:30.632Z</time>
      </trkpt>
      <trkpt lat="41.93116" lon="25.76531">
        <ele>187.348069</ele>
        <time>2022-02-27T09:47:33.621Z</time>
      </trkpt>
      <trkpt lat="41.93119" lon="25.76515">
        <ele>187.261764</ele>
        <time>2022-02-27T09:47:36.621Z</time>
      </trkpt>
      <trkpt lat="41.93122" lon="25.76499">
        <ele>187.174166</ele>
        <time>2022-02-27T09:47:39.615Z</time>
      </trkpt>
      <trkpt lat="41.93124" lon="25.76483">
        <ele>187.08716</ele>
        <time>2022-02-27T09:47:42.629Z</time>
      </trkpt>
      <trkpt lat="41.93127" lon="25.76467">
        <ele>187.000822</ele>
        <time>2022-02-27T09:47:45.608Z</time>
      </trkpt>
      <trkpt lat="41.93129" lon="25.7645">
        <ele>186.851582</ele>
        <time>2022-02-27T09:47:48.621Z</time>
      </trkpt>
      <trkpt lat="41.93132" lon="25.76433">
        <ele>186.637247</ele>
        <time>2022-02-27T09:47:51.632Z</time>
      </trkpt>
      <trkpt lat="41.93135" lon="25.76416">
        <ele>186.425766</ele>
        <time>2022-02-27T09:47:54.651Z</time>
      </trkpt>
      <trkpt lat="41.93138" lon="25.76399">
        <ele>186.212735</ele>
        <time>2022-02-27T09:47:57.622Z</time>
      </trkpt>
      <trkpt lat="41.9314" lon="25.76382">
        <ele>186.004978</ele>
        <time>2022-02-27T09:48:00.629Z</time>
      </trkpt>
      <trkpt lat="41.93142" lon="25.76366">
        <ele>185.803198</ele>
        <time>2022-02-27T09:48:03.628Z</time>
      </trkpt>
      <trkpt lat="41.93144" lon="25.76349">
        <ele>185.59458</ele>
        <time>2022-02-27T09:48:06.636Z</time>
      </trkpt>
      <trkpt lat="41.93147" lon="25.76332">
        <ele>185.386839</ele>
        <time>2022-02-27T09:48:09.636Z</time>
      </trkpt>
      <trkpt lat="41.93149" lon="25.76315">
        <ele>185.175751</ele>
        <time>2022-02-27T09:48:12.621Z</time>
      </trkpt>
      <trkpt lat="41.93151" lon="25.76298">
        <ele>184.962659</ele>
        <time>2022-02-27T09:48:15.636Z</time>
      </trkpt>
      <trkpt lat="41.93154" lon="25.7628">
        <ele>184.74718</ele>
        <time>2022-02-27T09:48:18.610Z</time>
      </trkpt>
      <trkpt lat="41.93156" lon="25.76263">
        <ele>184.531411</ele>
        <time>2022-02-27T09:48:21.649Z</time>
      </trkpt>
      <trkpt lat="41.93158" lon="25.76251">
        <ele>184.384484</ele>
        <time>2022-02-27T09:48:23.639Z</time>
      </trkpt>
      <trkpt lat="41.9316" lon="25.76239">
        <ele>184.238092</ele>
        <time>2022-02-27T09:48:25.633Z</time>
      </trkpt>
      <trkpt lat="41.93162" lon="25.76222">
        <ele>184.029043</ele>
        <time>2022-02-27T09:48:28.630Z</time>
      </trkpt>
      <trkpt lat="41.93164" lon="25.76205">
        <ele>184.075929</ele>
        <time>2022-02-27T09:48:31.631Z</time>
      </trkpt>
      <trkpt lat="41.93166" lon="25.76188">
        <ele>184.121794</ele>
        <time>2022-02-27T09:48:34.617Z</time>
      </trkpt>
      <trkpt lat="41.93169" lon="25.76172">
        <ele>184.167726</ele>
        <time>2022-02-27T09:48:37.641Z</time>
      </trkpt>
      <trkpt lat="41.9317" lon="25.76156">
        <ele>184.212976</ele>
        <time>2022-02-27T09:48:40.633Z</time>
      </trkpt>
      <trkpt lat="41.93173" lon="25.7614">
        <ele>184.258168</ele>
        <time>2022-02-27T09:48:43.621Z</time>
      </trkpt>
      <trkpt lat="41.93175" lon="25.76123">
        <ele>184.304782</ele>
        <time>2022-02-27T09:48:46.681Z</time>
      </trkpt>
      <trkpt lat="41.93177" lon="25.76107">
        <ele>184.350191</ele>
        <time>2022-02-27T09:48:49.677Z</time>
      </trkpt>
      <trkpt lat="41.93179" lon="25.76091">
        <ele>184.392882</ele>
        <time>2022-02-27T09:48:52.616Z</time>
      </trkpt>
      <trkpt lat="41.93181" lon="25.76077">
        <ele>184.433809</ele>
        <time>2022-02-27T09:48:55.652Z</time>
      </trkpt>
      <trkpt lat="41.93182" lon="25.76062">
        <ele>184.475569</ele>
        <time>2022-02-27T09:48:58.624Z</time>
      </trkpt>
      <trkpt lat="41.93184" lon="25.76046">
        <ele>184.519201</ele>
        <time>2022-02-27T09:49:01.624Z</time>
      </trkpt>
      <trkpt lat="41.93187" lon="25.7603">
        <ele>184.564932</ele>
        <time>2022-02-27T09:49:04.628Z</time>
      </trkpt>
      <trkpt lat="41.93189" lon="25.76014">
        <ele>184.610341</ele>
        <time>2022-02-27T09:49:07.633Z</time>
      </trkpt>
      <trkpt lat="41.93191" lon="25.75998">
        <ele>184.654311</ele>
        <time>2022-02-27T09:49:10.638Z</time>
      </trkpt>
      <trkpt lat="41.93193" lon="25.75982">
        <ele>184.710285</ele>
        <time>2022-02-27T09:49:13.644Z</time>
      </trkpt>
      <trkpt lat="41.93195" lon="25.75966">
        <ele>184.834338</ele>
        <time>2022-02-27T09:49:16.654Z</time>
      </trkpt>
      <trkpt lat="41.93197" lon="25.7595">
        <ele>184.955031</ele>
        <time>2022-02-27T09:49:19.615Z</time>
      </trkpt>
      <trkpt lat="41.93199" lon="25.75935">
        <ele>185.071095</ele>
        <time>2022-02-27T09:49:22.667Z</time>
      </trkpt>
      <trkpt lat="41.93201" lon="25.75921">
        <ele>185.185848</ele>
        <time>2022-02-27T09:49:25.637Z</time>
      </trkpt>
      <trkpt lat="41.93203" lon="25.75906">
        <ele>185.301543</ele>
        <time>2022-02-27T09:49:28.666Z</time>
      </trkpt>
      <trkpt lat="41.93206" lon="25.75891">
        <ele>185.423191</ele>
        <time>2022-02-27T09:49:31.629Z</time>
      </trkpt>
      <trkpt lat="41.93208" lon="25.75876">
        <ele>185.541925</ele>
        <time>2022-02-27T09:49:34.647Z</time>
      </trkpt>
      <trkpt lat="41.9321" lon="25.7586">
        <ele>185.666508</ele>
        <time>2022-02-27T09:49:37.621Z</time>
      </trkpt>
      <trkpt lat="41.93212" lon="25.75844">
        <ele>185.791665</ele>
        <time>2022-02-27T09:49:40.632Z</time>
      </trkpt>
      <trkpt lat="41.93215" lon="25.75829">
        <ele>185.909328</ele>
        <time>2022-02-27T09:49:43.664Z</time>
      </trkpt>
      <trkpt lat="41.93216" lon="25.75813">
        <ele>186.03002</ele>
        <time>2022-02-27T09:49:46.627Z</time>
      </trkpt>
      <trkpt lat="41.93219" lon="25.75798">
        <ele>186.152735</ele>
        <time>2022-02-27T09:49:49.632Z</time>
      </trkpt>
      <trkpt lat="41.93221" lon="25.75783">
        <ele>186.26767</ele>
        <time>2022-02-27T09:49:52.614Z</time>
      </trkpt>
      <trkpt lat="41.93223" lon="25.7577">
        <ele>186.373344</ele>
        <time>2022-02-27T09:49:55.634Z</time>
      </trkpt>
      <trkpt lat="41.93226" lon="25.75756">
        <ele>186.479018</ele>
        <time>2022-02-27T09:49:58.625Z</time>
      </trkpt>
      <trkpt lat="41.93228" lon="25.75743">
        <ele>186.557199</ele>
        <time>2022-02-27T09:50:01.673Z</time>
      </trkpt>
      <trkpt lat="41.9323" lon="25.75729">
        <ele>186.56065</ele>
        <time>2022-02-27T09:50:04.635Z</time>
      </trkpt>
      <trkpt lat="41.93232" lon="25.75715">
        <ele>186.564037</ele>
        <time>2022-02-27T09:50:07.639Z</time>
      </trkpt>
      <trkpt lat="41.93234" lon="25.757">
        <ele>186.567488</ele>
        <time>2022-02-27T09:50:10.621Z</time>
      </trkpt>
      <trkpt lat="41.93236" lon="25.75686">
        <ele>186.571034</ele>
        <time>2022-02-27T09:50:13.619Z</time>
      </trkpt>
      <trkpt lat="41.93238" lon="25.75671">
        <ele>186.574719</ele>
        <time>2022-02-27T09:50:16.629Z</time>
      </trkpt>
      <trkpt lat="41.9324" lon="25.75655">
        <ele>186.578487</ele>
        <time>2022-02-27T09:50:19.618Z</time>
      </trkpt>
      <trkpt lat="41.93242" lon="25.7564">
        <ele>186.582201</ele>
        <time>2022-02-27T09:50:22.643Z</time>
      </trkpt>
      <trkpt lat="41.93245" lon="25.75626">
        <ele>186.585652</ele>
        <time>2022-02-27T09:50:25.626Z</time>
      </trkpt>
      <trkpt lat="41.93246" lon="25.75612">
        <ele>186.589033</ele>
        <time>2022-02-27T09:50:28.634Z</time>
      </trkpt>
      <trkpt lat="41.93248" lon="25.75597">
        <ele>186.592461</ele>
        <time>2022-02-27T09:50:31.630Z</time>
      </trkpt>
      <trkpt lat="41.9325" lon="25.75584">
        <ele>186.595812</ele>
        <time>2022-02-27T09:50:34.651Z</time>
      </trkpt>
      <trkpt lat="41.93252" lon="25.7557">
        <ele>186.599189</ele>
        <time>2022-02-27T09:50:37.638Z</time>
      </trkpt>
      <trkpt lat="41.93254" lon="25.75555">
        <ele>186.602659</ele>
        <time>2022-02-27T09:50:40.635Z</time>
      </trkpt>
      <trkpt lat="41.93255" lon="25.75541">
        <ele>186.606187</ele>
        <time>2022-02-27T09:50:43.633Z</time>
      </trkpt>
      <trkpt lat="41.93257" lon="25.75526">
        <ele>186.609649</ele>
        <time>2022-02-27T09:50:46.617Z</time>
      </trkpt>
      <trkpt lat="41.93259" lon="25.75512">
        <ele>186.613094</ele>
        <time>2022-02-27T09:50:49.616Z</time>
      </trkpt>
      <trkpt lat="41.93261" lon="25.75498">
        <ele>186.670679</ele>
        <time>2022-02-27T09:50:52.633Z</time>
      </trkpt>
      <trkpt lat="41.93263" lon="25.75485">
        <ele>186.746322</ele>
        <time>2022-02-27T09:50:55.615Z</time>
      </trkpt>
      <trkpt lat="41.93264" lon="25.75471">
        <ele>186.820983</ele>
        <time>2022-02-27T09:50:58.621Z</time>
      </trkpt>
      <trkpt lat="41.93266" lon="25.75457">
        <ele>186.895031</ele>
        <time>2022-02-27T09:51:01.632Z</time>
      </trkpt>
      <trkpt lat="41.93268" lon="25.75444">
        <ele>186.968819</ele>
        <time>2022-02-27T09:51:04.629Z</time>
      </trkpt>
      <trkpt lat="41.93269" lon="25.75431">
        <ele>187.040614</ele>
        <time>2022-02-27T09:51:07.665Z</time>
      </trkpt>
      <trkpt lat="41.93271" lon="25.75418">
        <ele>187.112815</ele>
        <time>2022-02-27T09:51:10.615Z</time>
      </trkpt>
      <trkpt lat="41.93273" lon="25.75403">
        <ele>187.191119</ele>
        <time>2022-02-27T09:51:13.620Z</time>
      </trkpt>
      <trkpt lat="41.93275" lon="25.75389">
        <ele>187.267705</ele>
        <time>2022-02-27T09:51:16.627Z</time>
      </trkpt>
      <trkpt lat="41.93277" lon="25.75375">
        <ele>187.344178</ele>
        <time>2022-02-27T09:51:19.635Z</time>
      </trkpt>
      <trkpt lat="41.93278" lon="25.75362">
        <ele>187.419699</ele>
        <time>2022-02-27T09:51:22.636Z</time>
      </trkpt>
      <trkpt lat="41.9328" lon="25.75349">
        <ele>187.491258</ele>
        <time>2022-02-27T09:51:25.627Z</time>
      </trkpt>
      <trkpt lat="41.93281" lon="25.75336">
        <ele>187.558142</ele>
        <time>2022-02-27T09:51:28.629Z</time>
      </trkpt>
      <trkpt lat="41.93283" lon="25.75323">
        <ele>187.631658</ele>
        <time>2022-02-27T09:51:31.617Z</time>
      </trkpt>
      <trkpt lat="41.93285" lon="25.75309">
        <ele>187.70665</ele>
        <time>2022-02-27T09:51:34.629Z</time>
      </trkpt>
      <trkpt lat="41.93287" lon="25.75296">
        <ele>187.782293</ele>
        <time>2022-02-27T09:51:37.631Z</time>
      </trkpt>
      <trkpt lat="41.93289" lon="25.75282">
        <ele>187.85714</ele>
        <time>2022-02-27T09:51:40.643Z</time>
      </trkpt>
      <trkpt lat="41.93291" lon="25.75269">
        <ele>187.972742</ele>
        <time>2022-02-27T09:51:43.629Z</time>
      </trkpt>
      <trkpt lat="41.93293" lon="25.75257">
        <ele>188.320337</ele>
        <time>2022-02-27T09:51:46.679Z</time>
      </trkpt>
      <trkpt lat="41.93295" lon="25.75245">
        <ele>188.657749</ele>
        <time>2022-02-27T09:51:49.641Z</time>
      </trkpt>
      <trkpt lat="41.93296" lon="25.75233">
        <ele>188.997124</ele>
        <time>2022-02-27T09:51:52.620Z</time>
      </trkpt>
      <trkpt lat="41.93299" lon="25.75217">
        <ele>189.436097</ele>
        <time>2022-02-27T09:51:56.628Z</time>
      </trkpt>
      <trkpt lat="41.933" lon="25.75203">
        <ele>189.844176</ele>
        <time>2022-02-27T09:52:00.629Z</time>
      </trkpt>
      <trkpt lat="41.93303" lon="25.75187">
        <ele>190.287914</ele>
        <time>2022-02-27T09:52:04.620Z</time>
      </trkpt>
      <trkpt lat="41.93304" lon="25.75175">
        <ele>190.640993</ele>
        <time>2022-02-27T09:52:08.633Z</time>
      </trkpt>
      <trkpt lat="41.93306" lon="25.75162">
        <ele>191.015884</ele>
        <time>2022-02-27T09:52:12.627Z</time>
      </trkpt>
      <trkpt lat="41.93307" lon="25.75148">
        <ele>191.402353</ele>
        <time>2022-02-27T09:52:16.630Z</time>
      </trkpt>
      <trkpt lat="41.93309" lon="25.75134">
        <ele>191.791592</ele>
        <time>2022-02-27T09:52:20.655Z</time>
      </trkpt>
      <trkpt lat="41.9331" lon="25.7512">
        <ele>192.205306</ele>
        <time>2022-02-27T09:52:24.619Z</time>
      </trkpt>
      <trkpt lat="41.93311" lon="25.75106">
        <ele>192.59187</ele>
        <time>2022-02-27T09:52:28.641Z</time>
      </trkpt>
      <trkpt lat="41.93311" lon="25.75093">
        <ele>192.958149</ele>
        <time>2022-02-27T09:52:32.622Z</time>
      </trkpt>
      <trkpt lat="41.93311" lon="25.7508">
        <ele>193.318666</ele>
        <time>2022-02-27T09:52:36.674Z</time>
      </trkpt>
      <trkpt lat="41.9331" lon="25.75065">
        <ele>193.744274</ele>
        <time>2022-02-27T09:52:40.628Z</time>
      </trkpt>
      <trkpt lat="41.9331" lon="25.7505">
        <ele>194.147342</ele>
        <time>2022-02-27T09:52:44.607Z</time>
      </trkpt>
      <trkpt lat="41.93308" lon="25.75034">
        <ele>194.597153</ele>
        <time>2022-02-27T09:52:48.642Z</time>
      </trkpt>
      <trkpt lat="41.93307" lon="25.75019">
        <ele>194.698879</ele>
        <time>2022-02-27T09:52:52.644Z</time>
      </trkpt>
      <trkpt lat="41.93304" lon="25.75004">
        <ele>194.725378</ele>
        <time>2022-02-27T09:52:56.613Z</time>
      </trkpt>
      <trkpt lat="41.93302" lon="25.74993">
        <ele>194.74683</ele>
        <time>2022-02-27T09:52:59.631Z</time>
      </trkpt>
      <trkpt lat="41.93299" lon="25.74978">
        <ele>194.774524</ele>
        <time>2022-02-27T09:53:03.681Z</time>
      </trkpt>
      <trkpt lat="41.93295" lon="25.74963">
        <ele>194.801626</ele>
        <time>2022-02-27T09:53:07.637Z</time>
      </trkpt>
      <trkpt lat="41.93291" lon="25.74949">
        <ele>194.828987</ele>
        <time>2022-02-27T09:53:11.636Z</time>
      </trkpt>
      <trkpt lat="41.93288" lon="25.74937">
        <ele>194.850496</ele>
        <time>2022-02-27T09:53:14.669Z</time>
      </trkpt>
      <trkpt lat="41.93284" lon="25.74922">
        <ele>194.879013</ele>
        <time>2022-02-27T09:53:18.640Z</time>
      </trkpt>
      <trkpt lat="41.9328" lon="25.74911">
        <ele>194.901059</ele>
        <time>2022-02-27T09:53:21.627Z</time>
      </trkpt>
      <trkpt lat="41.93275" lon="25.74899">
        <ele>194.924806</ele>
        <time>2022-02-27T09:53:24.621Z</time>
      </trkpt>
      <trkpt lat="41.93271" lon="25.74888">
        <ele>194.947067</ele>
        <time>2022-02-27T09:53:27.646Z</time>
      </trkpt>
      <trkpt lat="41.93266" lon="25.74877">
        <ele>194.970335</ele>
        <time>2022-02-27T09:53:30.655Z</time>
      </trkpt>
      <trkpt lat="41.93261" lon="25.74865">
        <ele>194.993637</ele>
        <time>2022-02-27T09:53:33.625Z</time>
      </trkpt>
      <trkpt lat="41.93257" lon="25.74854">
        <ele>195.016512</ele>
        <time>2022-02-27T09:53:36.636Z</time>
      </trkpt>
      <trkpt lat="41.9325" lon="25.74841">
        <ele>195.044261</ele>
        <time>2022-02-27T09:53:40.632Z</time>
      </trkpt>
      <trkpt lat="41.93245" lon="25.74832">
        <ele>195.065834</ele>
        <time>2022-02-27T09:53:43.634Z</time>
      </trkpt>
      <trkpt lat="41.93239" lon="25.74822">
        <ele>195.088966</ele>
        <time>2022-02-27T09:53:46.624Z</time>
      </trkpt>
      <trkpt lat="41.93232" lon="25.74812">
        <ele>195.01768</ele>
        <time>2022-02-27T09:53:49.620Z</time>
      </trkpt>
      <trkpt lat="41.93225" lon="25.74802">
        <ele>194.632619</ele>
        <time>2022-02-27T09:53:52.619Z</time>
      </trkpt>
      <trkpt lat="41.93218" lon="25.74791">
        <ele>194.232282</ele>
        <time>2022-02-27T09:53:55.641Z</time>
      </trkpt>
      <trkpt lat="41.93211" lon="25.74781">
        <ele>193.870789</ele>
        <time>2022-02-27T09:53:58.625Z</time>
      </trkpt>
      <trkpt lat="41.93204" lon="25.74771">
        <ele>193.466319</ele>
        <time>2022-02-27T09:54:01.611Z</time>
      </trkpt>
      <trkpt lat="41.93197" lon="25.74759">
        <ele>193.062547</ele>
        <time>2022-02-27T09:54:04.621Z</time>
      </trkpt>
      <trkpt lat="41.93191" lon="25.74748">
        <ele>192.668068</ele>
        <time>2022-02-27T09:54:07.636Z</time>
      </trkpt>
      <trkpt lat="41.93183" lon="25.74737">
        <ele>192.237792</ele>
        <time>2022-02-27T09:54:10.644Z</time>
      </trkpt>
      <trkpt lat="41.93175" lon="25.74726">
        <ele>191.803921</ele>
        <time>2022-02-27T09:54:13.621Z</time>
      </trkpt>
      <trkpt lat="41.93167" lon="25.74714">
        <ele>191.369583</ele>
        <time>2022-02-27T09:54:16.639Z</time>
      </trkpt>
      <trkpt lat="41.93159" lon="25.74703">
        <ele>190.941324</ele>
        <time>2022-02-27T09:54:19.639Z</time>
      </trkpt>
      <trkpt lat="41.93151" lon="25.74692">
        <ele>190.526796</ele>
        <time>2022-02-27T09:54:22.635Z</time>
      </trkpt>
      <trkpt lat="41.93144" lon="25.74681">
        <ele>190.117687</ele>
        <time>2022-02-27T09:54:25.646Z</time>
      </trkpt>
      <trkpt lat="41.93136" lon="25.74671">
        <ele>189.720932</ele>
        <time>2022-02-27T09:54:28.638Z</time>
      </trkpt>
      <trkpt lat="41.93129" lon="25.74661">
        <ele>189.341358</ele>
        <time>2022-02-27T09:54:31.618Z</time>
      </trkpt>
      <trkpt lat="41.93123" lon="25.74652">
        <ele>188.979111</ele>
        <time>2022-02-27T09:54:34.656Z</time>
      </trkpt>
      <trkpt lat="41.93116" lon="25.74642">
        <ele>188.627576</ele>
        <time>2022-02-27T09:54:37.628Z</time>
      </trkpt>
      <trkpt lat="41.9311" lon="25.74633">
        <ele>188.43895</ele>
        <time>2022-02-27T09:54:40.637Z</time>
      </trkpt>
      <trkpt lat="41.93102" lon="25.74622">
        <ele>188.58933</ele>
        <time>2022-02-27T09:54:44.629Z</time>
      </trkpt>
      <trkpt lat="41.93095" lon="25.74611">
        <ele>188.740781</ele>
        <time>2022-02-27T09:54:48.646Z</time>
      </trkpt>
      <trkpt lat="41.93087" lon="25.746">
        <ele>188.891161</ele>
        <time>2022-02-27T09:54:52.629Z</time>
      </trkpt>
      <trkpt lat="41.93079" lon="25.74588">
        <ele>189.04081</ele>
        <time>2022-02-27T09:54:56.677Z</time>
      </trkpt>
      <trkpt lat="41.93072" lon="25.74578">
        <ele>189.188696</ele>
        <time>2022-02-27T09:55:00.631Z</time>
      </trkpt>
      <trkpt lat="41.93064" lon="25.74568">
        <ele>189.328366</ele>
        <time>2022-02-27T09:55:04.636Z</time>
      </trkpt>
      <trkpt lat="41.93055" lon="25.74558">
        <ele>189.477974</ele>
        <time>2022-02-27T09:55:08.636Z</time>
      </trkpt>
      <trkpt lat="41.93046" lon="25.74548">
        <ele>189.632164</ele>
        <time>2022-02-27T09:55:12.636Z</time>
      </trkpt>
      <trkpt lat="41.93039" lon="25.7454">
        <ele>189.761909</ele>
        <time>2022-02-27T09:55:15.636Z</time>
      </trkpt>
      <trkpt lat="41.9303" lon="25.74533">
        <ele>189.895228</ele>
        <time>2022-02-27T09:55:18.625Z</time>
      </trkpt>
      <trkpt lat="41.93023" lon="25.74526">
        <ele>190.016375</ele>
        <time>2022-02-27T09:55:21.626Z</time>
      </trkpt>
      <trkpt lat="41.93012" lon="25.74518">
        <ele>190.174593</ele>
        <time>2022-02-27T09:55:25.609Z</time>
      </trkpt>
      <trkpt lat="41.93005" lon="25.74511">
        <ele>190.294125</ele>
        <time>2022-02-27T09:55:28.620Z</time>
      </trkpt>
      <trkpt lat="41.92997" lon="25.74505">
        <ele>190.414876</ele>
        <time>2022-02-27T09:55:31.625Z</time>
      </trkpt>
      <trkpt lat="41.92989" lon="25.74499">
        <ele>190.541359</ele>
        <time>2022-02-27T09:55:34.624Z</time>
      </trkpt>
      <trkpt lat="41.9298" lon="25.74492">
        <ele>190.678845</ele>
        <time>2022-02-27T09:55:37.639Z</time>
      </trkpt>
      <trkpt lat="41.9297" lon="25.74485">
        <ele>190.78478</ele>
        <time>2022-02-27T09:55:40.624Z</time>
      </trkpt>
      <trkpt lat="41.92959" lon="25.74479">
        <ele>190.786422</ele>
        <time>2022-02-27T09:55:43.626Z</time>
      </trkpt>
      <trkpt lat="41.92947" lon="25.74473">
        <ele>190.788167</ele>
        <time>2022-02-27T09:55:46.625Z</time>
      </trkpt>
      <trkpt lat="41.92936" lon="25.74466">
        <ele>190.789942</ele>
        <time>2022-02-27T09:55:49.633Z</time>
      </trkpt>
      <trkpt lat="41.92924" lon="25.74459">
        <ele>190.791801</ele>
        <time>2022-02-27T09:55:52.628Z</time>
      </trkpt>
      <trkpt lat="41.92915" lon="25.74454">
        <ele>190.793097</ele>
        <time>2022-02-27T09:55:54.634Z</time>
      </trkpt>
      <trkpt lat="41.92907" lon="25.74449">
        <ele>190.794369</ele>
        <time>2022-02-27T09:55:56.625Z</time>
      </trkpt>
      <trkpt lat="41.92895" lon="25.74443">
        <ele>190.796216</ele>
        <time>2022-02-27T09:55:59.642Z</time>
      </trkpt>
      <trkpt lat="41.92886" lon="25.74438">
        <ele>190.797551</ele>
        <time>2022-02-27T09:56:01.633Z</time>
      </trkpt>
      <trkpt lat="41.92877" lon="25.74432">
        <ele>190.798928</ele>
        <time>2022-02-27T09:56:03.635Z</time>
      </trkpt>
      <trkpt lat="41.92868" lon="25.74427">
        <ele>190.800242</ele>
        <time>2022-02-27T09:56:05.630Z</time>
      </trkpt>
      <trkpt lat="41.9286" lon="25.74422">
        <ele>190.801512</ele>
        <time>2022-02-27T09:56:07.624Z</time>
      </trkpt>
      <trkpt lat="41.92848" lon="25.74415">
        <ele>190.803372</ele>
        <time>2022-02-27T09:56:10.652Z</time>
      </trkpt>
      <trkpt lat="41.92839" lon="25.7441">
        <ele>190.804647</ele>
        <time>2022-02-27T09:56:12.637Z</time>
      </trkpt>
      <trkpt lat="41.92831" lon="25.74405">
        <ele>190.805931</ele>
        <time>2022-02-27T09:56:14.625Z</time>
      </trkpt>
      <trkpt lat="41.92823" lon="25.744">
        <ele>190.807227</ele>
        <time>2022-02-27T09:56:16.620Z</time>
      </trkpt>
      <trkpt lat="41.92814" lon="25.74395">
        <ele>190.808525</ele>
        <time>2022-02-27T09:56:18.644Z</time>
      </trkpt>
      <trkpt lat="41.92806" lon="25.7439">
        <ele>190.799468</ele>
        <time>2022-02-27T09:56:20.629Z</time>
      </trkpt>
      <trkpt lat="41.92793" lon="25.74383">
        <ele>190.724659</ele>
        <time>2022-02-27T09:56:23.633Z</time>
      </trkpt>
      <trkpt lat="41.92785" lon="25.74378">
        <ele>190.674548</ele>
        <time>2022-02-27T09:56:25.636Z</time>
      </trkpt>
      <trkpt lat="41.92776" lon="25.74373">
        <ele>190.622223</ele>
        <time>2022-02-27T09:56:27.632Z</time>
      </trkpt>
      <trkpt lat="41.92768" lon="25.74368">
        <ele>190.569579</ele>
        <time>2022-02-27T09:56:29.626Z</time>
      </trkpt>
      <trkpt lat="41.92759" lon="25.74363">
        <ele>190.51728</ele>
        <time>2022-02-27T09:56:31.615Z</time>
      </trkpt>
      <trkpt lat="41.9275" lon="25.74358">
        <ele>190.464123</ele>
        <time>2022-02-27T09:56:33.625Z</time>
      </trkpt>
      <trkpt lat="41.92741" lon="25.74353">
        <ele>190.40958</ele>
        <time>2022-02-27T09:56:35.630Z</time>
      </trkpt>
      <trkpt lat="41.92733" lon="25.74348">
        <ele>190.356435</ele>
        <time>2022-02-27T09:56:37.636Z</time>
      </trkpt>
      <trkpt lat="41.92724" lon="25.74344">
        <ele>190.305904</ele>
        <time>2022-02-27T09:56:39.635Z</time>
      </trkpt>
      <trkpt lat="41.92716" lon="25.74339">
        <ele>190.255437</ele>
        <time>2022-02-27T09:56:41.661Z</time>
      </trkpt>
      <trkpt lat="41.92707" lon="25.74335">
        <ele>190.204971</ele>
        <time>2022-02-27T09:56:43.609Z</time>
      </trkpt>
      <trkpt lat="41.92699" lon="25.7433">
        <ele>190.154186</ele>
        <time>2022-02-27T09:56:45.636Z</time>
      </trkpt>
      <trkpt lat="41.9269" lon="25.74325">
        <ele>190.103402</ele>
        <time>2022-02-27T09:56:47.631Z</time>
      </trkpt>
      <trkpt lat="41.92678" lon="25.74318">
        <ele>190.030076</ele>
        <time>2022-02-27T09:56:50.634Z</time>
      </trkpt>
      <trkpt lat="41.92667" lon="25.74312">
        <ele>189.96271</ele>
        <time>2022-02-27T09:56:53.641Z</time>
      </trkpt>
      <trkpt lat="41.92657" lon="25.74305">
        <ele>189.899545</ele>
        <time>2022-02-27T09:56:56.631Z</time>
      </trkpt>
      <trkpt lat="41.92646" lon="25.74298">
        <ele>189.830995</ele>
        <time>2022-02-27T09:56:59.636Z</time>
      </trkpt>
      <trkpt lat="41.92635" lon="25.7429">
        <ele>190.061879</ele>
        <time>2022-02-27T09:57:02.639Z</time>
      </trkpt>
      <trkpt lat="41.92624" lon="25.74283">
        <ele>190.431469</ele>
        <time>2022-02-27T09:57:05.635Z</time>
      </trkpt>
      <trkpt lat="41.92612" lon="25.74274">
        <ele>190.823261</ele>
        <time>2022-02-27T09:57:08.634Z</time>
      </trkpt>
      <trkpt lat="41.92601" lon="25.74264">
        <ele>191.210727</ele>
        <time>2022-02-27T09:57:11.629Z</time>
      </trkpt>
      <trkpt lat="41.9259" lon="25.74254">
        <ele>191.603157</ele>
        <time>2022-02-27T09:57:14.639Z</time>
      </trkpt>
      <trkpt lat="41.92583" lon="25.74246">
        <ele>191.875446</ele>
        <time>2022-02-27T09:57:16.631Z</time>
      </trkpt>
      <trkpt lat="41.92573" lon="25.74235">
        <ele>192.260238</ele>
        <time>2022-02-27T09:57:19.642Z</time>
      </trkpt>
      <trkpt lat="41.92563" lon="25.74224">
        <ele>192.634715</ele>
        <time>2022-02-27T09:57:22.620Z</time>
      </trkpt>
      <trkpt lat="41.92557" lon="25.74216">
        <ele>192.904733</ele>
        <time>2022-02-27T09:57:24.627Z</time>
      </trkpt>
      <trkpt lat="41.9255" lon="25.74207">
        <ele>193.183885</ele>
        <time>2022-02-27T09:57:26.613Z</time>
      </trkpt>
      <trkpt lat="41.92543" lon="25.74197">
        <ele>193.479771</ele>
        <time>2022-02-27T09:57:28.635Z</time>
      </trkpt>
      <trkpt lat="41.92537" lon="25.74188">
        <ele>193.761102</ele>
        <time>2022-02-27T09:57:30.621Z</time>
      </trkpt>
      <trkpt lat="41.9253" lon="25.74178">
        <ele>194.050916</ele>
        <time>2022-02-27T09:57:32.628Z</time>
      </trkpt>
      <trkpt lat="41.92524" lon="25.74168">
        <ele>194.339613</ele>
        <time>2022-02-27T09:57:34.631Z</time>
      </trkpt>
      <trkpt lat="41.92518" lon="25.74159">
        <ele>194.610413</ele>
        <time>2022-02-27T09:57:36.636Z</time>
      </trkpt>
      <trkpt lat="41.92512" lon="25.74148">
        <ele>194.911176</ele>
        <time>2022-02-27T09:57:38.628Z</time>
      </trkpt>
      <trkpt lat="41.92506" lon="25.74137">
        <ele>195.279846</ele>
        <time>2022-02-27T09:57:40.632Z</time>
      </trkpt>
      <trkpt lat="41.925" lon="25.74127">
        <ele>195.819516</ele>
        <time>2022-02-27T09:57:42.624Z</time>
      </trkpt>
      <trkpt lat="41.92493" lon="25.74112">
        <ele>196.565193</ele>
        <time>2022-02-27T09:57:45.623Z</time>
      </trkpt>
      <trkpt lat="41.92488" lon="25.74102">
        <ele>197.081645</ele>
        <time>2022-02-27T09:57:47.630Z</time>
      </trkpt>
      <trkpt lat="41.92484" lon="25.74091">
        <ele>197.59838</ele>
        <time>2022-02-27T09:57:49.638Z</time>
      </trkpt>
      <trkpt lat="41.92479" lon="25.7408">
        <ele>198.130052</ele>
        <time>2022-02-27T09:57:51.629Z</time>
      </trkpt>
      <trkpt lat="41.92475" lon="25.7407">
        <ele>198.651516</ele>
        <time>2022-02-27T09:57:53.638Z</time>
      </trkpt>
      <trkpt lat="41.92469" lon="25.74055">
        <ele>199.382989</ele>
        <time>2022-02-27T09:57:56.639Z</time>
      </trkpt>
      <trkpt lat="41.92464" lon="25.7404">
        <ele>200.054252</ele>
        <time>2022-02-27T09:57:59.633Z</time>
      </trkpt>
      <trkpt lat="41.92458" lon="25.74025">
        <ele>200.793007</ele>
        <time>2022-02-27T09:58:02.631Z</time>
      </trkpt>
      <trkpt lat="41.92454" lon="25.74013">
        <ele>201.327168</ele>
        <time>2022-02-27T09:58:04.626Z</time>
      </trkpt>
      <trkpt lat="41.92451" lon="25.74002">
        <ele>201.8619</ele>
        <time>2022-02-27T09:58:06.635Z</time>
      </trkpt>
      <trkpt lat="41.92448" lon="25.7399">
        <ele>202.372925</ele>
        <time>2022-02-27T09:58:08.630Z</time>
      </trkpt>
      <trkpt lat="41.92443" lon="25.73974">
        <ele>203.13905</ele>
        <time>2022-02-27T09:58:11.645Z</time>
      </trkpt>
      <trkpt lat="41.92438" lon="25.73957">
        <ele>203.891203</ele>
        <time>2022-02-27T09:58:14.641Z</time>
      </trkpt>
      <trkpt lat="41.92435" lon="25.73946">
        <ele>204.413897</ele>
        <time>2022-02-27T09:58:16.632Z</time>
      </trkpt>
      <trkpt lat="41.92432" lon="25.73934">
        <ele>204.936591</ele>
        <time>2022-02-27T09:58:18.629Z</time>
      </trkpt>
      <trkpt lat="41.92429" lon="25.73923">
        <ele>205.433642</ele>
        <time>2022-02-27T09:58:20.667Z</time>
      </trkpt>
      <trkpt lat="41.92424" lon="25.73906">
        <ele>205.534341</ele>
        <time>2022-02-27T09:58:23.618Z</time>
      </trkpt>
      <trkpt lat="41.9242" lon="25.73889">
        <ele>205.633329</ele>
        <time>2022-02-27T09:58:26.633Z</time>
      </trkpt>
      <trkpt lat="41.92416" lon="25.73872">
        <ele>205.732544</ele>
        <time>2022-02-27T09:58:29.614Z</time>
      </trkpt>
      <trkpt lat="41.92413" lon="25.7386">
        <ele>205.799676</ele>
        <time>2022-02-27T09:58:31.624Z</time>
      </trkpt>
      <trkpt lat="41.92409" lon="25.73844">
        <ele>205.895493</ele>
        <time>2022-02-27T09:58:34.644Z</time>
      </trkpt>
      <trkpt lat="41.92405" lon="25.73827">
        <ele>205.993327</ele>
        <time>2022-02-27T09:58:37.624Z</time>
      </trkpt>
      <trkpt lat="41.924" lon="25.73811">
        <ele>206.089593</ele>
        <time>2022-02-27T09:58:40.625Z</time>
      </trkpt>
      <trkpt lat="41.92397" lon="25.738">
        <ele>206.157265</ele>
        <time>2022-02-27T09:58:42.656Z</time>
      </trkpt>
      <trkpt lat="41.92392" lon="25.73782">
        <ele>206.257718</ele>
        <time>2022-02-27T09:58:45.626Z</time>
      </trkpt>
      <trkpt lat="41.92388" lon="25.73766">
        <ele>206.35532</ele>
        <time>2022-02-27T09:58:48.628Z</time>
      </trkpt>
      <trkpt lat="41.92383" lon="25.7375">
        <ele>206.44927</ele>
        <time>2022-02-27T09:58:51.631Z</time>
      </trkpt>
      <trkpt lat="41.92379" lon="25.73734">
        <ele>206.544019</ele>
        <time>2022-02-27T09:58:54.631Z</time>
      </trkpt>
      <trkpt lat="41.92374" lon="25.73718">
        <ele>206.639787</ele>
        <time>2022-02-27T09:58:57.644Z</time>
      </trkpt>
      <trkpt lat="41.9237" lon="25.73703">
        <ele>206.731973</ele>
        <time>2022-02-27T09:59:00.630Z</time>
      </trkpt>
      <trkpt lat="41.92365" lon="25.73687">
        <ele>206.379586</ele>
        <time>2022-02-27T09:59:03.671Z</time>
      </trkpt>
      <trkpt lat="41.92361" lon="25.73672">
        <ele>205.700762</ele>
        <time>2022-02-27T09:59:06.658Z</time>
      </trkpt>
      <trkpt lat="41.92358" lon="25.73656">
        <ele>205.0071</ele>
        <time>2022-02-27T09:59:09.631Z</time>
      </trkpt>
      <trkpt lat="41.92355" lon="25.7364">
        <ele>204.316242</ele>
        <time>2022-02-27T09:59:12.632Z</time>
      </trkpt>
      <trkpt lat="41.92352" lon="25.73622">
        <ele>203.555056</ele>
        <time>2022-02-27T09:59:15.631Z</time>
      </trkpt>
      <trkpt lat="41.9235" lon="25.73609">
        <ele>203.026123</ele>
        <time>2022-02-27T09:59:17.646Z</time>
      </trkpt>
      <trkpt lat="41.92348" lon="25.73592">
        <ele>202.29737</ele>
        <time>2022-02-27T09:59:20.659Z</time>
      </trkpt>
      <trkpt lat="41.92347" lon="25.7358">
        <ele>201.794093</ele>
        <time>2022-02-27T09:59:22.651Z</time>
      </trkpt>
      <trkpt lat="41.92346" lon="25.73567">
        <ele>201.248102</ele>
        <time>2022-02-27T09:59:24.635Z</time>
      </trkpt>
      <trkpt lat="41.92345" lon="25.73554">
        <ele>200.693472</ele>
        <time>2022-02-27T09:59:26.604Z</time>
      </trkpt>
      <trkpt lat="41.92345" lon="25.73541">
        <ele>200.164805</ele>
        <time>2022-02-27T09:59:28.661Z</time>
      </trkpt>
      <trkpt lat="41.92345" lon="25.73529">
        <ele>199.656948</ele>
        <time>2022-02-27T09:59:30.638Z</time>
      </trkpt>
      <trkpt lat="41.92346" lon="25.73516">
        <ele>199.140313</ele>
        <time>2022-02-27T09:59:32.656Z</time>
      </trkpt>
      <trkpt lat="41.92347" lon="25.73499">
        <ele>198.396352</ele>
        <time>2022-02-27T09:59:35.650Z</time>
      </trkpt>
      <trkpt lat="41.92348" lon="25.73486">
        <ele>197.887019</ele>
        <time>2022-02-27T09:59:37.617Z</time>
      </trkpt>
      <trkpt lat="41.92348" lon="25.73474">
        <ele>197.360132</ele>
        <time>2022-02-27T09:59:39.677Z</time>
      </trkpt>
      <trkpt lat="41.92349" lon="25.73462">
        <ele>196.849235</ele>
        <time>2022-02-27T09:59:41.639Z</time>
      </trkpt>
      <trkpt lat="41.92352" lon="25.73444">
        <ele>196.236583</ele>
        <time>2022-02-27T09:59:44.636Z</time>
      </trkpt>
      <trkpt lat="41.92355" lon="25.73426">
        <ele>195.655986</ele>
        <time>2022-02-27T09:59:47.610Z</time>
      </trkpt>
      <trkpt lat="41.92357" lon="25.73414">
        <ele>195.255035</ele>
        <time>2022-02-27T09:59:49.628Z</time>
      </trkpt>
      <trkpt lat="41.92359" lon="25.73402">
        <ele>194.850021</ele>
        <time>2022-02-27T09:59:51.645Z</time>
      </trkpt>
      <trkpt lat="41.92362" lon="25.73389">
        <ele>194.434593</ele>
        <time>2022-02-27T09:59:53.634Z</time>
      </trkpt>
      <trkpt lat="41.92364" lon="25.73377">
        <ele>194.022263</ele>
        <time>2022-02-27T09:59:55.644Z</time>
      </trkpt>
      <trkpt lat="41.92366" lon="25.73364">
        <ele>193.614145</ele>
        <time>2022-02-27T09:59:57.636Z</time>
      </trkpt>
      <trkpt lat="41.92369" lon="25.73352">
        <ele>193.193311</ele>
        <time>2022-02-27T09:59:59.624Z</time>
      </trkpt>
      <trkpt lat="41.92372" lon="25.7334">
        <ele>192.788365</ele>
        <time>2022-02-27T10:00:01.630Z</time>
      </trkpt>
      <trkpt lat="41.92375" lon="25.73327">
        <ele>192.361995</ele>
        <time>2022-02-27T10:00:03.668Z</time>
      </trkpt>
      <trkpt lat="41.92378" lon="25.73315">
        <ele>191.951269</ele>
        <time>2022-02-27T10:00:05.617Z</time>
      </trkpt>
      <trkpt lat="41.92381" lon="25.73303">
        <ele>191.549634</ele>
        <time>2022-02-27T10:00:07.664Z</time>
      </trkpt>
      <trkpt lat="41.92384" lon="25.73292">
        <ele>191.158514</ele>
        <time>2022-02-27T10:00:09.631Z</time>
      </trkpt>
      <trkpt lat="41.92387" lon="25.7328">
        <ele>190.762926</ele>
        <time>2022-02-27T10:00:11.649Z</time>
      </trkpt>
      <trkpt lat="41.92392" lon="25.73264">
        <ele>190.198786</ele>
        <time>2022-02-27T10:00:14.635Z</time>
      </trkpt>
      <trkpt lat="41.92396" lon="25.73247">
        <ele>189.625545</ele>
        <time>2022-02-27T10:00:17.652Z</time>
      </trkpt>
      <trkpt lat="41.924" lon="25.7323">
        <ele>189.061136</ele>
        <time>2022-02-27T10:00:20.633Z</time>
      </trkpt>
      <trkpt lat="41.92404" lon="25.73214">
        <ele>188.912136</ele>
        <time>2022-02-27T10:00:23.637Z</time>
      </trkpt>
      <trkpt lat="41.92408" lon="25.73198">
        <ele>188.864528</ele>
        <time>2022-02-27T10:00:26.623Z</time>
      </trkpt>
      <trkpt lat="41.92412" lon="25.73182">
        <ele>188.817822</ele>
        <time>2022-02-27T10:00:29.642Z</time>
      </trkpt>
      <trkpt lat="41.92415" lon="25.73167">
        <ele>188.772202</ele>
        <time>2022-02-27T10:00:32.628Z</time>
      </trkpt>
      <trkpt lat="41.92419" lon="25.7315">
        <ele>188.721987</ele>
        <time>2022-02-27T10:00:35.636Z</time>
      </trkpt>
      <trkpt lat="41.92421" lon="25.73138">
        <ele>188.687092</ele>
        <time>2022-02-27T10:00:37.616Z</time>
      </trkpt>
      <trkpt lat="41.92424" lon="25.73127">
        <ele>188.651802</ele>
        <time>2022-02-27T10:00:39.632Z</time>
      </trkpt>
      <trkpt lat="41.92428" lon="25.73111">
        <ele>188.604194</ele>
        <time>2022-02-27T10:00:42.615Z</time>
      </trkpt>
      <trkpt lat="41.92431" lon="25.73095">
        <ele>188.557307</ele>
        <time>2022-02-27T10:00:45.637Z</time>
      </trkpt>
      <trkpt lat="41.92435" lon="25.73079">
        <ele>188.510116</ele>
        <time>2022-02-27T10:00:48.644Z</time>
      </trkpt>
      <trkpt lat="41.92438" lon="25.73063">
        <ele>188.463853</ele>
        <time>2022-02-27T10:00:51.636Z</time>
      </trkpt>
      <trkpt lat="41.9244" lon="25.73047">
        <ele>188.417439</ele>
        <time>2022-02-27T10:00:54.641Z</time>
      </trkpt>
      <trkpt lat="41.92443" lon="25.73031">
        <ele>188.369834</ele>
        <time>2022-02-27T10:00:57.613Z</time>
      </trkpt>
      <trkpt lat="41.92444" lon="25.73015">
        <ele>188.323312</ele>
        <time>2022-02-27T10:01:00.621Z</time>
      </trkpt>
      <trkpt lat="41.92446" lon="25.72998">
        <ele>188.27613</ele>
        <time>2022-02-27T10:01:03.689Z</time>
      </trkpt>
      <trkpt lat="41.92447" lon="25.72982">
        <ele>188.48519</ele>
        <time>2022-02-27T10:01:06.620Z</time>
      </trkpt>
      <trkpt lat="41.92448" lon="25.72964">
        <ele>188.809651</ele>
        <time>2022-02-27T10:01:09.661Z</time>
      </trkpt>
      <trkpt lat="41.92449" lon="25.72947">
        <ele>189.133283</ele>
        <time>2022-02-27T10:01:12.652Z</time>
      </trkpt>
      <trkpt lat="41.92448" lon="25.7293">
        <ele>189.453037</ele>
        <time>2022-02-27T10:01:15.672Z</time>
      </trkpt>
      <trkpt lat="41.92447" lon="25.72914">
        <ele>189.766249</ele>
        <time>2022-02-27T10:01:18.628Z</time>
      </trkpt>
      <trkpt lat="41.92446" lon="25.72897">
        <ele>190.081336</ele>
        <time>2022-02-27T10:01:21.631Z</time>
      </trkpt>
      <trkpt lat="41.92444" lon="25.72881">
        <ele>190.390141</ele>
        <time>2022-02-27T10:01:24.638Z</time>
      </trkpt>
      <trkpt lat="41.92441" lon="25.72865">
        <ele>190.688286</ele>
        <time>2022-02-27T10:01:27.651Z</time>
      </trkpt>
      <trkpt lat="41.92438" lon="25.7285">
        <ele>190.986432</ele>
        <time>2022-02-27T10:01:30.647Z</time>
      </trkpt>
      <trkpt lat="41.92435" lon="25.72835">
        <ele>191.282839</ele>
        <time>2022-02-27T10:01:33.609Z</time>
      </trkpt>
      <trkpt lat="41.92431" lon="25.72819">
        <ele>191.591546</ele>
        <time>2022-02-27T10:01:36.676Z</time>
      </trkpt>
      <trkpt lat="41.92427" lon="25.72804">
        <ele>191.897461</ele>
        <time>2022-02-27T10:01:39.647Z</time>
      </trkpt>
      <trkpt lat="41.92423" lon="25.7279">
        <ele>192.182308</ele>
        <time>2022-02-27T10:01:42.632Z</time>
      </trkpt>
      <trkpt lat="41.92418" lon="25.72775">
        <ele>192.480299</ele>
        <time>2022-02-27T10:01:45.635Z</time>
      </trkpt>
      <trkpt lat="41.92414" lon="25.72761">
        <ele>192.779109</ele>
        <time>2022-02-27T10:01:48.606Z</time>
      </trkpt>
      <trkpt lat="41.9241" lon="25.72745">
        <ele>192.939418</ele>
        <time>2022-02-27T10:01:51.628Z</time>
      </trkpt>
      <trkpt lat="41.92406" lon="25.72729">
        <ele>193.089791</ele>
        <time>2022-02-27T10:01:54.657Z</time>
      </trkpt>
      <trkpt lat="41.92402" lon="25.72713">
        <ele>193.229742</ele>
        <time>2022-02-27T10:01:57.639Z</time>
      </trkpt>
      <trkpt lat="41.92398" lon="25.72698">
        <ele>193.369532</ele>
        <time>2022-02-27T10:02:00.614Z</time>
      </trkpt>
      <trkpt lat="41.92393" lon="25.72682">
        <ele>193.52352</ele>
        <time>2022-02-27T10:02:03.676Z</time>
      </trkpt>
      <trkpt lat="41.92388" lon="25.72665">
        <ele>193.676696</ele>
        <time>2022-02-27T10:02:06.636Z</time>
      </trkpt>
      <trkpt lat="41.92384" lon="25.72649">
        <ele>193.828256</ele>
        <time>2022-02-27T10:02:09.626Z</time>
      </trkpt>
      <trkpt lat="41.92379" lon="25.72632">
        <ele>193.978589</ele>
        <time>2022-02-27T10:02:12.633Z</time>
      </trkpt>
      <trkpt lat="41.92375" lon="25.72617">
        <ele>194.117987</ele>
        <time>2022-02-27T10:02:15.636Z</time>
      </trkpt>
      <trkpt lat="41.92371" lon="25.72603">
        <ele>194.250034</ele>
        <time>2022-02-27T10:02:18.633Z</time>
      </trkpt>
      <trkpt lat="41.92368" lon="25.7259">
        <ele>194.373553</ele>
        <time>2022-02-27T10:02:21.633Z</time>
      </trkpt>
      <trkpt lat="41.92364" lon="25.72577">
        <ele>194.486973</ele>
        <time>2022-02-27T10:02:24.638Z</time>
      </trkpt>
      <trkpt lat="41.9236" lon="25.72565">
        <ele>194.608736</ele>
        <time>2022-02-27T10:02:27.617Z</time>
      </trkpt>
      <trkpt lat="41.92355" lon="25.72552">
        <ele>194.731612</ele>
        <time>2022-02-27T10:02:30.632Z</time>
      </trkpt>
      <trkpt lat="41.92351" lon="25.72538">
        <ele>194.861683</ele>
        <time>2022-02-27T10:02:33.632Z</time>
      </trkpt>
      <trkpt lat="41.92347" lon="25.72523">
        <ele>194.699422</ele>
        <time>2022-02-27T10:02:36.670Z</time>
      </trkpt>
      <trkpt lat="41.92342" lon="25.72507">
        <ele>194.404754</ele>
        <time>2022-02-27T10:02:39.646Z</time>
      </trkpt>
      <trkpt lat="41.92338" lon="25.72493">
        <ele>194.123717</ele>
        <time>2022-02-27T10:02:42.633Z</time>
      </trkpt>
      <trkpt lat="41.92333" lon="25.72479">
        <ele>193.8533</ele>
        <time>2022-02-27T10:02:45.661Z</time>
      </trkpt>
      <trkpt lat="41.92329" lon="25.72466">
        <ele>193.604501</ele>
        <time>2022-02-27T10:02:48.659Z</time>
      </trkpt>
      <trkpt lat="41.92326" lon="25.72454">
        <ele>193.365373</ele>
        <time>2022-02-27T10:02:51.637Z</time>
      </trkpt>
      <trkpt lat="41.92323" lon="25.72441">
        <ele>193.130476</ele>
        <time>2022-02-27T10:02:54.628Z</time>
      </trkpt>
      <trkpt lat="41.92318" lon="25.72428">
        <ele>192.880041</ele>
        <time>2022-02-27T10:02:57.642Z</time>
      </trkpt>
      <trkpt lat="41.92315" lon="25.72416">
        <ele>192.644166</ele>
        <time>2022-02-27T10:03:00.617Z</time>
      </trkpt>
      <trkpt lat="41.92312" lon="25.72404">
        <ele>192.417648</ele>
        <time>2022-02-27T10:03:03.680Z</time>
      </trkpt>
      <trkpt lat="41.92309" lon="25.72392">
        <ele>192.194494</ele>
        <time>2022-02-27T10:03:06.667Z</time>
      </trkpt>
      <trkpt lat="41.92306" lon="25.72379">
        <ele>191.945208</ele>
        <time>2022-02-27T10:03:10.627Z</time>
      </trkpt>
      <trkpt lat="41.92302" lon="25.72365">
        <ele>191.685899</ele>
        <time>2022-02-27T10:03:15.628Z</time>
      </trkpt>
      <trkpt lat="41.92298" lon="25.72354">
        <ele>191.456665</ele>
        <time>2022-02-27T10:03:19.619Z</time>
      </trkpt>
      <trkpt lat="41.92295" lon="25.72342">
        <ele>191.235893</ele>
        <time>2022-02-27T10:03:23.628Z</time>
      </trkpt>
      <trkpt lat="41.92292" lon="25.72331">
        <ele>191.014353</ele>
        <time>2022-02-27T10:03:28.629Z</time>
      </trkpt>
      <trkpt lat="41.9229" lon="25.72344">
        <ele>190.760907</ele>
        <time>2022-02-27T10:03:39.629Z</time>
      </trkpt>
      <trkpt lat="41.92294" lon="25.72355">
        <ele>190.498384</ele>
        <time>2022-02-27T10:03:43.631Z</time>
      </trkpt>
      <trkpt lat="41.92302" lon="25.72363">
        <ele>189.9622</ele>
        <time>2022-02-27T10:03:48.619Z</time>
      </trkpt>
      <trkpt lat="41.92315" lon="25.72357">
        <ele>189.250572</ele>
        <time>2022-02-27T10:09:11.627Z</time>
      </trkpt>
      <trkpt lat="41.92303" lon="25.72353">
        <ele>188.589535</ele>
        <time>2022-02-27T10:17:35.632Z</time>
      </trkpt>
      <trkpt lat="41.923" lon="25.7234">
        <ele>188.038934</ele>
        <time>2022-02-27T10:20:44.659Z</time>
      </trkpt>
      <trkpt lat="41.92297" lon="25.72326">
        <ele>187.429671</ele>
        <time>2022-02-27T10:20:48.637Z</time>
      </trkpt>
      <trkpt lat="41.92294" lon="25.72314">
        <ele>186.926647</ele>
        <time>2022-02-27T10:20:51.633Z</time>
      </trkpt>
      <trkpt lat="41.9229" lon="25.72302">
        <ele>186.397374</ele>
        <time>2022-02-27T10:20:54.649Z</time>
      </trkpt>
      <trkpt lat="41.92287" lon="25.7229">
        <ele>185.829394</ele>
        <time>2022-02-27T10:20:57.656Z</time>
      </trkpt>
      <trkpt lat="41.92283" lon="25.72277">
        <ele>185.280953</ele>
        <time>2022-02-27T10:21:00.679Z</time>
      </trkpt>
      <trkpt lat="41.92279" lon="25.72264">
        <ele>184.706494</ele>
        <time>2022-02-27T10:21:03.640Z</time>
      </trkpt>
      <trkpt lat="41.92275" lon="25.72251">
        <ele>184.105621</ele>
        <time>2022-02-27T10:21:06.621Z</time>
      </trkpt>
      <trkpt lat="41.92271" lon="25.72235">
        <ele>183.445985</ele>
        <time>2022-02-27T10:21:09.639Z</time>
      </trkpt>
      <trkpt lat="41.92268" lon="25.7222">
        <ele>182.78241</ele>
        <time>2022-02-27T10:21:12.628Z</time>
      </trkpt>
      <trkpt lat="41.92265" lon="25.72205">
        <ele>182.155824</ele>
        <time>2022-02-27T10:21:15.636Z</time>
      </trkpt>
      <trkpt lat="41.92261" lon="25.7219">
        <ele>181.518118</ele>
        <time>2022-02-27T10:21:18.645Z</time>
      </trkpt>
      <trkpt lat="41.92257" lon="25.72176">
        <ele>180.869504</ele>
        <time>2022-02-27T10:21:21.640Z</time>
      </trkpt>
      <trkpt lat="41.92252" lon="25.7216">
        <ele>180.608169</ele>
        <time>2022-02-27T10:21:24.628Z</time>
      </trkpt>
      <trkpt lat="41.92248" lon="25.72145">
        <ele>180.548931</ele>
        <time>2022-02-27T10:21:27.652Z</time>
      </trkpt>
      <trkpt lat="41.92243" lon="25.72131">
        <ele>180.490184</ele>
        <time>2022-02-27T10:21:30.648Z</time>
      </trkpt>
      <trkpt lat="41.92237" lon="25.72117">
        <ele>180.43098</ele>
        <time>2022-02-27T10:21:33.634Z</time>
      </trkpt>
      <trkpt lat="41.92231" lon="25.72103">
        <ele>180.370618</ele>
        <time>2022-02-27T10:21:36.632Z</time>
      </trkpt>
      <trkpt lat="41.92224" lon="25.72089">
        <ele>180.311026</ele>
        <time>2022-02-27T10:21:39.638Z</time>
      </trkpt>
      <trkpt lat="41.92217" lon="25.72076">
        <ele>180.250143</ele>
        <time>2022-02-27T10:21:42.626Z</time>
      </trkpt>
      <trkpt lat="41.9221" lon="25.72063">
        <ele>180.190144</ele>
        <time>2022-02-27T10:21:45.640Z</time>
      </trkpt>
      <trkpt lat="41.92203" lon="25.72051">
        <ele>180.13517</ele>
        <time>2022-02-27T10:21:48.639Z</time>
      </trkpt>
      <trkpt lat="41.92197" lon="25.7204">
        <ele>180.086991</ele>
        <time>2022-02-27T10:21:51.639Z</time>
      </trkpt>
      <trkpt lat="41.92192" lon="25.72028">
        <ele>180.035266</ele>
        <time>2022-02-27T10:21:55.678Z</time>
      </trkpt>
      <trkpt lat="41.92187" lon="25.72017">
        <ele>179.9874</ele>
        <time>2022-02-27T10:22:00.613Z</time>
      </trkpt>
      <trkpt lat="41.9218" lon="25.72005">
        <ele>179.93092</ele>
        <time>2022-02-27T10:22:05.634Z</time>
      </trkpt>
      <trkpt lat="41.92174" lon="25.71995">
        <ele>179.881485</ele>
        <time>2022-02-27T10:22:08.631Z</time>
      </trkpt>
      <trkpt lat="41.92166" lon="25.71983">
        <ele>179.825702</ele>
        <time>2022-02-27T10:22:11.635Z</time>
      </trkpt>
      <trkpt lat="41.92159" lon="25.71972">
        <ele>179.769367</ele>
        <time>2022-02-27T10:22:14.640Z</time>
      </trkpt>
      <trkpt lat="41.92151" lon="25.7196">
        <ele>179.879876</ele>
        <time>2022-02-27T10:22:17.641Z</time>
      </trkpt>
      <trkpt lat="41.92144" lon="25.71948">
        <ele>180.023279</ele>
        <time>2022-02-27T10:22:20.632Z</time>
      </trkpt>
      <trkpt lat="41.92137" lon="25.71935">
        <ele>180.164456</ele>
        <time>2022-02-27T10:22:23.682Z</time>
      </trkpt>
      <trkpt lat="41.9213" lon="25.71924">
        <ele>180.30427</ele>
        <time>2022-02-27T10:22:26.626Z</time>
      </trkpt>
      <trkpt lat="41.92124" lon="25.71912">
        <ele>180.43652</ele>
        <time>2022-02-27T10:22:29.632Z</time>
      </trkpt>
      <trkpt lat="41.92118" lon="25.71902">
        <ele>180.551679</ele>
        <time>2022-02-27T10:22:32.662Z</time>
      </trkpt>
      <trkpt lat="41.92112" lon="25.71889">
        <ele>180.699137</ele>
        <time>2022-02-27T10:22:36.644Z</time>
      </trkpt>
      <trkpt lat="41.92106" lon="25.71877">
        <ele>180.829331</ele>
        <time>2022-02-27T10:22:39.660Z</time>
      </trkpt>
      <trkpt lat="41.92099" lon="25.71865">
        <ele>180.971273</ele>
        <time>2022-02-27T10:22:42.626Z</time>
      </trkpt>
      <trkpt lat="41.92093" lon="25.71853">
        <ele>181.110208</ele>
        <time>2022-02-27T10:22:45.650Z</time>
      </trkpt>
      <trkpt lat="41.92086" lon="25.7184">
        <ele>181.257331</ele>
        <time>2022-02-27T10:22:48.637Z</time>
      </trkpt>
      <trkpt lat="41.92078" lon="25.71828">
        <ele>181.405391</ele>
        <time>2022-02-27T10:22:51.632Z</time>
      </trkpt>
      <trkpt lat="41.92071" lon="25.71815">
        <ele>181.553248</ele>
        <time>2022-02-27T10:22:54.650Z</time>
      </trkpt>
      <trkpt lat="41.92064" lon="25.71802">
        <ele>181.701382</ele>
        <time>2022-02-27T10:22:57.638Z</time>
      </trkpt>
      <trkpt lat="41.92058" lon="25.71788">
        <ele>181.850774</ele>
        <time>2022-02-27T10:23:00.658Z</time>
      </trkpt>
      <trkpt lat="41.92051" lon="25.71775">
        <ele>181.996318</ele>
        <time>2022-02-27T10:23:03.647Z</time>
      </trkpt>
      <trkpt lat="41.92043" lon="25.71762">
        <ele>181.846546</ele>
        <time>2022-02-27T10:23:06.670Z</time>
      </trkpt>
      <trkpt lat="41.92036" lon="25.71748">
        <ele>181.694617</ele>
        <time>2022-02-27T10:23:09.638Z</time>
      </trkpt>
      <trkpt lat="41.92028" lon="25.71734">
        <ele>181.540481</ele>
        <time>2022-02-27T10:23:12.620Z</time>
      </trkpt>
      <trkpt lat="41.92021" lon="25.7172">
        <ele>181.386902</ele>
        <time>2022-02-27T10:23:15.646Z</time>
      </trkpt>
      <trkpt lat="41.92014" lon="25.71707">
        <ele>181.23425</ele>
        <time>2022-02-27T10:23:18.642Z</time>
      </trkpt>
      <trkpt lat="41.92005" lon="25.71694">
        <ele>181.080368</ele>
        <time>2022-02-27T10:23:21.614Z</time>
      </trkpt>
      <trkpt lat="41.91998" lon="25.71683">
        <ele>180.942711</ele>
        <time>2022-02-27T10:23:24.634Z</time>
      </trkpt>
      <trkpt lat="41.91989" lon="25.71672">
        <ele>180.803969</ele>
        <time>2022-02-27T10:23:27.641Z</time>
      </trkpt>
      <trkpt lat="41.9198" lon="25.71661">
        <ele>180.655863</ele>
        <time>2022-02-27T10:23:30.651Z</time>
      </trkpt>
      <trkpt lat="41.91972" lon="25.71649">
        <ele>180.50992</ele>
        <time>2022-02-27T10:23:33.633Z</time>
      </trkpt>
      <trkpt lat="41.91963" lon="25.71638">
        <ele>180.361813</ele>
        <time>2022-02-27T10:23:36.646Z</time>
      </trkpt>
      <trkpt lat="41.91954" lon="25.71627">
        <ele>180.207769</ele>
        <time>2022-02-27T10:23:39.661Z</time>
      </trkpt>
      <trkpt lat="41.91943" lon="25.71616">
        <ele>180.049466</ele>
        <time>2022-02-27T10:23:42.636Z</time>
      </trkpt>
      <trkpt lat="41.91933" lon="25.71606">
        <ele>179.893897</ele>
        <time>2022-02-27T10:23:45.622Z</time>
      </trkpt>
      <trkpt lat="41.91923" lon="25.71595">
        <ele>179.860352</ele>
        <time>2022-02-27T10:23:48.637Z</time>
      </trkpt>
      <trkpt lat="41.91913" lon="25.71585">
        <ele>179.942725</ele>
        <time>2022-02-27T10:23:51.685Z</time>
      </trkpt>
      <trkpt lat="41.91903" lon="25.71575">
        <ele>180.021308</ele>
        <time>2022-02-27T10:23:54.632Z</time>
      </trkpt>
      <trkpt lat="41.91892" lon="25.71565">
        <ele>180.104087</ele>
        <time>2022-02-27T10:23:57.640Z</time>
      </trkpt>
      <trkpt lat="41.91884" lon="25.71557">
        <ele>180.162337</ele>
        <time>2022-02-27T10:23:59.622Z</time>
      </trkpt>
      <trkpt lat="41.91874" lon="25.71547">
        <ele>180.24536</ele>
        <time>2022-02-27T10:24:02.673Z</time>
      </trkpt>
      <trkpt lat="41.91863" lon="25.71537">
        <ele>180.329948</ele>
        <time>2022-02-27T10:24:05.636Z</time>
      </trkpt>
      <trkpt lat="41.91855" lon="25.7153">
        <ele>180.388798</ele>
        <time>2022-02-27T10:24:07.651Z</time>
      </trkpt>
      <trkpt lat="41.91844" lon="25.71519">
        <ele>180.474842</ele>
        <time>2022-02-27T10:24:10.628Z</time>
      </trkpt>
      <trkpt lat="41.91837" lon="25.71512">
        <ele>180.534134</ele>
        <time>2022-02-27T10:24:12.641Z</time>
      </trkpt>
      <trkpt lat="41.91829" lon="25.71504">
        <ele>180.593212</ele>
        <time>2022-02-27T10:24:14.632Z</time>
      </trkpt>
      <trkpt lat="41.91821" lon="25.71498">
        <ele>180.651849</ele>
        <time>2022-02-27T10:24:16.633Z</time>
      </trkpt>
      <trkpt lat="41.91813" lon="25.71492">
        <ele>180.712783</ele>
        <time>2022-02-27T10:24:18.656Z</time>
      </trkpt>
      <trkpt lat="41.91805" lon="25.71485">
        <ele>180.77314</ele>
        <time>2022-02-27T10:24:20.649Z</time>
      </trkpt>
      <trkpt lat="41.91797" lon="25.71477">
        <ele>180.834539</ele>
        <time>2022-02-27T10:24:22.649Z</time>
      </trkpt>
      <trkpt lat="41.91789" lon="25.7147">
        <ele>180.894356</ele>
        <time>2022-02-27T10:24:24.630Z</time>
      </trkpt>
      <trkpt lat="41.91782" lon="25.71463">
        <ele>180.953671</ele>
        <time>2022-02-27T10:24:26.637Z</time>
      </trkpt>
      <trkpt lat="41.91774" lon="25.71455">
        <ele>181.156332</ele>
        <time>2022-02-27T10:24:28.660Z</time>
      </trkpt>
      <trkpt lat="41.91767" lon="25.71448">
        <ele>181.37123</ele>
        <time>2022-02-27T10:24:30.624Z</time>
      </trkpt>
      <trkpt lat="41.91756" lon="25.71437">
        <ele>181.683146</ele>
        <time>2022-02-27T10:24:33.647Z</time>
      </trkpt>
      <trkpt lat="41.91746" lon="25.71427">
        <ele>181.987358</ele>
        <time>2022-02-27T10:24:36.642Z</time>
      </trkpt>
      <trkpt lat="41.91736" lon="25.71416">
        <ele>182.282015</ele>
        <time>2022-02-27T10:24:39.621Z</time>
      </trkpt>
      <trkpt lat="41.91726" lon="25.71406">
        <ele>182.56899</ele>
        <time>2022-02-27T10:24:42.636Z</time>
      </trkpt>
      <trkpt lat="41.91717" lon="25.71397">
        <ele>182.838479</ele>
        <time>2022-02-27T10:24:45.656Z</time>
      </trkpt>
      <trkpt lat="41.91708" lon="25.71387">
        <ele>183.102851</ele>
        <time>2022-02-27T10:24:48.623Z</time>
      </trkpt>
      <trkpt lat="41.91701" lon="25.71378">
        <ele>183.342066</ele>
        <time>2022-02-27T10:24:51.670Z</time>
      </trkpt>
      <trkpt lat="41.91694" lon="25.71369">
        <ele>183.559499</ele>
        <time>2022-02-27T10:24:54.621Z</time>
      </trkpt>
      <trkpt lat="41.91686" lon="25.71358">
        <ele>183.824293</ele>
        <time>2022-02-27T10:24:58.641Z</time>
      </trkpt>
      <trkpt lat="41.91679" lon="25.71346">
        <ele>184.099554</ele>
        <time>2022-02-27T10:25:02.671Z</time>
      </trkpt>
      <trkpt lat="41.91671" lon="25.71333">
        <ele>184.37335</ele>
        <time>2022-02-27T10:25:06.624Z</time>
      </trkpt>
      <trkpt lat="41.91665" lon="25.71321">
        <ele>184.635888</ele>
        <time>2022-02-27T10:25:10.640Z</time>
      </trkpt>
      <trkpt lat="41.91659" lon="25.71309">
        <ele>184.883447</ele>
        <time>2022-02-27T10:25:14.633Z</time>
      </trkpt>
      <trkpt lat="41.91654" lon="25.71297">
        <ele>185.130196</ele>
        <time>2022-02-27T10:25:18.642Z</time>
      </trkpt>
      <trkpt lat="41.91648" lon="25.71285">
        <ele>185.742107</ele>
        <time>2022-02-27T10:25:22.649Z</time>
      </trkpt>
      <trkpt lat="41.91643" lon="25.71272">
        <ele>186.389352</ele>
        <time>2022-02-27T10:25:26.623Z</time>
      </trkpt>
      <trkpt lat="41.91639" lon="25.7126">
        <ele>186.977276</ele>
        <time>2022-02-27T10:25:30.630Z</time>
      </trkpt>
      <trkpt lat="41.91635" lon="25.71248">
        <ele>187.588283</ele>
        <time>2022-02-27T10:25:34.620Z</time>
      </trkpt>
      <trkpt lat="41.9163" lon="25.71235">
        <ele>188.22495</ele>
        <time>2022-02-27T10:25:38.633Z</time>
      </trkpt>
      <trkpt lat="41.91626" lon="25.71224">
        <ele>188.801093</ele>
        <time>2022-02-27T10:25:42.643Z</time>
      </trkpt>
      <trkpt lat="41.91622" lon="25.71212">
        <ele>189.402089</ele>
        <time>2022-02-27T10:25:46.655Z</time>
      </trkpt>
      <trkpt lat="41.91618" lon="25.712">
        <ele>189.971615</ele>
        <time>2022-02-27T10:25:50.636Z</time>
      </trkpt>
      <trkpt lat="41.91613" lon="25.71186">
        <ele>190.6611</ele>
        <time>2022-02-27T10:25:55.619Z</time>
      </trkpt>
      <trkpt lat="41.9161" lon="25.71175">
        <ele>191.236059</ele>
        <time>2022-02-27T10:25:59.635Z</time>
      </trkpt>
      <trkpt lat="41.91606" lon="25.71162">
        <ele>191.875135</ele>
        <time>2022-02-27T10:26:04.620Z</time>
      </trkpt>
      <trkpt lat="41.91601" lon="25.71149">
        <ele>192.490142</ele>
        <time>2022-02-27T10:26:09.637Z</time>
      </trkpt>
      <trkpt lat="41.91598" lon="25.71136">
        <ele>193.122219</ele>
        <time>2022-02-27T10:26:14.667Z</time>
      </trkpt>
      <trkpt lat="41.91595" lon="25.71122">
        <ele>193.78998</ele>
        <time>2022-02-27T10:26:19.652Z</time>
      </trkpt>
      <trkpt lat="41.91592" lon="25.7111">
        <ele>194.35245</ele>
        <time>2022-02-27T10:26:23.634Z</time>
      </trkpt>
      <trkpt lat="41.91589" lon="25.71098">
        <ele>194.923523</ele>
        <time>2022-02-27T10:26:27.635Z</time>
      </trkpt>
      <trkpt lat="41.91585" lon="25.71085">
        <ele>195.559184</ele>
        <time>2022-02-27T10:26:32.645Z</time>
      </trkpt>
      <trkpt lat="41.91583" lon="25.71073">
        <ele>196.110599</ele>
        <time>2022-02-27T10:26:36.632Z</time>
      </trkpt>
      <trkpt lat="41.9158" lon="25.71061">
        <ele>196.186648</ele>
        <time>2022-02-27T10:26:40.650Z</time>
      </trkpt>
      <trkpt lat="41.91578" lon="25.71049">
        <ele>196.265084</ele>
        <time>2022-02-27T10:26:44.652Z</time>
      </trkpt>
      <trkpt lat="41.91575" lon="25.71036">
        <ele>196.345503</ele>
        <time>2022-02-27T10:26:48.677Z</time>
      </trkpt>
      <trkpt lat="41.91572" lon="25.71022">
        <ele>196.435854</ele>
        <time>2022-02-27T10:26:53.633Z</time>
      </trkpt>
      <trkpt lat="41.91568" lon="25.71007">
        <ele>196.530598</ele>
        <time>2022-02-27T10:26:58.673Z</time>
      </trkpt>
      <trkpt lat="41.91565" lon="25.70995">
        <ele>196.611576</ele>
        <time>2022-02-27T10:27:02.638Z</time>
      </trkpt>
      <trkpt lat="41.91562" lon="25.70982">
        <ele>196.690108</ele>
        <time>2022-02-27T10:27:06.627Z</time>
      </trkpt>
      <trkpt lat="41.91558" lon="25.70969">
        <ele>196.777692</ele>
        <time>2022-02-27T10:27:11.643Z</time>
      </trkpt>
      <trkpt lat="41.91555" lon="25.70956">
        <ele>196.861292</ele>
        <time>2022-02-27T10:27:16.674Z</time>
      </trkpt>
      <trkpt lat="41.91552" lon="25.70942">
        <ele>196.94979</ele>
        <time>2022-02-27T10:27:21.591Z</time>
      </trkpt>
      <trkpt lat="41.91549" lon="25.70928">
        <ele>197.038286</ele>
        <time>2022-02-27T10:27:26.612Z</time>
      </trkpt>
      <trkpt lat="41.91547" lon="25.70914">
        <ele>197.127971</ele>
        <time>2022-02-27T10:27:31.618Z</time>
      </trkpt>
      <trkpt lat="41.91545" lon="25.70901">
        <ele>197.208178</ele>
        <time>2022-02-27T10:27:35.641Z</time>
      </trkpt>
      <trkpt lat="41.91541" lon="25.70888">
        <ele>197.291198</ele>
        <time>2022-02-27T10:27:39.642Z</time>
      </trkpt>
      <trkpt lat="41.91539" lon="25.70875">
        <ele>197.372306</ele>
        <time>2022-02-27T10:27:43.653Z</time>
      </trkpt>
      <trkpt lat="41.91536" lon="25.70862">
        <ele>197.456108</ele>
        <time>2022-02-27T10:27:47.621Z</time>
      </trkpt>
      <trkpt lat="41.91533" lon="25.70847">
        <ele>197.549144</ele>
        <time>2022-02-27T10:27:51.674Z</time>
      </trkpt>
      <trkpt lat="41.91531" lon="25.70832">
        <ele>197.675077</ele>
        <time>2022-02-27T10:27:55.652Z</time>
      </trkpt>
      <trkpt lat="41.91529" lon="25.70817">
        <ele>197.812344</ele>
        <time>2022-02-27T10:27:59.646Z</time>
      </trkpt>
      <trkpt lat="41.91525" lon="25.70802">
        <ele>197.962069</ele>
        <time>2022-02-27T10:28:03.636Z</time>
      </trkpt>
      <trkpt lat="41.91521" lon="25.70789">
        <ele>198.09311</ele>
        <time>2022-02-27T10:28:06.631Z</time>
      </trkpt>
      <trkpt lat="41.91518" lon="25.70775">
        <ele>198.225073</ele>
        <time>2022-02-27T10:28:09.638Z</time>
      </trkpt>
      <trkpt lat="41.91514" lon="25.70761">
        <ele>198.357037</ele>
        <time>2022-02-27T10:28:12.660Z</time>
      </trkpt>
      <trkpt lat="41.91511" lon="25.70747">
        <ele>198.492479</ele>
        <time>2022-02-27T10:28:15.628Z</time>
      </trkpt>
      <trkpt lat="41.91508" lon="25.70731">
        <ele>198.651718</ele>
        <time>2022-02-27T10:28:18.645Z</time>
      </trkpt>
      <trkpt lat="41.91504" lon="25.70715">
        <ele>198.805113</ele>
        <time>2022-02-27T10:28:21.664Z</time>
      </trkpt>
      <trkpt lat="41.915" lon="25.70699">
        <ele>198.959976</ele>
        <time>2022-02-27T10:28:24.633Z</time>
      </trkpt>
      <trkpt lat="41.91496" lon="25.70684">
        <ele>199.105259</ele>
        <time>2022-02-27T10:28:27.621Z</time>
      </trkpt>
      <trkpt lat="41.91492" lon="25.70669">
        <ele>199.25397</ele>
        <time>2022-02-27T10:28:30.635Z</time>
      </trkpt>
      <trkpt lat="41.91488" lon="25.70653">
        <ele>199.410016</ele>
        <time>2022-02-27T10:28:33.635Z</time>
      </trkpt>
      <trkpt lat="41.91485" lon="25.70637">
        <ele>199.562005</ele>
        <time>2022-02-27T10:28:36.631Z</time>
      </trkpt>
      <trkpt lat="41.91481" lon="25.70621">
        <ele>199.711239</ele>
        <time>2022-02-27T10:28:39.638Z</time>
      </trkpt>
      <trkpt lat="41.91477" lon="25.70606">
        <ele>199.759606</ele>
        <time>2022-02-27T10:28:42.638Z</time>
      </trkpt>
      <trkpt lat="41.91473" lon="25.70591">
        <ele>199.621754</ele>
        <time>2022-02-27T10:28:45.637Z</time>
      </trkpt>
      <trkpt lat="41.9147" lon="25.70577">
        <ele>199.491917</ele>
        <time>2022-02-27T10:28:48.621Z</time>
      </trkpt>
      <trkpt lat="41.91466" lon="25.70563">
        <ele>199.362939</ele>
        <time>2022-02-27T10:28:51.624Z</time>
      </trkpt>
      <trkpt lat="41.91462" lon="25.70549">
        <ele>199.240262</ele>
        <time>2022-02-27T10:28:54.632Z</time>
      </trkpt>
      <trkpt lat="41.91459" lon="25.70536">
        <ele>199.11687</ele>
        <time>2022-02-27T10:28:57.630Z</time>
      </trkpt>
      <trkpt lat="41.91456" lon="25.70521">
        <ele>198.980846</ele>
        <time>2022-02-27T10:29:00.640Z</time>
      </trkpt>
      <trkpt lat="41.91453" lon="25.70506">
        <ele>198.847545</ele>
        <time>2022-02-27T10:29:03.641Z</time>
      </trkpt>
      <trkpt lat="41.9145" lon="25.7049">
        <ele>198.71054</ele>
        <time>2022-02-27T10:29:06.695Z</time>
      </trkpt>
      <trkpt lat="41.91446" lon="25.70474">
        <ele>198.567107</ele>
        <time>2022-02-27T10:29:09.629Z</time>
      </trkpt>
      <trkpt lat="41.91442" lon="25.70458">
        <ele>198.421362</ele>
        <time>2022-02-27T10:29:12.633Z</time>
      </trkpt>
      <trkpt lat="41.91439" lon="25.70441">
        <ele>198.271922</ele>
        <time>2022-02-27T10:29:15.629Z</time>
      </trkpt>
      <trkpt lat="41.91435" lon="25.70425">
        <ele>198.120676</ele>
        <time>2022-02-27T10:29:18.628Z</time>
      </trkpt>
      <trkpt lat="41.91431" lon="25.70408">
        <ele>197.971506</ele>
        <time>2022-02-27T10:29:21.641Z</time>
      </trkpt>
      <trkpt lat="41.91427" lon="25.70391">
        <ele>197.819995</ele>
        <time>2022-02-27T10:29:24.630Z</time>
      </trkpt>
      <trkpt lat="41.91425" lon="25.70379">
        <ele>197.683682</ele>
        <time>2022-02-27T10:29:26.631Z</time>
      </trkpt>
      <trkpt lat="41.91422" lon="25.70367">
        <ele>197.401359</ele>
        <time>2022-02-27T10:29:28.689Z</time>
      </trkpt>
      <trkpt lat="41.91419" lon="25.70355">
        <ele>197.12467</ele>
        <time>2022-02-27T10:29:30.634Z</time>
      </trkpt>
      <trkpt lat="41.91418" lon="25.70342">
        <ele>196.833181</ele>
        <time>2022-02-27T10:29:32.636Z</time>
      </trkpt>
      <trkpt lat="41.91415" lon="25.7033">
        <ele>196.542147</ele>
        <time>2022-02-27T10:29:34.640Z</time>
      </trkpt>
      <trkpt lat="41.91412" lon="25.70317">
        <ele>196.239312</ele>
        <time>2022-02-27T10:29:36.636Z</time>
      </trkpt>
      <trkpt lat="41.91409" lon="25.70304">
        <ele>195.943516</ele>
        <time>2022-02-27T10:29:38.634Z</time>
      </trkpt>
      <trkpt lat="41.91406" lon="25.70291">
        <ele>195.637287</ele>
        <time>2022-02-27T10:29:40.666Z</time>
      </trkpt>
      <trkpt lat="41.91403" lon="25.70277">
        <ele>195.31044</ele>
        <time>2022-02-27T10:29:42.631Z</time>
      </trkpt>
      <trkpt lat="41.914" lon="25.70264">
        <ele>194.997318</ele>
        <time>2022-02-27T10:29:44.631Z</time>
      </trkpt>
      <trkpt lat="41.91397" lon="25.70251">
        <ele>194.700362</ele>
        <time>2022-02-27T10:29:46.633Z</time>
      </trkpt>
      <trkpt lat="41.91393" lon="25.70239">
        <ele>194.403407</ele>
        <time>2022-02-27T10:29:48.635Z</time>
      </trkpt>
      <trkpt lat="41.91391" lon="25.70226">
        <ele>194.100026</ele>
        <time>2022-02-27T10:29:50.673Z</time>
      </trkpt>
      <trkpt lat="41.91388" lon="25.70213">
        <ele>193.804472</ele>
        <time>2022-02-27T10:29:52.636Z</time>
      </trkpt>
      <trkpt lat="41.91385" lon="25.702">
        <ele>193.503785</ele>
        <time>2022-02-27T10:29:54.630Z</time>
      </trkpt>
      <trkpt lat="41.91383" lon="25.70187">
        <ele>193.207391</ele>
        <time>2022-02-27T10:29:56.650Z</time>
      </trkpt>
      <trkpt lat="41.9138" lon="25.70174">
        <ele>192.908332</ele>
        <time>2022-02-27T10:29:58.650Z</time>
      </trkpt>
      <trkpt lat="41.91378" lon="25.70161">
        <ele>192.608617</ele>
        <time>2022-02-27T10:30:00.655Z</time>
      </trkpt>
      <trkpt lat="41.91375" lon="25.7015">
        <ele>192.338781</ele>
        <time>2022-02-27T10:30:02.653Z</time>
      </trkpt>
      <trkpt lat="41.91372" lon="25.70138">
        <ele>192.253829</ele>
        <time>2022-02-27T10:30:04.651Z</time>
      </trkpt>
      <trkpt lat="41.91371" lon="25.70124">
        <ele>192.173813</ele>
        <time>2022-02-27T10:30:06.633Z</time>
      </trkpt>
      <trkpt lat="41.91369" lon="25.7011">
        <ele>192.089253</ele>
        <time>2022-02-27T10:30:08.640Z</time>
      </trkpt>
      <trkpt lat="41.91368" lon="25.70094">
        <ele>192.001133</ele>
        <time>2022-02-27T10:30:10.643Z</time>
      </trkpt>
      <trkpt lat="41.91369" lon="25.7008">
        <ele>191.917926</ele>
        <time>2022-02-27T10:30:12.669Z</time>
      </trkpt>
      <trkpt lat="41.91369" lon="25.70065">
        <ele>191.834606</ele>
        <time>2022-02-27T10:30:14.643Z</time>
      </trkpt>
      <trkpt lat="41.9137" lon="25.70051">
        <ele>191.750331</ele>
        <time>2022-02-27T10:30:16.651Z</time>
      </trkpt>
      <trkpt lat="41.91372" lon="25.70037">
        <ele>191.670315</ele>
        <time>2022-02-27T10:30:18.641Z</time>
      </trkpt>
      <trkpt lat="41.91374" lon="25.70023">
        <ele>191.58822</ele>
        <time>2022-02-27T10:30:20.629Z</time>
      </trkpt>
      <trkpt lat="41.91377" lon="25.70008">
        <ele>191.502435</ele>
        <time>2022-02-27T10:30:22.636Z</time>
      </trkpt>
      <trkpt lat="41.91378" lon="25.69993">
        <ele>191.415494</ele>
        <time>2022-02-27T10:30:24.638Z</time>
      </trkpt>
      <trkpt lat="41.9138" lon="25.69979">
        <ele>191.33196</ele>
        <time>2022-02-27T10:30:26.624Z</time>
      </trkpt>
      <trkpt lat="41.91381" lon="25.69965">
        <ele>191.249778</ele>
        <time>2022-02-27T10:30:28.625Z</time>
      </trkpt>
      <trkpt lat="41.91383" lon="25.69951">
        <ele>191.16996</ele>
        <time>2022-02-27T10:30:30.638Z</time>
      </trkpt>
      <trkpt lat="41.91385" lon="25.69938">
        <ele>191.095786</ele>
        <time>2022-02-27T10:30:32.636Z</time>
      </trkpt>
      <trkpt lat="41.91388" lon="25.69921">
        <ele>190.992952</ele>
        <time>2022-02-27T10:30:35.636Z</time>
      </trkpt>
      <trkpt lat="41.91392" lon="25.69905">
        <ele>191.015222</ele>
        <time>2022-02-27T10:30:38.646Z</time>
      </trkpt>
      <trkpt lat="41.91396" lon="25.6989">
        <ele>191.223464</ele>
        <time>2022-02-27T10:30:41.646Z</time>
      </trkpt>
      <trkpt lat="41.914" lon="25.69874">
        <ele>191.432875</ele>
        <time>2022-02-27T10:30:44.640Z</time>
      </trkpt>
      <trkpt lat="41.91405" lon="25.69858">
        <ele>191.648908</ele>
        <time>2022-02-27T10:30:47.646Z</time>
      </trkpt>
      <trkpt lat="41.91409" lon="25.69843">
        <ele>191.85652</ele>
        <time>2022-02-27T10:30:50.644Z</time>
      </trkpt>
      <trkpt lat="41.91413" lon="25.69829">
        <ele>192.055765</ele>
        <time>2022-02-27T10:30:53.636Z</time>
      </trkpt>
      <trkpt lat="41.91417" lon="25.69816">
        <ele>192.235088</ele>
        <time>2022-02-27T10:30:56.675Z</time>
      </trkpt>
      <trkpt lat="41.9142" lon="25.69804">
        <ele>192.400595</ele>
        <time>2022-02-27T10:30:59.640Z</time>
      </trkpt>
      <trkpt lat="41.91423" lon="25.69792">
        <ele>192.561265</ele>
        <time>2022-02-27T10:31:02.631Z</time>
      </trkpt>
      <trkpt lat="41.91427" lon="25.69777">
        <ele>192.761668</ele>
        <time>2022-02-27T10:31:06.650Z</time>
      </trkpt>
      <trkpt lat="41.91431" lon="25.69763">
        <ele>192.949554</ele>
        <time>2022-02-27T10:31:10.655Z</time>
      </trkpt>
      <trkpt lat="41.91434" lon="25.6975">
        <ele>193.133129</ele>
        <time>2022-02-27T10:31:14.636Z</time>
      </trkpt>
      <trkpt lat="41.91438" lon="25.69735">
        <ele>193.332027</ele>
        <time>2022-02-27T10:31:18.676Z</time>
      </trkpt>
      <trkpt lat="41.91441" lon="25.69721">
        <ele>193.526552</ele>
        <time>2022-02-27T10:31:22.626Z</time>
      </trkpt>
      <trkpt lat="41.91445" lon="25.69708">
        <ele>193.703496</ele>
        <time>2022-02-27T10:31:26.644Z</time>
      </trkpt>
      <trkpt lat="41.91448" lon="25.69695">
        <ele>193.874597</ele>
        <time>2022-02-27T10:31:30.650Z</time>
      </trkpt>
      <trkpt lat="41.91451" lon="25.69682">
        <ele>194.063152</ele>
        <time>2022-02-27T10:31:34.633Z</time>
      </trkpt>
      <trkpt lat="41.91455" lon="25.69669">
        <ele>194.392457</ele>
        <time>2022-02-27T10:31:38.637Z</time>
      </trkpt>
      <trkpt lat="41.91458" lon="25.69657">
        <ele>194.6911</ele>
        <time>2022-02-27T10:31:42.641Z</time>
      </trkpt>
      <trkpt lat="41.91463" lon="25.69644">
        <ele>195.02925</ele>
        <time>2022-02-27T10:31:46.668Z</time>
      </trkpt>
      <trkpt lat="41.91466" lon="25.69631">
        <ele>195.345636</ele>
        <time>2022-02-27T10:31:50.628Z</time>
      </trkpt>
      <trkpt lat="41.91469" lon="25.69618">
        <ele>195.671869</ele>
        <time>2022-02-27T10:31:54.621Z</time>
      </trkpt>
      <trkpt lat="41.91473" lon="25.69604">
        <ele>196.01752</ele>
        <time>2022-02-27T10:31:58.648Z</time>
      </trkpt>
      <trkpt lat="41.91477" lon="25.69589">
        <ele>196.38513</ele>
        <time>2022-02-27T10:32:02.630Z</time>
      </trkpt>
      <trkpt lat="41.91481" lon="25.69575">
        <ele>196.735134</ele>
        <time>2022-02-27T10:32:06.629Z</time>
      </trkpt>
      <trkpt lat="41.91484" lon="25.69561">
        <ele>197.074184</ele>
        <time>2022-02-27T10:32:10.640Z</time>
      </trkpt>
      <trkpt lat="41.91488" lon="25.69547">
        <ele>197.417892</ele>
        <time>2022-02-27T10:32:14.678Z</time>
      </trkpt>
      <trkpt lat="41.91492" lon="25.69533">
        <ele>197.781089</ele>
        <time>2022-02-27T10:32:18.634Z</time>
      </trkpt>
      <trkpt lat="41.91495" lon="25.6952">
        <ele>198.082996</ele>
        <time>2022-02-27T10:32:21.640Z</time>
      </trkpt>
      <trkpt lat="41.91498" lon="25.69506">
        <ele>198.436886</ele>
        <time>2022-02-27T10:32:25.652Z</time>
      </trkpt>
      <trkpt lat="41.91502" lon="25.69494">
        <ele>198.730036</ele>
        <time>2022-02-27T10:32:28.653Z</time>
      </trkpt>
      <trkpt lat="41.91505" lon="25.69482">
        <ele>199.027539</ele>
        <time>2022-02-27T10:32:31.644Z</time>
      </trkpt>
      <trkpt lat="41.91508" lon="25.69469">
        <ele>199.337209</ele>
        <time>2022-02-27T10:32:34.624Z</time>
      </trkpt>
      <trkpt lat="41.91511" lon="25.69457">
        <ele>199.644721</ele>
        <time>2022-02-27T10:32:37.649Z</time>
      </trkpt>
      <trkpt lat="41.91514" lon="25.69445">
        <ele>199.695003</ele>
        <time>2022-02-27T10:32:40.635Z</time>
      </trkpt>
      <trkpt lat="41.91517" lon="25.69433">
        <ele>199.715362</ele>
        <time>2022-02-27T10:32:43.639Z</time>
      </trkpt>
      <trkpt lat="41.9152" lon="25.6942">
        <ele>199.736757</ele>
        <time>2022-02-27T10:32:46.643Z</time>
      </trkpt>
      <trkpt lat="41.91523" lon="25.69408">
        <ele>199.757561</ele>
        <time>2022-02-27T10:32:49.643Z</time>
      </trkpt>
      <trkpt lat="41.91526" lon="25.69396">
        <ele>199.778293</ele>
        <time>2022-02-27T10:32:52.648Z</time>
      </trkpt>
      <trkpt lat="41.91529" lon="25.69383">
        <ele>199.79994</ele>
        <time>2022-02-27T10:32:55.653Z</time>
      </trkpt>
      <trkpt lat="41.91532" lon="25.6937">
        <ele>199.821656</ele>
        <time>2022-02-27T10:32:58.638Z</time>
      </trkpt>
      <trkpt lat="41.91536" lon="25.69357">
        <ele>199.843963</ele>
        <time>2022-02-27T10:33:01.647Z</time>
      </trkpt>
      <trkpt lat="41.9154" lon="25.69344">
        <ele>199.867182</ele>
        <time>2022-02-27T10:33:04.663Z</time>
      </trkpt>
      <trkpt lat="41.91543" lon="25.69331">
        <ele>199.889869</ele>
        <time>2022-02-27T10:33:07.637Z</time>
      </trkpt>
      <trkpt lat="41.91547" lon="25.69317">
        <ele>199.913842</ele>
        <time>2022-02-27T10:33:10.649Z</time>
      </trkpt>
      <trkpt lat="41.9155" lon="25.69301">
        <ele>199.93943</ele>
        <time>2022-02-27T10:33:13.620Z</time>
      </trkpt>
      <trkpt lat="41.91554" lon="25.69286">
        <ele>199.966492</ele>
        <time>2022-02-27T10:33:16.633Z</time>
      </trkpt>
      <trkpt lat="41.91559" lon="25.6927">
        <ele>199.993849</ele>
        <time>2022-02-27T10:33:19.633Z</time>
      </trkpt>
      <trkpt lat="41.91561" lon="25.69257">
        <ele>200.013933</ele>
        <time>2022-02-27T10:33:21.638Z</time>
      </trkpt>
      <trkpt lat="41.91564" lon="25.69245">
        <ele>200.034773</ele>
        <time>2022-02-27T10:33:23.640Z</time>
      </trkpt>
      <trkpt lat="41.91567" lon="25.69232">
        <ele>200.056115</ele>
        <time>2022-02-27T10:33:25.638Z</time>
      </trkpt>
      <trkpt lat="41.9157" lon="25.6922">
        <ele>199.875011</ele>
        <time>2022-02-27T10:33:27.635Z</time>
      </trkpt>
      <trkpt lat="41.91573" lon="25.69208">
        <ele>199.533042</ele>
        <time>2022-02-27T10:33:29.634Z</time>
      </trkpt>
      <trkpt lat="41.91576" lon="25.69195">
        <ele>199.18237</ele>
        <time>2022-02-27T10:33:31.633Z</time>
      </trkpt>
      <trkpt lat="41.9158" lon="25.69182">
        <ele>198.819431</ele>
        <time>2022-02-27T10:33:33.634Z</time>
      </trkpt>
      <trkpt lat="41.91583" lon="25.69169">
        <ele>198.450259</ele>
        <time>2022-02-27T10:33:35.640Z</time>
      </trkpt>
      <trkpt lat="41.91587" lon="25.69156">
        <ele>198.077338</ele>
        <time>2022-02-27T10:33:37.655Z</time>
      </trkpt>
      <trkpt lat="41.91591" lon="25.69144">
        <ele>197.710302</ele>
        <time>2022-02-27T10:33:39.632Z</time>
      </trkpt>
      <trkpt lat="41.91595" lon="25.6913">
        <ele>197.331133</ele>
        <time>2022-02-27T10:33:41.654Z</time>
      </trkpt>
      <trkpt lat="41.91599" lon="25.69117">
        <ele>196.94571</ele>
        <time>2022-02-27T10:33:43.633Z</time>
      </trkpt>
      <trkpt lat="41.91602" lon="25.69103">
        <ele>196.572237</ele>
        <time>2022-02-27T10:33:45.639Z</time>
      </trkpt>
      <trkpt lat="41.91605" lon="25.6909">
        <ele>196.193153</ele>
        <time>2022-02-27T10:33:47.637Z</time>
      </trkpt>
      <trkpt lat="41.91608" lon="25.69076">
        <ele>195.808453</ele>
        <time>2022-02-27T10:33:49.641Z</time>
      </trkpt>
      <trkpt lat="41.91612" lon="25.69062">
        <ele>195.424276</ele>
        <time>2022-02-27T10:33:51.644Z</time>
      </trkpt>
      <trkpt lat="41.91616" lon="25.69048">
        <ele>195.016433</ele>
        <time>2022-02-27T10:33:53.678Z</time>
      </trkpt>
      <trkpt lat="41.91619" lon="25.69033">
        <ele>194.585735</ele>
        <time>2022-02-27T10:33:55.637Z</time>
      </trkpt>
      <trkpt lat="41.91623" lon="25.69017">
        <ele>194.152935</ele>
        <time>2022-02-27T10:33:57.635Z</time>
      </trkpt>
      <trkpt lat="41.91628" lon="25.69002">
        <ele>193.723605</ele>
        <time>2022-02-27T10:33:59.652Z</time>
      </trkpt>
      <trkpt lat="41.91633" lon="25.68987">
        <ele>193.522031</ele>
        <time>2022-02-27T10:34:01.630Z</time>
      </trkpt>
      <trkpt lat="41.91637" lon="25.68972">
        <ele>193.385131</ele>
        <time>2022-02-27T10:34:03.631Z</time>
      </trkpt>
      <trkpt lat="41.91641" lon="25.68956">
        <ele>193.247049</ele>
        <time>2022-02-27T10:34:05.647Z</time>
      </trkpt>
      <trkpt lat="41.91645" lon="25.6894">
        <ele>193.109373</ele>
        <time>2022-02-27T10:34:07.636Z</time>
      </trkpt>
      <trkpt lat="41.91649" lon="25.68925">
        <ele>192.976335</ele>
        <time>2022-02-27T10:34:09.633Z</time>
      </trkpt>
      <trkpt lat="41.91653" lon="25.68911">
        <ele>192.849604</ele>
        <time>2022-02-27T10:34:11.655Z</time>
      </trkpt>
      <trkpt lat="41.91656" lon="25.68897">
        <ele>192.727694</ele>
        <time>2022-02-27T10:34:13.646Z</time>
      </trkpt>
      <trkpt lat="41.91659" lon="25.68883">
        <ele>192.608305</ele>
        <time>2022-02-27T10:34:15.620Z</time>
      </trkpt>
      <trkpt lat="41.91663" lon="25.6887">
        <ele>192.489798</ele>
        <time>2022-02-27T10:34:17.635Z</time>
      </trkpt>
      <trkpt lat="41.91666" lon="25.68857">
        <ele>192.375949</ele>
        <time>2022-02-27T10:34:19.640Z</time>
      </trkpt>
      <trkpt lat="41.91669" lon="25.68844">
        <ele>192.259627</ele>
        <time>2022-02-27T10:34:21.662Z</time>
      </trkpt>
      <trkpt lat="41.91673" lon="25.6883">
        <ele>192.139094</ele>
        <time>2022-02-27T10:34:23.624Z</time>
      </trkpt>
      <trkpt lat="41.91676" lon="25.68817">
        <ele>192.020381</ele>
        <time>2022-02-27T10:34:25.651Z</time>
      </trkpt>
      <trkpt lat="41.91679" lon="25.68804">
        <ele>191.91087</ele>
        <time>2022-02-27T10:34:27.625Z</time>
      </trkpt>
      <trkpt lat="41.91682" lon="25.68792">
        <ele>191.802046</ele>
        <time>2022-02-27T10:34:29.635Z</time>
      </trkpt>
      <trkpt lat="41.91686" lon="25.68779">
        <ele>191.687408</ele>
        <time>2022-02-27T10:34:31.645Z</time>
      </trkpt>
      <trkpt lat="41.91689" lon="25.68767">
        <ele>191.644897</ele>
        <time>2022-02-27T10:34:33.633Z</time>
      </trkpt>
      <trkpt lat="41.91692" lon="25.68756">
        <ele>191.732118</ele>
        <time>2022-02-27T10:34:35.643Z</time>
      </trkpt>
      <trkpt lat="41.91696" lon="25.68739">
        <ele>191.856473</ele>
        <time>2022-02-27T10:34:38.636Z</time>
      </trkpt>
      <trkpt lat="41.917" lon="25.68723">
        <ele>191.979927</ele>
        <time>2022-02-27T10:34:41.632Z</time>
      </trkpt>
      <trkpt lat="41.91704" lon="25.68706">
        <ele>192.106308</ele>
        <time>2022-02-27T10:34:44.622Z</time>
      </trkpt>
      <trkpt lat="41.91708" lon="25.68688">
        <ele>192.236725</ele>
        <time>2022-02-27T10:34:47.635Z</time>
      </trkpt>
      <trkpt lat="41.91711" lon="25.68676">
        <ele>192.328969</ele>
        <time>2022-02-27T10:34:49.657Z</time>
      </trkpt>
      <trkpt lat="41.91714" lon="25.68664">
        <ele>192.41987</ele>
        <time>2022-02-27T10:34:51.624Z</time>
      </trkpt>
      <trkpt lat="41.91717" lon="25.68652">
        <ele>192.511878</ele>
        <time>2022-02-27T10:34:53.648Z</time>
      </trkpt>
      <trkpt lat="41.9172" lon="25.6864">
        <ele>192.601849</ele>
        <time>2022-02-27T10:34:55.664Z</time>
      </trkpt>
      <trkpt lat="41.91723" lon="25.68628">
        <ele>192.690564</ele>
        <time>2022-02-27T10:34:57.630Z</time>
      </trkpt>
      <trkpt lat="41.91726" lon="25.68616">
        <ele>192.778456</ele>
        <time>2022-02-27T10:34:59.649Z</time>
      </trkpt>
      <trkpt lat="41.91729" lon="25.68604">
        <ele>192.868024</ele>
        <time>2022-02-27T10:35:01.634Z</time>
      </trkpt>
      <trkpt lat="41.91732" lon="25.68592">
        <ele>192.957995</ele>
        <time>2022-02-27T10:35:03.640Z</time>
      </trkpt>
      <trkpt lat="41.91736" lon="25.6858">
        <ele>193.050259</ele>
        <time>2022-02-27T10:35:05.633Z</time>
      </trkpt>
      <trkpt lat="41.91738" lon="25.68569">
        <ele>193.136377</ele>
        <time>2022-02-27T10:35:07.638Z</time>
      </trkpt>
      <trkpt lat="41.91742" lon="25.68556">
        <ele>193.231645</ele>
        <time>2022-02-27T10:35:09.628Z</time>
      </trkpt>
      <trkpt lat="41.91746" lon="25.68544">
        <ele>193.327551</ele>
        <time>2022-02-27T10:35:11.642Z</time>
      </trkpt>
      <trkpt lat="41.91749" lon="25.68531">
        <ele>193.286905</ele>
        <time>2022-02-27T10:35:13.622Z</time>
      </trkpt>
      <trkpt lat="41.91752" lon="25.68518">
        <ele>193.226931</ele>
        <time>2022-02-27T10:35:15.619Z</time>
      </trkpt>
      <trkpt lat="41.91755" lon="25.68505">
        <ele>193.168557</ele>
        <time>2022-02-27T10:35:17.643Z</time>
      </trkpt>
      <trkpt lat="41.91758" lon="25.68492">
        <ele>193.110358</ele>
        <time>2022-02-27T10:35:19.642Z</time>
      </trkpt>
      <trkpt lat="41.91761" lon="25.6848">
        <ele>193.052401</ele>
        <time>2022-02-27T10:35:21.625Z</time>
      </trkpt>
      <trkpt lat="41.91764" lon="25.68468">
        <ele>192.996111</ele>
        <time>2022-02-27T10:35:23.640Z</time>
      </trkpt>
      <trkpt lat="41.91767" lon="25.68456">
        <ele>192.940064</ele>
        <time>2022-02-27T10:35:25.649Z</time>
      </trkpt>
      <trkpt lat="41.9177" lon="25.68444">
        <ele>192.886222</ele>
        <time>2022-02-27T10:35:27.627Z</time>
      </trkpt>
      <trkpt lat="41.91773" lon="25.68432">
        <ele>192.832834</ele>
        <time>2022-02-27T10:35:29.644Z</time>
      </trkpt>
      <trkpt lat="41.91776" lon="25.68421">
        <ele>192.778749</ele>
        <time>2022-02-27T10:35:31.649Z</time>
      </trkpt>
      <trkpt lat="41.91781" lon="25.68406">
        <ele>192.706233</ele>
        <time>2022-02-27T10:35:34.646Z</time>
      </trkpt>
      <trkpt lat="41.91786" lon="25.68389">
        <ele>192.625946</ele>
        <time>2022-02-27T10:35:37.640Z</time>
      </trkpt>
      <trkpt lat="41.91788" lon="25.68376">
        <ele>192.567747</ele>
        <time>2022-02-27T10:35:39.637Z</time>
      </trkpt>
      <trkpt lat="41.91791" lon="25.68364">
        <ele>192.51173</ele>
        <time>2022-02-27T10:35:41.642Z</time>
      </trkpt>
      <trkpt lat="41.91794" lon="25.68352">
        <ele>192.458656</ele>
        <time>2022-02-27T10:35:43.648Z</time>
      </trkpt>
      <trkpt lat="41.91798" lon="25.68335">
        <ele>192.380182</ele>
        <time>2022-02-27T10:35:46.634Z</time>
      </trkpt>
      <trkpt lat="41.91802" lon="25.68318">
        <ele>192.302838</ele>
        <time>2022-02-27T10:35:49.633Z</time>
      </trkpt>
      <trkpt lat="41.91806" lon="25.68302">
        <ele>192.418019</ele>
        <time>2022-02-27T10:35:52.635Z</time>
      </trkpt>
      <trkpt lat="41.9181" lon="25.68287">
        <ele>192.597243</ele>
        <time>2022-02-27T10:35:55.668Z</time>
      </trkpt>
      <trkpt lat="41.91814" lon="25.68271">
        <ele>192.785376</ele>
        <time>2022-02-27T10:35:58.645Z</time>
      </trkpt>
      <trkpt lat="41.91817" lon="25.68256">
        <ele>192.962917</ele>
        <time>2022-02-27T10:36:01.654Z</time>
      </trkpt>
      <trkpt lat="41.91821" lon="25.68241">
        <ele>193.142616</ele>
        <time>2022-02-27T10:36:04.671Z</time>
      </trkpt>
      <trkpt lat="41.91825" lon="25.68226">
        <ele>193.329886</ele>
        <time>2022-02-27T10:36:07.637Z</time>
      </trkpt>
      <trkpt lat="41.91829" lon="25.6821">
        <ele>193.514869</ele>
        <time>2022-02-27T10:36:10.661Z</time>
      </trkpt>
      <trkpt lat="41.91833" lon="25.68195">
        <ele>193.701392</ele>
        <time>2022-02-27T10:36:13.639Z</time>
      </trkpt>
      <trkpt lat="41.91837" lon="25.68179">
        <ele>193.89218</ele>
        <time>2022-02-27T10:36:16.655Z</time>
      </trkpt>
      <trkpt lat="41.91841" lon="25.68162">
        <ele>194.091677</ele>
        <time>2022-02-27T10:36:19.651Z</time>
      </trkpt>
      <trkpt lat="41.91845" lon="25.68146">
        <ele>194.292257</ele>
        <time>2022-02-27T10:36:22.627Z</time>
      </trkpt>
      <trkpt lat="41.9185" lon="25.6813">
        <ele>194.482014</ele>
        <time>2022-02-27T10:36:25.644Z</time>
      </trkpt>
      <trkpt lat="41.91855" lon="25.68115">
        <ele>194.669779</ele>
        <time>2022-02-27T10:36:28.630Z</time>
      </trkpt>
      <trkpt lat="41.91858" lon="25.68098">
        <ele>194.867919</ele>
        <time>2022-02-27T10:36:31.635Z</time>
      </trkpt>
      <trkpt lat="41.91862" lon="25.68083">
        <ele>195.019364</ele>
        <time>2022-02-27T10:36:34.689Z</time>
      </trkpt>
      <trkpt lat="41.91867" lon="25.68067">
        <ele>194.949885</ele>
        <time>2022-02-27T10:36:37.633Z</time>
      </trkpt>
      <trkpt lat="41.91871" lon="25.68051">
        <ele>194.879608</ele>
        <time>2022-02-27T10:36:40.636Z</time>
      </trkpt>
      <trkpt lat="41.91875" lon="25.68035">
        <ele>194.809891</ele>
        <time>2022-02-27T10:36:43.645Z</time>
      </trkpt>
      <trkpt lat="41.91879" lon="25.68019">
        <ele>194.73918</ele>
        <time>2022-02-27T10:36:46.648Z</time>
      </trkpt>
      <trkpt lat="41.91883" lon="25.68003">
        <ele>194.669472</ele>
        <time>2022-02-27T10:36:49.634Z</time>
      </trkpt>
      <trkpt lat="41.91887" lon="25.67986">
        <ele>194.596627</ele>
        <time>2022-02-27T10:36:52.646Z</time>
      </trkpt>
      <trkpt lat="41.91891" lon="25.67969">
        <ele>194.52427</ele>
        <time>2022-02-27T10:36:55.637Z</time>
      </trkpt>
      <trkpt lat="41.91894" lon="25.67953">
        <ele>194.456422</ele>
        <time>2022-02-27T10:36:58.648Z</time>
      </trkpt>
      <trkpt lat="41.91899" lon="25.67939">
        <ele>194.393278</ele>
        <time>2022-02-27T10:37:01.673Z</time>
      </trkpt>
      <trkpt lat="41.91902" lon="25.67923">
        <ele>194.32242</ele>
        <time>2022-02-27T10:37:04.641Z</time>
      </trkpt>
      <trkpt lat="41.91906" lon="25.67906">
        <ele>194.248224</ele>
        <time>2022-02-27T10:37:07.645Z</time>
      </trkpt>
      <trkpt lat="41.91911" lon="25.67889">
        <ele>194.175449</ele>
        <time>2022-02-27T10:37:10.636Z</time>
      </trkpt>
      <trkpt lat="41.91914" lon="25.67874">
        <ele>194.107876</ele>
        <time>2022-02-27T10:37:13.632Z</time>
      </trkpt>
      <trkpt lat="41.91919" lon="25.67858">
        <ele>194.038977</ele>
        <time>2022-02-27T10:37:16.652Z</time>
      </trkpt>
      <trkpt lat="41.91923" lon="25.67842">
        <ele>194.228669</ele>
        <time>2022-02-27T10:37:19.643Z</time>
      </trkpt>
      <trkpt lat="41.91927" lon="25.67826">
        <ele>194.46091</ele>
        <time>2022-02-27T10:37:22.640Z</time>
      </trkpt>
      <trkpt lat="41.91931" lon="25.6781">
        <ele>194.702694</ele>
        <time>2022-02-27T10:37:25.643Z</time>
      </trkpt>
      <trkpt lat="41.91935" lon="25.67798">
        <ele>194.868366</ele>
        <time>2022-02-27T10:37:27.639Z</time>
      </trkpt>
      <trkpt lat="41.91939" lon="25.67782">
        <ele>195.109489</ele>
        <time>2022-02-27T10:37:30.655Z</time>
      </trkpt>
      <trkpt lat="41.91944" lon="25.67765">
        <ele>195.348089</ele>
        <time>2022-02-27T10:37:33.635Z</time>
      </trkpt>
      <trkpt lat="41.91948" lon="25.67749">
        <ele>195.590487</ele>
        <time>2022-02-27T10:37:36.631Z</time>
      </trkpt>
      <trkpt lat="41.91953" lon="25.67733">
        <ele>195.819468</ele>
        <time>2022-02-27T10:37:39.630Z</time>
      </trkpt>
      <trkpt lat="41.91957" lon="25.67716">
        <ele>196.05947</ele>
        <time>2022-02-27T10:37:42.638Z</time>
      </trkpt>
      <trkpt lat="41.91961" lon="25.67699">
        <ele>196.300203</ele>
        <time>2022-02-27T10:37:45.634Z</time>
      </trkpt>
      <trkpt lat="41.91965" lon="25.67683">
        <ele>196.540383</ele>
        <time>2022-02-27T10:37:48.631Z</time>
      </trkpt>
      <trkpt lat="41.91969" lon="25.67666">
        <ele>196.780564</ele>
        <time>2022-02-27T10:37:51.637Z</time>
      </trkpt>
      <trkpt lat="41.91972" lon="25.67649">
        <ele>197.018139</ele>
        <time>2022-02-27T10:37:54.636Z</time>
      </trkpt>
      <trkpt lat="41.91976" lon="25.67632">
        <ele>197.257779</ele>
        <time>2022-02-27T10:37:57.665Z</time>
      </trkpt>
      <trkpt lat="41.9198" lon="25.67616">
        <ele>197.490036</ele>
        <time>2022-02-27T10:38:00.653Z</time>
      </trkpt>
      <trkpt lat="41.91984" lon="25.67599">
        <ele>197.722985</ele>
        <time>2022-02-27T10:38:03.672Z</time>
      </trkpt>
      <trkpt lat="41.91988" lon="25.67583">
        <ele>197.944646</ele>
        <time>2022-02-27T10:38:06.648Z</time>
      </trkpt>
      <trkpt lat="41.91992" lon="25.67566">
        <ele>198.173299</ele>
        <time>2022-02-27T10:38:09.630Z</time>
      </trkpt>
      <trkpt lat="41.91996" lon="25.67549">
        <ele>198.410935</ele>
        <time>2022-02-27T10:38:12.647Z</time>
      </trkpt>
      <trkpt lat="41.92" lon="25.67533">
        <ele>198.641768</ele>
        <time>2022-02-27T10:38:15.652Z</time>
      </trkpt>
      <trkpt lat="41.92004" lon="25.67516">
        <ele>198.873993</ele>
        <time>2022-02-27T10:38:18.641Z</time>
      </trkpt>
      <trkpt lat="41.92007" lon="25.67504">
        <ele>199.035023</ele>
        <time>2022-02-27T10:38:20.644Z</time>
      </trkpt>
      <trkpt lat="41.92012" lon="25.67488">
        <ele>199.265765</ele>
        <time>2022-02-27T10:38:23.642Z</time>
      </trkpt>
      <trkpt lat="41.92017" lon="25.67472">
        <ele>199.489133</ele>
        <time>2022-02-27T10:38:26.645Z</time>
      </trkpt>
      <trkpt lat="41.92021" lon="25.67457">
        <ele>199.704466</ele>
        <time>2022-02-27T10:38:29.677Z</time>
      </trkpt>
      <trkpt lat="41.92025" lon="25.6744">
        <ele>199.931508</ele>
        <time>2022-02-27T10:38:32.636Z</time>
      </trkpt>
      <trkpt lat="41.92029" lon="25.67429">
        <ele>200.098099</ele>
        <time>2022-02-27T10:38:34.650Z</time>
      </trkpt>
      <trkpt lat="41.92031" lon="25.67417">
        <ele>200.261704</ele>
        <time>2022-02-27T10:38:36.674Z</time>
      </trkpt>
      <trkpt lat="41.92034" lon="25.67405">
        <ele>200.42281</ele>
        <time>2022-02-27T10:38:38.631Z</time>
      </trkpt>
      <trkpt lat="41.92037" lon="25.67394">
        <ele>200.488924</ele>
        <time>2022-02-27T10:38:40.644Z</time>
      </trkpt>
      <trkpt lat="41.9204" lon="25.67382">
        <ele>200.436803</ele>
        <time>2022-02-27T10:38:42.642Z</time>
      </trkpt>
      <trkpt lat="41.92044" lon="25.67365">
        <ele>200.360199</ele>
        <time>2022-02-27T10:38:45.645Z</time>
      </trkpt>
      <trkpt lat="41.92048" lon="25.67349">
        <ele>200.28734</ele>
        <time>2022-02-27T10:38:48.637Z</time>
      </trkpt>
      <trkpt lat="41.92052" lon="25.67333">
        <ele>200.215918</ele>
        <time>2022-02-27T10:38:51.640Z</time>
      </trkpt>
      <trkpt lat="41.92055" lon="25.67317">
        <ele>200.145364</ele>
        <time>2022-02-27T10:38:54.634Z</time>
      </trkpt>
      <trkpt lat="41.92058" lon="25.67301">
        <ele>200.073008</ele>
        <time>2022-02-27T10:38:57.673Z</time>
      </trkpt>
      <trkpt lat="41.9206" lon="25.67285">
        <ele>200.002411</ele>
        <time>2022-02-27T10:39:00.643Z</time>
      </trkpt>
      <trkpt lat="41.92062" lon="25.67269">
        <ele>199.932346</ele>
        <time>2022-02-27T10:39:03.646Z</time>
      </trkpt>
      <trkpt lat="41.92064" lon="25.67251">
        <ele>199.85709</ele>
        <time>2022-02-27T10:39:06.653Z</time>
      </trkpt>
      <trkpt lat="41.92065" lon="25.67239">
        <ele>199.804995</ele>
        <time>2022-02-27T10:39:08.631Z</time>
      </trkpt>
      <trkpt lat="41.92065" lon="25.67227">
        <ele>199.752599</ele>
        <time>2022-02-27T10:39:10.629Z</time>
      </trkpt>
      <trkpt lat="41.92065" lon="25.67215">
        <ele>199.699294</ele>
        <time>2022-02-27T10:39:12.656Z</time>
      </trkpt>
      <trkpt lat="41.92066" lon="25.67202">
        <ele>199.646876</ele>
        <time>2022-02-27T10:39:14.645Z</time>
      </trkpt>
      <trkpt lat="41.92066" lon="25.6719">
        <ele>199.593171</ele>
        <time>2022-02-27T10:39:16.641Z</time>
      </trkpt>
      <trkpt lat="41.92066" lon="25.67178">
        <ele>199.5408</ele>
        <time>2022-02-27T10:39:18.652Z</time>
      </trkpt>
      <trkpt lat="41.92066" lon="25.67166">
        <ele>199.488382</ele>
        <time>2022-02-27T10:39:20.695Z</time>
      </trkpt>
      <trkpt lat="41.92066" lon="25.67148">
        <ele>199.450017</ele>
        <time>2022-02-27T10:39:23.642Z</time>
      </trkpt>
      <trkpt lat="41.92066" lon="25.6713">
        <ele>199.42042</ele>
        <time>2022-02-27T10:39:26.685Z</time>
      </trkpt>
      <trkpt lat="41.92066" lon="25.67112">
        <ele>199.391958</ele>
        <time>2022-02-27T10:39:29.639Z</time>
      </trkpt>
      <trkpt lat="41.92066" lon="25.67095">
        <ele>199.363187</ele>
        <time>2022-02-27T10:39:32.650Z</time>
      </trkpt>
      <trkpt lat="41.92066" lon="25.67078">
        <ele>199.334746</ele>
        <time>2022-02-27T10:39:35.632Z</time>
      </trkpt>
      <trkpt lat="41.92066" lon="25.6706">
        <ele>199.305314</ele>
        <time>2022-02-27T10:39:38.636Z</time>
      </trkpt>
      <trkpt lat="41.92066" lon="25.67043">
        <ele>199.277025</ele>
        <time>2022-02-27T10:39:41.638Z</time>
      </trkpt>
      <trkpt lat="41.92066" lon="25.67026">
        <ele>199.248412</ele>
        <time>2022-02-27T10:39:44.660Z</time>
      </trkpt>
      <trkpt lat="41.92066" lon="25.67008">
        <ele>199.219307</ele>
        <time>2022-02-27T10:39:47.621Z</time>
      </trkpt>
      <trkpt lat="41.92066" lon="25.6699">
        <ele>199.190205</ele>
        <time>2022-02-27T10:39:50.631Z</time>
      </trkpt>
      <trkpt lat="41.92067" lon="25.66974">
        <ele>199.162908</ele>
        <time>2022-02-27T10:39:53.673Z</time>
      </trkpt>
      <trkpt lat="41.92067" lon="25.66957">
        <ele>199.134619</ele>
        <time>2022-02-27T10:39:56.633Z</time>
      </trkpt>
      <trkpt lat="41.92068" lon="25.6694">
        <ele>199.106632</ele>
        <time>2022-02-27T10:39:59.621Z</time>
      </trkpt>
      <trkpt lat="41.92068" lon="25.66923">
        <ele>199.078005</ele>
        <time>2022-02-27T10:40:02.638Z</time>
      </trkpt>
      <trkpt lat="41.92069" lon="25.66905">
        <ele>199.08837</ele>
        <time>2022-02-27T10:40:05.653Z</time>
      </trkpt>
      <trkpt lat="41.9207" lon="25.66887">
        <ele>199.103806</ele>
        <time>2022-02-27T10:40:08.633Z</time>
      </trkpt>
      <trkpt lat="41.92071" lon="25.66875">
        <ele>199.11451</ele>
        <time>2022-02-27T10:40:10.678Z</time>
      </trkpt>
      <trkpt lat="41.92072" lon="25.66858">
        <ele>199.12998</ele>
        <time>2022-02-27T10:40:13.641Z</time>
      </trkpt>
      <trkpt lat="41.92074" lon="25.66846">
        <ele>199.140578</ele>
        <time>2022-02-27T10:40:15.639Z</time>
      </trkpt>
      <trkpt lat="41.92076" lon="25.66828">
        <ele>199.155965</ele>
        <time>2022-02-27T10:40:18.643Z</time>
      </trkpt>
      <trkpt lat="41.92078" lon="25.66811">
        <ele>199.171088</ele>
        <time>2022-02-27T10:40:21.623Z</time>
      </trkpt>
      <trkpt lat="41.92081" lon="25.66794">
        <ele>199.186219</ele>
        <time>2022-02-27T10:40:24.634Z</time>
      </trkpt>
      <trkpt lat="41.92084" lon="25.66778">
        <ele>199.201149</ele>
        <time>2022-02-27T10:40:27.639Z</time>
      </trkpt>
      <trkpt lat="41.92087" lon="25.66761">
        <ele>199.216392</ele>
        <time>2022-02-27T10:40:30.638Z</time>
      </trkpt>
      <trkpt lat="41.92089" lon="25.66744">
        <ele>199.231157</ele>
        <time>2022-02-27T10:40:33.652Z</time>
      </trkpt>
      <trkpt lat="41.92092" lon="25.66728">
        <ele>199.245787</ele>
        <time>2022-02-27T10:40:36.652Z</time>
      </trkpt>
      <trkpt lat="41.92094" lon="25.66711">
        <ele>199.261041</ele>
        <time>2022-02-27T10:40:39.667Z</time>
      </trkpt>
      <trkpt lat="41.92098" lon="25.66694">
        <ele>199.275745</ele>
        <time>2022-02-27T10:40:42.649Z</time>
      </trkpt>
      <trkpt lat="41.921" lon="25.66679">
        <ele>199.287872</ele>
        <time>2022-02-27T10:40:45.636Z</time>
      </trkpt>
      <trkpt lat="41.92103" lon="25.66662">
        <ele>199.295086</ele>
        <time>2022-02-27T10:40:48.640Z</time>
      </trkpt>
      <trkpt lat="41.92106" lon="25.66645">
        <ele>199.302203</ele>
        <time>2022-02-27T10:40:51.643Z</time>
      </trkpt>
      <trkpt lat="41.92109" lon="25.6663">
        <ele>199.309023</ele>
        <time>2022-02-27T10:40:54.640Z</time>
      </trkpt>
      <trkpt lat="41.92112" lon="25.66614">
        <ele>199.315708</ele>
        <time>2022-02-27T10:40:57.643Z</time>
      </trkpt>
      <trkpt lat="41.92115" lon="25.666">
        <ele>199.322095</ele>
        <time>2022-02-27T10:41:00.641Z</time>
      </trkpt>
      <trkpt lat="41.92118" lon="25.66585">
        <ele>199.328561</ele>
        <time>2022-02-27T10:41:03.645Z</time>
      </trkpt>
      <trkpt lat="41.92121" lon="25.66569">
        <ele>199.335165</ele>
        <time>2022-02-27T10:41:06.642Z</time>
      </trkpt>
      <trkpt lat="41.92123" lon="25.66554">
        <ele>199.34177</ele>
        <time>2022-02-27T10:41:09.643Z</time>
      </trkpt>
      <trkpt lat="41.92126" lon="25.66539">
        <ele>199.348264</ele>
        <time>2022-02-27T10:41:12.676Z</time>
      </trkpt>
      <trkpt lat="41.92129" lon="25.66522">
        <ele>199.355286</ele>
        <time>2022-02-27T10:41:15.644Z</time>
      </trkpt>
      <trkpt lat="41.92132" lon="25.66506">
        <ele>199.362457</ele>
        <time>2022-02-27T10:41:18.643Z</time>
      </trkpt>
      <trkpt lat="41.92135" lon="25.66489">
        <ele>199.369656</ele>
        <time>2022-02-27T10:41:21.640Z</time>
      </trkpt>
      <trkpt lat="41.92137" lon="25.66477">
        <ele>199.375052</ele>
        <time>2022-02-27T10:41:23.681Z</time>
      </trkpt>
      <trkpt lat="41.9214" lon="25.66464">
        <ele>199.380434</ele>
        <time>2022-02-27T10:41:25.681Z</time>
      </trkpt>
      <trkpt lat="41.92142" lon="25.66451">
        <ele>199.385926</ele>
        <time>2022-02-27T10:41:27.651Z</time>
      </trkpt>
      <trkpt lat="41.92144" lon="25.66438">
        <ele>199.12148</ele>
        <time>2022-02-27T10:41:29.643Z</time>
      </trkpt>
      <trkpt lat="41.92147" lon="25.66426">
        <ele>198.805367</ele>
        <time>2022-02-27T10:41:31.636Z</time>
      </trkpt>
      <trkpt lat="41.92149" lon="25.66414">
        <ele>198.487529</ele>
        <time>2022-02-27T10:41:33.632Z</time>
      </trkpt>
      <trkpt lat="41.92151" lon="25.66402">
        <ele>198.177849</ele>
        <time>2022-02-27T10:41:35.639Z</time>
      </trkpt>
      <trkpt lat="41.92154" lon="25.6639">
        <ele>197.869036</ele>
        <time>2022-02-27T10:41:37.633Z</time>
      </trkpt>
      <trkpt lat="41.92157" lon="25.66374">
        <ele>197.4434</ele>
        <time>2022-02-27T10:41:40.639Z</time>
      </trkpt>
      <trkpt lat="41.92161" lon="25.66357">
        <ele>197.013368</ele>
        <time>2022-02-27T10:41:43.657Z</time>
      </trkpt>
      <trkpt lat="41.92164" lon="25.6634">
        <ele>196.563939</ele>
        <time>2022-02-27T10:41:46.640Z</time>
      </trkpt>
      <trkpt lat="41.92167" lon="25.66328">
        <ele>196.259106</ele>
        <time>2022-02-27T10:41:48.642Z</time>
      </trkpt>
      <trkpt lat="41.9217" lon="25.66311">
        <ele>195.807907</ele>
        <time>2022-02-27T10:41:51.657Z</time>
      </trkpt>
      <trkpt lat="41.92173" lon="25.66293">
        <ele>195.358515</ele>
        <time>2022-02-27T10:41:54.630Z</time>
      </trkpt>
      <trkpt lat="41.92177" lon="25.66276">
        <ele>194.91237</ele>
        <time>2022-02-27T10:41:57.637Z</time>
      </trkpt>
      <trkpt lat="41.9218" lon="25.66259">
        <ele>194.479197</ele>
        <time>2022-02-27T10:42:00.637Z</time>
      </trkpt>
      <trkpt lat="41.92183" lon="25.66243">
        <ele>194.043623</ele>
        <time>2022-02-27T10:42:03.636Z</time>
      </trkpt>
      <trkpt lat="41.92186" lon="25.66226">
        <ele>193.615342</ele>
        <time>2022-02-27T10:42:06.644Z</time>
      </trkpt>
      <trkpt lat="41.92189" lon="25.66209">
        <ele>193.303953</ele>
        <time>2022-02-27T10:42:09.638Z</time>
      </trkpt>
      <trkpt lat="41.92192" lon="25.66192">
        <ele>193.265022</ele>
        <time>2022-02-27T10:42:12.658Z</time>
      </trkpt>
      <trkpt lat="41.92195" lon="25.66175">
        <ele>193.22595</ele>
        <time>2022-02-27T10:42:15.640Z</time>
      </trkpt>
      <trkpt lat="41.92198" lon="25.66158">
        <ele>193.187091</ele>
        <time>2022-02-27T10:42:18.679Z</time>
      </trkpt>
      <trkpt lat="41.92201" lon="25.66141">
        <ele>193.149011</ele>
        <time>2022-02-27T10:42:21.649Z</time>
      </trkpt>
      <trkpt lat="41.92204" lon="25.66124">
        <ele>193.110435</ele>
        <time>2022-02-27T10:42:24.658Z</time>
      </trkpt>
      <trkpt lat="41.92207" lon="25.66107">
        <ele>193.072994</ele>
        <time>2022-02-27T10:42:27.649Z</time>
      </trkpt>
      <trkpt lat="41.9221" lon="25.6609">
        <ele>193.035835</ele>
        <time>2022-02-27T10:42:30.644Z</time>
      </trkpt>
      <trkpt lat="41.92213" lon="25.66074">
        <ele>192.999876</ele>
        <time>2022-02-27T10:42:33.640Z</time>
      </trkpt>
      <trkpt lat="41.92216" lon="25.66058">
        <ele>192.963918</ele>
        <time>2022-02-27T10:42:36.645Z</time>
      </trkpt>
      <trkpt lat="41.92218" lon="25.66041">
        <ele>192.924899</ele>
        <time>2022-02-27T10:42:39.648Z</time>
      </trkpt>
      <trkpt lat="41.92221" lon="25.66024">
        <ele>192.88631</ele>
        <time>2022-02-27T10:42:42.656Z</time>
      </trkpt>
      <trkpt lat="41.92224" lon="25.66007">
        <ele>192.849495</ele>
        <time>2022-02-27T10:42:45.630Z</time>
      </trkpt>
      <trkpt lat="41.92226" lon="25.65991">
        <ele>192.812862</ele>
        <time>2022-02-27T10:42:48.657Z</time>
      </trkpt>
      <trkpt lat="41.92229" lon="25.65974">
        <ele>192.804678</ele>
        <time>2022-02-27T10:42:51.679Z</time>
      </trkpt>
      <trkpt lat="41.92231" lon="25.65958">
        <ele>192.870816</ele>
        <time>2022-02-27T10:42:54.626Z</time>
      </trkpt>
      <trkpt lat="41.92233" lon="25.65943">
        <ele>192.93383</ele>
        <time>2022-02-27T10:42:57.629Z</time>
      </trkpt>
      <trkpt lat="41.92234" lon="25.65927">
        <ele>192.998038</ele>
        <time>2022-02-27T10:43:00.643Z</time>
      </trkpt>
      <trkpt lat="41.92236" lon="25.65911">
        <ele>193.061219</ele>
        <time>2022-02-27T10:43:03.629Z</time>
      </trkpt>
      <trkpt lat="41.92238" lon="25.65896">
        <ele>193.122564</ele>
        <time>2022-02-27T10:43:06.652Z</time>
      </trkpt>
      <trkpt lat="41.9224" lon="25.65881">
        <ele>193.183673</ele>
        <time>2022-02-27T10:43:09.639Z</time>
      </trkpt>
      <trkpt lat="41.92241" lon="25.65867">
        <ele>193.243109</ele>
        <time>2022-02-27T10:43:12.643Z</time>
      </trkpt>
      <trkpt lat="41.92243" lon="25.65852">
        <ele>193.303821</ele>
        <time>2022-02-27T10:43:15.637Z</time>
      </trkpt>
      <trkpt lat="41.92245" lon="25.65837">
        <ele>193.364847</ele>
        <time>2022-02-27T10:43:18.692Z</time>
      </trkpt>
      <trkpt lat="41.92246" lon="25.65823">
        <ele>193.421337</ele>
        <time>2022-02-27T10:43:21.638Z</time>
      </trkpt>
      <trkpt lat="41.92248" lon="25.65809">
        <ele>193.476159</ele>
        <time>2022-02-27T10:43:24.648Z</time>
      </trkpt>
      <trkpt lat="41.9225" lon="25.65795">
        <ele>193.533697</ele>
        <time>2022-02-27T10:43:27.657Z</time>
      </trkpt>
      <trkpt lat="41.92252" lon="25.65781">
        <ele>193.59311</ele>
        <time>2022-02-27T10:43:30.637Z</time>
      </trkpt>
      <trkpt lat="41.92254" lon="25.65766">
        <ele>193.652722</ele>
        <time>2022-02-27T10:43:33.646Z</time>
      </trkpt>
      <trkpt lat="41.92255" lon="25.65753">
        <ele>193.707544</ele>
        <time>2022-02-27T10:43:36.641Z</time>
      </trkpt>
      <trkpt lat="41.92257" lon="25.65739">
        <ele>193.770465</ele>
        <time>2022-02-27T10:43:39.636Z</time>
      </trkpt>
      <trkpt lat="41.92258" lon="25.65726">
        <ele>193.936358</ele>
        <time>2022-02-27T10:43:42.648Z</time>
      </trkpt>
      <trkpt lat="41.92259" lon="25.65712">
        <ele>194.109883</ele>
        <time>2022-02-27T10:43:45.642Z</time>
      </trkpt>
      <trkpt lat="41.92261" lon="25.65699">
        <ele>194.278472</ele>
        <time>2022-02-27T10:43:48.642Z</time>
      </trkpt>
      <trkpt lat="41.92262" lon="25.65685">
        <ele>194.454944</ele>
        <time>2022-02-27T10:43:51.629Z</time>
      </trkpt>
      <trkpt lat="41.92264" lon="25.6567">
        <ele>194.636597</ele>
        <time>2022-02-27T10:43:54.664Z</time>
      </trkpt>
      <trkpt lat="41.92266" lon="25.65656">
        <ele>194.817293</ele>
        <time>2022-02-27T10:43:57.644Z</time>
      </trkpt>
      <trkpt lat="41.92267" lon="25.65641">
        <ele>195.002389</ele>
        <time>2022-02-27T10:44:00.642Z</time>
      </trkpt>
      <trkpt lat="41.92269" lon="25.65626">
        <ele>195.192661</ele>
        <time>2022-02-27T10:44:03.651Z</time>
      </trkpt>
      <trkpt lat="41.92271" lon="25.65612">
        <ele>195.376525</ele>
        <time>2022-02-27T10:44:06.644Z</time>
      </trkpt>
      <trkpt lat="41.92272" lon="25.65598">
        <ele>195.555216</ele>
        <time>2022-02-27T10:44:09.646Z</time>
      </trkpt>
      <trkpt lat="41.92273" lon="25.65584">
        <ele>195.727083</ele>
        <time>2022-02-27T10:44:12.639Z</time>
      </trkpt>
      <trkpt lat="41.92274" lon="25.65571">
        <ele>195.890094</ele>
        <time>2022-02-27T10:44:15.650Z</time>
      </trkpt>
      <trkpt lat="41.92276" lon="25.65558">
        <ele>196.052066</ele>
        <time>2022-02-27T10:44:18.632Z</time>
      </trkpt>
      <trkpt lat="41.92277" lon="25.65545">
        <ele>196.217374</ele>
        <time>2022-02-27T10:44:21.641Z</time>
      </trkpt>
      <trkpt lat="41.92278" lon="25.65532">
        <ele>196.379346</ele>
        <time>2022-02-27T10:44:24.637Z</time>
      </trkpt>
      <trkpt lat="41.92279" lon="25.65519">
        <ele>196.537406</ele>
        <time>2022-02-27T10:44:27.631Z</time>
      </trkpt>
      <trkpt lat="41.9228" lon="25.65506">
        <ele>196.70577</ele>
        <time>2022-02-27T10:44:30.645Z</time>
      </trkpt>
      <trkpt lat="41.92282" lon="25.65492">
        <ele>196.864569</ele>
        <time>2022-02-27T10:44:33.637Z</time>
      </trkpt>
      <trkpt lat="41.92283" lon="25.65478">
        <ele>197.009205</ele>
        <time>2022-02-27T10:44:36.635Z</time>
      </trkpt>
      <trkpt lat="41.92285" lon="25.65463">
        <ele>197.160111</ele>
        <time>2022-02-27T10:44:39.647Z</time>
      </trkpt>
      <trkpt lat="41.92286" lon="25.65449">
        <ele>197.306983</ele>
        <time>2022-02-27T10:44:42.638Z</time>
      </trkpt>
      <trkpt lat="41.92287" lon="25.65435">
        <ele>197.449783</ele>
        <time>2022-02-27T10:44:45.632Z</time>
      </trkpt>
      <trkpt lat="41.92288" lon="25.6542">
        <ele>197.596533</ele>
        <time>2022-02-27T10:44:48.644Z</time>
      </trkpt>
      <trkpt lat="41.92288" lon="25.65406">
        <ele>197.742993</ele>
        <time>2022-02-27T10:44:51.653Z</time>
      </trkpt>
      <trkpt lat="41.92289" lon="25.65393">
        <ele>197.882611</ele>
        <time>2022-02-27T10:44:54.632Z</time>
      </trkpt>
      <trkpt lat="41.9229" lon="25.65379">
        <ele>198.017418</ele>
        <time>2022-02-27T10:44:57.641Z</time>
      </trkpt>
      <trkpt lat="41.92291" lon="25.65366">
        <ele>198.156147</ele>
        <time>2022-02-27T10:45:00.688Z</time>
      </trkpt>
      <trkpt lat="41.92293" lon="25.65352">
        <ele>198.299975</ele>
        <time>2022-02-27T10:45:03.638Z</time>
      </trkpt>
      <trkpt lat="41.92294" lon="25.65337">
        <ele>198.451351</ele>
        <time>2022-02-27T10:45:06.621Z</time>
      </trkpt>
      <trkpt lat="41.92295" lon="25.65324">
        <ele>198.593592</ele>
        <time>2022-02-27T10:45:09.646Z</time>
      </trkpt>
      <trkpt lat="41.92296" lon="25.6531">
        <ele>198.73653</ele>
        <time>2022-02-27T10:45:12.638Z</time>
      </trkpt>
      <trkpt lat="41.92298" lon="25.65296">
        <ele>198.879963</ele>
        <time>2022-02-27T10:45:15.647Z</time>
      </trkpt>
      <trkpt lat="41.92299" lon="25.65282">
        <ele>199.019852</ele>
        <time>2022-02-27T10:45:18.636Z</time>
      </trkpt>
      <trkpt lat="41.923" lon="25.65268">
        <ele>199.164122</ele>
        <time>2022-02-27T10:45:21.643Z</time>
      </trkpt>
      <trkpt lat="41.92302" lon="25.65254">
        <ele>199.218973</ele>
        <time>2022-02-27T10:45:24.643Z</time>
      </trkpt>
      <trkpt lat="41.92303" lon="25.6524">
        <ele>199.170505</ele>
        <time>2022-02-27T10:45:27.628Z</time>
      </trkpt>
      <trkpt lat="41.92305" lon="25.65226">
        <ele>199.12338</ele>
        <time>2022-02-27T10:45:30.642Z</time>
      </trkpt>
      <trkpt lat="41.92306" lon="25.65212">
        <ele>199.075378</ele>
        <time>2022-02-27T10:45:33.703Z</time>
      </trkpt>
      <trkpt lat="41.92308" lon="25.65198">
        <ele>199.027985</ele>
        <time>2022-02-27T10:45:36.651Z</time>
      </trkpt>
      <trkpt lat="41.92309" lon="25.65185">
        <ele>198.98139</ele>
        <time>2022-02-27T10:45:39.652Z</time>
      </trkpt>
      <trkpt lat="41.92311" lon="25.65171">
        <ele>198.932776</ele>
        <time>2022-02-27T10:45:42.652Z</time>
      </trkpt>
      <trkpt lat="41.92312" lon="25.65157">
        <ele>198.88471</ele>
        <time>2022-02-27T10:45:45.644Z</time>
      </trkpt>
      <trkpt lat="41.92314" lon="25.65142">
        <ele>198.836035</ele>
        <time>2022-02-27T10:45:48.648Z</time>
      </trkpt>
      <trkpt lat="41.92315" lon="25.65128">
        <ele>198.785817</ele>
        <time>2022-02-27T10:45:51.649Z</time>
      </trkpt>
      <trkpt lat="41.92317" lon="25.65114">
        <ele>198.736943</ele>
        <time>2022-02-27T10:45:54.637Z</time>
      </trkpt>
      <trkpt lat="41.92319" lon="25.651">
        <ele>198.688878</ele>
        <time>2022-02-27T10:45:57.646Z</time>
      </trkpt>
      <trkpt lat="41.9232" lon="25.65086">
        <ele>198.643232</ele>
        <time>2022-02-27T10:46:00.650Z</time>
      </trkpt>
      <trkpt lat="41.92321" lon="25.65073">
        <ele>198.597586</ele>
        <time>2022-02-27T10:46:03.640Z</time>
      </trkpt>
      <trkpt lat="41.92323" lon="25.65059">
        <ele>198.549858</ele>
        <time>2022-02-27T10:46:06.694Z</time>
      </trkpt>
      <trkpt lat="41.92324" lon="25.65045">
        <ele>198.500381</ele>
        <time>2022-02-27T10:46:09.654Z</time>
      </trkpt>
      <trkpt lat="41.92326" lon="25.6503">
        <ele>198.450634</ele>
        <time>2022-02-27T10:46:12.639Z</time>
      </trkpt>
      <trkpt lat="41.92327" lon="25.65016">
        <ele>198.4787</ele>
        <time>2022-02-27T10:46:15.682Z</time>
      </trkpt>
      <trkpt lat="41.92328" lon="25.65002">
        <ele>198.620915</ele>
        <time>2022-02-27T10:46:18.633Z</time>
      </trkpt>
      <trkpt lat="41.9233" lon="25.64988">
        <ele>198.773521</ele>
        <time>2022-02-27T10:46:21.637Z</time>
      </trkpt>
      <trkpt lat="41.92331" lon="25.64973">
        <ele>198.931483</ele>
        <time>2022-02-27T10:46:24.644Z</time>
      </trkpt>
      <trkpt lat="41.92332" lon="25.64958">
        <ele>199.085129</ele>
        <time>2022-02-27T10:46:27.632Z</time>
      </trkpt>
      <trkpt lat="41.92333" lon="25.64944">
        <ele>199.235367</ele>
        <time>2022-02-27T10:46:30.634Z</time>
      </trkpt>
      <trkpt lat="41.92334" lon="25.64929">
        <ele>199.391734</ele>
        <time>2022-02-27T10:46:33.640Z</time>
      </trkpt>
      <trkpt lat="41.92335" lon="25.64914">
        <ele>199.552389</ele>
        <time>2022-02-27T10:46:36.636Z</time>
      </trkpt>
      <trkpt lat="41.92336" lon="25.64898">
        <ele>199.71397</ele>
        <time>2022-02-27T10:46:39.670Z</time>
      </trkpt>
      <trkpt lat="41.92337" lon="25.64883">
        <ele>199.879961</ele>
        <time>2022-02-27T10:46:42.641Z</time>
      </trkpt>
      <trkpt lat="41.92338" lon="25.64867">
        <ele>200.043118</ele>
        <time>2022-02-27T10:46:45.646Z</time>
      </trkpt>
      <trkpt lat="41.92339" lon="25.64851">
        <ele>200.208067</ele>
        <time>2022-02-27T10:46:48.640Z</time>
      </trkpt>
      <trkpt lat="41.92341" lon="25.64836">
        <ele>200.371225</ele>
        <time>2022-02-27T10:46:51.647Z</time>
      </trkpt>
      <trkpt lat="41.92342" lon="25.6482">
        <ele>200.536312</ele>
        <time>2022-02-27T10:46:54.646Z</time>
      </trkpt>
      <trkpt lat="41.92343" lon="25.64805">
        <ele>200.700671</ele>
        <time>2022-02-27T10:46:57.639Z</time>
      </trkpt>
      <trkpt lat="41.92345" lon="25.64788">
        <ele>200.87143</ele>
        <time>2022-02-27T10:47:00.636Z</time>
      </trkpt>
      <trkpt lat="41.92347" lon="25.64772">
        <ele>200.906225</ele>
        <time>2022-02-27T10:47:03.644Z</time>
      </trkpt>
      <trkpt lat="41.92349" lon="25.64756">
        <ele>200.831129</ele>
        <time>2022-02-27T10:47:06.654Z</time>
      </trkpt>
      <trkpt lat="41.92351" lon="25.6474">
        <ele>200.753073</ele>
        <time>2022-02-27T10:47:09.623Z</time>
      </trkpt>
      <trkpt lat="41.92353" lon="25.64723">
        <ele>200.674247</ele>
        <time>2022-02-27T10:47:12.700Z</time>
      </trkpt>
      <trkpt lat="41.92354" lon="25.64707">
        <ele>200.598688</ele>
        <time>2022-02-27T10:47:15.651Z</time>
      </trkpt>
      <trkpt lat="41.92357" lon="25.6469">
        <ele>200.516741</ele>
        <time>2022-02-27T10:47:18.647Z</time>
      </trkpt>
      <trkpt lat="41.92358" lon="25.64678">
        <ele>200.458932</ele>
        <time>2022-02-27T10:47:20.636Z</time>
      </trkpt>
      <trkpt lat="41.9236" lon="25.64666">
        <ele>200.401938</ele>
        <time>2022-02-27T10:47:22.632Z</time>
      </trkpt>
      <trkpt lat="41.92361" lon="25.64648">
        <ele>200.318885</ele>
        <time>2022-02-27T10:47:25.639Z</time>
      </trkpt>
      <trkpt lat="41.92363" lon="25.64636">
        <ele>200.261731</ele>
        <time>2022-02-27T10:47:27.637Z</time>
      </trkpt>
      <trkpt lat="41.92364" lon="25.64623">
        <ele>200.20335</ele>
        <time>2022-02-27T10:47:29.628Z</time>
      </trkpt>
      <trkpt lat="41.92365" lon="25.64611">
        <ele>200.144807</ele>
        <time>2022-02-27T10:47:31.655Z</time>
      </trkpt>
      <trkpt lat="41.92366" lon="25.64599">
        <ele>200.088116</ele>
        <time>2022-02-27T10:47:33.648Z</time>
      </trkpt>
      <trkpt lat="41.92368" lon="25.64581">
        <ele>200.003832</ele>
        <time>2022-02-27T10:47:36.633Z</time>
      </trkpt>
      <trkpt lat="41.92369" lon="25.64563">
        <ele>199.920682</ele>
        <time>2022-02-27T10:47:39.648Z</time>
      </trkpt>
      <trkpt lat="41.92371" lon="25.64546">
        <ele>199.836702</ele>
        <time>2022-02-27T10:47:42.644Z</time>
      </trkpt>
      <trkpt lat="41.92372" lon="25.64533">
        <ele>199.908859</ele>
        <time>2022-02-27T10:47:44.645Z</time>
      </trkpt>
      <trkpt lat="41.92373" lon="25.64521">
        <ele>200.031056</ele>
        <time>2022-02-27T10:47:46.668Z</time>
      </trkpt>
      <trkpt lat="41.92375" lon="25.64504">
        <ele>200.207998</ele>
        <time>2022-02-27T10:47:49.633Z</time>
      </trkpt>
      <trkpt lat="41.92376" lon="25.64491">
        <ele>200.334576</ele>
        <time>2022-02-27T10:47:51.623Z</time>
      </trkpt>
      <trkpt lat="41.92378" lon="25.64479">
        <ele>200.462583</ele>
        <time>2022-02-27T10:47:53.684Z</time>
      </trkpt>
      <trkpt lat="41.9238" lon="25.64466">
        <ele>200.590087</ele>
        <time>2022-02-27T10:47:55.658Z</time>
      </trkpt>
      <trkpt lat="41.92382" lon="25.64454">
        <ele>200.718139</ele>
        <time>2022-02-27T10:47:57.647Z</time>
      </trkpt>
      <trkpt lat="41.92384" lon="25.64441">
        <ele>200.847448</ele>
        <time>2022-02-27T10:47:59.644Z</time>
      </trkpt>
      <trkpt lat="41.92386" lon="25.6443">
        <ele>200.970907</ele>
        <time>2022-02-27T10:48:01.673Z</time>
      </trkpt>
      <trkpt lat="41.92389" lon="25.64418">
        <ele>201.09242</ele>
        <time>2022-02-27T10:48:03.646Z</time>
      </trkpt>
      <trkpt lat="41.92393" lon="25.64401">
        <ele>201.270858</ele>
        <time>2022-02-27T10:48:06.637Z</time>
      </trkpt>
      <trkpt lat="41.92397" lon="25.64386">
        <ele>201.437809</ele>
        <time>2022-02-27T10:48:09.642Z</time>
      </trkpt>
      <trkpt lat="41.92401" lon="25.6437">
        <ele>201.605813</ele>
        <time>2022-02-27T10:48:12.689Z</time>
      </trkpt>
      <trkpt lat="41.92406" lon="25.64354">
        <ele>201.779861</ele>
        <time>2022-02-27T10:48:15.653Z</time>
      </trkpt>
      <trkpt lat="41.9241" lon="25.64338">
        <ele>201.948704</ele>
        <time>2022-02-27T10:48:18.639Z</time>
      </trkpt>
      <trkpt lat="41.92414" lon="25.64322">
        <ele>202.124167</ele>
        <time>2022-02-27T10:48:21.638Z</time>
      </trkpt>
      <trkpt lat="41.92418" lon="25.64306">
        <ele>202.245317</ele>
        <time>2022-02-27T10:48:24.643Z</time>
      </trkpt>
      <trkpt lat="41.92422" lon="25.6429">
        <ele>202.186119</ele>
        <time>2022-02-27T10:48:27.640Z</time>
      </trkpt>
      <trkpt lat="41.92426" lon="25.64274">
        <ele>202.126186</ele>
        <time>2022-02-27T10:48:30.642Z</time>
      </trkpt>
      <trkpt lat="41.9243" lon="25.64257">
        <ele>202.065144</ele>
        <time>2022-02-27T10:48:33.652Z</time>
      </trkpt>
      <trkpt lat="41.92434" lon="25.64241">
        <ele>202.003907</ele>
        <time>2022-02-27T10:48:36.643Z</time>
      </trkpt>
      <trkpt lat="41.92437" lon="25.64225">
        <ele>201.943351</ele>
        <time>2022-02-27T10:48:39.645Z</time>
      </trkpt>
      <trkpt lat="41.92442" lon="25.64209">
        <ele>201.883373</ele>
        <time>2022-02-27T10:48:42.641Z</time>
      </trkpt>
      <trkpt lat="41.92446" lon="25.64192">
        <ele>201.820148</ele>
        <time>2022-02-27T10:48:45.681Z</time>
      </trkpt>
      <trkpt lat="41.92448" lon="25.6418">
        <ele>201.776275</ele>
        <time>2022-02-27T10:48:47.664Z</time>
      </trkpt>
      <trkpt lat="41.92453" lon="25.64164">
        <ele>201.714627</ele>
        <time>2022-02-27T10:48:50.643Z</time>
      </trkpt>
      <trkpt lat="41.92457" lon="25.64149">
        <ele>201.656153</ele>
        <time>2022-02-27T10:48:53.677Z</time>
      </trkpt>
      <trkpt lat="41.92461" lon="25.64133">
        <ele>201.595341</ele>
        <time>2022-02-27T10:48:56.670Z</time>
      </trkpt>
      <trkpt lat="41.92466" lon="25.64117">
        <ele>201.534693</ele>
        <time>2022-02-27T10:48:59.643Z</time>
      </trkpt>
      <trkpt lat="41.9247" lon="25.64102">
        <ele>201.477372</ele>
        <time>2022-02-27T10:49:02.666Z</time>
      </trkpt>
      <trkpt lat="41.92474" lon="25.64085">
        <ele>201.416369</ele>
        <time>2022-02-27T10:49:05.642Z</time>
      </trkpt>
      <trkpt lat="41.92478" lon="25.64069">
        <ele>201.458989</ele>
        <time>2022-02-27T10:49:08.652Z</time>
      </trkpt>
      <trkpt lat="41.92482" lon="25.64053">
        <ele>201.546479</ele>
        <time>2022-02-27T10:49:11.633Z</time>
      </trkpt>
      <trkpt lat="41.92486" lon="25.64038">
        <ele>201.631428</ele>
        <time>2022-02-27T10:49:14.641Z</time>
      </trkpt>
      <trkpt lat="41.92489" lon="25.64023">
        <ele>201.716914</ele>
        <time>2022-02-27T10:49:17.651Z</time>
      </trkpt>
      <trkpt lat="41.92493" lon="25.64007">
        <ele>201.801179</ele>
        <time>2022-02-27T10:49:20.649Z</time>
      </trkpt>
      <trkpt lat="41.92497" lon="25.63993">
        <ele>201.88322</ele>
        <time>2022-02-27T10:49:23.638Z</time>
      </trkpt>
      <trkpt lat="41.92501" lon="25.63977">
        <ele>201.971122</ele>
        <time>2022-02-27T10:49:26.647Z</time>
      </trkpt>
      <trkpt lat="41.92505" lon="25.63961">
        <ele>202.060755</ele>
        <time>2022-02-27T10:49:29.643Z</time>
      </trkpt>
      <trkpt lat="41.92509" lon="25.63945">
        <ele>202.147025</ele>
        <time>2022-02-27T10:49:32.641Z</time>
      </trkpt>
      <trkpt lat="41.92513" lon="25.6393">
        <ele>202.230513</ele>
        <time>2022-02-27T10:49:35.649Z</time>
      </trkpt>
      <trkpt lat="41.92517" lon="25.63914">
        <ele>202.322611</ele>
        <time>2022-02-27T10:49:38.651Z</time>
      </trkpt>
      <trkpt lat="41.92521" lon="25.63897">
        <ele>202.413519</ele>
        <time>2022-02-27T10:49:41.643Z</time>
      </trkpt>
      <trkpt lat="41.92525" lon="25.63881">
        <ele>202.502229</ele>
        <time>2022-02-27T10:49:44.650Z</time>
      </trkpt>
      <trkpt lat="41.92529" lon="25.63865">
        <ele>202.591611</ele>
        <time>2022-02-27T10:49:47.631Z</time>
      </trkpt>
      <trkpt lat="41.92533" lon="25.6385">
        <ele>202.684107</ele>
        <time>2022-02-27T10:49:50.654Z</time>
      </trkpt>
      <trkpt lat="41.92537" lon="25.63834">
        <ele>202.825151</ele>
        <time>2022-02-27T10:49:53.632Z</time>
      </trkpt>
      <trkpt lat="41.92541" lon="25.63818">
        <ele>202.96625</ele>
        <time>2022-02-27T10:49:56.641Z</time>
      </trkpt>
      <trkpt lat="41.92546" lon="25.63802">
        <ele>203.110419</ele>
        <time>2022-02-27T10:49:59.661Z</time>
      </trkpt>
      <trkpt lat="41.92551" lon="25.63786">
        <ele>203.251472</ele>
        <time>2022-02-27T10:50:02.644Z</time>
      </trkpt>
      <trkpt lat="41.92555" lon="25.6377">
        <ele>203.39054</ele>
        <time>2022-02-27T10:50:05.638Z</time>
      </trkpt>
      <trkpt lat="41.92559" lon="25.63755">
        <ele>203.524947</ele>
        <time>2022-02-27T10:50:08.651Z</time>
      </trkpt>
      <trkpt lat="41.92563" lon="25.63741">
        <ele>203.654671</ele>
        <time>2022-02-27T10:50:11.649Z</time>
      </trkpt>
      <trkpt lat="41.92567" lon="25.63725">
        <ele>203.791025</ele>
        <time>2022-02-27T10:50:14.644Z</time>
      </trkpt>
      <trkpt lat="41.92571" lon="25.63709">
        <ele>203.930117</ele>
        <time>2022-02-27T10:50:17.646Z</time>
      </trkpt>
      <trkpt lat="41.92575" lon="25.63694">
        <ele>204.067261</ele>
        <time>2022-02-27T10:50:20.623Z</time>
      </trkpt>
      <trkpt lat="41.92579" lon="25.63679">
        <ele>204.203202</ele>
        <time>2022-02-27T10:50:23.646Z</time>
      </trkpt>
      <trkpt lat="41.92583" lon="25.63663">
        <ele>204.346197</ele>
        <time>2022-02-27T10:50:26.652Z</time>
      </trkpt>
      <trkpt lat="41.92587" lon="25.63646">
        <ele>204.494712</ele>
        <time>2022-02-27T10:50:29.645Z</time>
      </trkpt>
      <trkpt lat="41.9259" lon="25.63634">
        <ele>204.596216</ele>
        <time>2022-02-27T10:50:31.640Z</time>
      </trkpt>
      <trkpt lat="41.92593" lon="25.63623">
        <ele>204.680976</ele>
        <time>2022-02-27T10:50:33.670Z</time>
      </trkpt>
      <trkpt lat="41.92598" lon="25.63606">
        <ele>204.421592</ele>
        <time>2022-02-27T10:50:36.643Z</time>
      </trkpt>
      <trkpt lat="41.92602" lon="25.63594">
        <ele>204.2376</ele>
        <time>2022-02-27T10:50:38.641Z</time>
      </trkpt>
      <trkpt lat="41.92606" lon="25.63582">
        <ele>204.048662</ele>
        <time>2022-02-27T10:50:40.648Z</time>
      </trkpt>
      <trkpt lat="41.9261" lon="25.6357">
        <ele>203.855509</ele>
        <time>2022-02-27T10:50:42.641Z</time>
      </trkpt>
      <trkpt lat="41.92615" lon="25.63558">
        <ele>203.654666</ele>
        <time>2022-02-27T10:50:44.659Z</time>
      </trkpt>
      <trkpt lat="41.9262" lon="25.63546">
        <ele>203.451674</ele>
        <time>2022-02-27T10:50:46.693Z</time>
      </trkpt>
      <trkpt lat="41.92626" lon="25.63533">
        <ele>203.243985</ele>
        <time>2022-02-27T10:50:48.652Z</time>
      </trkpt>
      <trkpt lat="41.92632" lon="25.6352">
        <ele>203.026927</ele>
        <time>2022-02-27T10:50:50.644Z</time>
      </trkpt>
      <trkpt lat="41.92638" lon="25.63508">
        <ele>202.805336</ele>
        <time>2022-02-27T10:50:52.671Z</time>
      </trkpt>
      <trkpt lat="41.92645" lon="25.63496">
        <ele>202.589759</ele>
        <time>2022-02-27T10:50:54.644Z</time>
      </trkpt>
      <trkpt lat="41.92651" lon="25.63483">
        <ele>202.37163</ele>
        <time>2022-02-27T10:50:56.673Z</time>
      </trkpt>
      <trkpt lat="41.92657" lon="25.63473">
        <ele>202.185989</ele>
        <time>2022-02-27T10:50:58.679Z</time>
      </trkpt>
      <trkpt lat="41.92663" lon="25.63462">
        <ele>201.99347</ele>
        <time>2022-02-27T10:51:00.653Z</time>
      </trkpt>
      <trkpt lat="41.92669" lon="25.63451">
        <ele>201.798601</ele>
        <time>2022-02-27T10:51:02.645Z</time>
      </trkpt>
      <trkpt lat="41.92676" lon="25.63441">
        <ele>201.60123</ele>
        <time>2022-02-27T10:51:04.685Z</time>
      </trkpt>
      <trkpt lat="41.92682" lon="25.6343">
        <ele>201.408411</ele>
        <time>2022-02-27T10:51:06.650Z</time>
      </trkpt>
      <trkpt lat="41.92688" lon="25.63421">
        <ele>201.223715</ele>
        <time>2022-02-27T10:51:08.646Z</time>
      </trkpt>
      <trkpt lat="41.92694" lon="25.6341">
        <ele>201.197924</ele>
        <time>2022-02-27T10:51:10.682Z</time>
      </trkpt>
      <trkpt lat="41.927" lon="25.634">
        <ele>201.177273</ele>
        <time>2022-02-27T10:51:12.645Z</time>
      </trkpt>
      <trkpt lat="41.92706" lon="25.63389">
        <ele>201.155741</ele>
        <time>2022-02-27T10:51:14.652Z</time>
      </trkpt>
      <trkpt lat="41.92712" lon="25.63378">
        <ele>201.134959</ele>
        <time>2022-02-27T10:51:16.635Z</time>
      </trkpt>
      <trkpt lat="41.92718" lon="25.63368">
        <ele>201.114683</ele>
        <time>2022-02-27T10:51:18.635Z</time>
      </trkpt>
      <trkpt lat="41.92725" lon="25.63352">
        <ele>201.086648</ele>
        <time>2022-02-27T10:51:21.639Z</time>
      </trkpt>
      <trkpt lat="41.9273" lon="25.63342">
        <ele>201.067593</ele>
        <time>2022-02-27T10:51:23.638Z</time>
      </trkpt>
      <trkpt lat="41.92736" lon="25.63327">
        <ele>201.040025</ele>
        <time>2022-02-27T10:51:26.651Z</time>
      </trkpt>
      <trkpt lat="41.92744" lon="25.63312">
        <ele>201.011591</ele>
        <time>2022-02-27T10:51:29.640Z</time>
      </trkpt>
      <trkpt lat="41.92748" lon="25.63301">
        <ele>200.992677</ele>
        <time>2022-02-27T10:51:31.644Z</time>
      </trkpt>
      <trkpt lat="41.92754" lon="25.63286">
        <ele>200.965491</ele>
        <time>2022-02-27T10:51:34.637Z</time>
      </trkpt>
      <trkpt lat="41.92759" lon="25.63271">
        <ele>200.939552</ele>
        <time>2022-02-27T10:51:37.645Z</time>
      </trkpt>
      <trkpt lat="41.92763" lon="25.63256">
        <ele>200.913954</ele>
        <time>2022-02-27T10:51:40.648Z</time>
      </trkpt>
      <trkpt lat="41.92768" lon="25.6324">
        <ele>200.888064</ele>
        <time>2022-02-27T10:51:43.652Z</time>
      </trkpt>
      <trkpt lat="41.92772" lon="25.63225">
        <ele>200.862541</ele>
        <time>2022-02-27T10:51:46.679Z</time>
      </trkpt>
      <trkpt lat="41.92776" lon="25.63209">
        <ele>200.852862</ele>
        <time>2022-02-27T10:51:49.644Z</time>
      </trkpt>
      <trkpt lat="41.92779" lon="25.63193">
        <ele>201.021659</ele>
        <time>2022-02-27T10:51:52.629Z</time>
      </trkpt>
      <trkpt lat="41.92782" lon="25.63177">
        <ele>201.188023</ele>
        <time>2022-02-27T10:51:55.645Z</time>
      </trkpt>
      <trkpt lat="41.92786" lon="25.63161">
        <ele>201.351808</ele>
        <time>2022-02-27T10:51:58.650Z</time>
      </trkpt>
      <trkpt lat="41.92789" lon="25.63146">
        <ele>201.510352</ele>
        <time>2022-02-27T10:52:01.640Z</time>
      </trkpt>
      <trkpt lat="41.92791" lon="25.63131">
        <ele>201.669506</ele>
        <time>2022-02-27T10:52:04.650Z</time>
      </trkpt>
      <trkpt lat="41.92794" lon="25.63116">
        <ele>201.82669</ele>
        <time>2022-02-27T10:52:07.651Z</time>
      </trkpt>
      <trkpt lat="41.92797" lon="25.63101">
        <ele>201.986828</ele>
        <time>2022-02-27T10:52:10.646Z</time>
      </trkpt>
      <trkpt lat="41.92799" lon="25.63084">
        <ele>202.155555</ele>
        <time>2022-02-27T10:52:13.630Z</time>
      </trkpt>
      <trkpt lat="41.92802" lon="25.63067">
        <ele>202.332485</ele>
        <time>2022-02-27T10:52:16.650Z</time>
      </trkpt>
      <trkpt lat="41.92804" lon="25.6305">
        <ele>202.508129</ele>
        <time>2022-02-27T10:52:19.653Z</time>
      </trkpt>
      <trkpt lat="41.92807" lon="25.63033">
        <ele>202.684965</ele>
        <time>2022-02-27T10:52:22.642Z</time>
      </trkpt>
      <trkpt lat="41.9281" lon="25.63016">
        <ele>202.865442</ele>
        <time>2022-02-27T10:52:25.654Z</time>
      </trkpt>
      <trkpt lat="41.92812" lon="25.63003">
        <ele>202.99317</ele>
        <time>2022-02-27T10:52:27.639Z</time>
      </trkpt>
      <trkpt lat="41.92815" lon="25.62987">
        <ele>203.165448</ele>
        <time>2022-02-27T10:52:30.653Z</time>
      </trkpt>
      <trkpt lat="41.92819" lon="25.6297">
        <ele>203.264514</ele>
        <time>2022-02-27T10:52:33.643Z</time>
      </trkpt>
      <trkpt lat="41.92822" lon="25.62953">
        <ele>203.198269</ele>
        <time>2022-02-27T10:52:36.651Z</time>
      </trkpt>
      <trkpt lat="41.92824" lon="25.62941">
        <ele>203.151476</ele>
        <time>2022-02-27T10:52:38.639Z</time>
      </trkpt>
      <trkpt lat="41.92827" lon="25.62929">
        <ele>203.104416</ele>
        <time>2022-02-27T10:52:40.680Z</time>
      </trkpt>
      <trkpt lat="41.9283" lon="25.62912">
        <ele>203.035698</ele>
        <time>2022-02-27T10:52:43.649Z</time>
      </trkpt>
      <trkpt lat="41.92833" lon="25.62895">
        <ele>202.968096</ele>
        <time>2022-02-27T10:52:46.632Z</time>
      </trkpt>
      <trkpt lat="41.92835" lon="25.62883">
        <ele>202.921303</ele>
        <time>2022-02-27T10:52:48.652Z</time>
      </trkpt>
      <trkpt lat="41.92838" lon="25.62866">
        <ele>202.85407</ele>
        <time>2022-02-27T10:52:51.673Z</time>
      </trkpt>
      <trkpt lat="41.92841" lon="25.62848">
        <ele>202.786465</ele>
        <time>2022-02-27T10:52:54.625Z</time>
      </trkpt>
      <trkpt lat="41.92845" lon="25.62832">
        <ele>202.720336</ele>
        <time>2022-02-27T10:52:57.634Z</time>
      </trkpt>
      <trkpt lat="41.92848" lon="25.62815">
        <ele>202.654336</ele>
        <time>2022-02-27T10:53:00.652Z</time>
      </trkpt>
      <trkpt lat="41.92851" lon="25.62797">
        <ele>202.585989</ele>
        <time>2022-02-27T10:53:03.636Z</time>
      </trkpt>
      <trkpt lat="41.92853" lon="25.62785">
        <ele>202.539565</ele>
        <time>2022-02-27T10:53:05.644Z</time>
      </trkpt>
      <trkpt lat="41.92856" lon="25.62774">
        <ele>202.493008</ele>
        <time>2022-02-27T10:53:07.649Z</time>
      </trkpt>
      <trkpt lat="41.92858" lon="25.62762">
        <ele>202.445847</ele>
        <time>2022-02-27T10:53:09.653Z</time>
      </trkpt>
      <trkpt lat="41.92861" lon="25.62749">
        <ele>202.397183</ele>
        <time>2022-02-27T10:53:11.670Z</time>
      </trkpt>
      <trkpt lat="41.92863" lon="25.62737">
        <ele>202.360525</ele>
        <time>2022-02-27T10:53:13.639Z</time>
      </trkpt>
      <trkpt lat="41.92866" lon="25.6272">
        <ele>202.3396</ele>
        <time>2022-02-27T10:53:16.638Z</time>
      </trkpt>
      <trkpt lat="41.92868" lon="25.62708">
        <ele>202.325086</ele>
        <time>2022-02-27T10:53:18.679Z</time>
      </trkpt>
      <trkpt lat="41.92871" lon="25.62695">
        <ele>202.309746</ele>
        <time>2022-02-27T10:53:20.643Z</time>
      </trkpt>
      <trkpt lat="41.92874" lon="25.62678">
        <ele>202.289231</ele>
        <time>2022-02-27T10:53:23.650Z</time>
      </trkpt>
      <trkpt lat="41.92877" lon="25.6266">
        <ele>202.267555</ele>
        <time>2022-02-27T10:53:26.635Z</time>
      </trkpt>
      <trkpt lat="41.92879" lon="25.62647">
        <ele>202.25278</ele>
        <time>2022-02-27T10:53:28.636Z</time>
      </trkpt>
      <trkpt lat="41.92882" lon="25.62635">
        <ele>202.237855</ele>
        <time>2022-02-27T10:53:30.650Z</time>
      </trkpt>
      <trkpt lat="41.92884" lon="25.62621">
        <ele>202.221988</ele>
        <time>2022-02-27T10:53:32.643Z</time>
      </trkpt>
      <trkpt lat="41.92888" lon="25.62604">
        <ele>202.2014</ele>
        <time>2022-02-27T10:53:35.652Z</time>
      </trkpt>
      <trkpt lat="41.9289" lon="25.62592">
        <ele>202.186536</ele>
        <time>2022-02-27T10:53:37.640Z</time>
      </trkpt>
      <trkpt lat="41.92894" lon="25.62575">
        <ele>202.166249</ele>
        <time>2022-02-27T10:53:40.706Z</time>
      </trkpt>
      <trkpt lat="41.92897" lon="25.62558">
        <ele>202.145999</ele>
        <time>2022-02-27T10:53:43.689Z</time>
      </trkpt>
      <trkpt lat="41.929" lon="25.62541">
        <ele>202.125595</ele>
        <time>2022-02-27T10:53:46.646Z</time>
      </trkpt>
      <trkpt lat="41.92902" lon="25.62529">
        <ele>202.111533</ele>
        <time>2022-02-27T10:53:48.641Z</time>
      </trkpt>
      <trkpt lat="41.92905" lon="25.62512">
        <ele>202.090908</ele>
        <time>2022-02-27T10:53:51.693Z</time>
      </trkpt>
      <trkpt lat="41.92907" lon="25.625">
        <ele>202.108735</ele>
        <time>2022-02-27T10:53:53.630Z</time>
      </trkpt>
      <trkpt lat="41.9291" lon="25.62487">
        <ele>202.151126</ele>
        <time>2022-02-27T10:53:55.644Z</time>
      </trkpt>
      <trkpt lat="41.92912" lon="25.62475">
        <ele>202.19437</ele>
        <time>2022-02-27T10:53:57.620Z</time>
      </trkpt>
      <trkpt lat="41.92915" lon="25.62462">
        <ele>202.236887</ele>
        <time>2022-02-27T10:53:59.637Z</time>
      </trkpt>
      <trkpt lat="41.92918" lon="25.62445">
        <ele>202.294226</ele>
        <time>2022-02-27T10:54:02.669Z</time>
      </trkpt>
      <trkpt lat="41.92921" lon="25.62431">
        <ele>202.343824</ele>
        <time>2022-02-27T10:54:05.645Z</time>
      </trkpt>
      <trkpt lat="41.92924" lon="25.62416">
        <ele>202.394333</ele>
        <time>2022-02-27T10:54:08.649Z</time>
      </trkpt>
      <trkpt lat="41.92927" lon="25.624">
        <ele>202.448681</ele>
        <time>2022-02-27T10:54:11.641Z</time>
      </trkpt>
      <trkpt lat="41.92929" lon="25.62385">
        <ele>202.499509</ele>
        <time>2022-02-27T10:54:14.643Z</time>
      </trkpt>
      <trkpt lat="41.92932" lon="25.62371">
        <ele>202.549061</ele>
        <time>2022-02-27T10:54:17.630Z</time>
      </trkpt>
      <trkpt lat="41.92935" lon="25.62356">
        <ele>202.598926</ele>
        <time>2022-02-27T10:54:20.643Z</time>
      </trkpt>
      <trkpt lat="41.92938" lon="25.62342">
        <ele>202.647642</ele>
        <time>2022-02-27T10:54:23.655Z</time>
      </trkpt>
      <trkpt lat="41.92941" lon="25.62328">
        <ele>202.695031</ele>
        <time>2022-02-27T10:54:26.655Z</time>
      </trkpt>
      <trkpt lat="41.92944" lon="25.62315">
        <ele>202.740647</ele>
        <time>2022-02-27T10:54:29.645Z</time>
      </trkpt>
      <trkpt lat="41.92947" lon="25.62301">
        <ele>202.788926</ele>
        <time>2022-02-27T10:54:32.770Z</time>
      </trkpt>
      <trkpt lat="41.9295" lon="25.62287">
        <ele>202.836815</ele>
        <time>2022-02-27T10:54:35.660Z</time>
      </trkpt>
      <trkpt lat="41.92953" lon="25.62273">
        <ele>202.884369</ele>
        <time>2022-02-27T10:54:38.644Z</time>
      </trkpt>
      <trkpt lat="41.92956" lon="25.62259">
        <ele>202.938199</ele>
        <time>2022-02-27T10:54:41.656Z</time>
      </trkpt>
      <trkpt lat="41.92959" lon="25.62244">
        <ele>202.993787</ele>
        <time>2022-02-27T10:54:44.643Z</time>
      </trkpt>
      <trkpt lat="41.92963" lon="25.62228">
        <ele>203.052748</ele>
        <time>2022-02-27T10:54:47.653Z</time>
      </trkpt>
      <trkpt lat="41.92966" lon="25.62212">
        <ele>203.112058</ele>
        <time>2022-02-27T10:54:50.689Z</time>
      </trkpt>
      <trkpt lat="41.92969" lon="25.62197">
        <ele>203.168535</ele>
        <time>2022-02-27T10:54:53.636Z</time>
      </trkpt>
      <trkpt lat="41.92968" lon="25.62182">
        <ele>203.224448</ele>
        <time>2022-02-27T10:54:56.652Z</time>
      </trkpt>
      <trkpt lat="41.92968" lon="25.62167">
        <ele>203.278658</ele>
        <time>2022-02-27T10:54:59.631Z</time>
      </trkpt>
      <trkpt lat="41.92969" lon="25.62151">
        <ele>203.335506</ele>
        <time>2022-02-27T10:55:02.633Z</time>
      </trkpt>
      <trkpt lat="41.92972" lon="25.62135">
        <ele>203.39491</ele>
        <time>2022-02-27T10:55:05.647Z</time>
      </trkpt>
      <trkpt lat="41.92975" lon="25.6212">
        <ele>203.452829</ele>
        <time>2022-02-27T10:55:08.636Z</time>
      </trkpt>
      <trkpt lat="41.92978" lon="25.62105">
        <ele>203.50849</ele>
        <time>2022-02-27T10:55:11.638Z</time>
      </trkpt>
      <trkpt lat="41.92981" lon="25.6209">
        <ele>203.564626</ele>
        <time>2022-02-27T10:55:14.649Z</time>
      </trkpt>
      <trkpt lat="41.92984" lon="25.62074">
        <ele>203.623325</ele>
        <time>2022-02-27T10:55:17.656Z</time>
      </trkpt>
      <trkpt lat="41.92988" lon="25.62059">
        <ele>203.679795</ele>
        <time>2022-02-27T10:55:20.645Z</time>
      </trkpt>
      <trkpt lat="41.92991" lon="25.62044">
        <ele>203.738824</ele>
        <time>2022-02-27T10:55:23.647Z</time>
      </trkpt>
      <trkpt lat="41.92995" lon="25.62028">
        <ele>203.851169</ele>
        <time>2022-02-27T10:55:26.696Z</time>
      </trkpt>
      <trkpt lat="41.92998" lon="25.62012">
        <ele>203.990882</ele>
        <time>2022-02-27T10:55:29.647Z</time>
      </trkpt>
      <trkpt lat="41.93002" lon="25.61996">
        <ele>204.129131</ele>
        <time>2022-02-27T10:55:32.653Z</time>
      </trkpt>
      <trkpt lat="41.93005" lon="25.6198">
        <ele>204.263193</ele>
        <time>2022-02-27T10:55:35.647Z</time>
      </trkpt>
      <trkpt lat="41.93009" lon="25.61965">
        <ele>204.397297</ele>
        <time>2022-02-27T10:55:38.648Z</time>
      </trkpt>
      <trkpt lat="41.93012" lon="25.6195">
        <ele>204.523374</ele>
        <time>2022-02-27T10:55:41.681Z</time>
      </trkpt>
      <trkpt lat="41.93017" lon="25.61937">
        <ele>204.645159</ele>
        <time>2022-02-27T10:55:44.648Z</time>
      </trkpt>
      <trkpt lat="41.9302" lon="25.6192">
        <ele>204.787688</ele>
        <time>2022-02-27T10:55:47.645Z</time>
      </trkpt>
      <trkpt lat="41.93024" lon="25.61905">
        <ele>204.924032</ele>
        <time>2022-02-27T10:55:50.655Z</time>
      </trkpt>
      <trkpt lat="41.93027" lon="25.6189">
        <ele>205.051991</ele>
        <time>2022-02-27T10:55:53.648Z</time>
      </trkpt>
      <trkpt lat="41.9303" lon="25.61875">
        <ele>205.181049</ele>
        <time>2022-02-27T10:55:56.658Z</time>
      </trkpt>
      <trkpt lat="41.93033" lon="25.6186">
        <ele>205.307944</ele>
        <time>2022-02-27T10:55:59.646Z</time>
      </trkpt>
      <trkpt lat="41.93035" lon="25.61846">
        <ele>205.421435</ele>
        <time>2022-02-27T10:56:02.656Z</time>
      </trkpt>
      <trkpt lat="41.93037" lon="25.61832">
        <ele>205.544421</ele>
        <time>2022-02-27T10:56:05.652Z</time>
      </trkpt>
      <trkpt lat="41.93039" lon="25.61815">
        <ele>205.680236</ele>
        <time>2022-02-27T10:56:08.635Z</time>
      </trkpt>
      <trkpt lat="41.93041" lon="25.61799">
        <ele>205.807944</ele>
        <time>2022-02-27T10:56:11.644Z</time>
      </trkpt>
      <trkpt lat="41.93043" lon="25.61782">
        <ele>205.916305</ele>
        <time>2022-02-27T10:56:14.694Z</time>
      </trkpt>
      <trkpt lat="41.93045" lon="25.61767">
        <ele>206.020278</ele>
        <time>2022-02-27T10:56:17.643Z</time>
      </trkpt>
      <trkpt lat="41.93046" lon="25.61751">
        <ele>206.122238</ele>
        <time>2022-02-27T10:56:20.641Z</time>
      </trkpt>
      <trkpt lat="41.93048" lon="25.61735">
        <ele>206.227002</ele>
        <time>2022-02-27T10:56:23.655Z</time>
      </trkpt>
      <trkpt lat="41.93049" lon="25.61718">
        <ele>206.337606</ele>
        <time>2022-02-27T10:56:26.639Z</time>
      </trkpt>
      <trkpt lat="41.93051" lon="25.61701">
        <ele>206.451915</ele>
        <time>2022-02-27T10:56:29.642Z</time>
      </trkpt>
      <trkpt lat="41.93052" lon="25.61683">
        <ele>206.567525</ele>
        <time>2022-02-27T10:56:32.656Z</time>
      </trkpt>
      <trkpt lat="41.93053" lon="25.61666">
        <ele>206.683051</ele>
        <time>2022-02-27T10:56:35.660Z</time>
      </trkpt>
      <trkpt lat="41.93054" lon="25.61648">
        <ele>206.801263</ele>
        <time>2022-02-27T10:56:38.655Z</time>
      </trkpt>
      <trkpt lat="41.93055" lon="25.61636">
        <ele>206.880595</ele>
        <time>2022-02-27T10:56:40.635Z</time>
      </trkpt>
      <trkpt lat="41.93056" lon="25.61617">
        <ele>207.001074</ele>
        <time>2022-02-27T10:56:43.646Z</time>
      </trkpt>
      <trkpt lat="41.93056" lon="25.61605">
        <ele>207.080342</ele>
        <time>2022-02-27T10:56:45.653Z</time>
      </trkpt>
      <trkpt lat="41.93057" lon="25.61592">
        <ele>207.164706</ele>
        <time>2022-02-27T10:56:47.683Z</time>
      </trkpt>
      <trkpt lat="41.93057" lon="25.61579">
        <ele>207.25115</ele>
        <time>2022-02-27T10:56:49.656Z</time>
      </trkpt>
      <trkpt lat="41.93058" lon="25.61566">
        <ele>207.335587</ele>
        <time>2022-02-27T10:56:51.639Z</time>
      </trkpt>
      <trkpt lat="41.93058" lon="25.61553">
        <ele>207.382069</ele>
        <time>2022-02-27T10:56:53.641Z</time>
      </trkpt>
      <trkpt lat="41.93059" lon="25.6154">
        <ele>207.428579</ele>
        <time>2022-02-27T10:56:55.650Z</time>
      </trkpt>
      <trkpt lat="41.9306" lon="25.61527">
        <ele>207.472673</ele>
        <time>2022-02-27T10:56:57.646Z</time>
      </trkpt>
      <trkpt lat="41.9306" lon="25.61515">
        <ele>207.515574</ele>
        <time>2022-02-27T10:56:59.646Z</time>
      </trkpt>
      <trkpt lat="41.93061" lon="25.61497">
        <ele>207.579934</ele>
        <time>2022-02-27T10:57:02.647Z</time>
      </trkpt>
      <trkpt lat="41.93061" lon="25.61479">
        <ele>207.641836</ele>
        <time>2022-02-27T10:57:05.663Z</time>
      </trkpt>
      <trkpt lat="41.93062" lon="25.61467">
        <ele>207.684778</ele>
        <time>2022-02-27T10:57:07.641Z</time>
      </trkpt>
      <trkpt lat="41.93062" lon="25.61454">
        <ele>207.731257</ele>
        <time>2022-02-27T10:57:09.686Z</time>
      </trkpt>
      <trkpt lat="41.93063" lon="25.61441">
        <ele>207.774902</ele>
        <time>2022-02-27T10:57:11.638Z</time>
      </trkpt>
      <trkpt lat="41.93063" lon="25.61423">
        <ele>207.839246</ele>
        <time>2022-02-27T10:57:14.647Z</time>
      </trkpt>
      <trkpt lat="41.93064" lon="25.61411">
        <ele>207.881838</ele>
        <time>2022-02-27T10:57:16.643Z</time>
      </trkpt>
      <trkpt lat="41.93064" lon="25.61399">
        <ele>207.925861</ele>
        <time>2022-02-27T10:57:18.643Z</time>
      </trkpt>
      <trkpt lat="41.93065" lon="25.61386">
        <ele>207.969217</ele>
        <time>2022-02-27T10:57:20.690Z</time>
      </trkpt>
      <trkpt lat="41.93066" lon="25.61369">
        <ele>208.031489</ele>
        <time>2022-02-27T10:57:23.642Z</time>
      </trkpt>
      <trkpt lat="41.93066" lon="25.61357">
        <ele>208.073833</ele>
        <time>2022-02-27T10:57:25.669Z</time>
      </trkpt>
      <trkpt lat="41.93069" lon="25.6134">
        <ele>208.133705</ele>
        <time>2022-02-27T10:57:28.650Z</time>
      </trkpt>
      <trkpt lat="41.9307" lon="25.61323">
        <ele>208.209066</ele>
        <time>2022-02-27T10:57:31.652Z</time>
      </trkpt>
      <trkpt lat="41.9307" lon="25.61306">
        <ele>208.370724</ele>
        <time>2022-02-27T10:57:34.648Z</time>
      </trkpt>
      <trkpt lat="41.93071" lon="25.61289">
        <ele>208.53171</ele>
        <time>2022-02-27T10:57:37.679Z</time>
      </trkpt>
      <trkpt lat="41.93072" lon="25.61273">
        <ele>208.687569</ele>
        <time>2022-02-27T10:57:40.650Z</time>
      </trkpt>
      <trkpt lat="41.93072" lon="25.61256">
        <ele>208.849143</ele>
        <time>2022-02-27T10:57:43.652Z</time>
      </trkpt>
      <trkpt lat="41.93072" lon="25.61239">
        <ele>209.017445</ele>
        <time>2022-02-27T10:57:46.668Z</time>
      </trkpt>
      <trkpt lat="41.93072" lon="25.61222">
        <ele>209.182862</ele>
        <time>2022-02-27T10:57:49.649Z</time>
      </trkpt>
      <trkpt lat="41.93072" lon="25.61205">
        <ele>209.34246</ele>
        <time>2022-02-27T10:57:52.658Z</time>
      </trkpt>
      <trkpt lat="41.93073" lon="25.6119">
        <ele>209.494453</ele>
        <time>2022-02-27T10:57:55.644Z</time>
      </trkpt>
      <trkpt lat="41.93073" lon="25.61173">
        <ele>209.658168</ele>
        <time>2022-02-27T10:57:58.651Z</time>
      </trkpt>
      <trkpt lat="41.93074" lon="25.61156">
        <ele>209.818859</ele>
        <time>2022-02-27T10:58:01.681Z</time>
      </trkpt>
      <trkpt lat="41.93074" lon="25.6114">
        <ele>209.971731</ele>
        <time>2022-02-27T10:58:04.670Z</time>
      </trkpt>
      <trkpt lat="41.93075" lon="25.61125">
        <ele>210.117926</ele>
        <time>2022-02-27T10:58:07.661Z</time>
      </trkpt>
      <trkpt lat="41.93075" lon="25.6111">
        <ele>210.267021</ele>
        <time>2022-02-27T10:58:10.686Z</time>
      </trkpt>
      <trkpt lat="41.93076" lon="25.61094">
        <ele>210.420197</ele>
        <time>2022-02-27T10:58:13.653Z</time>
      </trkpt>
      <trkpt lat="41.93077" lon="25.61079">
        <ele>210.506444</ele>
        <time>2022-02-27T10:58:16.687Z</time>
      </trkpt>
      <trkpt lat="41.93078" lon="25.61063">
        <ele>210.446453</ele>
        <time>2022-02-27T10:58:19.654Z</time>
      </trkpt>
      <trkpt lat="41.93079" lon="25.61047">
        <ele>210.388955</ele>
        <time>2022-02-27T10:58:22.650Z</time>
      </trkpt>
      <trkpt lat="41.9308" lon="25.61031">
        <ele>210.329884</ele>
        <time>2022-02-27T10:58:25.653Z</time>
      </trkpt>
      <trkpt lat="41.9308" lon="25.61016">
        <ele>210.273152</ele>
        <time>2022-02-27T10:58:28.644Z</time>
      </trkpt>
      <trkpt lat="41.93081" lon="25.61001">
        <ele>210.217144</ele>
        <time>2022-02-27T10:58:31.650Z</time>
      </trkpt>
      <trkpt lat="41.93081" lon="25.60987">
        <ele>210.1622</ele>
        <time>2022-02-27T10:58:34.644Z</time>
      </trkpt>
      <trkpt lat="41.93082" lon="25.60973">
        <ele>210.109689</ele>
        <time>2022-02-27T10:58:37.656Z</time>
      </trkpt>
      <trkpt lat="41.93084" lon="25.60959">
        <ele>210.057864</ele>
        <time>2022-02-27T10:58:40.645Z</time>
      </trkpt>
      <trkpt lat="41.93085" lon="25.60946">
        <ele>210.010649</ele>
        <time>2022-02-27T10:58:43.640Z</time>
      </trkpt>
      <trkpt lat="41.93085" lon="25.60933">
        <ele>209.960505</ele>
        <time>2022-02-27T10:58:46.641Z</time>
      </trkpt>
      <trkpt lat="41.93086" lon="25.60918">
        <ele>209.905155</ele>
        <time>2022-02-27T10:58:49.649Z</time>
      </trkpt>
      <trkpt lat="41.93087" lon="25.60901">
        <ele>209.843509</ele>
        <time>2022-02-27T10:58:52.640Z</time>
      </trkpt>
      <trkpt lat="41.93088" lon="25.60885">
        <ele>209.782235</ele>
        <time>2022-02-27T10:58:55.643Z</time>
      </trkpt>
      <trkpt lat="41.93088" lon="25.6087">
        <ele>209.726576</ele>
        <time>2022-02-27T10:58:58.656Z</time>
      </trkpt>
      <trkpt lat="41.93088" lon="25.60856">
        <ele>209.674726</ele>
        <time>2022-02-27T10:59:01.646Z</time>
      </trkpt>
      <trkpt lat="41.93089" lon="25.60841">
        <ele>209.62315</ele>
        <time>2022-02-27T10:59:04.647Z</time>
      </trkpt>
      <trkpt lat="41.93089" lon="25.60826">
        <ele>209.627185</ele>
        <time>2022-02-27T10:59:07.668Z</time>
      </trkpt>
      <trkpt lat="41.9309" lon="25.6081">
        <ele>209.631439</ele>
        <time>2022-02-27T10:59:10.643Z</time>
      </trkpt>
      <trkpt lat="41.93091" lon="25.60793">
        <ele>209.636105</ele>
        <time>2022-02-27T10:59:13.647Z</time>
      </trkpt>
      <trkpt lat="41.93092" lon="25.60777">
        <ele>209.640397</ele>
        <time>2022-02-27T10:59:16.642Z</time>
      </trkpt>
      <trkpt lat="41.93093" lon="25.60762">
        <ele>209.64449</ele>
        <time>2022-02-27T10:59:19.653Z</time>
      </trkpt>
      <trkpt lat="41.93094" lon="25.60747">
        <ele>209.648584</ele>
        <time>2022-02-27T10:59:22.628Z</time>
      </trkpt>
      <trkpt lat="41.93094" lon="25.60732">
        <ele>209.652675</ele>
        <time>2022-02-27T10:59:25.665Z</time>
      </trkpt>
      <trkpt lat="41.93095" lon="25.60718">
        <ele>209.656682</ele>
        <time>2022-02-27T10:59:28.694Z</time>
      </trkpt>
      <trkpt lat="41.93095" lon="25.60703">
        <ele>209.660689</ele>
        <time>2022-02-27T10:59:31.652Z</time>
      </trkpt>
      <trkpt lat="41.93096" lon="25.60689">
        <ele>209.664592</ele>
        <time>2022-02-27T10:59:34.655Z</time>
      </trkpt>
      <trkpt lat="41.93097" lon="25.60675">
        <ele>209.66833</ele>
        <time>2022-02-27T10:59:37.640Z</time>
      </trkpt>
      <trkpt lat="41.93097" lon="25.6066">
        <ele>209.67244</ele>
        <time>2022-02-27T10:59:40.647Z</time>
      </trkpt>
      <trkpt lat="41.93098" lon="25.60645">
        <ele>209.676559</ele>
        <time>2022-02-27T10:59:43.643Z</time>
      </trkpt>
      <trkpt lat="41.93098" lon="25.6063">
        <ele>209.680593</ele>
        <time>2022-02-27T10:59:46.652Z</time>
      </trkpt>
      <trkpt lat="41.93099" lon="25.60615">
        <ele>209.684822</ele>
        <time>2022-02-27T10:59:49.651Z</time>
      </trkpt>
      <trkpt lat="41.931" lon="25.60599">
        <ele>209.709985</ele>
        <time>2022-02-27T10:59:52.646Z</time>
      </trkpt>
      <trkpt lat="41.93101" lon="25.60584">
        <ele>209.887974</ele>
        <time>2022-02-27T10:59:55.680Z</time>
      </trkpt>
      <trkpt lat="41.93102" lon="25.60569">
        <ele>210.069326</ele>
        <time>2022-02-27T10:59:58.653Z</time>
      </trkpt>
      <trkpt lat="41.93105" lon="25.60555">
        <ele>210.241013</ele>
        <time>2022-02-27T11:00:01.702Z</time>
      </trkpt>
      <trkpt lat="41.93109" lon="25.60542">
        <ele>210.406672</ele>
        <time>2022-02-27T11:00:04.637Z</time>
      </trkpt>
      <trkpt lat="41.93114" lon="25.60529">
        <ele>210.576753</ele>
        <time>2022-02-27T11:00:07.661Z</time>
      </trkpt>
      <trkpt lat="41.93117" lon="25.60516">
        <ele>210.734329</ele>
        <time>2022-02-27T11:00:10.652Z</time>
      </trkpt>
      <trkpt lat="41.93114" lon="25.60503">
        <ele>210.895714</ele>
        <time>2022-02-27T11:00:13.643Z</time>
      </trkpt>
      <trkpt lat="41.93107" lon="25.60489">
        <ele>211.090348</ele>
        <time>2022-02-27T11:00:16.712Z</time>
      </trkpt>
      <trkpt lat="41.93103" lon="25.60473">
        <ele>211.292427</ele>
        <time>2022-02-27T11:00:19.654Z</time>
      </trkpt>
      <trkpt lat="41.93104" lon="25.6046">
        <ele>211.436657</ele>
        <time>2022-02-27T11:00:21.642Z</time>
      </trkpt>
      <trkpt lat="41.93105" lon="25.60448">
        <ele>211.579437</ele>
        <time>2022-02-27T11:00:23.743Z</time>
      </trkpt>
      <trkpt lat="41.93106" lon="25.60431">
        <ele>211.78698</ele>
        <time>2022-02-27T11:00:26.655Z</time>
      </trkpt>
      <trkpt lat="41.93107" lon="25.60414">
        <ele>211.989946</ele>
        <time>2022-02-27T11:00:29.705Z</time>
      </trkpt>
      <trkpt lat="41.93108" lon="25.60397">
        <ele>212.181061</ele>
        <time>2022-02-27T11:00:32.651Z</time>
      </trkpt>
      <trkpt lat="41.93108" lon="25.60382">
        <ele>212.361307</ele>
        <time>2022-02-27T11:00:35.662Z</time>
      </trkpt>
      <trkpt lat="41.93109" lon="25.60367">
        <ele>212.534877</ele>
        <time>2022-02-27T11:00:38.653Z</time>
      </trkpt>
      <trkpt lat="41.9311" lon="25.60351">
        <ele>212.608249</ele>
        <time>2022-02-27T11:00:41.650Z</time>
      </trkpt>
      <trkpt lat="41.93111" lon="25.60335">
        <ele>212.68483</ele>
        <time>2022-02-27T11:00:44.650Z</time>
      </trkpt>
      <trkpt lat="41.93112" lon="25.60318">
        <ele>212.760282</ele>
        <time>2022-02-27T11:00:47.658Z</time>
      </trkpt>
      <trkpt lat="41.93112" lon="25.60302">
        <ele>212.832936</ele>
        <time>2022-02-27T11:00:50.645Z</time>
      </trkpt>
      <trkpt lat="41.93112" lon="25.60284">
        <ele>212.915254</ele>
        <time>2022-02-27T11:00:53.644Z</time>
      </trkpt>
      <trkpt lat="41.93112" lon="25.60267">
        <ele>212.994842</ele>
        <time>2022-02-27T11:00:56.644Z</time>
      </trkpt>
      <trkpt lat="41.93113" lon="25.6025">
        <ele>213.072592</ele>
        <time>2022-02-27T11:00:59.659Z</time>
      </trkpt>
      <trkpt lat="41.93114" lon="25.60233">
        <ele>213.153253</ele>
        <time>2022-02-27T11:01:02.671Z</time>
      </trkpt>
      <trkpt lat="41.93115" lon="25.60216">
        <ele>213.229943</ele>
        <time>2022-02-27T11:01:05.642Z</time>
      </trkpt>
      <trkpt lat="41.93116" lon="25.602">
        <ele>213.303038</ele>
        <time>2022-02-27T11:01:08.634Z</time>
      </trkpt>
      <trkpt lat="41.93117" lon="25.60184">
        <ele>213.378297</ele>
        <time>2022-02-27T11:01:11.661Z</time>
      </trkpt>
      <trkpt lat="41.93118" lon="25.6017">
        <ele>213.443884</ele>
        <time>2022-02-27T11:01:14.641Z</time>
      </trkpt>
      <trkpt lat="41.93119" lon="25.60156">
        <ele>213.507532</ele>
        <time>2022-02-27T11:01:17.657Z</time>
      </trkpt>
      <trkpt lat="41.9312" lon="25.60141">
        <ele>213.577523</ele>
        <time>2022-02-27T11:01:20.629Z</time>
      </trkpt>
      <trkpt lat="41.9312" lon="25.60125">
        <ele>213.628673</ele>
        <time>2022-02-27T11:01:23.648Z</time>
      </trkpt>
      <trkpt lat="41.93121" lon="25.60108">
        <ele>213.398768</ele>
        <time>2022-02-27T11:01:26.645Z</time>
      </trkpt>
      <trkpt lat="41.93122" lon="25.60093">
        <ele>213.18964</ele>
        <time>2022-02-27T11:01:29.663Z</time>
      </trkpt>
      <trkpt lat="41.93122" lon="25.60077">
        <ele>212.976321</ele>
        <time>2022-02-27T11:01:32.652Z</time>
      </trkpt>
      <trkpt lat="41.93123" lon="25.60062">
        <ele>212.766086</ele>
        <time>2022-02-27T11:01:35.650Z</time>
      </trkpt>
      <trkpt lat="41.93124" lon="25.60047">
        <ele>212.555084</ele>
        <time>2022-02-27T11:01:38.658Z</time>
      </trkpt>
      <trkpt lat="41.93124" lon="25.60032">
        <ele>212.35675</ele>
        <time>2022-02-27T11:01:41.697Z</time>
      </trkpt>
      <trkpt lat="41.93125" lon="25.60016">
        <ele>212.14195</ele>
        <time>2022-02-27T11:01:44.653Z</time>
      </trkpt>
      <trkpt lat="41.93126" lon="25.6">
        <ele>211.916256</ele>
        <time>2022-02-27T11:01:47.646Z</time>
      </trkpt>
      <trkpt lat="41.93127" lon="25.59984">
        <ele>211.701174</ele>
        <time>2022-02-27T11:01:50.653Z</time>
      </trkpt>
      <trkpt lat="41.93128" lon="25.5997">
        <ele>211.50284</ele>
        <time>2022-02-27T11:01:53.646Z</time>
      </trkpt>
      <trkpt lat="41.93129" lon="25.59956">
        <ele>211.313755</ele>
        <time>2022-02-27T11:01:56.644Z</time>
      </trkpt>
      <trkpt lat="41.93129" lon="25.59944">
        <ele>211.145505</ele>
        <time>2022-02-27T11:01:59.648Z</time>
      </trkpt>
      <trkpt lat="41.9313" lon="25.59929">
        <ele>210.947919</ele>
        <time>2022-02-27T11:02:02.661Z</time>
      </trkpt>
      <trkpt lat="41.93131" lon="25.59916">
        <ele>210.771497</ele>
        <time>2022-02-27T11:02:05.661Z</time>
      </trkpt>
      <trkpt lat="41.93132" lon="25.59903">
        <ele>210.587483</ele>
        <time>2022-02-27T11:02:08.654Z</time>
      </trkpt>
      <trkpt lat="41.93133" lon="25.59889">
        <ele>210.396685</ele>
        <time>2022-02-27T11:02:11.643Z</time>
      </trkpt>
      <trkpt lat="41.93134" lon="25.59874">
        <ele>210.450702</ele>
        <time>2022-02-27T11:02:14.640Z</time>
      </trkpt>
      <trkpt lat="41.93135" lon="25.59859">
        <ele>210.593795</ele>
        <time>2022-02-27T11:02:17.659Z</time>
      </trkpt>
      <trkpt lat="41.93136" lon="25.59844">
        <ele>210.73124</ele>
        <time>2022-02-27T11:02:20.650Z</time>
      </trkpt>
      <trkpt lat="41.93137" lon="25.59829">
        <ele>210.881776</ele>
        <time>2022-02-27T11:02:23.653Z</time>
      </trkpt>
      <trkpt lat="41.93137" lon="25.59813">
        <ele>211.028389</ele>
        <time>2022-02-27T11:02:26.654Z</time>
      </trkpt>
      <trkpt lat="41.93138" lon="25.59798">
        <ele>211.166512</ele>
        <time>2022-02-27T11:02:29.651Z</time>
      </trkpt>
      <trkpt lat="41.93139" lon="25.59784">
        <ele>211.303769</ele>
        <time>2022-02-27T11:02:32.647Z</time>
      </trkpt>
      <trkpt lat="41.93139" lon="25.59769">
        <ele>211.446682</ele>
        <time>2022-02-27T11:02:35.691Z</time>
      </trkpt>
      <trkpt lat="41.93139" lon="25.59754">
        <ele>211.584601</ele>
        <time>2022-02-27T11:02:38.637Z</time>
      </trkpt>
      <trkpt lat="41.9314" lon="25.5974">
        <ele>211.72266</ele>
        <time>2022-02-27T11:02:41.642Z</time>
      </trkpt>
      <trkpt lat="41.93141" lon="25.59725">
        <ele>211.857011</ele>
        <time>2022-02-27T11:02:44.655Z</time>
      </trkpt>
      <trkpt lat="41.93141" lon="25.59712">
        <ele>211.984635</ele>
        <time>2022-02-27T11:02:47.641Z</time>
      </trkpt>
      <trkpt lat="41.93141" lon="25.59699">
        <ele>212.109485</ele>
        <time>2022-02-27T11:02:50.646Z</time>
      </trkpt>
      <trkpt lat="41.93142" lon="25.59685">
        <ele>212.241785</ele>
        <time>2022-02-27T11:02:53.640Z</time>
      </trkpt>
      <trkpt lat="41.93142" lon="25.59672">
        <ele>212.366474</ele>
        <time>2022-02-27T11:02:56.658Z</time>
      </trkpt>
      <trkpt lat="41.93142" lon="25.59658">
        <ele>212.496984</ele>
        <time>2022-02-27T11:02:59.647Z</time>
      </trkpt>
      <trkpt lat="41.93143" lon="25.59643">
        <ele>212.654917</ele>
        <time>2022-02-27T11:03:02.655Z</time>
      </trkpt>
      <trkpt lat="41.93143" lon="25.59629">
        <ele>213.111155</ele>
        <time>2022-02-27T11:03:05.633Z</time>
      </trkpt>
      <trkpt lat="41.93144" lon="25.59615">
        <ele>213.587466</ele>
        <time>2022-02-27T11:03:08.656Z</time>
      </trkpt>
      <trkpt lat="41.93144" lon="25.59599">
        <ele>214.089454</ele>
        <time>2022-02-27T11:03:11.653Z</time>
      </trkpt>
      <trkpt lat="41.93144" lon="25.59585">
        <ele>214.57505</ele>
        <time>2022-02-27T11:03:14.641Z</time>
      </trkpt>
      <trkpt lat="41.93144" lon="25.59571">
        <ele>215.014569</ele>
        <time>2022-02-27T11:03:17.639Z</time>
      </trkpt>
      <trkpt lat="41.93142" lon="25.59558">
        <ele>215.473004</ele>
        <time>2022-02-27T11:03:20.654Z</time>
      </trkpt>
      <trkpt lat="41.93141" lon="25.59545">
        <ele>215.891429</ele>
        <time>2022-02-27T11:03:23.646Z</time>
      </trkpt>
      <trkpt lat="41.9314" lon="25.59531">
        <ele>216.341825</ele>
        <time>2022-02-27T11:03:26.636Z</time>
      </trkpt>
      <trkpt lat="41.9314" lon="25.59517">
        <ele>216.794635</ele>
        <time>2022-02-27T11:03:29.644Z</time>
      </trkpt>
      <trkpt lat="41.93142" lon="25.59502">
        <ele>217.285731</ele>
        <time>2022-02-27T11:03:32.643Z</time>
      </trkpt>
      <trkpt lat="41.93143" lon="25.59489">
        <ele>217.743754</ele>
        <time>2022-02-27T11:03:35.645Z</time>
      </trkpt>
      <trkpt lat="41.93144" lon="25.59474">
        <ele>218.212486</ele>
        <time>2022-02-27T11:03:38.639Z</time>
      </trkpt>
      <trkpt lat="41.93145" lon="25.59459">
        <ele>218.703581</ele>
        <time>2022-02-27T11:03:41.686Z</time>
      </trkpt>
      <trkpt lat="41.93146" lon="25.59445">
        <ele>219.181196</ele>
        <time>2022-02-27T11:03:44.658Z</time>
      </trkpt>
      <trkpt lat="41.93147" lon="25.59431">
        <ele>219.641725</ele>
        <time>2022-02-27T11:03:47.652Z</time>
      </trkpt>
      <trkpt lat="41.93147" lon="25.59417">
        <ele>220.088566</ele>
        <time>2022-02-27T11:03:50.671Z</time>
      </trkpt>
      <trkpt lat="41.93147" lon="25.59404">
        <ele>220.511756</ele>
        <time>2022-02-27T11:03:53.651Z</time>
      </trkpt>
      <trkpt lat="41.93148" lon="25.59392">
        <ele>220.859883</ele>
        <time>2022-02-27T11:03:56.648Z</time>
      </trkpt>
      <trkpt lat="41.93148" lon="25.59377">
        <ele>221.263555</ele>
        <time>2022-02-27T11:03:59.648Z</time>
      </trkpt>
      <trkpt lat="41.93149" lon="25.59364">
        <ele>221.628965</ele>
        <time>2022-02-27T11:04:02.639Z</time>
      </trkpt>
      <trkpt lat="41.93149" lon="25.5935">
        <ele>221.991289</ele>
        <time>2022-02-27T11:04:05.655Z</time>
      </trkpt>
      <trkpt lat="41.9315" lon="25.59336">
        <ele>222.391694</ele>
        <time>2022-02-27T11:04:08.649Z</time>
      </trkpt>
      <trkpt lat="41.9315" lon="25.5932">
        <ele>222.822161</ele>
        <time>2022-02-27T11:04:11.651Z</time>
      </trkpt>
      <trkpt lat="41.93151" lon="25.59305">
        <ele>223.222566</ele>
        <time>2022-02-27T11:04:14.691Z</time>
      </trkpt>
      <trkpt lat="41.93151" lon="25.59288">
        <ele>223.699143</ele>
        <time>2022-02-27T11:04:17.657Z</time>
      </trkpt>
      <trkpt lat="41.93152" lon="25.59272">
        <ele>224.121833</ele>
        <time>2022-02-27T11:04:20.629Z</time>
      </trkpt>
      <trkpt lat="41.93152" lon="25.59258">
        <ele>224.5117</ele>
        <time>2022-02-27T11:04:23.651Z</time>
      </trkpt>
      <trkpt lat="41.93153" lon="25.59244">
        <ele>224.890926</ele>
        <time>2022-02-27T11:04:26.640Z</time>
      </trkpt>
      <trkpt lat="41.93153" lon="25.5923">
        <ele>225.272289</ele>
        <time>2022-02-27T11:04:29.648Z</time>
      </trkpt>
      <trkpt lat="41.93154" lon="25.59215">
        <ele>225.680739</ele>
        <time>2022-02-27T11:04:32.656Z</time>
      </trkpt>
      <trkpt lat="41.93155" lon="25.59199">
        <ele>226.112371</ele>
        <time>2022-02-27T11:04:35.653Z</time>
      </trkpt>
      <trkpt lat="41.93154" lon="25.59183">
        <ele>226.547955</ele>
        <time>2022-02-27T11:04:38.648Z</time>
      </trkpt>
      <trkpt lat="41.93155" lon="25.5917">
        <ele>226.913366</ele>
        <time>2022-02-27T11:04:41.679Z</time>
      </trkpt>
      <trkpt lat="41.93155" lon="25.59156">
        <ele>227.085038</ele>
        <time>2022-02-27T11:04:44.666Z</time>
      </trkpt>
      <trkpt lat="41.93156" lon="25.59141">
        <ele>226.924568</ele>
        <time>2022-02-27T11:04:47.662Z</time>
      </trkpt>
      <trkpt lat="41.93157" lon="25.59126">
        <ele>226.770979</ele>
        <time>2022-02-27T11:04:50.655Z</time>
      </trkpt>
      <trkpt lat="41.93158" lon="25.59109">
        <ele>226.5951</ele>
        <time>2022-02-27T11:04:53.665Z</time>
      </trkpt>
      <trkpt lat="41.9316" lon="25.59093">
        <ele>226.42436</ele>
        <time>2022-02-27T11:04:56.645Z</time>
      </trkpt>
      <trkpt lat="41.93162" lon="25.59075">
        <ele>226.237</ele>
        <time>2022-02-27T11:04:59.644Z</time>
      </trkpt>
      <trkpt lat="41.93163" lon="25.59063">
        <ele>226.109321</ele>
        <time>2022-02-27T11:05:01.656Z</time>
      </trkpt>
      <trkpt lat="41.93166" lon="25.59051">
        <ele>225.980809</ele>
        <time>2022-02-27T11:05:03.658Z</time>
      </trkpt>
      <trkpt lat="41.93168" lon="25.59037">
        <ele>225.831862</ele>
        <time>2022-02-27T11:05:05.653Z</time>
      </trkpt>
      <trkpt lat="41.93171" lon="25.59022">
        <ele>225.678187</ele>
        <time>2022-02-27T11:05:07.643Z</time>
      </trkpt>
      <trkpt lat="41.93175" lon="25.59008">
        <ele>225.524445</ele>
        <time>2022-02-27T11:05:09.636Z</time>
      </trkpt>
      <trkpt lat="41.93178" lon="25.58994">
        <ele>225.370983</ele>
        <time>2022-02-27T11:05:11.636Z</time>
      </trkpt>
      <trkpt lat="41.93182" lon="25.5898">
        <ele>225.216765</ele>
        <time>2022-02-27T11:05:13.660Z</time>
      </trkpt>
      <trkpt lat="41.93187" lon="25.58964">
        <ele>225.032557</ele>
        <time>2022-02-27T11:05:15.656Z</time>
      </trkpt>
      <trkpt lat="41.93191" lon="25.5895">
        <ele>224.88078</ele>
        <time>2022-02-27T11:05:17.663Z</time>
      </trkpt>
      <trkpt lat="41.93196" lon="25.58936">
        <ele>224.718809</ele>
        <time>2022-02-27T11:05:19.640Z</time>
      </trkpt>
      <trkpt lat="41.932" lon="25.58923">
        <ele>224.494769</ele>
        <time>2022-02-27T11:05:21.653Z</time>
      </trkpt>
      <trkpt lat="41.93204" lon="25.58909">
        <ele>224.159998</ele>
        <time>2022-02-27T11:05:23.643Z</time>
      </trkpt>
      <trkpt lat="41.93209" lon="25.58896">
        <ele>223.836257</ele>
        <time>2022-02-27T11:05:25.657Z</time>
      </trkpt>
      <trkpt lat="41.93213" lon="25.58882">
        <ele>223.515999</ele>
        <time>2022-02-27T11:05:27.651Z</time>
      </trkpt>
      <trkpt lat="41.93216" lon="25.5887">
        <ele>223.224099</ele>
        <time>2022-02-27T11:05:29.663Z</time>
      </trkpt>
      <trkpt lat="41.93219" lon="25.58857">
        <ele>222.924109</ele>
        <time>2022-02-27T11:05:31.641Z</time>
      </trkpt>
      <trkpt lat="41.93223" lon="25.58842">
        <ele>222.555745</ele>
        <time>2022-02-27T11:05:33.647Z</time>
      </trkpt>
      <trkpt lat="41.93226" lon="25.58825">
        <ele>222.175083</ele>
        <time>2022-02-27T11:05:35.712Z</time>
      </trkpt>
      <trkpt lat="41.93228" lon="25.58811">
        <ele>221.845304</ele>
        <time>2022-02-27T11:05:37.654Z</time>
      </trkpt>
      <trkpt lat="41.9323" lon="25.58796">
        <ele>221.524862</ele>
        <time>2022-02-27T11:05:39.648Z</time>
      </trkpt>
      <trkpt lat="41.93232" lon="25.58782">
        <ele>221.197165</ele>
        <time>2022-02-27T11:05:41.658Z</time>
      </trkpt>
      <trkpt lat="41.93233" lon="25.58767">
        <ele>220.850036</ele>
        <time>2022-02-27T11:05:43.646Z</time>
      </trkpt>
      <trkpt lat="41.93235" lon="25.5875">
        <ele>220.481711</ele>
        <time>2022-02-27T11:05:45.657Z</time>
      </trkpt>
      <trkpt lat="41.93237" lon="25.58735">
        <ele>220.126614</ele>
        <time>2022-02-27T11:05:47.649Z</time>
      </trkpt>
      <trkpt lat="41.93239" lon="25.5872">
        <ele>219.800623</ele>
        <time>2022-02-27T11:05:49.641Z</time>
      </trkpt>
      <trkpt lat="41.93242" lon="25.58705">
        <ele>219.443969</ele>
        <time>2022-02-27T11:05:52.656Z</time>
      </trkpt>
      <trkpt lat="41.93243" lon="25.58691">
        <ele>219.194342</ele>
        <time>2022-02-27T11:05:56.646Z</time>
      </trkpt>
      <trkpt lat="41.93245" lon="25.58678">
        <ele>219.068929</ele>
        <time>2022-02-27T11:05:59.639Z</time>
      </trkpt>
      <trkpt lat="41.93247" lon="25.58664">
        <ele>218.932745</ele>
        <time>2022-02-27T11:06:02.678Z</time>
      </trkpt>
      <trkpt lat="41.93249" lon="25.58648">
        <ele>218.777598</ele>
        <time>2022-02-27T11:06:05.643Z</time>
      </trkpt>
      <trkpt lat="41.93251" lon="25.5863">
        <ele>218.607573</ele>
        <time>2022-02-27T11:06:08.643Z</time>
      </trkpt>
      <trkpt lat="41.93253" lon="25.58616">
        <ele>218.474838</ele>
        <time>2022-02-27T11:06:11.655Z</time>
      </trkpt>
      <trkpt lat="41.93254" lon="25.58602">
        <ele>218.33305</ele>
        <time>2022-02-27T11:06:14.680Z</time>
      </trkpt>
      <trkpt lat="41.93256" lon="25.58584">
        <ele>218.168681</ele>
        <time>2022-02-27T11:06:17.667Z</time>
      </trkpt>
      <trkpt lat="41.93258" lon="25.58567">
        <ele>218.002245</ele>
        <time>2022-02-27T11:06:20.653Z</time>
      </trkpt>
      <trkpt lat="41.9326" lon="25.5855">
        <ele>217.841823</ele>
        <time>2022-02-27T11:06:23.652Z</time>
      </trkpt>
      <trkpt lat="41.93261" lon="25.58534">
        <ele>217.682961</ele>
        <time>2022-02-27T11:06:26.653Z</time>
      </trkpt>
      <trkpt lat="41.93262" lon="25.58521">
        <ele>217.5587</ele>
        <time>2022-02-27T11:06:28.654Z</time>
      </trkpt>
      <trkpt lat="41.93262" lon="25.58507">
        <ele>217.426409</ele>
        <time>2022-02-27T11:06:30.645Z</time>
      </trkpt>
      <trkpt lat="41.93262" lon="25.58493">
        <ele>217.294018</ele>
        <time>2022-02-27T11:06:32.651Z</time>
      </trkpt>
      <trkpt lat="41.93262" lon="25.58479">
        <ele>217.163623</ele>
        <time>2022-02-27T11:06:34.652Z</time>
      </trkpt>
      <trkpt lat="41.93262" lon="25.58466">
        <ele>217.037035</ele>
        <time>2022-02-27T11:06:36.679Z</time>
      </trkpt>
      <trkpt lat="41.93262" lon="25.58452">
        <ele>216.909704</ele>
        <time>2022-02-27T11:06:38.635Z</time>
      </trkpt>
      <trkpt lat="41.93262" lon="25.58438">
        <ele>216.785277</ele>
        <time>2022-02-27T11:06:40.658Z</time>
      </trkpt>
      <trkpt lat="41.93262" lon="25.58424">
        <ele>216.665036</ele>
        <time>2022-02-27T11:06:42.639Z</time>
      </trkpt>
      <trkpt lat="41.93263" lon="25.5841">
        <ele>216.546521</ele>
        <time>2022-02-27T11:06:44.660Z</time>
      </trkpt>
      <trkpt lat="41.93263" lon="25.58398">
        <ele>216.440144</ele>
        <time>2022-02-27T11:06:46.656Z</time>
      </trkpt>
      <trkpt lat="41.93264" lon="25.58386">
        <ele>216.332978</ele>
        <time>2022-02-27T11:06:48.662Z</time>
      </trkpt>
      <trkpt lat="41.93264" lon="25.58368">
        <ele>216.183388</ele>
        <time>2022-02-27T11:06:51.654Z</time>
      </trkpt>
      <trkpt lat="41.93264" lon="25.58351">
        <ele>216.033028</ele>
        <time>2022-02-27T11:06:54.653Z</time>
      </trkpt>
      <trkpt lat="41.93265" lon="25.58336">
        <ele>215.901613</ele>
        <time>2022-02-27T11:06:57.659Z</time>
      </trkpt>
      <trkpt lat="41.93265" lon="25.58321">
        <ele>215.77717</ele>
        <time>2022-02-27T11:07:00.660Z</time>
      </trkpt>
      <trkpt lat="41.93265" lon="25.58305">
        <ele>215.634562</ele>
        <time>2022-02-27T11:07:03.679Z</time>
      </trkpt>
      <trkpt lat="41.93265" lon="25.58288">
        <ele>215.485907</ele>
        <time>2022-02-27T11:07:06.662Z</time>
      </trkpt>
      <trkpt lat="41.93266" lon="25.58271">
        <ele>215.344993</ele>
        <time>2022-02-27T11:07:09.674Z</time>
      </trkpt>
      <trkpt lat="41.93266" lon="25.58255">
        <ele>215.20584</ele>
        <time>2022-02-27T11:07:12.653Z</time>
      </trkpt>
      <trkpt lat="41.93266" lon="25.58239">
        <ele>215.06496</ele>
        <time>2022-02-27T11:07:15.653Z</time>
      </trkpt>
      <trkpt lat="41.93266" lon="25.58221">
        <ele>214.913714</ele>
        <time>2022-02-27T11:07:18.653Z</time>
      </trkpt>
      <trkpt lat="41.93266" lon="25.58209">
        <ele>214.877678</ele>
        <time>2022-02-27T11:07:20.696Z</time>
      </trkpt>
      <trkpt lat="41.93266" lon="25.58192">
        <ele>214.972774</ele>
        <time>2022-02-27T11:07:23.653Z</time>
      </trkpt>
      <trkpt lat="41.93266" lon="25.58174">
        <ele>215.071685</ele>
        <time>2022-02-27T11:07:26.648Z</time>
      </trkpt>
      <trkpt lat="41.93267" lon="25.58156">
        <ele>215.170148</ele>
        <time>2022-02-27T11:07:29.650Z</time>
      </trkpt>
      <trkpt lat="41.93267" lon="25.58143">
        <ele>215.239553</ele>
        <time>2022-02-27T11:07:31.681Z</time>
      </trkpt>
      <trkpt lat="41.93268" lon="25.5813">
        <ele>215.308798</ele>
        <time>2022-02-27T11:07:33.650Z</time>
      </trkpt>
      <trkpt lat="41.93269" lon="25.58117">
        <ele>215.381571</ele>
        <time>2022-02-27T11:07:35.663Z</time>
      </trkpt>
      <trkpt lat="41.93269" lon="25.58104">
        <ele>215.452065</ele>
        <time>2022-02-27T11:07:37.659Z</time>
      </trkpt>
      <trkpt lat="41.93269" lon="25.58091">
        <ele>215.522013</ele>
        <time>2022-02-27T11:07:39.648Z</time>
      </trkpt>
      <trkpt lat="41.93269" lon="25.58075">
        <ele>215.609448</ele>
        <time>2022-02-27T11:07:41.656Z</time>
      </trkpt>
      <trkpt lat="41.93269" lon="25.58059">
        <ele>215.70071</ele>
        <time>2022-02-27T11:07:44.643Z</time>
      </trkpt>
      <trkpt lat="41.93269" lon="25.58046">
        <ele>215.769569</ele>
        <time>2022-02-27T11:07:46.643Z</time>
      </trkpt>
      <trkpt lat="41.93269" lon="25.58033">
        <ele>215.842799</ele>
        <time>2022-02-27T11:07:48.654Z</time>
      </trkpt>
      <trkpt lat="41.93269" lon="25.5802">
        <ele>215.913874</ele>
        <time>2022-02-27T11:07:50.651Z</time>
      </trkpt>
      <trkpt lat="41.9327" lon="25.58007">
        <ele>215.981154</ele>
        <time>2022-02-27T11:07:52.649Z</time>
      </trkpt>
      <trkpt lat="41.9327" lon="25.57994">
        <ele>216.053422</ele>
        <time>2022-02-27T11:07:54.659Z</time>
      </trkpt>
      <trkpt lat="41.93272" lon="25.57978">
        <ele>216.141548</ele>
        <time>2022-02-27T11:07:57.662Z</time>
      </trkpt>
      <trkpt lat="41.93273" lon="25.57961">
        <ele>216.180361</ele>
        <time>2022-02-27T11:08:00.657Z</time>
      </trkpt>
      <trkpt lat="41.93274" lon="25.57949">
        <ele>216.189248</ele>
        <time>2022-02-27T11:08:02.656Z</time>
      </trkpt>
      <trkpt lat="41.93274" lon="25.57937">
        <ele>216.198328</ele>
        <time>2022-02-27T11:08:04.652Z</time>
      </trkpt>
      <trkpt lat="41.93275" lon="25.57925">
        <ele>216.207151</ele>
        <time>2022-02-27T11:08:06.647Z</time>
      </trkpt>
      <trkpt lat="41.93276" lon="25.57912">
        <ele>216.216505</ele>
        <time>2022-02-27T11:08:08.664Z</time>
      </trkpt>
      <trkpt lat="41.93277" lon="25.579">
        <ele>216.225786</ele>
        <time>2022-02-27T11:08:10.716Z</time>
      </trkpt>
      <trkpt lat="41.93278" lon="25.57882">
        <ele>216.238999</ele>
        <time>2022-02-27T11:08:13.662Z</time>
      </trkpt>
      <trkpt lat="41.93279" lon="25.57865">
        <ele>216.251474</ele>
        <time>2022-02-27T11:08:16.678Z</time>
      </trkpt>
      <trkpt lat="41.9328" lon="25.57849">
        <ele>216.263044</ele>
        <time>2022-02-27T11:08:19.651Z</time>
      </trkpt>
      <trkpt lat="41.9328" lon="25.57833">
        <ele>216.274463</ele>
        <time>2022-02-27T11:08:22.698Z</time>
      </trkpt>
      <trkpt lat="41.9328" lon="25.57819">
        <ele>216.284488</ele>
        <time>2022-02-27T11:08:25.631Z</time>
      </trkpt>
      <trkpt lat="41.93281" lon="25.57805">
        <ele>216.294734</ele>
        <time>2022-02-27T11:08:28.636Z</time>
      </trkpt>
      <trkpt lat="41.93281" lon="25.57792">
        <ele>216.304395</ele>
        <time>2022-02-27T11:08:31.650Z</time>
      </trkpt>
      <trkpt lat="41.93281" lon="25.57776">
        <ele>216.316034</ele>
        <time>2022-02-27T11:08:35.635Z</time>
      </trkpt>
      <trkpt lat="41.93282" lon="25.5776">
        <ele>216.327676</ele>
        <time>2022-02-27T11:08:39.656Z</time>
      </trkpt>
      <trkpt lat="41.93283" lon="25.57745">
        <ele>216.339256</ele>
        <time>2022-02-27T11:08:43.657Z</time>
      </trkpt>
      <trkpt lat="41.93283" lon="25.5773">
        <ele>216.367778</ele>
        <time>2022-02-27T11:08:47.660Z</time>
      </trkpt>
      <trkpt lat="41.93284" lon="25.57717">
        <ele>216.588498</ele>
        <time>2022-02-27T11:08:51.657Z</time>
      </trkpt>
      <trkpt lat="41.93285" lon="25.57705">
        <ele>216.789233</ele>
        <time>2022-02-27T11:08:55.676Z</time>
      </trkpt>
      <trkpt lat="41.93285" lon="25.57692">
        <ele>216.997762</ele>
        <time>2022-02-27T11:08:59.646Z</time>
      </trkpt>
      <trkpt lat="41.93286" lon="25.57679">
        <ele>217.210314</ele>
        <time>2022-02-27T11:09:03.652Z</time>
      </trkpt>
      <trkpt lat="41.93287" lon="25.57666">
        <ele>217.429611</ele>
        <time>2022-02-27T11:09:08.657Z</time>
      </trkpt>
      <trkpt lat="41.93288" lon="25.57651">
        <ele>217.674403</ele>
        <time>2022-02-27T11:09:13.644Z</time>
      </trkpt>
      <trkpt lat="41.93288" lon="25.57636">
        <ele>217.919084</ele>
        <time>2022-02-27T11:09:18.663Z</time>
      </trkpt>
      <trkpt lat="41.93289" lon="25.57624">
        <ele>218.11789</ele>
        <time>2022-02-27T11:09:22.656Z</time>
      </trkpt>
      <trkpt lat="41.93289" lon="25.57609">
        <ele>218.357442</ele>
        <time>2022-02-27T11:09:27.682Z</time>
      </trkpt>
      <trkpt lat="41.93289" lon="25.57597">
        <ele>218.567611</ele>
        <time>2022-02-27T11:09:31.643Z</time>
      </trkpt>
      <trkpt lat="41.9329" lon="25.57582">
        <ele>218.804099</ele>
        <time>2022-02-27T11:09:35.648Z</time>
      </trkpt>
      <trkpt lat="41.9329" lon="25.57569">
        <ele>219.020744</ele>
        <time>2022-02-27T11:09:39.710Z</time>
      </trkpt>
      <trkpt lat="41.93291" lon="25.57554">
        <ele>219.269643</ele>
        <time>2022-02-27T11:09:44.654Z</time>
      </trkpt>
      <trkpt lat="41.93292" lon="25.57541">
        <ele>219.485101</ele>
        <time>2022-02-27T11:09:48.663Z</time>
      </trkpt>
      <trkpt lat="41.93293" lon="25.57527">
        <ele>219.708481</ele>
        <time>2022-02-27T11:09:52.673Z</time>
      </trkpt>
      <trkpt lat="41.93294" lon="25.57513">
        <ele>219.936676</ele>
        <time>2022-02-27T11:09:56.634Z</time>
      </trkpt>
      <trkpt lat="41.93295" lon="25.57501">
        <ele>220.135958</ele>
        <time>2022-02-27T11:09:59.654Z</time>
      </trkpt>
      <trkpt lat="41.93295" lon="25.57486">
        <ele>220.274048</ele>
        <time>2022-02-27T11:10:03.650Z</time>
      </trkpt>
      <trkpt lat="41.93296" lon="25.57474">
        <ele>220.151041</ele>
        <time>2022-02-27T11:10:06.650Z</time>
      </trkpt>
      <trkpt lat="41.93296" lon="25.57461">
        <ele>220.021853</ele>
        <time>2022-02-27T11:10:09.642Z</time>
      </trkpt>
      <trkpt lat="41.93296" lon="25.57448">
        <ele>219.887823</ele>
        <time>2022-02-27T11:10:12.695Z</time>
      </trkpt>
      <trkpt lat="41.93297" lon="25.57434">
        <ele>219.747752</ele>
        <time>2022-02-27T11:10:15.671Z</time>
      </trkpt>
      <trkpt lat="41.93297" lon="25.5742">
        <ele>219.602545</ele>
        <time>2022-02-27T11:10:18.663Z</time>
      </trkpt>
      <trkpt lat="41.93298" lon="25.57406">
        <ele>219.460286</ele>
        <time>2022-02-27T11:10:21.664Z</time>
      </trkpt>
      <trkpt lat="41.93298" lon="25.57391">
        <ele>219.318099</ele>
        <time>2022-02-27T11:10:24.672Z</time>
      </trkpt>
      <trkpt lat="41.93299" lon="25.57377">
        <ele>219.167916</ele>
        <time>2022-02-27T11:10:27.669Z</time>
      </trkpt>
      <trkpt lat="41.93299" lon="25.57361">
        <ele>219.012505</ele>
        <time>2022-02-27T11:10:30.661Z</time>
      </trkpt>
      <trkpt lat="41.93301" lon="25.57344">
        <ele>218.840498</ele>
        <time>2022-02-27T11:10:33.658Z</time>
      </trkpt>
      <trkpt lat="41.93301" lon="25.57327">
        <ele>218.66605</ele>
        <time>2022-02-27T11:10:36.672Z</time>
      </trkpt>
      <trkpt lat="41.93302" lon="25.57311">
        <ele>218.503674</ele>
        <time>2022-02-27T11:10:39.662Z</time>
      </trkpt>
      <trkpt lat="41.93303" lon="25.57295">
        <ele>218.346837</ele>
        <time>2022-02-27T11:10:42.678Z</time>
      </trkpt>
      <trkpt lat="41.93304" lon="25.57278">
        <ele>218.175956</ele>
        <time>2022-02-27T11:10:45.658Z</time>
      </trkpt>
      <trkpt lat="41.93306" lon="25.57262">
        <ele>218.008349</ele>
        <time>2022-02-27T11:10:48.658Z</time>
      </trkpt>
      <trkpt lat="41.93307" lon="25.5725">
        <ele>217.883716</ele>
        <time>2022-02-27T11:10:50.658Z</time>
      </trkpt>
      <trkpt lat="41.93307" lon="25.57235">
        <ele>217.399194</ele>
        <time>2022-02-27T11:10:52.649Z</time>
      </trkpt>
      <trkpt lat="41.93308" lon="25.57218">
        <ele>216.824864</ele>
        <time>2022-02-27T11:10:54.647Z</time>
      </trkpt>
      <trkpt lat="41.93308" lon="25.57199">
        <ele>216.196709</ele>
        <time>2022-02-27T11:10:56.640Z</time>
      </trkpt>
      <trkpt lat="41.93309" lon="25.57179">
        <ele>215.521006</ele>
        <time>2022-02-27T11:10:58.677Z</time>
      </trkpt>
      <trkpt lat="41.9331" lon="25.57161">
        <ele>214.885323</ele>
        <time>2022-02-27T11:11:00.659Z</time>
      </trkpt>
      <trkpt lat="41.9331" lon="25.57142">
        <ele>214.242628</ele>
        <time>2022-02-27T11:11:02.651Z</time>
      </trkpt>
      <trkpt lat="41.93311" lon="25.57122">
        <ele>213.579718</ele>
        <time>2022-02-27T11:11:04.664Z</time>
      </trkpt>
      <trkpt lat="41.93312" lon="25.57102">
        <ele>212.903041</ele>
        <time>2022-02-27T11:11:06.654Z</time>
      </trkpt>
      <trkpt lat="41.93314" lon="25.57083">
        <ele>212.268584</ele>
        <time>2022-02-27T11:11:08.678Z</time>
      </trkpt>
      <trkpt lat="41.93315" lon="25.57067">
        <ele>211.722364</ele>
        <time>2022-02-27T11:11:10.637Z</time>
      </trkpt>
      <trkpt lat="41.93316" lon="25.57052">
        <ele>211.213544</ele>
        <time>2022-02-27T11:11:12.652Z</time>
      </trkpt>
      <trkpt lat="41.93317" lon="25.57037">
        <ele>210.707108</ele>
        <time>2022-02-27T11:11:14.704Z</time>
      </trkpt>
      <trkpt lat="41.93318" lon="25.57023">
        <ele>210.215083</ele>
        <time>2022-02-27T11:11:16.633Z</time>
      </trkpt>
      <trkpt lat="41.93319" lon="25.57008">
        <ele>209.71937</ele>
        <time>2022-02-27T11:11:18.649Z</time>
      </trkpt>
      <trkpt lat="41.9332" lon="25.56993">
        <ele>209.93922</ele>
        <time>2022-02-27T11:11:20.680Z</time>
      </trkpt>
      <trkpt lat="41.93319" lon="25.5698">
        <ele>210.145196</ele>
        <time>2022-02-27T11:11:22.642Z</time>
      </trkpt>
      <trkpt lat="41.93318" lon="25.56966">
        <ele>210.355099</ele>
        <time>2022-02-27T11:11:24.649Z</time>
      </trkpt>
      <trkpt lat="41.93317" lon="25.5695">
        <ele>210.605771</ele>
        <time>2022-02-27T11:11:27.661Z</time>
      </trkpt>
      <trkpt lat="41.93314" lon="25.56935">
        <ele>210.831697</ele>
        <time>2022-02-27T11:11:30.661Z</time>
      </trkpt>
      <trkpt lat="41.93311" lon="25.56922">
        <ele>211.039492</ele>
        <time>2022-02-27T11:11:33.739Z</time>
      </trkpt>
      <trkpt lat="41.93308" lon="25.56909">
        <ele>211.250943</ele>
        <time>2022-02-27T11:11:37.652Z</time>
      </trkpt>
      <trkpt lat="41.93302" lon="25.56889">
        <ele>211.575908</ele>
        <time>2022-02-27T11:11:58.640Z</time>
      </trkpt>
      <trkpt lat="41.93298" lon="25.56873">
        <ele>211.824925</ele>
        <time>2022-02-27T11:12:02.644Z</time>
      </trkpt>
      <trkpt lat="41.93294" lon="25.56861">
        <ele>212.025153</ele>
        <time>2022-02-27T11:12:05.657Z</time>
      </trkpt>
      <trkpt lat="41.93289" lon="25.5685">
        <ele>212.222818</ele>
        <time>2022-02-27T11:12:08.643Z</time>
      </trkpt>
      <trkpt lat="41.93284" lon="25.56837">
        <ele>212.441372</ele>
        <time>2022-02-27T11:12:11.666Z</time>
      </trkpt>
      <trkpt lat="41.93277" lon="25.56823">
        <ele>212.691939</ele>
        <time>2022-02-27T11:12:14.690Z</time>
      </trkpt>
      <trkpt lat="41.93271" lon="25.56808">
        <ele>212.950822</ele>
        <time>2022-02-27T11:12:17.668Z</time>
      </trkpt>
      <trkpt lat="41.93264" lon="25.56793">
        <ele>213.228183</ele>
        <time>2022-02-27T11:12:20.661Z</time>
      </trkpt>
      <trkpt lat="41.93259" lon="25.56782">
        <ele>213.39027</ele>
        <time>2022-02-27T11:12:22.633Z</time>
      </trkpt>
      <trkpt lat="41.93254" lon="25.56771">
        <ele>213.44097</ele>
        <time>2022-02-27T11:12:24.693Z</time>
      </trkpt>
      <trkpt lat="41.93249" lon="25.56761">
        <ele>213.491972</ele>
        <time>2022-02-27T11:12:26.696Z</time>
      </trkpt>
      <trkpt lat="41.93244" lon="25.5675">
        <ele>213.543787</ele>
        <time>2022-02-27T11:12:28.642Z</time>
      </trkpt>
      <trkpt lat="41.9324" lon="25.5674">
        <ele>213.594605</ele>
        <time>2022-02-27T11:12:30.646Z</time>
      </trkpt>
      <trkpt lat="41.93235" lon="25.56729">
        <ele>213.648206</ele>
        <time>2022-02-27T11:12:32.704Z</time>
      </trkpt>
      <trkpt lat="41.9323" lon="25.56718">
        <ele>213.699379</ele>
        <time>2022-02-27T11:12:34.646Z</time>
      </trkpt>
      <trkpt lat="41.93225" lon="25.56707">
        <ele>213.755424</ele>
        <time>2022-02-27T11:12:36.650Z</time>
      </trkpt>
      <trkpt lat="41.93218" lon="25.56692">
        <ele>213.826856</ele>
        <time>2022-02-27T11:12:39.637Z</time>
      </trkpt>
      <trkpt lat="41.93212" lon="25.56677">
        <ele>213.897748</ele>
        <time>2022-02-27T11:12:42.651Z</time>
      </trkpt>
      <trkpt lat="41.93208" lon="25.56666">
        <ele>213.948769</ele>
        <time>2022-02-27T11:12:44.645Z</time>
      </trkpt>
      <trkpt lat="41.93203" lon="25.56653">
        <ele>214.008336</ele>
        <time>2022-02-27T11:12:46.644Z</time>
      </trkpt>
      <trkpt lat="41.93197" lon="25.5664">
        <ele>214.071988</ele>
        <time>2022-02-27T11:12:48.657Z</time>
      </trkpt>
      <trkpt lat="41.93193" lon="25.56627">
        <ele>214.131555</ele>
        <time>2022-02-27T11:12:50.660Z</time>
      </trkpt>
      <trkpt lat="41.93188" lon="25.56615">
        <ele>214.186544</ele>
        <time>2022-02-27T11:12:52.641Z</time>
      </trkpt>
      <trkpt lat="41.93184" lon="25.56604">
        <ele>214.239961</ele>
        <time>2022-02-27T11:12:54.677Z</time>
      </trkpt>
      <trkpt lat="41.93178" lon="25.56589">
        <ele>214.310066</ele>
        <time>2022-02-27T11:12:57.650Z</time>
      </trkpt>
      <trkpt lat="41.93174" lon="25.56577">
        <ele>214.36177</ele>
        <time>2022-02-27T11:12:59.643Z</time>
      </trkpt>
      <trkpt lat="41.93172" lon="25.56564">
        <ele>214.556213</ele>
        <time>2022-02-27T11:13:01.638Z</time>
      </trkpt>
      <trkpt lat="41.9317" lon="25.56552">
        <ele>214.801518</ele>
        <time>2022-02-27T11:13:03.667Z</time>
      </trkpt>
      <trkpt lat="41.93168" lon="25.56536">
        <ele>215.130306</ele>
        <time>2022-02-27T11:13:06.644Z</time>
      </trkpt>
      <trkpt lat="41.93167" lon="25.56519">
        <ele>215.478871</ele>
        <time>2022-02-27T11:13:09.658Z</time>
      </trkpt>
      <trkpt lat="41.93168" lon="25.56506">
        <ele>215.727324</ele>
        <time>2022-02-27T11:13:11.705Z</time>
      </trkpt>
      <trkpt lat="41.93168" lon="25.5649">
        <ele>216.059762</ele>
        <time>2022-02-27T11:13:14.669Z</time>
      </trkpt>
      <trkpt lat="41.93171" lon="25.56477">
        <ele>216.323129</ele>
        <time>2022-02-27T11:13:17.652Z</time>
      </trkpt>
      <trkpt lat="41.93175" lon="25.56461">
        <ele>216.661671</ele>
        <time>2022-02-27T11:13:20.646Z</time>
      </trkpt>
      <trkpt lat="41.93178" lon="25.56449">
        <ele>216.911001</ele>
        <time>2022-02-27T11:13:22.672Z</time>
      </trkpt>
      <trkpt lat="41.93181" lon="25.56436">
        <ele>217.188584</ele>
        <time>2022-02-27T11:13:24.650Z</time>
      </trkpt>
      <trkpt lat="41.93184" lon="25.56424">
        <ele>217.449118</ele>
        <time>2022-02-27T11:13:26.688Z</time>
      </trkpt>
      <trkpt lat="41.93188" lon="25.56408">
        <ele>217.785582</ele>
        <time>2022-02-27T11:13:29.651Z</time>
      </trkpt>
      <trkpt lat="41.93192" lon="25.56392">
        <ele>218.117389</ele>
        <time>2022-02-27T11:13:32.661Z</time>
      </trkpt>
      <trkpt lat="41.93196" lon="25.56378">
        <ele>218.420999</ele>
        <time>2022-02-27T11:13:35.657Z</time>
      </trkpt>
      <trkpt lat="41.93201" lon="25.56363">
        <ele>218.732851</ele>
        <time>2022-02-27T11:13:38.654Z</time>
      </trkpt>
      <trkpt lat="41.93205" lon="25.56351">
        <ele>219.004692</ele>
        <time>2022-02-27T11:13:41.652Z</time>
      </trkpt>
      <trkpt lat="41.93209" lon="25.56338">
        <ele>219.154819</ele>
        <time>2022-02-27T11:13:44.695Z</time>
      </trkpt>
      <trkpt lat="41.93213" lon="25.56322">
        <ele>218.852639</ele>
        <time>2022-02-27T11:13:47.663Z</time>
      </trkpt>
      <trkpt lat="41.93217" lon="25.56307">
        <ele>218.56051</ele>
        <time>2022-02-27T11:13:50.654Z</time>
      </trkpt>
      <trkpt lat="41.93222" lon="25.56291">
        <ele>218.254191</ele>
        <time>2022-02-27T11:13:53.631Z</time>
      </trkpt>
      <trkpt lat="41.93227" lon="25.56279">
        <ele>218.018934</ele>
        <time>2022-02-27T11:13:55.681Z</time>
      </trkpt>
      <trkpt lat="41.9323" lon="25.56268">
        <ele>217.792544</ele>
        <time>2022-02-27T11:13:57.655Z</time>
      </trkpt>
      <trkpt lat="41.93234" lon="25.56256">
        <ele>217.563548</ele>
        <time>2022-02-27T11:13:59.651Z</time>
      </trkpt>
      <trkpt lat="41.93238" lon="25.56245">
        <ele>217.348383</ele>
        <time>2022-02-27T11:14:01.646Z</time>
      </trkpt>
      <trkpt lat="41.93242" lon="25.56229">
        <ele>217.046123</ele>
        <time>2022-02-27T11:14:04.641Z</time>
      </trkpt>
      <trkpt lat="41.93246" lon="25.56213">
        <ele>216.744736</ele>
        <time>2022-02-27T11:14:07.662Z</time>
      </trkpt>
      <trkpt lat="41.93251" lon="25.56198">
        <ele>216.445772</ele>
        <time>2022-02-27T11:14:10.644Z</time>
      </trkpt>
      <trkpt lat="41.93256" lon="25.56182">
        <ele>216.145153</ele>
        <time>2022-02-27T11:14:13.644Z</time>
      </trkpt>
      <trkpt lat="41.9326" lon="25.56167">
        <ele>215.856367</ele>
        <time>2022-02-27T11:14:16.663Z</time>
      </trkpt>
      <trkpt lat="41.93265" lon="25.56153">
        <ele>215.578768</ele>
        <time>2022-02-27T11:14:19.639Z</time>
      </trkpt>
      <trkpt lat="41.9327" lon="25.56138">
        <ele>215.288036</ele>
        <time>2022-02-27T11:14:22.648Z</time>
      </trkpt>
      <trkpt lat="41.93276" lon="25.56123">
        <ele>214.986987</ele>
        <time>2022-02-27T11:14:25.656Z</time>
      </trkpt>
      <trkpt lat="41.9328" lon="25.56112">
        <ele>215.287119</ele>
        <time>2022-02-27T11:14:27.661Z</time>
      </trkpt>
      <trkpt lat="41.93287" lon="25.56096">
        <ele>216.211754</ele>
        <time>2022-02-27T11:14:30.656Z</time>
      </trkpt>
      <trkpt lat="41.93293" lon="25.5608">
        <ele>217.134091</ele>
        <time>2022-02-27T11:14:33.766Z</time>
      </trkpt>
      <trkpt lat="41.93298" lon="25.56069">
        <ele>217.780164</ele>
        <time>2022-02-27T11:14:35.652Z</time>
      </trkpt>
      <trkpt lat="41.93303" lon="25.56055">
        <ele>218.607579</ele>
        <time>2022-02-27T11:14:38.648Z</time>
      </trkpt>
      <trkpt lat="41.93309" lon="25.56041">
        <ele>219.394815</ele>
        <time>2022-02-27T11:14:41.661Z</time>
      </trkpt>
      <trkpt lat="41.93316" lon="25.56029">
        <ele>220.195575</ele>
        <time>2022-02-27T11:14:44.677Z</time>
      </trkpt>
      <trkpt lat="41.9332" lon="25.56016">
        <ele>220.907362</ele>
        <time>2022-02-27T11:14:47.683Z</time>
      </trkpt>
      <trkpt lat="41.93325" lon="25.56003">
        <ele>221.665881</ele>
        <time>2022-02-27T11:14:50.681Z</time>
      </trkpt>
      <trkpt lat="41.9333" lon="25.55987">
        <ele>222.54678</ele>
        <time>2022-02-27T11:14:53.645Z</time>
      </trkpt>
      <trkpt lat="41.93334" lon="25.55974">
        <ele>223.273204</ele>
        <time>2022-02-27T11:14:56.672Z</time>
      </trkpt>
      <trkpt lat="41.93337" lon="25.55959">
        <ele>224.033449</ele>
        <time>2022-02-27T11:14:59.642Z</time>
      </trkpt>
      <trkpt lat="41.9334" lon="25.55946">
        <ele>224.75118</ele>
        <time>2022-02-27T11:15:02.679Z</time>
      </trkpt>
      <trkpt lat="41.93343" lon="25.55934">
        <ele>225.388544</ele>
        <time>2022-02-27T11:15:05.657Z</time>
      </trkpt>
      <trkpt lat="41.93347" lon="25.55919">
        <ele>226.184487</ele>
        <time>2022-02-27T11:15:09.693Z</time>
      </trkpt>
      <trkpt lat="41.9335" lon="25.55908">
        <ele>226.812609</ele>
        <time>2022-02-27T11:15:12.656Z</time>
      </trkpt>
      <trkpt lat="41.93355" lon="25.55896">
        <ele>227.262453</ele>
        <time>2022-02-27T11:15:16.698Z</time>
      </trkpt>
      <trkpt lat="41.93364" lon="25.55891">
        <ele>227.262453</ele>
        <time>2022-02-27T11:15:22.682Z</time>
      </trkpt>
      <trkpt lat="41.93372" lon="25.55885">
        <ele>227.262453</ele>
        <time>2022-02-27T11:15:27.680Z</time>
      </trkpt>
      <trkpt lat="41.93379" lon="25.55876">
        <ele>227.262453</ele>
        <time>2022-02-27T11:15:32.694Z</time>
      </trkpt>
      <trkpt lat="41.93367" lon="25.55873">
        <ele>227.262453</ele>
        <time>2022-02-27T11:15:41.676Z</time>
      </trkpt>
      <trkpt lat="41.93358" lon="25.55868">
        <ele>227.262453</ele>
        <time>2022-02-27T11:15:44.684Z</time>
      </trkpt>
      <trkpt lat="41.93359" lon="25.55855">
        <ele>227.262453</ele>
        <time>2022-02-27T11:15:48.672Z</time>
      </trkpt>
      <trkpt lat="41.93363" lon="25.55842">
        <ele>227.262453</ele>
        <time>2022-02-27T11:15:54.656Z</time>
      </trkpt>
      <trkpt lat="41.9336" lon="25.55828">
        <ele>227.262453</ele>
        <time>2022-02-27T11:16:07.654Z</time>
      </trkpt>
      <trkpt lat="41.93363" lon="25.55815">
        <ele>227.262453</ele>
        <time>2022-02-27T11:16:11.661Z</time>
      </trkpt>
      <trkpt lat="41.93367" lon="25.55802">
        <ele>227.262453</ele>
        <time>2022-02-27T11:16:16.625Z</time>
      </trkpt>
      <trkpt lat="41.93371" lon="25.5579">
        <ele>227.262453</ele>
        <time>2022-02-27T11:16:21.636Z</time>
      </trkpt>
      <trkpt lat="41.93382" lon="25.55781">
        <ele>227.262453</ele>
        <time>2022-02-27T11:19:00.871Z</time>
      </trkpt>
    </trkseg>
  </trk>
</gpx>